<?xml version="1.0" encoding="UTF-8" standalone="no" ?>
<gpx xmlns="http://www.topografix.com/GPX/1/1" xmlns:xsi="http://www.w3.org/2001/XMLSchema-instance" xsi:schemaLocation="http://www.topografix.com/GPX/1/1 http://www.topografix.com/GPX/1/1/gpx.xsd" version="1.1" creator="VisuGPX - https://www.visugpx.com">
  <metadata>
    <name>Rando pédestre Venterol la montagne des Vaux</name>
    <desc><![CDATA[Rando pédestre au départ de Venterol (Drôme) en direction de la crête de la montagne des Vaux par un beau canyon au dessus de Venterol, et un autre à la descente dans les grès avant Combe Sauve.]]></desc>
  </metadata>
  <trk>
    <name><![CDATA[VENTEROL LES VAUX]]></name>
    <trkseg>
      <trkpt lat="44.39087" lon="5.09779">
        <ele>335.64</ele>
        <time>2011-03-31T07:14:08Z</time>
      </trkpt>
      <trkpt lat="44.39088" lon="5.0978">
        <ele>333.71</ele>
        <time>2011-03-31T07:14:09Z</time>
      </trkpt>
      <trkpt lat="44.39088" lon="5.09782">
        <ele>330.35</ele>
        <time>2011-03-31T07:14:12Z</time>
      </trkpt>
      <trkpt lat="44.39088" lon="5.09783">
        <ele>334.2</ele>
        <time>2011-03-31T07:14:13Z</time>
      </trkpt>
      <trkpt lat="44.39089" lon="5.09785">
        <ele>341.41</ele>
        <time>2011-03-31T07:14:14Z</time>
      </trkpt>
      <trkpt lat="44.39089" lon="5.09787">
        <ele>331.31</ele>
        <time>2011-03-31T07:14:15Z</time>
      </trkpt>
      <trkpt lat="44.3909" lon="5.09788">
        <ele>329.39</ele>
        <time>2011-03-31T07:14:16Z</time>
      </trkpt>
      <trkpt lat="44.3909" lon="5.0979">
        <ele>334.68</ele>
        <time>2011-03-31T07:14:17Z</time>
      </trkpt>
      <trkpt lat="44.3909" lon="5.09791">
        <ele>331.31</ele>
        <time>2011-03-31T07:14:18Z</time>
      </trkpt>
      <trkpt lat="44.39091" lon="5.09792">
        <ele>334.68</ele>
        <time>2011-03-31T07:14:19Z</time>
      </trkpt>
      <trkpt lat="44.39092" lon="5.09798">
        <ele>340.92</ele>
        <time>2011-03-31T07:14:25Z</time>
      </trkpt>
      <trkpt lat="44.39092" lon="5.09799">
        <ele>329.39</ele>
        <time>2011-03-31T07:14:26Z</time>
      </trkpt>
      <trkpt lat="44.39093" lon="5.098">
        <ele>335.64</ele>
        <time>2011-03-31T07:14:27Z</time>
      </trkpt>
      <trkpt lat="44.39093" lon="5.09801">
        <ele>330.35</ele>
        <time>2011-03-31T07:14:28Z</time>
      </trkpt>
      <trkpt lat="44.39093" lon="5.09801">
        <ele>335.16</ele>
        <time>2011-03-31T07:14:29Z</time>
      </trkpt>
      <trkpt lat="44.39093" lon="5.09801">
        <ele>332.27</ele>
        <time>2011-03-31T07:14:30Z</time>
      </trkpt>
      <trkpt lat="44.39093" lon="5.09801">
        <ele>335.64</ele>
        <time>2011-03-31T07:14:32Z</time>
      </trkpt>
      <trkpt lat="44.39092" lon="5.09797">
        <ele>332.75</ele>
        <time>2011-03-31T07:14:59Z</time>
      </trkpt>
      <trkpt lat="44.39092" lon="5.09797">
        <ele>336.6</ele>
        <time>2011-03-31T07:15:08Z</time>
      </trkpt>
      <trkpt lat="44.39092" lon="5.09797">
        <ele>341.89</ele>
        <time>2011-03-31T07:15:10Z</time>
      </trkpt>
      <trkpt lat="44.39092" lon="5.09797">
        <ele>347.17</ele>
        <time>2011-03-31T07:15:12Z</time>
      </trkpt>
      <trkpt lat="44.39092" lon="5.09797">
        <ele>351.5</ele>
        <time>2011-03-31T07:15:14Z</time>
      </trkpt>
      <trkpt lat="44.39092" lon="5.09797">
        <ele>356.31</ele>
        <time>2011-03-31T07:15:16Z</time>
      </trkpt>
      <trkpt lat="44.39092" lon="5.09797">
        <ele>360.15</ele>
        <time>2011-03-31T07:15:18Z</time>
      </trkpt>
      <trkpt lat="44.39092" lon="5.09797">
        <ele>364</ele>
        <time>2011-03-31T07:15:20Z</time>
      </trkpt>
      <trkpt lat="44.39093" lon="5.09798">
        <ele>367.84</ele>
        <time>2011-03-31T07:15:22Z</time>
      </trkpt>
      <trkpt lat="44.39093" lon="5.09798">
        <ele>371.21</ele>
        <time>2011-03-31T07:15:24Z</time>
      </trkpt>
      <trkpt lat="44.39093" lon="5.09798">
        <ele>374.57</ele>
        <time>2011-03-31T07:15:26Z</time>
      </trkpt>
      <trkpt lat="44.39093" lon="5.09798">
        <ele>377.45</ele>
        <time>2011-03-31T07:15:28Z</time>
      </trkpt>
      <trkpt lat="44.39093" lon="5.09798">
        <ele>380.34</ele>
        <time>2011-03-31T07:15:31Z</time>
      </trkpt>
      <trkpt lat="44.39093" lon="5.09798">
        <ele>383.7</ele>
        <time>2011-03-31T07:15:35Z</time>
      </trkpt>
      <trkpt lat="44.39093" lon="5.09798">
        <ele>387.07</ele>
        <time>2011-03-31T07:15:38Z</time>
      </trkpt>
      <trkpt lat="44.39093" lon="5.09798">
        <ele>390.43</ele>
        <time>2011-03-31T07:15:41Z</time>
      </trkpt>
      <trkpt lat="44.39093" lon="5.09798">
        <ele>394.28</ele>
        <time>2011-03-31T07:15:45Z</time>
      </trkpt>
      <trkpt lat="44.39093" lon="5.09798">
        <ele>396.2</ele>
        <time>2011-03-31T07:15:48Z</time>
      </trkpt>
      <trkpt lat="44.39093" lon="5.09798">
        <ele>399.08</ele>
        <time>2011-03-31T07:15:52Z</time>
      </trkpt>
      <trkpt lat="44.39093" lon="5.09798">
        <ele>402.93</ele>
        <time>2011-03-31T07:15:57Z</time>
      </trkpt>
      <trkpt lat="44.39093" lon="5.09798">
        <ele>404.37</ele>
        <time>2011-03-31T07:16:01Z</time>
      </trkpt>
      <trkpt lat="44.39094" lon="5.09801">
        <ele>405.81</ele>
        <time>2011-03-31T07:16:04Z</time>
      </trkpt>
      <trkpt lat="44.39094" lon="5.09801">
        <ele>407.74</ele>
        <time>2011-03-31T07:16:08Z</time>
      </trkpt>
      <trkpt lat="44.39094" lon="5.09801">
        <ele>411.1</ele>
        <time>2011-03-31T07:16:17Z</time>
      </trkpt>
      <trkpt lat="44.39094" lon="5.09801">
        <ele>414.47</ele>
        <time>2011-03-31T07:16:34Z</time>
      </trkpt>
      <trkpt lat="44.3909" lon="5.09796">
        <ele>417.83</ele>
        <time>2011-03-31T07:17:01Z</time>
      </trkpt>
      <trkpt lat="44.39093" lon="5.09804">
        <ele>417.35</ele>
        <time>2011-03-31T07:17:13Z</time>
      </trkpt>
      <trkpt lat="44.3909" lon="5.098">
        <ele>417.35</ele>
        <time>2011-03-31T07:17:18Z</time>
      </trkpt>
      <trkpt lat="44.39092" lon="5.09802">
        <ele>421.19</ele>
        <time>2011-03-31T07:17:24Z</time>
      </trkpt>
      <trkpt lat="44.39094" lon="5.09802">
        <ele>416.39</ele>
        <time>2011-03-31T07:17:25Z</time>
      </trkpt>
      <trkpt lat="44.39096" lon="5.09812">
        <ele>413.98</ele>
        <time>2011-03-31T07:17:33Z</time>
      </trkpt>
      <trkpt lat="44.39096" lon="5.09812">
        <ele>422.64</ele>
        <time>2011-03-31T07:17:36Z</time>
      </trkpt>
      <trkpt lat="44.39092" lon="5.098">
        <ele>418.31</ele>
        <time>2011-03-31T07:17:37Z</time>
      </trkpt>
      <trkpt lat="44.39099" lon="5.09794">
        <ele>417.83</ele>
        <time>2011-03-31T07:17:44Z</time>
      </trkpt>
      <trkpt lat="44.39104" lon="5.09784">
        <ele>416.39</ele>
        <time>2011-03-31T07:17:51Z</time>
      </trkpt>
      <trkpt lat="44.39107" lon="5.09782">
        <ele>417.83</ele>
        <time>2011-03-31T07:17:54Z</time>
      </trkpt>
      <trkpt lat="44.39109" lon="5.09786">
        <ele>416.39</ele>
        <time>2011-03-31T07:17:57Z</time>
      </trkpt>
      <trkpt lat="44.39119" lon="5.09768">
        <ele>416.39</ele>
        <time>2011-03-31T07:18:06Z</time>
      </trkpt>
      <trkpt lat="44.39118" lon="5.09753">
        <ele>415.43</ele>
        <time>2011-03-31T07:18:12Z</time>
      </trkpt>
      <trkpt lat="44.39124" lon="5.09747">
        <ele>414.47</ele>
        <time>2011-03-31T07:18:18Z</time>
      </trkpt>
      <trkpt lat="44.39123" lon="5.09743">
        <ele>413.5</ele>
        <time>2011-03-31T07:18:24Z</time>
      </trkpt>
      <trkpt lat="44.39124" lon="5.09742">
        <ele>416.87</ele>
        <time>2011-03-31T07:18:54Z</time>
      </trkpt>
      <trkpt lat="44.39124" lon="5.09742">
        <ele>413.02</ele>
        <time>2011-03-31T07:18:57Z</time>
      </trkpt>
      <trkpt lat="44.39119" lon="5.09748">
        <ele>416.39</ele>
        <time>2011-03-31T07:19:00Z</time>
      </trkpt>
      <trkpt lat="44.39112" lon="5.09757">
        <ele>414.47</ele>
        <time>2011-03-31T07:19:07Z</time>
      </trkpt>
      <trkpt lat="44.39109" lon="5.09774">
        <ele>414.95</ele>
        <time>2011-03-31T07:19:14Z</time>
      </trkpt>
      <trkpt lat="44.39106" lon="5.09779">
        <ele>417.35</ele>
        <time>2011-03-31T07:19:19Z</time>
      </trkpt>
      <trkpt lat="44.39105" lon="5.09782">
        <ele>417.35</ele>
        <time>2011-03-31T07:19:20Z</time>
      </trkpt>
      <trkpt lat="44.39101" lon="5.09787">
        <ele>417.35</ele>
        <time>2011-03-31T07:19:26Z</time>
      </trkpt>
      <trkpt lat="44.39101" lon="5.09789">
        <ele>417.35</ele>
        <time>2011-03-31T07:19:27Z</time>
      </trkpt>
      <trkpt lat="44.391" lon="5.09798">
        <ele>416.87</ele>
        <time>2011-03-31T07:19:34Z</time>
      </trkpt>
      <trkpt lat="44.39095" lon="5.09803">
        <ele>418.31</ele>
        <time>2011-03-31T07:19:38Z</time>
      </trkpt>
      <trkpt lat="44.39096" lon="5.09805">
        <ele>413.5</ele>
        <time>2011-03-31T07:19:39Z</time>
      </trkpt>
      <trkpt lat="44.39096" lon="5.09803">
        <ele>418.31</ele>
        <time>2011-03-31T07:19:40Z</time>
      </trkpt>
      <trkpt lat="44.39095" lon="5.09804">
        <ele>413.5</ele>
        <time>2011-03-31T07:20:02Z</time>
      </trkpt>
      <trkpt lat="44.39095" lon="5.09804">
        <ele>426.96</ele>
        <time>2011-03-31T07:20:03Z</time>
      </trkpt>
      <trkpt lat="44.39095" lon="5.09804">
        <ele>420.23</ele>
        <time>2011-03-31T07:20:04Z</time>
      </trkpt>
      <trkpt lat="44.39095" lon="5.09804">
        <ele>408.22</ele>
        <time>2011-03-31T07:20:05Z</time>
      </trkpt>
      <trkpt lat="44.39095" lon="5.09804">
        <ele>426</ele>
        <time>2011-03-31T07:20:06Z</time>
      </trkpt>
      <trkpt lat="44.39095" lon="5.09804">
        <ele>417.83</ele>
        <time>2011-03-31T07:20:07Z</time>
      </trkpt>
      <trkpt lat="44.39095" lon="5.09804">
        <ele>408.7</ele>
        <time>2011-03-31T07:20:17Z</time>
      </trkpt>
      <trkpt lat="44.39095" lon="5.09804">
        <ele>413.02</ele>
        <time>2011-03-31T07:20:18Z</time>
      </trkpt>
      <trkpt lat="44.39095" lon="5.09804">
        <ele>422.16</ele>
        <time>2011-03-31T07:20:19Z</time>
      </trkpt>
      <trkpt lat="44.39095" lon="5.09804">
        <ele>417.83</ele>
        <time>2011-03-31T07:20:20Z</time>
      </trkpt>
      <trkpt lat="44.39094" lon="5.09804">
        <ele>425.52</ele>
        <time>2011-03-31T07:20:32Z</time>
      </trkpt>
      <trkpt lat="44.39094" lon="5.09804">
        <ele>418.79</ele>
        <time>2011-03-31T07:20:33Z</time>
      </trkpt>
      <trkpt lat="44.39094" lon="5.09804">
        <ele>417.83</ele>
        <time>2011-03-31T07:20:35Z</time>
      </trkpt>
      <trkpt lat="44.39094" lon="5.09804">
        <ele>423.12</ele>
        <time>2011-03-31T07:20:37Z</time>
      </trkpt>
      <trkpt lat="44.39094" lon="5.09804">
        <ele>418.31</ele>
        <time>2011-03-31T07:20:38Z</time>
      </trkpt>
      <trkpt lat="44.39094" lon="5.09807">
        <ele>418.31</ele>
        <time>2011-03-31T07:20:53Z</time>
      </trkpt>
      <trkpt lat="44.39098" lon="5.09809">
        <ele>418.79</ele>
        <time>2011-03-31T07:21:03Z</time>
      </trkpt>
      <trkpt lat="44.39093" lon="5.0981">
        <ele>418.79</ele>
        <time>2011-03-31T07:21:08Z</time>
      </trkpt>
      <trkpt lat="44.39091" lon="5.09823">
        <ele>412.06</ele>
        <time>2011-03-31T07:21:17Z</time>
      </trkpt>
      <trkpt lat="44.39091" lon="5.09823">
        <ele>419.27</ele>
        <time>2011-03-31T07:21:18Z</time>
      </trkpt>
      <trkpt lat="44.3909" lon="5.09823">
        <ele>421.19</ele>
        <time>2011-03-31T07:21:19Z</time>
      </trkpt>
      <trkpt lat="44.39088" lon="5.09826">
        <ele>416.39</ele>
        <time>2011-03-31T07:21:21Z</time>
      </trkpt>
      <trkpt lat="44.39087" lon="5.09827">
        <ele>420.23</ele>
        <time>2011-03-31T07:21:22Z</time>
      </trkpt>
      <trkpt lat="44.39082" lon="5.09825">
        <ele>417.35</ele>
        <time>2011-03-31T07:21:27Z</time>
      </trkpt>
      <trkpt lat="44.39084" lon="5.0983">
        <ele>398.12</ele>
        <time>2011-03-31T07:21:29Z</time>
      </trkpt>
      <trkpt lat="44.39083" lon="5.09832">
        <ele>421.19</ele>
        <time>2011-03-31T07:21:30Z</time>
      </trkpt>
      <trkpt lat="44.39082" lon="5.09833">
        <ele>416.87</ele>
        <time>2011-03-31T07:21:31Z</time>
      </trkpt>
      <trkpt lat="44.39084" lon="5.09837">
        <ele>424.56</ele>
        <time>2011-03-31T07:21:34Z</time>
      </trkpt>
      <trkpt lat="44.39084" lon="5.09837">
        <ele>410.62</ele>
        <time>2011-03-31T07:21:35Z</time>
      </trkpt>
      <trkpt lat="44.39084" lon="5.09837">
        <ele>419.75</ele>
        <time>2011-03-31T07:21:36Z</time>
      </trkpt>
      <trkpt lat="44.39084" lon="5.09836">
        <ele>423.6</ele>
        <time>2011-03-31T07:21:41Z</time>
      </trkpt>
      <trkpt lat="44.39082" lon="5.09837">
        <ele>418.79</ele>
        <time>2011-03-31T07:21:42Z</time>
      </trkpt>
      <trkpt lat="44.39082" lon="5.09837">
        <ele>415.43</ele>
        <time>2011-03-31T07:21:43Z</time>
      </trkpt>
      <trkpt lat="44.39082" lon="5.09837">
        <ele>419.27</ele>
        <time>2011-03-31T07:21:44Z</time>
      </trkpt>
      <trkpt lat="44.39082" lon="5.09837">
        <ele>425.04</ele>
        <time>2011-03-31T07:21:45Z</time>
      </trkpt>
      <trkpt lat="44.39082" lon="5.09837">
        <ele>419.27</ele>
        <time>2011-03-31T07:21:46Z</time>
      </trkpt>
      <trkpt lat="44.3908" lon="5.09847">
        <ele>418.79</ele>
        <time>2011-03-31T07:22:07Z</time>
      </trkpt>
      <trkpt lat="44.39069" lon="5.09856">
        <ele>418.79</ele>
        <time>2011-03-31T07:22:17Z</time>
      </trkpt>
      <trkpt lat="44.39069" lon="5.09857">
        <ele>418.79</ele>
        <time>2011-03-31T07:22:25Z</time>
      </trkpt>
      <trkpt lat="44.39067" lon="5.09864">
        <ele>420.71</ele>
        <time>2011-03-31T07:22:30Z</time>
      </trkpt>
      <trkpt lat="44.3906" lon="5.09875">
        <ele>418.31</ele>
        <time>2011-03-31T07:22:37Z</time>
      </trkpt>
      <trkpt lat="44.39059" lon="5.09878">
        <ele>417.83</ele>
        <time>2011-03-31T07:22:39Z</time>
      </trkpt>
      <trkpt lat="44.39056" lon="5.09884">
        <ele>418.31</ele>
        <time>2011-03-31T07:22:47Z</time>
      </trkpt>
      <trkpt lat="44.3906" lon="5.09887">
        <ele>417.83</ele>
        <time>2011-03-31T07:22:55Z</time>
      </trkpt>
      <trkpt lat="44.39058" lon="5.0988">
        <ele>418.31</ele>
        <time>2011-03-31T07:23:01Z</time>
      </trkpt>
      <trkpt lat="44.39058" lon="5.09881">
        <ele>414.95</ele>
        <time>2011-03-31T07:23:23Z</time>
      </trkpt>
      <trkpt lat="44.39058" lon="5.09881">
        <ele>420.71</ele>
        <time>2011-03-31T07:23:24Z</time>
      </trkpt>
      <trkpt lat="44.39057" lon="5.09882">
        <ele>417.83</ele>
        <time>2011-03-31T07:23:31Z</time>
      </trkpt>
      <trkpt lat="44.3906" lon="5.09883">
        <ele>418.31</ele>
        <time>2011-03-31T07:25:06Z</time>
      </trkpt>
      <trkpt lat="44.39049" lon="5.0989">
        <ele>418.31</ele>
        <time>2011-03-31T07:25:32Z</time>
      </trkpt>
      <trkpt lat="44.39043" lon="5.09897">
        <ele>418.31</ele>
        <time>2011-03-31T07:25:40Z</time>
      </trkpt>
      <trkpt lat="44.39041" lon="5.09895">
        <ele>418.31</ele>
        <time>2011-03-31T07:25:46Z</time>
      </trkpt>
      <trkpt lat="44.39036" lon="5.09908">
        <ele>417.83</ele>
        <time>2011-03-31T07:25:51Z</time>
      </trkpt>
      <trkpt lat="44.39033" lon="5.09907">
        <ele>418.31</ele>
        <time>2011-03-31T07:25:59Z</time>
      </trkpt>
      <trkpt lat="44.3903" lon="5.09908">
        <ele>418.79</ele>
        <time>2011-03-31T07:26:07Z</time>
      </trkpt>
      <trkpt lat="44.39019" lon="5.09905">
        <ele>418.79</ele>
        <time>2011-03-31T07:26:19Z</time>
      </trkpt>
      <trkpt lat="44.39018" lon="5.09921">
        <ele>418.79</ele>
        <time>2011-03-31T07:26:22Z</time>
      </trkpt>
      <trkpt lat="44.39013" lon="5.09917">
        <ele>419.75</ele>
        <time>2011-03-31T07:26:30Z</time>
      </trkpt>
      <trkpt lat="44.39003" lon="5.09929">
        <ele>419.75</ele>
        <time>2011-03-31T07:26:37Z</time>
      </trkpt>
      <trkpt lat="44.38992" lon="5.09935">
        <ele>420.23</ele>
        <time>2011-03-31T07:26:44Z</time>
      </trkpt>
      <trkpt lat="44.38991" lon="5.09939">
        <ele>420.23</ele>
        <time>2011-03-31T07:26:50Z</time>
      </trkpt>
      <trkpt lat="44.3899" lon="5.09942">
        <ele>420.71</ele>
        <time>2011-03-31T07:26:51Z</time>
      </trkpt>
      <trkpt lat="44.38985" lon="5.09945">
        <ele>420.71</ele>
        <time>2011-03-31T07:26:59Z</time>
      </trkpt>
      <trkpt lat="44.38976" lon="5.09941">
        <ele>421.19</ele>
        <time>2011-03-31T07:27:07Z</time>
      </trkpt>
      <trkpt lat="44.38962" lon="5.09967">
        <ele>422.64</ele>
        <time>2011-03-31T07:27:26Z</time>
      </trkpt>
      <trkpt lat="44.38956" lon="5.09965">
        <ele>423.12</ele>
        <time>2011-03-31T07:27:29Z</time>
      </trkpt>
      <trkpt lat="44.38958" lon="5.09975">
        <ele>424.08</ele>
        <time>2011-03-31T07:27:38Z</time>
      </trkpt>
      <trkpt lat="44.3895" lon="5.09982">
        <ele>424.56</ele>
        <time>2011-03-31T07:27:57Z</time>
      </trkpt>
      <trkpt lat="44.3895" lon="5.09986">
        <ele>425.04</ele>
        <time>2011-03-31T07:28:00Z</time>
      </trkpt>
      <trkpt lat="44.38947" lon="5.09997">
        <ele>425.52</ele>
        <time>2011-03-31T07:28:06Z</time>
      </trkpt>
      <trkpt lat="44.38946" lon="5.10003">
        <ele>426</ele>
        <time>2011-03-31T07:28:11Z</time>
      </trkpt>
      <trkpt lat="44.3894" lon="5.10004">
        <ele>426.48</ele>
        <time>2011-03-31T07:28:20Z</time>
      </trkpt>
      <trkpt lat="44.38942" lon="5.10006">
        <ele>426.48</ele>
        <time>2011-03-31T07:28:41Z</time>
      </trkpt>
      <trkpt lat="44.38952" lon="5.10003">
        <ele>425.52</ele>
        <time>2011-03-31T07:28:48Z</time>
      </trkpt>
      <trkpt lat="44.38954" lon="5.1">
        <ele>425.04</ele>
        <time>2011-03-31T07:28:50Z</time>
      </trkpt>
      <trkpt lat="44.38955" lon="5.09993">
        <ele>419.75</ele>
        <time>2011-03-31T07:28:53Z</time>
      </trkpt>
      <trkpt lat="44.38955" lon="5.09993">
        <ele>425.04</ele>
        <time>2011-03-31T07:28:54Z</time>
      </trkpt>
      <trkpt lat="44.38958" lon="5.09975">
        <ele>423.12</ele>
        <time>2011-03-31T07:29:02Z</time>
      </trkpt>
      <trkpt lat="44.38965" lon="5.09969">
        <ele>422.64</ele>
        <time>2011-03-31T07:29:06Z</time>
      </trkpt>
      <trkpt lat="44.38957" lon="5.09953">
        <ele>421.68</ele>
        <time>2011-03-31T07:29:12Z</time>
      </trkpt>
      <trkpt lat="44.38962" lon="5.09953">
        <ele>421.68</ele>
        <time>2011-03-31T07:29:17Z</time>
      </trkpt>
      <trkpt lat="44.38961" lon="5.09951">
        <ele>421.19</ele>
        <time>2011-03-31T07:29:20Z</time>
      </trkpt>
      <trkpt lat="44.38968" lon="5.09945">
        <ele>420.71</ele>
        <time>2011-03-31T07:29:25Z</time>
      </trkpt>
      <trkpt lat="44.38978" lon="5.09942">
        <ele>420.23</ele>
        <time>2011-03-31T07:29:33Z</time>
      </trkpt>
      <trkpt lat="44.38977" lon="5.09945">
        <ele>421.19</ele>
        <time>2011-03-31T07:29:39Z</time>
      </trkpt>
      <trkpt lat="44.38986" lon="5.09957">
        <ele>423.12</ele>
        <time>2011-03-31T07:29:47Z</time>
      </trkpt>
      <trkpt lat="44.38992" lon="5.09964">
        <ele>423.6</ele>
        <time>2011-03-31T07:29:55Z</time>
      </trkpt>
      <trkpt lat="44.3899" lon="5.09972">
        <ele>424.56</ele>
        <time>2011-03-31T07:30:01Z</time>
      </trkpt>
      <trkpt lat="44.3899" lon="5.09974">
        <ele>425.04</ele>
        <time>2011-03-31T07:30:03Z</time>
      </trkpt>
      <trkpt lat="44.39001" lon="5.09972">
        <ele>426</ele>
        <time>2011-03-31T07:30:09Z</time>
      </trkpt>
      <trkpt lat="44.39005" lon="5.09975">
        <ele>426</ele>
        <time>2011-03-31T07:30:14Z</time>
      </trkpt>
      <trkpt lat="44.39016" lon="5.09978">
        <ele>426.96</ele>
        <time>2011-03-31T07:30:20Z</time>
      </trkpt>
      <trkpt lat="44.39019" lon="5.09976">
        <ele>428.89</ele>
        <time>2011-03-31T07:30:28Z</time>
      </trkpt>
      <trkpt lat="44.39024" lon="5.0997">
        <ele>430.33</ele>
        <time>2011-03-31T07:30:36Z</time>
      </trkpt>
      <trkpt lat="44.39028" lon="5.09955">
        <ele>430.81</ele>
        <time>2011-03-31T07:30:43Z</time>
      </trkpt>
      <trkpt lat="44.39037" lon="5.09955">
        <ele>431.77</ele>
        <time>2011-03-31T07:30:50Z</time>
      </trkpt>
      <trkpt lat="44.39034" lon="5.09956">
        <ele>431.77</ele>
        <time>2011-03-31T07:30:54Z</time>
      </trkpt>
      <trkpt lat="44.39041" lon="5.09957">
        <ele>433.21</ele>
        <time>2011-03-31T07:31:01Z</time>
      </trkpt>
      <trkpt lat="44.39045" lon="5.09962">
        <ele>433.69</ele>
        <time>2011-03-31T07:31:18Z</time>
      </trkpt>
      <trkpt lat="44.39048" lon="5.09963">
        <ele>434.17</ele>
        <time>2011-03-31T07:31:21Z</time>
      </trkpt>
      <trkpt lat="44.39049" lon="5.09972">
        <ele>435.61</ele>
        <time>2011-03-31T07:31:27Z</time>
      </trkpt>
      <trkpt lat="44.39041" lon="5.09977">
        <ele>437.54</ele>
        <time>2011-03-31T07:31:34Z</time>
      </trkpt>
      <trkpt lat="44.3904" lon="5.09989">
        <ele>438.02</ele>
        <time>2011-03-31T07:31:40Z</time>
      </trkpt>
      <trkpt lat="44.39041" lon="5.09989">
        <ele>439.94</ele>
        <time>2011-03-31T07:31:45Z</time>
      </trkpt>
      <trkpt lat="44.39041" lon="5.09993">
        <ele>439.94</ele>
        <time>2011-03-31T07:31:46Z</time>
      </trkpt>
      <trkpt lat="44.39039" lon="5.09992">
        <ele>439.94</ele>
        <time>2011-03-31T07:31:50Z</time>
      </trkpt>
      <trkpt lat="44.39043" lon="5.09997">
        <ele>439.94</ele>
        <time>2011-03-31T07:31:54Z</time>
      </trkpt>
      <trkpt lat="44.3904" lon="5.1">
        <ele>440.42</ele>
        <time>2011-03-31T07:32:00Z</time>
      </trkpt>
      <trkpt lat="44.39036" lon="5.10002">
        <ele>440.42</ele>
        <time>2011-03-31T07:32:06Z</time>
      </trkpt>
      <trkpt lat="44.39038" lon="5.10012">
        <ele>440.9</ele>
        <time>2011-03-31T07:32:08Z</time>
      </trkpt>
      <trkpt lat="44.39036" lon="5.10015">
        <ele>441.38</ele>
        <time>2011-03-31T07:32:15Z</time>
      </trkpt>
      <trkpt lat="44.39035" lon="5.10016">
        <ele>441.86</ele>
        <time>2011-03-31T07:32:17Z</time>
      </trkpt>
      <trkpt lat="44.39034" lon="5.10016">
        <ele>441.86</ele>
        <time>2011-03-31T07:32:18Z</time>
      </trkpt>
      <trkpt lat="44.3903" lon="5.1003">
        <ele>442.34</ele>
        <time>2011-03-31T07:32:27Z</time>
      </trkpt>
      <trkpt lat="44.39023" lon="5.10036">
        <ele>441.38</ele>
        <time>2011-03-31T07:32:33Z</time>
      </trkpt>
      <trkpt lat="44.39015" lon="5.10042">
        <ele>443.31</ele>
        <time>2011-03-31T07:32:41Z</time>
      </trkpt>
      <trkpt lat="44.39009" lon="5.10055">
        <ele>444.75</ele>
        <time>2011-03-31T07:32:49Z</time>
      </trkpt>
      <trkpt lat="44.39" lon="5.10056">
        <ele>445.23</ele>
        <time>2011-03-31T07:32:55Z</time>
      </trkpt>
      <trkpt lat="44.38998" lon="5.10067">
        <ele>446.19</ele>
        <time>2011-03-31T07:33:02Z</time>
      </trkpt>
      <trkpt lat="44.3899" lon="5.10067">
        <ele>446.19</ele>
        <time>2011-03-31T07:33:08Z</time>
      </trkpt>
      <trkpt lat="44.3899" lon="5.10081">
        <ele>448.11</ele>
        <time>2011-03-31T07:33:18Z</time>
      </trkpt>
      <trkpt lat="44.38989" lon="5.10091">
        <ele>449.55</ele>
        <time>2011-03-31T07:33:26Z</time>
      </trkpt>
      <trkpt lat="44.38986" lon="5.10096">
        <ele>452.92</ele>
        <time>2011-03-31T07:33:32Z</time>
      </trkpt>
      <trkpt lat="44.38986" lon="5.10101">
        <ele>450.52</ele>
        <time>2011-03-31T07:33:35Z</time>
      </trkpt>
      <trkpt lat="44.38984" lon="5.10105">
        <ele>451.96</ele>
        <time>2011-03-31T07:33:42Z</time>
      </trkpt>
      <trkpt lat="44.38983" lon="5.10109">
        <ele>451.96</ele>
        <time>2011-03-31T07:33:46Z</time>
      </trkpt>
      <trkpt lat="44.38978" lon="5.10117">
        <ele>452.92</ele>
        <time>2011-03-31T07:33:53Z</time>
      </trkpt>
      <trkpt lat="44.38972" lon="5.10122">
        <ele>453.4</ele>
        <time>2011-03-31T07:33:59Z</time>
      </trkpt>
      <trkpt lat="44.38972" lon="5.10142">
        <ele>454.36</ele>
        <time>2011-03-31T07:34:06Z</time>
      </trkpt>
      <trkpt lat="44.38969" lon="5.1014">
        <ele>454.84</ele>
        <time>2011-03-31T07:34:09Z</time>
      </trkpt>
      <trkpt lat="44.38969" lon="5.1015">
        <ele>454.84</ele>
        <time>2011-03-31T07:34:15Z</time>
      </trkpt>
      <trkpt lat="44.38964" lon="5.10153">
        <ele>455.32</ele>
        <time>2011-03-31T07:34:20Z</time>
      </trkpt>
      <trkpt lat="44.38961" lon="5.10148">
        <ele>455.32</ele>
        <time>2011-03-31T07:34:22Z</time>
      </trkpt>
      <trkpt lat="44.38955" lon="5.10159">
        <ele>456.28</ele>
        <time>2011-03-31T07:34:28Z</time>
      </trkpt>
      <trkpt lat="44.38956" lon="5.10163">
        <ele>462.53</ele>
        <time>2011-03-31T07:34:29Z</time>
      </trkpt>
      <trkpt lat="44.38956" lon="5.10163">
        <ele>456.28</ele>
        <time>2011-03-31T07:34:30Z</time>
      </trkpt>
      <trkpt lat="44.38956" lon="5.10165">
        <ele>456.28</ele>
        <time>2011-03-31T07:34:31Z</time>
      </trkpt>
      <trkpt lat="44.38957" lon="5.10176">
        <ele>456.28</ele>
        <time>2011-03-31T07:34:40Z</time>
      </trkpt>
      <trkpt lat="44.3896" lon="5.10176">
        <ele>455.8</ele>
        <time>2011-03-31T07:34:46Z</time>
      </trkpt>
      <trkpt lat="44.38946" lon="5.10179">
        <ele>454.84</ele>
        <time>2011-03-31T07:34:53Z</time>
      </trkpt>
      <trkpt lat="44.38938" lon="5.10189">
        <ele>453.4</ele>
        <time>2011-03-31T07:35:02Z</time>
      </trkpt>
      <trkpt lat="44.38931" lon="5.10196">
        <ele>452.44</ele>
        <time>2011-03-31T07:35:11Z</time>
      </trkpt>
      <trkpt lat="44.38932" lon="5.10199">
        <ele>452.44</ele>
        <time>2011-03-31T07:35:17Z</time>
      </trkpt>
      <trkpt lat="44.38932" lon="5.10199">
        <ele>451.96</ele>
        <time>2011-03-31T07:35:21Z</time>
      </trkpt>
      <trkpt lat="44.3894" lon="5.10201">
        <ele>452.44</ele>
        <time>2011-03-31T07:35:30Z</time>
      </trkpt>
      <trkpt lat="44.38944" lon="5.10211">
        <ele>452.92</ele>
        <time>2011-03-31T07:35:36Z</time>
      </trkpt>
      <trkpt lat="44.38952" lon="5.10219">
        <ele>453.4</ele>
        <time>2011-03-31T07:35:45Z</time>
      </trkpt>
      <trkpt lat="44.38957" lon="5.10231">
        <ele>453.4</ele>
        <time>2011-03-31T07:35:54Z</time>
      </trkpt>
      <trkpt lat="44.38959" lon="5.10239">
        <ele>453.88</ele>
        <time>2011-03-31T07:36:03Z</time>
      </trkpt>
      <trkpt lat="44.38962" lon="5.10254">
        <ele>453.88</ele>
        <time>2011-03-31T07:36:10Z</time>
      </trkpt>
      <trkpt lat="44.38962" lon="5.10253">
        <ele>454.36</ele>
        <time>2011-03-31T07:36:11Z</time>
      </trkpt>
      <trkpt lat="44.38963" lon="5.10259">
        <ele>454.36</ele>
        <time>2011-03-31T07:36:15Z</time>
      </trkpt>
      <trkpt lat="44.38965" lon="5.10267">
        <ele>454.36</ele>
        <time>2011-03-31T07:36:20Z</time>
      </trkpt>
      <trkpt lat="44.38966" lon="5.10283">
        <ele>454.36</ele>
        <time>2011-03-31T07:36:29Z</time>
      </trkpt>
      <trkpt lat="44.38966" lon="5.10284">
        <ele>454.84</ele>
        <time>2011-03-31T07:36:31Z</time>
      </trkpt>
      <trkpt lat="44.38967" lon="5.10297">
        <ele>455.32</ele>
        <time>2011-03-31T07:36:39Z</time>
      </trkpt>
      <trkpt lat="44.3897" lon="5.10307">
        <ele>455.8</ele>
        <time>2011-03-31T07:36:46Z</time>
      </trkpt>
      <trkpt lat="44.38974" lon="5.10312">
        <ele>451</ele>
        <time>2011-03-31T07:36:49Z</time>
      </trkpt>
      <trkpt lat="44.38974" lon="5.10313">
        <ele>457.24</ele>
        <time>2011-03-31T07:36:50Z</time>
      </trkpt>
      <trkpt lat="44.38977" lon="5.10317">
        <ele>456.76</ele>
        <time>2011-03-31T07:36:56Z</time>
      </trkpt>
      <trkpt lat="44.38982" lon="5.10322">
        <ele>458.21</ele>
        <time>2011-03-31T07:37:01Z</time>
      </trkpt>
      <trkpt lat="44.38982" lon="5.10326">
        <ele>458.21</ele>
        <time>2011-03-31T07:37:06Z</time>
      </trkpt>
      <trkpt lat="44.38991" lon="5.10334">
        <ele>459.17</ele>
        <time>2011-03-31T07:37:13Z</time>
      </trkpt>
      <trkpt lat="44.38992" lon="5.1034">
        <ele>459.65</ele>
        <time>2011-03-31T07:37:16Z</time>
      </trkpt>
      <trkpt lat="44.39002" lon="5.10342">
        <ele>460.61</ele>
        <time>2011-03-31T07:37:25Z</time>
      </trkpt>
      <trkpt lat="44.3901" lon="5.10344">
        <ele>461.09</ele>
        <time>2011-03-31T07:37:31Z</time>
      </trkpt>
      <trkpt lat="44.39016" lon="5.10347">
        <ele>461.09</ele>
        <time>2011-03-31T07:37:39Z</time>
      </trkpt>
      <trkpt lat="44.39016" lon="5.10354">
        <ele>461.57</ele>
        <time>2011-03-31T07:37:42Z</time>
      </trkpt>
      <trkpt lat="44.39023" lon="5.10359">
        <ele>462.05</ele>
        <time>2011-03-31T07:37:50Z</time>
      </trkpt>
      <trkpt lat="44.39033" lon="5.10371">
        <ele>462.05</ele>
        <time>2011-03-31T07:38:00Z</time>
      </trkpt>
      <trkpt lat="44.39033" lon="5.10378">
        <ele>462.05</ele>
        <time>2011-03-31T07:38:02Z</time>
      </trkpt>
      <trkpt lat="44.3904" lon="5.10393">
        <ele>463.01</ele>
        <time>2011-03-31T07:38:11Z</time>
      </trkpt>
      <trkpt lat="44.39043" lon="5.10391">
        <ele>463.49</ele>
        <time>2011-03-31T07:38:14Z</time>
      </trkpt>
      <trkpt lat="44.39053" lon="5.10391">
        <ele>463.49</ele>
        <time>2011-03-31T07:38:23Z</time>
      </trkpt>
      <trkpt lat="44.39056" lon="5.10395">
        <ele>463.97</ele>
        <time>2011-03-31T07:38:37Z</time>
      </trkpt>
      <trkpt lat="44.39059" lon="5.10398">
        <ele>464.45</ele>
        <time>2011-03-31T07:38:40Z</time>
      </trkpt>
      <trkpt lat="44.39064" lon="5.10403">
        <ele>464.45</ele>
        <time>2011-03-31T07:38:45Z</time>
      </trkpt>
      <trkpt lat="44.39077" lon="5.10402">
        <ele>464.93</ele>
        <time>2011-03-31T07:38:55Z</time>
      </trkpt>
      <trkpt lat="44.39081" lon="5.10401">
        <ele>465.42</ele>
        <time>2011-03-31T07:38:59Z</time>
      </trkpt>
      <trkpt lat="44.39089" lon="5.10405">
        <ele>465.9</ele>
        <time>2011-03-31T07:39:07Z</time>
      </trkpt>
      <trkpt lat="44.39097" lon="5.10406">
        <ele>466.38</ele>
        <time>2011-03-31T07:39:13Z</time>
      </trkpt>
      <trkpt lat="44.39104" lon="5.10411">
        <ele>466.38</ele>
        <time>2011-03-31T07:39:22Z</time>
      </trkpt>
      <trkpt lat="44.39109" lon="5.10418">
        <ele>466.86</ele>
        <time>2011-03-31T07:39:26Z</time>
      </trkpt>
      <trkpt lat="44.39116" lon="5.10417">
        <ele>466.86</ele>
        <time>2011-03-31T07:39:33Z</time>
      </trkpt>
      <trkpt lat="44.39124" lon="5.10425">
        <ele>466.86</ele>
        <time>2011-03-31T07:39:42Z</time>
      </trkpt>
      <trkpt lat="44.39129" lon="5.10428">
        <ele>467.82</ele>
        <time>2011-03-31T07:39:47Z</time>
      </trkpt>
      <trkpt lat="44.39136" lon="5.10428">
        <ele>468.3</ele>
        <time>2011-03-31T07:39:55Z</time>
      </trkpt>
      <trkpt lat="44.39138" lon="5.10435">
        <ele>468.78</ele>
        <time>2011-03-31T07:40:01Z</time>
      </trkpt>
      <trkpt lat="44.39142" lon="5.10434">
        <ele>468.78</ele>
        <time>2011-03-31T07:40:11Z</time>
      </trkpt>
      <trkpt lat="44.39144" lon="5.1044">
        <ele>469.26</ele>
        <time>2011-03-31T07:40:16Z</time>
      </trkpt>
      <trkpt lat="44.39148" lon="5.10442">
        <ele>469.74</ele>
        <time>2011-03-31T07:40:23Z</time>
      </trkpt>
      <trkpt lat="44.39156" lon="5.10442">
        <ele>470.7</ele>
        <time>2011-03-31T07:40:31Z</time>
      </trkpt>
      <trkpt lat="44.39159" lon="5.10441">
        <ele>471.18</ele>
        <time>2011-03-31T07:40:34Z</time>
      </trkpt>
      <trkpt lat="44.39166" lon="5.10451">
        <ele>471.66</ele>
        <time>2011-03-31T07:40:41Z</time>
      </trkpt>
      <trkpt lat="44.39168" lon="5.10456">
        <ele>472.63</ele>
        <time>2011-03-31T07:40:48Z</time>
      </trkpt>
      <trkpt lat="44.39177" lon="5.10461">
        <ele>473.59</ele>
        <time>2011-03-31T07:40:56Z</time>
      </trkpt>
      <trkpt lat="44.39183" lon="5.10464">
        <ele>474.07</ele>
        <time>2011-03-31T07:41:02Z</time>
      </trkpt>
      <trkpt lat="44.39185" lon="5.10466">
        <ele>474.07</ele>
        <time>2011-03-31T07:41:04Z</time>
      </trkpt>
      <trkpt lat="44.39186" lon="5.10467">
        <ele>474.55</ele>
        <time>2011-03-31T07:41:07Z</time>
      </trkpt>
      <trkpt lat="44.39195" lon="5.10472">
        <ele>474.55</ele>
        <time>2011-03-31T07:41:15Z</time>
      </trkpt>
      <trkpt lat="44.39201" lon="5.10487">
        <ele>474.07</ele>
        <time>2011-03-31T07:41:23Z</time>
      </trkpt>
      <trkpt lat="44.39209" lon="5.10488">
        <ele>473.11</ele>
        <time>2011-03-31T07:41:31Z</time>
      </trkpt>
      <trkpt lat="44.39218" lon="5.10493">
        <ele>472.63</ele>
        <time>2011-03-31T07:41:38Z</time>
      </trkpt>
      <trkpt lat="44.39228" lon="5.10493">
        <ele>471.18</ele>
        <time>2011-03-31T07:41:45Z</time>
      </trkpt>
      <trkpt lat="44.39232" lon="5.10492">
        <ele>470.7</ele>
        <time>2011-03-31T07:41:51Z</time>
      </trkpt>
      <trkpt lat="44.39233" lon="5.1049">
        <ele>469.74</ele>
        <time>2011-03-31T07:41:59Z</time>
      </trkpt>
      <trkpt lat="44.39231" lon="5.10494">
        <ele>469.74</ele>
        <time>2011-03-31T07:42:04Z</time>
      </trkpt>
      <trkpt lat="44.39227" lon="5.10501">
        <ele>470.7</ele>
        <time>2011-03-31T07:42:10Z</time>
      </trkpt>
      <trkpt lat="44.39225" lon="5.10501">
        <ele>471.66</ele>
        <time>2011-03-31T07:42:16Z</time>
      </trkpt>
      <trkpt lat="44.39225" lon="5.10503">
        <ele>472.14</ele>
        <time>2011-03-31T07:42:23Z</time>
      </trkpt>
      <trkpt lat="44.39225" lon="5.10503">
        <ele>471.66</ele>
        <time>2011-03-31T07:43:09Z</time>
      </trkpt>
      <trkpt lat="44.39227" lon="5.10516">
        <ele>472.63</ele>
        <time>2011-03-31T07:43:15Z</time>
      </trkpt>
      <trkpt lat="44.39228" lon="5.10533">
        <ele>473.11</ele>
        <time>2011-03-31T07:43:24Z</time>
      </trkpt>
      <trkpt lat="44.39227" lon="5.10542">
        <ele>473.11</ele>
        <time>2011-03-31T07:43:29Z</time>
      </trkpt>
      <trkpt lat="44.39228" lon="5.10556">
        <ele>473.11</ele>
        <time>2011-03-31T07:43:38Z</time>
      </trkpt>
      <trkpt lat="44.39229" lon="5.10565">
        <ele>473.11</ele>
        <time>2011-03-31T07:43:44Z</time>
      </trkpt>
      <trkpt lat="44.39233" lon="5.10567">
        <ele>473.59</ele>
        <time>2011-03-31T07:43:51Z</time>
      </trkpt>
      <trkpt lat="44.39232" lon="5.10566">
        <ele>473.59</ele>
        <time>2011-03-31T07:43:52Z</time>
      </trkpt>
      <trkpt lat="44.39242" lon="5.10581">
        <ele>474.07</ele>
        <time>2011-03-31T07:44:00Z</time>
      </trkpt>
      <trkpt lat="44.39242" lon="5.10587">
        <ele>474.07</ele>
        <time>2011-03-31T07:44:06Z</time>
      </trkpt>
      <trkpt lat="44.39244" lon="5.10598">
        <ele>473.59</ele>
        <time>2011-03-31T07:44:13Z</time>
      </trkpt>
      <trkpt lat="44.39246" lon="5.10611">
        <ele>473.11</ele>
        <time>2011-03-31T07:44:20Z</time>
      </trkpt>
      <trkpt lat="44.3925" lon="5.10631">
        <ele>471.18</ele>
        <time>2011-03-31T07:44:27Z</time>
      </trkpt>
      <trkpt lat="44.3925" lon="5.10628">
        <ele>470.22</ele>
        <time>2011-03-31T07:44:31Z</time>
      </trkpt>
      <trkpt lat="44.39254" lon="5.10636">
        <ele>469.26</ele>
        <time>2011-03-31T07:44:36Z</time>
      </trkpt>
      <trkpt lat="44.39265" lon="5.10645">
        <ele>470.22</ele>
        <time>2011-03-31T07:44:46Z</time>
      </trkpt>
      <trkpt lat="44.3927" lon="5.10659">
        <ele>470.7</ele>
        <time>2011-03-31T07:44:53Z</time>
      </trkpt>
      <trkpt lat="44.39276" lon="5.10675">
        <ele>471.18</ele>
        <time>2011-03-31T07:45:01Z</time>
      </trkpt>
      <trkpt lat="44.39276" lon="5.10676">
        <ele>471.66</ele>
        <time>2011-03-31T07:45:09Z</time>
      </trkpt>
      <trkpt lat="44.39287" lon="5.10702">
        <ele>473.59</ele>
        <time>2011-03-31T07:45:21Z</time>
      </trkpt>
      <trkpt lat="44.39295" lon="5.10693">
        <ele>474.55</ele>
        <time>2011-03-31T07:45:28Z</time>
      </trkpt>
      <trkpt lat="44.39296" lon="5.10717">
        <ele>474.07</ele>
        <time>2011-03-31T07:45:42Z</time>
      </trkpt>
      <trkpt lat="44.39299" lon="5.10717">
        <ele>475.03</ele>
        <time>2011-03-31T07:45:47Z</time>
      </trkpt>
      <trkpt lat="44.39306" lon="5.10731">
        <ele>475.51</ele>
        <time>2011-03-31T07:45:55Z</time>
      </trkpt>
      <trkpt lat="44.39311" lon="5.10733">
        <ele>475.99</ele>
        <time>2011-03-31T07:46:00Z</time>
      </trkpt>
      <trkpt lat="44.39312" lon="5.10757">
        <ele>475.99</ele>
        <time>2011-03-31T07:46:06Z</time>
      </trkpt>
      <trkpt lat="44.39317" lon="5.10764">
        <ele>475.51</ele>
        <time>2011-03-31T07:46:15Z</time>
      </trkpt>
      <trkpt lat="44.3932" lon="5.10767">
        <ele>475.99</ele>
        <time>2011-03-31T07:46:21Z</time>
      </trkpt>
      <trkpt lat="44.39322" lon="5.1077">
        <ele>475.99</ele>
        <time>2011-03-31T07:46:25Z</time>
      </trkpt>
      <trkpt lat="44.39327" lon="5.10781">
        <ele>475.99</ele>
        <time>2011-03-31T07:46:35Z</time>
      </trkpt>
      <trkpt lat="44.39333" lon="5.10789">
        <ele>476.47</ele>
        <time>2011-03-31T07:46:39Z</time>
      </trkpt>
      <trkpt lat="44.39338" lon="5.10787">
        <ele>476.95</ele>
        <time>2011-03-31T07:46:51Z</time>
      </trkpt>
      <trkpt lat="44.39342" lon="5.10788">
        <ele>478.39</ele>
        <time>2011-03-31T07:46:59Z</time>
      </trkpt>
      <trkpt lat="44.39344" lon="5.10799">
        <ele>478.87</ele>
        <time>2011-03-31T07:47:05Z</time>
      </trkpt>
      <trkpt lat="44.39349" lon="5.10812">
        <ele>479.84</ele>
        <time>2011-03-31T07:47:11Z</time>
      </trkpt>
      <trkpt lat="44.39348" lon="5.10825">
        <ele>481.28</ele>
        <time>2011-03-31T07:47:18Z</time>
      </trkpt>
      <trkpt lat="44.39355" lon="5.10832">
        <ele>482.24</ele>
        <time>2011-03-31T07:47:29Z</time>
      </trkpt>
      <trkpt lat="44.3936" lon="5.10841">
        <ele>483.68</ele>
        <time>2011-03-31T07:47:48Z</time>
      </trkpt>
      <trkpt lat="44.39359" lon="5.10846">
        <ele>483.2</ele>
        <time>2011-03-31T07:47:54Z</time>
      </trkpt>
      <trkpt lat="44.39363" lon="5.10863">
        <ele>484.64</ele>
        <time>2011-03-31T07:48:09Z</time>
      </trkpt>
      <trkpt lat="44.39367" lon="5.1087">
        <ele>485.12</ele>
        <time>2011-03-31T07:48:14Z</time>
      </trkpt>
      <trkpt lat="44.39368" lon="5.10877">
        <ele>486.08</ele>
        <time>2011-03-31T07:48:18Z</time>
      </trkpt>
      <trkpt lat="44.3937" lon="5.10886">
        <ele>487.05</ele>
        <time>2011-03-31T07:48:25Z</time>
      </trkpt>
      <trkpt lat="44.39374" lon="5.10896">
        <ele>487.53</ele>
        <time>2011-03-31T07:48:32Z</time>
      </trkpt>
      <trkpt lat="44.39375" lon="5.109">
        <ele>487.53</ele>
        <time>2011-03-31T07:48:35Z</time>
      </trkpt>
      <trkpt lat="44.39373" lon="5.10908">
        <ele>488.01</ele>
        <time>2011-03-31T07:48:40Z</time>
      </trkpt>
      <trkpt lat="44.39374" lon="5.10912">
        <ele>488.01</ele>
        <time>2011-03-31T07:48:44Z</time>
      </trkpt>
      <trkpt lat="44.39376" lon="5.10918">
        <ele>488.01</ele>
        <time>2011-03-31T07:48:49Z</time>
      </trkpt>
      <trkpt lat="44.39379" lon="5.10928">
        <ele>489.45</ele>
        <time>2011-03-31T07:49:01Z</time>
      </trkpt>
      <trkpt lat="44.3938" lon="5.10929">
        <ele>489.45</ele>
        <time>2011-03-31T07:49:02Z</time>
      </trkpt>
      <trkpt lat="44.39382" lon="5.10936">
        <ele>489.93</ele>
        <time>2011-03-31T07:49:07Z</time>
      </trkpt>
      <trkpt lat="44.39383" lon="5.1094">
        <ele>490.89</ele>
        <time>2011-03-31T07:49:13Z</time>
      </trkpt>
      <trkpt lat="44.39381" lon="5.10943">
        <ele>491.37</ele>
        <time>2011-03-31T07:49:17Z</time>
      </trkpt>
      <trkpt lat="44.3938" lon="5.10945">
        <ele>491.85</ele>
        <time>2011-03-31T07:49:18Z</time>
      </trkpt>
      <trkpt lat="44.3938" lon="5.1095">
        <ele>491.85</ele>
        <time>2011-03-31T07:49:21Z</time>
      </trkpt>
      <trkpt lat="44.39381" lon="5.10957">
        <ele>492.81</ele>
        <time>2011-03-31T07:49:26Z</time>
      </trkpt>
      <trkpt lat="44.39382" lon="5.1096">
        <ele>492.81</ele>
        <time>2011-03-31T07:49:28Z</time>
      </trkpt>
      <trkpt lat="44.39381" lon="5.10963">
        <ele>493.29</ele>
        <time>2011-03-31T07:49:30Z</time>
      </trkpt>
      <trkpt lat="44.39379" lon="5.10967">
        <ele>493.29</ele>
        <time>2011-03-31T07:49:32Z</time>
      </trkpt>
      <trkpt lat="44.39376" lon="5.10979">
        <ele>493.77</ele>
        <time>2011-03-31T07:49:39Z</time>
      </trkpt>
      <trkpt lat="44.39376" lon="5.10983">
        <ele>495.22</ele>
        <time>2011-03-31T07:49:45Z</time>
      </trkpt>
      <trkpt lat="44.39373" lon="5.10993">
        <ele>496.18</ele>
        <time>2011-03-31T07:49:53Z</time>
      </trkpt>
      <trkpt lat="44.39371" lon="5.11004">
        <ele>496.66</ele>
        <time>2011-03-31T07:50:00Z</time>
      </trkpt>
      <trkpt lat="44.39365" lon="5.11014">
        <ele>496.66</ele>
        <time>2011-03-31T07:50:07Z</time>
      </trkpt>
      <trkpt lat="44.39362" lon="5.1102">
        <ele>497.14</ele>
        <time>2011-03-31T07:50:12Z</time>
      </trkpt>
      <trkpt lat="44.39362" lon="5.11021">
        <ele>497.14</ele>
        <time>2011-03-31T07:50:13Z</time>
      </trkpt>
      <trkpt lat="44.39357" lon="5.11027">
        <ele>497.62</ele>
        <time>2011-03-31T07:50:18Z</time>
      </trkpt>
      <trkpt lat="44.39354" lon="5.11033">
        <ele>497.62</ele>
        <time>2011-03-31T07:50:22Z</time>
      </trkpt>
      <trkpt lat="44.39354" lon="5.11039">
        <ele>498.1</ele>
        <time>2011-03-31T07:50:26Z</time>
      </trkpt>
      <trkpt lat="44.39349" lon="5.1105">
        <ele>498.58</ele>
        <time>2011-03-31T07:50:33Z</time>
      </trkpt>
      <trkpt lat="44.39348" lon="5.11053">
        <ele>498.58</ele>
        <time>2011-03-31T07:50:35Z</time>
      </trkpt>
      <trkpt lat="44.39349" lon="5.11056">
        <ele>499.54</ele>
        <time>2011-03-31T07:50:37Z</time>
      </trkpt>
      <trkpt lat="44.39355" lon="5.11054">
        <ele>500.02</ele>
        <time>2011-03-31T07:50:41Z</time>
      </trkpt>
      <trkpt lat="44.39353" lon="5.11063">
        <ele>500.98</ele>
        <time>2011-03-31T07:50:48Z</time>
      </trkpt>
      <trkpt lat="44.39351" lon="5.1107">
        <ele>501.46</ele>
        <time>2011-03-31T07:50:53Z</time>
      </trkpt>
      <trkpt lat="44.39352" lon="5.1108">
        <ele>502.43</ele>
        <time>2011-03-31T07:51:00Z</time>
      </trkpt>
      <trkpt lat="44.39343" lon="5.1109">
        <ele>502.91</ele>
        <time>2011-03-31T07:51:08Z</time>
      </trkpt>
      <trkpt lat="44.39343" lon="5.11103">
        <ele>503.87</ele>
        <time>2011-03-31T07:51:15Z</time>
      </trkpt>
      <trkpt lat="44.39343" lon="5.1111">
        <ele>504.35</ele>
        <time>2011-03-31T07:51:21Z</time>
      </trkpt>
      <trkpt lat="44.39347" lon="5.11111">
        <ele>504.83</ele>
        <time>2011-03-31T07:51:26Z</time>
      </trkpt>
      <trkpt lat="44.39345" lon="5.11115">
        <ele>505.31</ele>
        <time>2011-03-31T07:51:29Z</time>
      </trkpt>
      <trkpt lat="44.39337" lon="5.11124">
        <ele>505.79</ele>
        <time>2011-03-31T07:51:34Z</time>
      </trkpt>
      <trkpt lat="44.39334" lon="5.11123">
        <ele>506.27</ele>
        <time>2011-03-31T07:51:36Z</time>
      </trkpt>
      <trkpt lat="44.39336" lon="5.11138">
        <ele>506.75</ele>
        <time>2011-03-31T07:51:43Z</time>
      </trkpt>
      <trkpt lat="44.39332" lon="5.11146">
        <ele>507.23</ele>
        <time>2011-03-31T07:51:49Z</time>
      </trkpt>
      <trkpt lat="44.3933" lon="5.11158">
        <ele>507.23</ele>
        <time>2011-03-31T07:51:56Z</time>
      </trkpt>
      <trkpt lat="44.39326" lon="5.11151">
        <ele>507.71</ele>
        <time>2011-03-31T07:51:59Z</time>
      </trkpt>
      <trkpt lat="44.39326" lon="5.1116">
        <ele>506.75</ele>
        <time>2011-03-31T07:52:06Z</time>
      </trkpt>
      <trkpt lat="44.3932" lon="5.11168">
        <ele>506.27</ele>
        <time>2011-03-31T07:52:13Z</time>
      </trkpt>
      <trkpt lat="44.39325" lon="5.11183">
        <ele>506.27</ele>
        <time>2011-03-31T07:52:20Z</time>
      </trkpt>
      <trkpt lat="44.39321" lon="5.1119">
        <ele>507.23</ele>
        <time>2011-03-31T07:52:25Z</time>
      </trkpt>
      <trkpt lat="44.39336" lon="5.11203">
        <ele>507.71</ele>
        <time>2011-03-31T07:52:31Z</time>
      </trkpt>
      <trkpt lat="44.39329" lon="5.11206">
        <ele>506.75</ele>
        <time>2011-03-31T07:53:10Z</time>
      </trkpt>
      <trkpt lat="44.39325" lon="5.1121">
        <ele>507.23</ele>
        <time>2011-03-31T07:53:15Z</time>
      </trkpt>
      <trkpt lat="44.39314" lon="5.11215">
        <ele>507.23</ele>
        <time>2011-03-31T07:53:54Z</time>
      </trkpt>
      <trkpt lat="44.39332" lon="5.11226">
        <ele>509.16</ele>
        <time>2011-03-31T07:54:01Z</time>
      </trkpt>
      <trkpt lat="44.3933" lon="5.11227">
        <ele>510.12</ele>
        <time>2011-03-31T07:54:08Z</time>
      </trkpt>
      <trkpt lat="44.3933" lon="5.11236">
        <ele>510.12</ele>
        <time>2011-03-31T07:54:13Z</time>
      </trkpt>
      <trkpt lat="44.3933" lon="5.11236">
        <ele>510.12</ele>
        <time>2011-03-31T07:54:14Z</time>
      </trkpt>
      <trkpt lat="44.39333" lon="5.11239">
        <ele>510.6</ele>
        <time>2011-03-31T07:54:20Z</time>
      </trkpt>
      <trkpt lat="44.39333" lon="5.11245">
        <ele>511.56</ele>
        <time>2011-03-31T07:54:27Z</time>
      </trkpt>
      <trkpt lat="44.39337" lon="5.11246">
        <ele>512.04</ele>
        <time>2011-03-31T07:54:32Z</time>
      </trkpt>
      <trkpt lat="44.39342" lon="5.11252">
        <ele>512.04</ele>
        <time>2011-03-31T07:54:40Z</time>
      </trkpt>
      <trkpt lat="44.39344" lon="5.11256">
        <ele>513.48</ele>
        <time>2011-03-31T07:54:48Z</time>
      </trkpt>
      <trkpt lat="44.39347" lon="5.11256">
        <ele>512.52</ele>
        <time>2011-03-31T07:55:11Z</time>
      </trkpt>
      <trkpt lat="44.3935" lon="5.11255">
        <ele>512.52</ele>
        <time>2011-03-31T07:55:15Z</time>
      </trkpt>
      <trkpt lat="44.39354" lon="5.11258">
        <ele>513.48</ele>
        <time>2011-03-31T07:55:22Z</time>
      </trkpt>
      <trkpt lat="44.39357" lon="5.11261">
        <ele>513.96</ele>
        <time>2011-03-31T07:55:27Z</time>
      </trkpt>
      <trkpt lat="44.3936" lon="5.11266">
        <ele>513.96</ele>
        <time>2011-03-31T07:55:35Z</time>
      </trkpt>
      <trkpt lat="44.39364" lon="5.11271">
        <ele>513.96</ele>
        <time>2011-03-31T07:55:44Z</time>
      </trkpt>
      <trkpt lat="44.39366" lon="5.11273">
        <ele>514.44</ele>
        <time>2011-03-31T07:55:50Z</time>
      </trkpt>
      <trkpt lat="44.39372" lon="5.11276">
        <ele>514.92</ele>
        <time>2011-03-31T07:55:57Z</time>
      </trkpt>
      <trkpt lat="44.39376" lon="5.11277">
        <ele>515.4</ele>
        <time>2011-03-31T07:56:02Z</time>
      </trkpt>
      <trkpt lat="44.39379" lon="5.11278">
        <ele>515.4</ele>
        <time>2011-03-31T07:56:07Z</time>
      </trkpt>
      <trkpt lat="44.39383" lon="5.11277">
        <ele>515.88</ele>
        <time>2011-03-31T07:57:07Z</time>
      </trkpt>
      <trkpt lat="44.39385" lon="5.11282">
        <ele>516.37</ele>
        <time>2011-03-31T07:57:12Z</time>
      </trkpt>
      <trkpt lat="44.39399" lon="5.11294">
        <ele>517.81</ele>
        <time>2011-03-31T07:57:30Z</time>
      </trkpt>
      <trkpt lat="44.39406" lon="5.11302">
        <ele>518.29</ele>
        <time>2011-03-31T07:57:36Z</time>
      </trkpt>
      <trkpt lat="44.394" lon="5.11306">
        <ele>519.25</ele>
        <time>2011-03-31T07:57:43Z</time>
      </trkpt>
      <trkpt lat="44.39399" lon="5.11308">
        <ele>518.29</ele>
        <time>2011-03-31T07:57:53Z</time>
      </trkpt>
      <trkpt lat="44.39402" lon="5.11313">
        <ele>519.25</ele>
        <time>2011-03-31T07:57:57Z</time>
      </trkpt>
      <trkpt lat="44.39408" lon="5.11318">
        <ele>520.69</ele>
        <time>2011-03-31T07:58:05Z</time>
      </trkpt>
      <trkpt lat="44.39415" lon="5.11328">
        <ele>520.21</ele>
        <time>2011-03-31T07:58:11Z</time>
      </trkpt>
      <trkpt lat="44.39419" lon="5.11323">
        <ele>520.69</ele>
        <time>2011-03-31T07:58:18Z</time>
      </trkpt>
      <trkpt lat="44.39425" lon="5.11321">
        <ele>521.65</ele>
        <time>2011-03-31T07:58:23Z</time>
      </trkpt>
      <trkpt lat="44.3943" lon="5.11321">
        <ele>524.06</ele>
        <time>2011-03-31T07:58:32Z</time>
      </trkpt>
      <trkpt lat="44.39431" lon="5.11317">
        <ele>525.5</ele>
        <time>2011-03-31T07:58:38Z</time>
      </trkpt>
      <trkpt lat="44.39438" lon="5.11311">
        <ele>526.46</ele>
        <time>2011-03-31T07:58:45Z</time>
      </trkpt>
      <trkpt lat="44.39439" lon="5.11316">
        <ele>527.42</ele>
        <time>2011-03-31T07:58:50Z</time>
      </trkpt>
      <trkpt lat="44.39447" lon="5.11313">
        <ele>528.38</ele>
        <time>2011-03-31T07:58:56Z</time>
      </trkpt>
      <trkpt lat="44.39444" lon="5.11314">
        <ele>528.86</ele>
        <time>2011-03-31T07:59:02Z</time>
      </trkpt>
      <trkpt lat="44.39446" lon="5.11317">
        <ele>529.34</ele>
        <time>2011-03-31T07:59:46Z</time>
      </trkpt>
      <trkpt lat="44.39446" lon="5.11321">
        <ele>529.82</ele>
        <time>2011-03-31T08:00:00Z</time>
      </trkpt>
      <trkpt lat="44.39448" lon="5.11324">
        <ele>530.79</ele>
        <time>2011-03-31T08:00:09Z</time>
      </trkpt>
      <trkpt lat="44.39451" lon="5.11326">
        <ele>531.75</ele>
        <time>2011-03-31T08:00:14Z</time>
      </trkpt>
      <trkpt lat="44.39452" lon="5.11338">
        <ele>532.71</ele>
        <time>2011-03-31T08:00:19Z</time>
      </trkpt>
      <trkpt lat="44.39454" lon="5.11333">
        <ele>534.63</ele>
        <time>2011-03-31T08:00:27Z</time>
      </trkpt>
      <trkpt lat="44.3946" lon="5.11337">
        <ele>535.59</ele>
        <time>2011-03-31T08:00:34Z</time>
      </trkpt>
      <trkpt lat="44.39465" lon="5.11337">
        <ele>536.55</ele>
        <time>2011-03-31T08:00:40Z</time>
      </trkpt>
      <trkpt lat="44.39467" lon="5.11346">
        <ele>537.99</ele>
        <time>2011-03-31T08:00:48Z</time>
      </trkpt>
      <trkpt lat="44.3947" lon="5.11351">
        <ele>539.44</ele>
        <time>2011-03-31T08:00:56Z</time>
      </trkpt>
      <trkpt lat="44.39477" lon="5.11365">
        <ele>540.4</ele>
        <time>2011-03-31T08:01:04Z</time>
      </trkpt>
      <trkpt lat="44.3948" lon="5.11363">
        <ele>533.19</ele>
        <time>2011-03-31T08:01:10Z</time>
      </trkpt>
      <trkpt lat="44.3948" lon="5.11364">
        <ele>542.32</ele>
        <time>2011-03-31T08:01:11Z</time>
      </trkpt>
      <trkpt lat="44.39482" lon="5.11368">
        <ele>542.8</ele>
        <time>2011-03-31T08:01:20Z</time>
      </trkpt>
      <trkpt lat="44.39482" lon="5.11378">
        <ele>543.28</ele>
        <time>2011-03-31T08:01:26Z</time>
      </trkpt>
      <trkpt lat="44.39482" lon="5.11374">
        <ele>544.72</ele>
        <time>2011-03-31T08:01:32Z</time>
      </trkpt>
      <trkpt lat="44.39482" lon="5.11381">
        <ele>545.69</ele>
        <time>2011-03-31T08:01:38Z</time>
      </trkpt>
      <trkpt lat="44.39479" lon="5.11382">
        <ele>546.65</ele>
        <time>2011-03-31T08:01:44Z</time>
      </trkpt>
      <trkpt lat="44.39478" lon="5.1139">
        <ele>547.61</ele>
        <time>2011-03-31T08:02:57Z</time>
      </trkpt>
      <trkpt lat="44.39474" lon="5.1139">
        <ele>548.09</ele>
        <time>2011-03-31T08:03:02Z</time>
      </trkpt>
      <trkpt lat="44.39475" lon="5.11391">
        <ele>548.57</ele>
        <time>2011-03-31T08:03:04Z</time>
      </trkpt>
      <trkpt lat="44.39469" lon="5.11406">
        <ele>550.49</ele>
        <time>2011-03-31T08:03:13Z</time>
      </trkpt>
      <trkpt lat="44.39472" lon="5.11412">
        <ele>551.93</ele>
        <time>2011-03-31T08:03:22Z</time>
      </trkpt>
      <trkpt lat="44.3947" lon="5.11415">
        <ele>552.9</ele>
        <time>2011-03-31T08:03:27Z</time>
      </trkpt>
      <trkpt lat="44.3947" lon="5.11424">
        <ele>554.34</ele>
        <time>2011-03-31T08:03:34Z</time>
      </trkpt>
      <trkpt lat="44.39469" lon="5.11433">
        <ele>554.82</ele>
        <time>2011-03-31T08:03:40Z</time>
      </trkpt>
      <trkpt lat="44.39468" lon="5.11441">
        <ele>555.3</ele>
        <time>2011-03-31T08:03:44Z</time>
      </trkpt>
      <trkpt lat="44.39469" lon="5.11441">
        <ele>555.78</ele>
        <time>2011-03-31T08:03:50Z</time>
      </trkpt>
      <trkpt lat="44.39471" lon="5.11459">
        <ele>557.22</ele>
        <time>2011-03-31T08:04:00Z</time>
      </trkpt>
      <trkpt lat="44.39467" lon="5.11452">
        <ele>558.18</ele>
        <time>2011-03-31T08:04:04Z</time>
      </trkpt>
      <trkpt lat="44.39463" lon="5.11451">
        <ele>559.62</ele>
        <time>2011-03-31T08:04:11Z</time>
      </trkpt>
      <trkpt lat="44.39461" lon="5.11465">
        <ele>560.11</ele>
        <time>2011-03-31T08:04:16Z</time>
      </trkpt>
      <trkpt lat="44.39461" lon="5.1147">
        <ele>562.03</ele>
        <time>2011-03-31T08:04:24Z</time>
      </trkpt>
      <trkpt lat="44.39465" lon="5.11483">
        <ele>562.99</ele>
        <time>2011-03-31T08:04:31Z</time>
      </trkpt>
      <trkpt lat="44.39464" lon="5.11486">
        <ele>563.95</ele>
        <time>2011-03-31T08:04:36Z</time>
      </trkpt>
      <trkpt lat="44.39467" lon="5.11491">
        <ele>564.43</ele>
        <time>2011-03-31T08:04:42Z</time>
      </trkpt>
      <trkpt lat="44.39467" lon="5.11493">
        <ele>564.43</ele>
        <time>2011-03-31T08:04:43Z</time>
      </trkpt>
      <trkpt lat="44.39467" lon="5.11501">
        <ele>565.39</ele>
        <time>2011-03-31T08:04:49Z</time>
      </trkpt>
      <trkpt lat="44.39471" lon="5.11517">
        <ele>566.35</ele>
        <time>2011-03-31T08:05:03Z</time>
      </trkpt>
      <trkpt lat="44.39472" lon="5.11527">
        <ele>567.8</ele>
        <time>2011-03-31T08:05:10Z</time>
      </trkpt>
      <trkpt lat="44.39469" lon="5.1152">
        <ele>568.76</ele>
        <time>2011-03-31T08:05:19Z</time>
      </trkpt>
      <trkpt lat="44.39468" lon="5.11525">
        <ele>569.72</ele>
        <time>2011-03-31T08:05:21Z</time>
      </trkpt>
      <trkpt lat="44.39469" lon="5.11536">
        <ele>570.68</ele>
        <time>2011-03-31T08:05:28Z</time>
      </trkpt>
      <trkpt lat="44.39465" lon="5.11538">
        <ele>571.64</ele>
        <time>2011-03-31T08:05:34Z</time>
      </trkpt>
      <trkpt lat="44.39466" lon="5.11541">
        <ele>571.64</ele>
        <time>2011-03-31T08:05:36Z</time>
      </trkpt>
      <trkpt lat="44.39468" lon="5.1155">
        <ele>573.08</ele>
        <time>2011-03-31T08:05:43Z</time>
      </trkpt>
      <trkpt lat="44.3947" lon="5.11558">
        <ele>574.04</ele>
        <time>2011-03-31T08:05:49Z</time>
      </trkpt>
      <trkpt lat="44.39467" lon="5.11559">
        <ele>575.01</ele>
        <time>2011-03-31T08:05:54Z</time>
      </trkpt>
      <trkpt lat="44.3947" lon="5.1157">
        <ele>575.49</ele>
        <time>2011-03-31T08:06:00Z</time>
      </trkpt>
      <trkpt lat="44.39467" lon="5.11572">
        <ele>576.45</ele>
        <time>2011-03-31T08:06:05Z</time>
      </trkpt>
      <trkpt lat="44.39472" lon="5.11581">
        <ele>577.41</ele>
        <time>2011-03-31T08:06:11Z</time>
      </trkpt>
      <trkpt lat="44.39467" lon="5.11583">
        <ele>577.89</ele>
        <time>2011-03-31T08:06:16Z</time>
      </trkpt>
      <trkpt lat="44.39471" lon="5.11587">
        <ele>578.85</ele>
        <time>2011-03-31T08:06:18Z</time>
      </trkpt>
      <trkpt lat="44.39463" lon="5.11584">
        <ele>579.81</ele>
        <time>2011-03-31T08:06:24Z</time>
      </trkpt>
      <trkpt lat="44.39463" lon="5.11588">
        <ele>580.77</ele>
        <time>2011-03-31T08:06:30Z</time>
      </trkpt>
      <trkpt lat="44.39454" lon="5.11598">
        <ele>582.22</ele>
        <time>2011-03-31T08:06:38Z</time>
      </trkpt>
      <trkpt lat="44.39457" lon="5.11605">
        <ele>583.18</ele>
        <time>2011-03-31T08:06:43Z</time>
      </trkpt>
      <trkpt lat="44.39453" lon="5.11609">
        <ele>584.14</ele>
        <time>2011-03-31T08:06:47Z</time>
      </trkpt>
      <trkpt lat="44.39459" lon="5.11611">
        <ele>584.62</ele>
        <time>2011-03-31T08:06:49Z</time>
      </trkpt>
      <trkpt lat="44.39456" lon="5.11611">
        <ele>585.58</ele>
        <time>2011-03-31T08:06:54Z</time>
      </trkpt>
      <trkpt lat="44.39449" lon="5.11609">
        <ele>586.54</ele>
        <time>2011-03-31T08:06:59Z</time>
      </trkpt>
      <trkpt lat="44.39453" lon="5.11613">
        <ele>586.54</ele>
        <time>2011-03-31T08:07:02Z</time>
      </trkpt>
      <trkpt lat="44.39447" lon="5.11619">
        <ele>587.98</ele>
        <time>2011-03-31T08:07:06Z</time>
      </trkpt>
      <trkpt lat="44.39448" lon="5.11625">
        <ele>588.46</ele>
        <time>2011-03-31T08:07:11Z</time>
      </trkpt>
      <trkpt lat="44.39444" lon="5.11623">
        <ele>589.43</ele>
        <time>2011-03-31T08:07:13Z</time>
      </trkpt>
      <trkpt lat="44.39444" lon="5.11635">
        <ele>589.91</ele>
        <time>2011-03-31T08:07:20Z</time>
      </trkpt>
      <trkpt lat="44.39446" lon="5.11641">
        <ele>590.87</ele>
        <time>2011-03-31T08:07:24Z</time>
      </trkpt>
      <trkpt lat="44.3944" lon="5.11639">
        <ele>591.35</ele>
        <time>2011-03-31T08:07:29Z</time>
      </trkpt>
      <trkpt lat="44.39437" lon="5.1164">
        <ele>591.83</ele>
        <time>2011-03-31T08:07:31Z</time>
      </trkpt>
      <trkpt lat="44.39434" lon="5.11639">
        <ele>592.31</ele>
        <time>2011-03-31T08:07:34Z</time>
      </trkpt>
      <trkpt lat="44.39436" lon="5.11647">
        <ele>592.79</ele>
        <time>2011-03-31T08:07:39Z</time>
      </trkpt>
      <trkpt lat="44.39435" lon="5.11651">
        <ele>593.27</ele>
        <time>2011-03-31T08:07:41Z</time>
      </trkpt>
      <trkpt lat="44.39431" lon="5.11653">
        <ele>594.23</ele>
        <time>2011-03-31T08:07:47Z</time>
      </trkpt>
      <trkpt lat="44.39436" lon="5.11669">
        <ele>595.19</ele>
        <time>2011-03-31T08:07:54Z</time>
      </trkpt>
      <trkpt lat="44.39429" lon="5.11664">
        <ele>596.64</ele>
        <time>2011-03-31T08:08:00Z</time>
      </trkpt>
      <trkpt lat="44.39427" lon="5.11667">
        <ele>596.64</ele>
        <time>2011-03-31T08:08:03Z</time>
      </trkpt>
      <trkpt lat="44.39416" lon="5.11673">
        <ele>597.6</ele>
        <time>2011-03-31T08:08:12Z</time>
      </trkpt>
      <trkpt lat="44.39422" lon="5.11684">
        <ele>599.04</ele>
        <time>2011-03-31T08:08:18Z</time>
      </trkpt>
      <trkpt lat="44.39422" lon="5.11693">
        <ele>600</ele>
        <time>2011-03-31T08:08:25Z</time>
      </trkpt>
      <trkpt lat="44.39419" lon="5.11704">
        <ele>600.96</ele>
        <time>2011-03-31T08:08:33Z</time>
      </trkpt>
      <trkpt lat="44.39418" lon="5.11702">
        <ele>601.44</ele>
        <time>2011-03-31T08:08:38Z</time>
      </trkpt>
      <trkpt lat="44.39415" lon="5.11708">
        <ele>602.88</ele>
        <time>2011-03-31T08:08:44Z</time>
      </trkpt>
      <trkpt lat="44.39414" lon="5.11713">
        <ele>603.36</ele>
        <time>2011-03-31T08:08:49Z</time>
      </trkpt>
      <trkpt lat="44.39408" lon="5.11719">
        <ele>604.33</ele>
        <time>2011-03-31T08:08:55Z</time>
      </trkpt>
      <trkpt lat="44.39409" lon="5.11722">
        <ele>605.77</ele>
        <time>2011-03-31T08:09:01Z</time>
      </trkpt>
      <trkpt lat="44.39408" lon="5.11725">
        <ele>606.73</ele>
        <time>2011-03-31T08:09:06Z</time>
      </trkpt>
      <trkpt lat="44.39401" lon="5.11731">
        <ele>608.17</ele>
        <time>2011-03-31T08:09:13Z</time>
      </trkpt>
      <trkpt lat="44.39398" lon="5.11732">
        <ele>608.17</ele>
        <time>2011-03-31T08:09:18Z</time>
      </trkpt>
      <trkpt lat="44.394" lon="5.11738">
        <ele>609.13</ele>
        <time>2011-03-31T08:09:20Z</time>
      </trkpt>
      <trkpt lat="44.394" lon="5.11749">
        <ele>610.09</ele>
        <time>2011-03-31T08:09:25Z</time>
      </trkpt>
      <trkpt lat="44.39398" lon="5.11744">
        <ele>610.09</ele>
        <time>2011-03-31T08:09:30Z</time>
      </trkpt>
      <trkpt lat="44.3939" lon="5.11753">
        <ele>611.06</ele>
        <time>2011-03-31T08:09:37Z</time>
      </trkpt>
      <trkpt lat="44.39389" lon="5.11755">
        <ele>612.02</ele>
        <time>2011-03-31T08:09:44Z</time>
      </trkpt>
      <trkpt lat="44.39384" lon="5.11755">
        <ele>614.42</ele>
        <time>2011-03-31T08:09:52Z</time>
      </trkpt>
      <trkpt lat="44.39385" lon="5.11758">
        <ele>615.38</ele>
        <time>2011-03-31T08:09:56Z</time>
      </trkpt>
      <trkpt lat="44.39385" lon="5.1177">
        <ele>616.82</ele>
        <time>2011-03-31T08:10:04Z</time>
      </trkpt>
      <trkpt lat="44.39385" lon="5.1177">
        <ele>617.78</ele>
        <time>2011-03-31T08:10:09Z</time>
      </trkpt>
      <trkpt lat="44.3938" lon="5.11776">
        <ele>619.71</ele>
        <time>2011-03-31T08:10:19Z</time>
      </trkpt>
      <trkpt lat="44.39379" lon="5.11774">
        <ele>620.67</ele>
        <time>2011-03-31T08:10:26Z</time>
      </trkpt>
      <trkpt lat="44.39377" lon="5.11783">
        <ele>621.63</ele>
        <time>2011-03-31T08:10:31Z</time>
      </trkpt>
      <trkpt lat="44.39375" lon="5.11792">
        <ele>622.59</ele>
        <time>2011-03-31T08:10:38Z</time>
      </trkpt>
      <trkpt lat="44.39374" lon="5.11795">
        <ele>624.03</ele>
        <time>2011-03-31T08:10:46Z</time>
      </trkpt>
      <trkpt lat="44.39368" lon="5.11802">
        <ele>625.47</ele>
        <time>2011-03-31T08:10:54Z</time>
      </trkpt>
      <trkpt lat="44.3937" lon="5.11807">
        <ele>625.96</ele>
        <time>2011-03-31T08:10:59Z</time>
      </trkpt>
      <trkpt lat="44.3937" lon="5.11813">
        <ele>627.4</ele>
        <time>2011-03-31T08:11:07Z</time>
      </trkpt>
      <trkpt lat="44.39365" lon="5.11815">
        <ele>628.36</ele>
        <time>2011-03-31T08:11:12Z</time>
      </trkpt>
      <trkpt lat="44.39367" lon="5.11821">
        <ele>629.32</ele>
        <time>2011-03-31T08:11:18Z</time>
      </trkpt>
      <trkpt lat="44.39358" lon="5.11825">
        <ele>630.76</ele>
        <time>2011-03-31T08:11:25Z</time>
      </trkpt>
      <trkpt lat="44.39361" lon="5.11831">
        <ele>630.76</ele>
        <time>2011-03-31T08:11:29Z</time>
      </trkpt>
      <trkpt lat="44.39358" lon="5.11837">
        <ele>632.2</ele>
        <time>2011-03-31T08:11:37Z</time>
      </trkpt>
      <trkpt lat="44.39354" lon="5.11838">
        <ele>632.68</ele>
        <time>2011-03-31T08:11:42Z</time>
      </trkpt>
      <trkpt lat="44.39352" lon="5.11847">
        <ele>633.65</ele>
        <time>2011-03-31T08:11:49Z</time>
      </trkpt>
      <trkpt lat="44.39356" lon="5.11855">
        <ele>634.61</ele>
        <time>2011-03-31T08:11:56Z</time>
      </trkpt>
      <trkpt lat="44.39349" lon="5.11854">
        <ele>635.57</ele>
        <time>2011-03-31T08:12:02Z</time>
      </trkpt>
      <trkpt lat="44.39351" lon="5.1186">
        <ele>637.49</ele>
        <time>2011-03-31T08:12:08Z</time>
      </trkpt>
      <trkpt lat="44.39352" lon="5.11865">
        <ele>638.45</ele>
        <time>2011-03-31T08:12:14Z</time>
      </trkpt>
      <trkpt lat="44.3935" lon="5.11868">
        <ele>639.41</ele>
        <time>2011-03-31T08:12:19Z</time>
      </trkpt>
      <trkpt lat="44.39344" lon="5.11874">
        <ele>640.38</ele>
        <time>2011-03-31T08:12:25Z</time>
      </trkpt>
      <trkpt lat="44.39345" lon="5.11875">
        <ele>640.86</ele>
        <time>2011-03-31T08:12:26Z</time>
      </trkpt>
      <trkpt lat="44.3934" lon="5.11877">
        <ele>641.82</ele>
        <time>2011-03-31T08:12:33Z</time>
      </trkpt>
      <trkpt lat="44.39338" lon="5.11881">
        <ele>642.78</ele>
        <time>2011-03-31T08:12:39Z</time>
      </trkpt>
      <trkpt lat="44.39344" lon="5.11895">
        <ele>645.18</ele>
        <time>2011-03-31T08:12:51Z</time>
      </trkpt>
      <trkpt lat="44.3934" lon="5.11895">
        <ele>645.18</ele>
        <time>2011-03-31T08:12:55Z</time>
      </trkpt>
      <trkpt lat="44.39333" lon="5.11899">
        <ele>646.62</ele>
        <time>2011-03-31T08:13:00Z</time>
      </trkpt>
      <trkpt lat="44.39336" lon="5.11901">
        <ele>647.59</ele>
        <time>2011-03-31T08:13:03Z</time>
      </trkpt>
      <trkpt lat="44.3933" lon="5.11907">
        <ele>648.07</ele>
        <time>2011-03-31T08:13:09Z</time>
      </trkpt>
      <trkpt lat="44.3933" lon="5.1191">
        <ele>650.47</ele>
        <time>2011-03-31T08:13:19Z</time>
      </trkpt>
      <trkpt lat="44.39327" lon="5.11912">
        <ele>651.43</ele>
        <time>2011-03-31T08:13:25Z</time>
      </trkpt>
      <trkpt lat="44.39322" lon="5.11918">
        <ele>652.39</ele>
        <time>2011-03-31T08:13:32Z</time>
      </trkpt>
      <trkpt lat="44.3932" lon="5.11926">
        <ele>652.87</ele>
        <time>2011-03-31T08:13:36Z</time>
      </trkpt>
      <trkpt lat="44.39319" lon="5.11926">
        <ele>652.87</ele>
        <time>2011-03-31T08:13:38Z</time>
      </trkpt>
      <trkpt lat="44.39315" lon="5.11932">
        <ele>653.83</ele>
        <time>2011-03-31T08:13:46Z</time>
      </trkpt>
      <trkpt lat="44.39316" lon="5.11939">
        <ele>655.28</ele>
        <time>2011-03-31T08:13:52Z</time>
      </trkpt>
      <trkpt lat="44.39317" lon="5.11945">
        <ele>655.76</ele>
        <time>2011-03-31T08:13:56Z</time>
      </trkpt>
      <trkpt lat="44.39311" lon="5.11945">
        <ele>656.24</ele>
        <time>2011-03-31T08:14:01Z</time>
      </trkpt>
      <trkpt lat="44.39306" lon="5.11954">
        <ele>657.2</ele>
        <time>2011-03-31T08:14:07Z</time>
      </trkpt>
      <trkpt lat="44.39304" lon="5.11958">
        <ele>657.68</ele>
        <time>2011-03-31T08:14:12Z</time>
      </trkpt>
      <trkpt lat="44.39305" lon="5.1196">
        <ele>658.64</ele>
        <time>2011-03-31T08:14:14Z</time>
      </trkpt>
      <trkpt lat="44.39308" lon="5.11964">
        <ele>658.64</ele>
        <time>2011-03-31T08:14:19Z</time>
      </trkpt>
      <trkpt lat="44.39306" lon="5.11969">
        <ele>660.08</ele>
        <time>2011-03-31T08:14:26Z</time>
      </trkpt>
      <trkpt lat="44.39303" lon="5.11974">
        <ele>661.04</ele>
        <time>2011-03-31T08:14:31Z</time>
      </trkpt>
      <trkpt lat="44.39301" lon="5.11981">
        <ele>662.01</ele>
        <time>2011-03-31T08:14:37Z</time>
      </trkpt>
      <trkpt lat="44.39297" lon="5.11984">
        <ele>662.97</ele>
        <time>2011-03-31T08:14:42Z</time>
      </trkpt>
      <trkpt lat="44.39294" lon="5.11991">
        <ele>662.97</ele>
        <time>2011-03-31T08:14:48Z</time>
      </trkpt>
      <trkpt lat="44.39297" lon="5.11999">
        <ele>663.93</ele>
        <time>2011-03-31T08:14:53Z</time>
      </trkpt>
      <trkpt lat="44.39295" lon="5.11997">
        <ele>664.41</ele>
        <time>2011-03-31T08:14:55Z</time>
      </trkpt>
      <trkpt lat="44.39293" lon="5.11999">
        <ele>665.85</ele>
        <time>2011-03-31T08:15:00Z</time>
      </trkpt>
      <trkpt lat="44.39292" lon="5.12008">
        <ele>666.33</ele>
        <time>2011-03-31T08:15:06Z</time>
      </trkpt>
      <trkpt lat="44.39294" lon="5.1201">
        <ele>667.77</ele>
        <time>2011-03-31T08:15:11Z</time>
      </trkpt>
      <trkpt lat="44.39291" lon="5.12013">
        <ele>669.22</ele>
        <time>2011-03-31T08:15:16Z</time>
      </trkpt>
      <trkpt lat="44.39289" lon="5.12018">
        <ele>669.22</ele>
        <time>2011-03-31T08:15:17Z</time>
      </trkpt>
      <trkpt lat="44.39294" lon="5.12021">
        <ele>670.66</ele>
        <time>2011-03-31T08:15:23Z</time>
      </trkpt>
      <trkpt lat="44.39294" lon="5.1202">
        <ele>672.1</ele>
        <time>2011-03-31T08:15:30Z</time>
      </trkpt>
      <trkpt lat="44.39294" lon="5.1202">
        <ele>673.54</ele>
        <time>2011-03-31T08:15:36Z</time>
      </trkpt>
      <trkpt lat="44.39293" lon="5.12024">
        <ele>674.02</ele>
        <time>2011-03-31T08:15:38Z</time>
      </trkpt>
      <trkpt lat="44.39291" lon="5.12028">
        <ele>675.46</ele>
        <time>2011-03-31T08:15:45Z</time>
      </trkpt>
      <trkpt lat="44.39291" lon="5.12033">
        <ele>677.39</ele>
        <time>2011-03-31T08:15:54Z</time>
      </trkpt>
      <trkpt lat="44.39291" lon="5.1204">
        <ele>679.79</ele>
        <time>2011-03-31T08:16:05Z</time>
      </trkpt>
      <trkpt lat="44.39286" lon="5.1204">
        <ele>681.23</ele>
        <time>2011-03-31T08:16:17Z</time>
      </trkpt>
      <trkpt lat="44.39285" lon="5.12047">
        <ele>682.19</ele>
        <time>2011-03-31T08:16:23Z</time>
      </trkpt>
      <trkpt lat="44.39281" lon="5.12051">
        <ele>683.15</ele>
        <time>2011-03-31T08:16:28Z</time>
      </trkpt>
      <trkpt lat="44.39281" lon="5.1206">
        <ele>684.12</ele>
        <time>2011-03-31T08:16:34Z</time>
      </trkpt>
      <trkpt lat="44.39274" lon="5.12059">
        <ele>685.56</ele>
        <time>2011-03-31T08:16:42Z</time>
      </trkpt>
      <trkpt lat="44.39273" lon="5.12062">
        <ele>686.52</ele>
        <time>2011-03-31T08:16:48Z</time>
      </trkpt>
      <trkpt lat="44.39271" lon="5.1206">
        <ele>687.96</ele>
        <time>2011-03-31T08:16:55Z</time>
      </trkpt>
      <trkpt lat="44.39273" lon="5.12076">
        <ele>689.4</ele>
        <time>2011-03-31T08:17:03Z</time>
      </trkpt>
      <trkpt lat="44.39267" lon="5.12072">
        <ele>690.84</ele>
        <time>2011-03-31T08:17:09Z</time>
      </trkpt>
      <trkpt lat="44.39266" lon="5.12078">
        <ele>691.81</ele>
        <time>2011-03-31T08:17:17Z</time>
      </trkpt>
      <trkpt lat="44.39265" lon="5.1208">
        <ele>693.25</ele>
        <time>2011-03-31T08:17:23Z</time>
      </trkpt>
      <trkpt lat="44.3926" lon="5.12085">
        <ele>694.69</ele>
        <time>2011-03-31T08:17:30Z</time>
      </trkpt>
      <trkpt lat="44.39256" lon="5.12093">
        <ele>696.13</ele>
        <time>2011-03-31T08:17:37Z</time>
      </trkpt>
      <trkpt lat="44.39253" lon="5.12093">
        <ele>697.09</ele>
        <time>2011-03-31T08:17:44Z</time>
      </trkpt>
      <trkpt lat="44.39251" lon="5.12095">
        <ele>698.53</ele>
        <time>2011-03-31T08:17:51Z</time>
      </trkpt>
      <trkpt lat="44.39249" lon="5.12103">
        <ele>699.98</ele>
        <time>2011-03-31T08:17:58Z</time>
      </trkpt>
      <trkpt lat="44.39246" lon="5.12107">
        <ele>701.9</ele>
        <time>2011-03-31T08:18:08Z</time>
      </trkpt>
      <trkpt lat="44.39246" lon="5.12111">
        <ele>703.34</ele>
        <time>2011-03-31T08:18:13Z</time>
      </trkpt>
      <trkpt lat="44.39241" lon="5.12118">
        <ele>704.78</ele>
        <time>2011-03-31T08:18:20Z</time>
      </trkpt>
      <trkpt lat="44.39242" lon="5.12125">
        <ele>706.71</ele>
        <time>2011-03-31T08:18:28Z</time>
      </trkpt>
      <trkpt lat="44.39238" lon="5.12127">
        <ele>707.19</ele>
        <time>2011-03-31T08:18:34Z</time>
      </trkpt>
      <trkpt lat="44.39235" lon="5.12127">
        <ele>707.19</ele>
        <time>2011-03-31T08:18:37Z</time>
      </trkpt>
      <trkpt lat="44.39231" lon="5.12135">
        <ele>708.15</ele>
        <time>2011-03-31T08:18:42Z</time>
      </trkpt>
      <trkpt lat="44.39228" lon="5.12138">
        <ele>708.63</ele>
        <time>2011-03-31T08:18:49Z</time>
      </trkpt>
      <trkpt lat="44.39222" lon="5.12133">
        <ele>709.11</ele>
        <time>2011-03-31T08:18:55Z</time>
      </trkpt>
      <trkpt lat="44.39219" lon="5.12139">
        <ele>709.11</ele>
        <time>2011-03-31T08:19:03Z</time>
      </trkpt>
      <trkpt lat="44.3922" lon="5.12141">
        <ele>709.11</ele>
        <time>2011-03-31T08:19:16Z</time>
      </trkpt>
      <trkpt lat="44.39217" lon="5.12142">
        <ele>708.63</ele>
        <time>2011-03-31T08:19:23Z</time>
      </trkpt>
      <trkpt lat="44.39215" lon="5.12142">
        <ele>709.11</ele>
        <time>2011-03-31T08:19:31Z</time>
      </trkpt>
      <trkpt lat="44.39213" lon="5.12146">
        <ele>709.11</ele>
        <time>2011-03-31T08:19:37Z</time>
      </trkpt>
      <trkpt lat="44.3922" lon="5.12149">
        <ele>709.59</ele>
        <time>2011-03-31T08:19:44Z</time>
      </trkpt>
      <trkpt lat="44.39224" lon="5.12154">
        <ele>708.63</ele>
        <time>2011-03-31T08:19:52Z</time>
      </trkpt>
      <trkpt lat="44.39222" lon="5.12152">
        <ele>709.11</ele>
        <time>2011-03-31T08:20:26Z</time>
      </trkpt>
      <trkpt lat="44.39219" lon="5.12142">
        <ele>709.11</ele>
        <time>2011-03-31T08:20:34Z</time>
      </trkpt>
      <trkpt lat="44.39221" lon="5.12151">
        <ele>709.59</ele>
        <time>2011-03-31T08:20:48Z</time>
      </trkpt>
      <trkpt lat="44.39221" lon="5.12143">
        <ele>709.59</ele>
        <time>2011-03-31T08:20:59Z</time>
      </trkpt>
      <trkpt lat="44.39218" lon="5.12143">
        <ele>709.59</ele>
        <time>2011-03-31T08:21:11Z</time>
      </trkpt>
      <trkpt lat="44.39216" lon="5.12141">
        <ele>709.59</ele>
        <time>2011-03-31T08:22:05Z</time>
      </trkpt>
      <trkpt lat="44.39221" lon="5.12145">
        <ele>710.55</ele>
        <time>2011-03-31T08:23:34Z</time>
      </trkpt>
      <trkpt lat="44.39218" lon="5.12142">
        <ele>710.07</ele>
        <time>2011-03-31T08:24:46Z</time>
      </trkpt>
      <trkpt lat="44.39219" lon="5.12144">
        <ele>711.03</ele>
        <time>2011-03-31T08:24:58Z</time>
      </trkpt>
      <trkpt lat="44.3922" lon="5.12143">
        <ele>711.03</ele>
        <time>2011-03-31T08:27:04Z</time>
      </trkpt>
      <trkpt lat="44.39222" lon="5.12144">
        <ele>711.51</ele>
        <time>2011-03-31T08:27:25Z</time>
      </trkpt>
      <trkpt lat="44.39218" lon="5.12139">
        <ele>711.51</ele>
        <time>2011-03-31T08:28:05Z</time>
      </trkpt>
      <trkpt lat="44.3922" lon="5.12141">
        <ele>711.03</ele>
        <time>2011-03-31T08:30:13Z</time>
      </trkpt>
      <trkpt lat="44.39217" lon="5.12139">
        <ele>711.03</ele>
        <time>2011-03-31T08:30:39Z</time>
      </trkpt>
      <trkpt lat="44.39217" lon="5.12142">
        <ele>711.03</ele>
        <time>2011-03-31T08:30:50Z</time>
      </trkpt>
      <trkpt lat="44.39219" lon="5.1214">
        <ele>711.03</ele>
        <time>2011-03-31T08:31:06Z</time>
      </trkpt>
      <trkpt lat="44.39221" lon="5.12137">
        <ele>711.03</ele>
        <time>2011-03-31T08:31:39Z</time>
      </trkpt>
      <trkpt lat="44.39221" lon="5.12137">
        <ele>711.51</ele>
        <time>2011-03-31T08:32:05Z</time>
      </trkpt>
      <trkpt lat="44.39216" lon="5.12136">
        <ele>711.03</ele>
        <time>2011-03-31T08:32:52Z</time>
      </trkpt>
      <trkpt lat="44.39216" lon="5.12134">
        <ele>711.03</ele>
        <time>2011-03-31T08:32:56Z</time>
      </trkpt>
      <trkpt lat="44.39206" lon="5.1213">
        <ele>711.99</ele>
        <time>2011-03-31T08:33:03Z</time>
      </trkpt>
      <trkpt lat="44.39203" lon="5.12124">
        <ele>712.95</ele>
        <time>2011-03-31T08:33:10Z</time>
      </trkpt>
      <trkpt lat="44.39199" lon="5.12123">
        <ele>713.92</ele>
        <time>2011-03-31T08:33:18Z</time>
      </trkpt>
      <trkpt lat="44.39192" lon="5.12113">
        <ele>715.36</ele>
        <time>2011-03-31T08:33:25Z</time>
      </trkpt>
      <trkpt lat="44.39192" lon="5.12109">
        <ele>716.32</ele>
        <time>2011-03-31T08:33:33Z</time>
      </trkpt>
      <trkpt lat="44.39187" lon="5.12104">
        <ele>717.76</ele>
        <time>2011-03-31T08:33:40Z</time>
      </trkpt>
      <trkpt lat="44.39184" lon="5.12105">
        <ele>719.2</ele>
        <time>2011-03-31T08:33:48Z</time>
      </trkpt>
      <trkpt lat="44.39183" lon="5.121">
        <ele>720.16</ele>
        <time>2011-03-31T08:33:54Z</time>
      </trkpt>
      <trkpt lat="44.39178" lon="5.121">
        <ele>721.61</ele>
        <time>2011-03-31T08:34:00Z</time>
      </trkpt>
      <trkpt lat="44.39176" lon="5.12096">
        <ele>722.57</ele>
        <time>2011-03-31T08:34:10Z</time>
      </trkpt>
      <trkpt lat="44.39172" lon="5.12091">
        <ele>723.53</ele>
        <time>2011-03-31T08:34:15Z</time>
      </trkpt>
      <trkpt lat="44.3917" lon="5.12092">
        <ele>724.97</ele>
        <time>2011-03-31T08:34:22Z</time>
      </trkpt>
      <trkpt lat="44.39166" lon="5.12089">
        <ele>726.41</ele>
        <time>2011-03-31T08:34:29Z</time>
      </trkpt>
      <trkpt lat="44.39165" lon="5.1209">
        <ele>727.37</ele>
        <time>2011-03-31T08:34:34Z</time>
      </trkpt>
      <trkpt lat="44.39157" lon="5.12079">
        <ele>728.34</ele>
        <time>2011-03-31T08:34:39Z</time>
      </trkpt>
      <trkpt lat="44.39155" lon="5.12078">
        <ele>729.78</ele>
        <time>2011-03-31T08:34:49Z</time>
      </trkpt>
      <trkpt lat="44.39152" lon="5.12072">
        <ele>731.22</ele>
        <time>2011-03-31T08:34:57Z</time>
      </trkpt>
      <trkpt lat="44.39149" lon="5.1207">
        <ele>732.66</ele>
        <time>2011-03-31T08:35:05Z</time>
      </trkpt>
      <trkpt lat="44.39143" lon="5.12067">
        <ele>736.03</ele>
        <time>2011-03-31T08:35:21Z</time>
      </trkpt>
      <trkpt lat="44.39141" lon="5.12068">
        <ele>736.99</ele>
        <time>2011-03-31T08:35:25Z</time>
      </trkpt>
      <trkpt lat="44.39137" lon="5.12065">
        <ele>738.43</ele>
        <time>2011-03-31T08:35:34Z</time>
      </trkpt>
      <trkpt lat="44.39132" lon="5.12067">
        <ele>739.87</ele>
        <time>2011-03-31T08:35:40Z</time>
      </trkpt>
      <trkpt lat="44.39128" lon="5.12066">
        <ele>741.79</ele>
        <time>2011-03-31T08:35:50Z</time>
      </trkpt>
      <trkpt lat="44.39123" lon="5.1207">
        <ele>742.76</ele>
        <time>2011-03-31T08:35:57Z</time>
      </trkpt>
      <trkpt lat="44.39121" lon="5.12062">
        <ele>743.72</ele>
        <time>2011-03-31T08:36:02Z</time>
      </trkpt>
      <trkpt lat="44.3912" lon="5.12062">
        <ele>745.16</ele>
        <time>2011-03-31T08:36:08Z</time>
      </trkpt>
      <trkpt lat="44.39119" lon="5.12064">
        <ele>746.12</ele>
        <time>2011-03-31T08:36:15Z</time>
      </trkpt>
      <trkpt lat="44.39112" lon="5.12064">
        <ele>747.56</ele>
        <time>2011-03-31T08:36:25Z</time>
      </trkpt>
      <trkpt lat="44.39111" lon="5.12063">
        <ele>749</ele>
        <time>2011-03-31T08:36:32Z</time>
      </trkpt>
      <trkpt lat="44.39106" lon="5.1206">
        <ele>750.45</ele>
        <time>2011-03-31T08:36:37Z</time>
      </trkpt>
      <trkpt lat="44.39104" lon="5.12056">
        <ele>753.33</ele>
        <time>2011-03-31T08:36:53Z</time>
      </trkpt>
      <trkpt lat="44.391" lon="5.12055">
        <ele>753.81</ele>
        <time>2011-03-31T08:36:58Z</time>
      </trkpt>
      <trkpt lat="44.39101" lon="5.12058">
        <ele>754.29</ele>
        <time>2011-03-31T08:37:02Z</time>
      </trkpt>
      <trkpt lat="44.39095" lon="5.12059">
        <ele>755.25</ele>
        <time>2011-03-31T08:37:07Z</time>
      </trkpt>
      <trkpt lat="44.39092" lon="5.12053">
        <ele>756.69</ele>
        <time>2011-03-31T08:37:15Z</time>
      </trkpt>
      <trkpt lat="44.39089" lon="5.12061">
        <ele>759.1</ele>
        <time>2011-03-31T08:37:29Z</time>
      </trkpt>
      <trkpt lat="44.39087" lon="5.12061">
        <ele>760.54</ele>
        <time>2011-03-31T08:37:36Z</time>
      </trkpt>
      <trkpt lat="44.39083" lon="5.12059">
        <ele>761.5</ele>
        <time>2011-03-31T08:37:42Z</time>
      </trkpt>
      <trkpt lat="44.39079" lon="5.12064">
        <ele>762.46</ele>
        <time>2011-03-31T08:37:48Z</time>
      </trkpt>
      <trkpt lat="44.39077" lon="5.12065">
        <ele>763.42</ele>
        <time>2011-03-31T08:37:54Z</time>
      </trkpt>
      <trkpt lat="44.39075" lon="5.12069">
        <ele>764.87</ele>
        <time>2011-03-31T08:38:00Z</time>
      </trkpt>
      <trkpt lat="44.39071" lon="5.12068">
        <ele>766.79</ele>
        <time>2011-03-31T08:38:07Z</time>
      </trkpt>
      <trkpt lat="44.39069" lon="5.12069">
        <ele>767.27</ele>
        <time>2011-03-31T08:38:16Z</time>
      </trkpt>
      <trkpt lat="44.39065" lon="5.12069">
        <ele>768.23</ele>
        <time>2011-03-31T08:38:21Z</time>
      </trkpt>
      <trkpt lat="44.39064" lon="5.12068">
        <ele>769.19</ele>
        <time>2011-03-31T08:38:30Z</time>
      </trkpt>
      <trkpt lat="44.39058" lon="5.12074">
        <ele>771.6</ele>
        <time>2011-03-31T08:38:40Z</time>
      </trkpt>
      <trkpt lat="44.39057" lon="5.12072">
        <ele>773.52</ele>
        <time>2011-03-31T08:38:50Z</time>
      </trkpt>
      <trkpt lat="44.39052" lon="5.12073">
        <ele>774.48</ele>
        <time>2011-03-31T08:38:57Z</time>
      </trkpt>
      <trkpt lat="44.39055" lon="5.12068">
        <ele>775.44</ele>
        <time>2011-03-31T08:39:03Z</time>
      </trkpt>
      <trkpt lat="44.39055" lon="5.12068">
        <ele>776.88</ele>
        <time>2011-03-31T08:39:08Z</time>
      </trkpt>
      <trkpt lat="44.39057" lon="5.12065">
        <ele>778.32</ele>
        <time>2011-03-31T08:39:15Z</time>
      </trkpt>
      <trkpt lat="44.39057" lon="5.1206">
        <ele>779.29</ele>
        <time>2011-03-31T08:39:23Z</time>
      </trkpt>
      <trkpt lat="44.39057" lon="5.12051">
        <ele>780.73</ele>
        <time>2011-03-31T08:39:34Z</time>
      </trkpt>
      <trkpt lat="44.39057" lon="5.12049">
        <ele>781.69</ele>
        <time>2011-03-31T08:39:41Z</time>
      </trkpt>
      <trkpt lat="44.39063" lon="5.12043">
        <ele>782.65</ele>
        <time>2011-03-31T08:39:51Z</time>
      </trkpt>
      <trkpt lat="44.39058" lon="5.12041">
        <ele>782.65</ele>
        <time>2011-03-31T08:39:59Z</time>
      </trkpt>
      <trkpt lat="44.39062" lon="5.12033">
        <ele>783.61</ele>
        <time>2011-03-31T08:41:08Z</time>
      </trkpt>
      <trkpt lat="44.39065" lon="5.1203">
        <ele>783.61</ele>
        <time>2011-03-31T08:41:13Z</time>
      </trkpt>
      <trkpt lat="44.39064" lon="5.12027">
        <ele>784.09</ele>
        <time>2011-03-31T08:41:15Z</time>
      </trkpt>
      <trkpt lat="44.39066" lon="5.12021">
        <ele>784.57</ele>
        <time>2011-03-31T08:41:23Z</time>
      </trkpt>
      <trkpt lat="44.39067" lon="5.12014">
        <ele>786.02</ele>
        <time>2011-03-31T08:41:29Z</time>
      </trkpt>
      <trkpt lat="44.39069" lon="5.1201">
        <ele>786.02</ele>
        <time>2011-03-31T08:41:34Z</time>
      </trkpt>
      <trkpt lat="44.39073" lon="5.12004">
        <ele>786.5</ele>
        <time>2011-03-31T08:41:40Z</time>
      </trkpt>
      <trkpt lat="44.39071" lon="5.12">
        <ele>787.46</ele>
        <time>2011-03-31T08:41:46Z</time>
      </trkpt>
      <trkpt lat="44.39072" lon="5.11996">
        <ele>788.42</ele>
        <time>2011-03-31T08:41:52Z</time>
      </trkpt>
      <trkpt lat="44.39073" lon="5.11992">
        <ele>789.86</ele>
        <time>2011-03-31T08:41:58Z</time>
      </trkpt>
      <trkpt lat="44.39072" lon="5.11988">
        <ele>791.78</ele>
        <time>2011-03-31T08:42:09Z</time>
      </trkpt>
      <trkpt lat="44.39074" lon="5.11977">
        <ele>795.15</ele>
        <time>2011-03-31T08:42:25Z</time>
      </trkpt>
      <trkpt lat="44.3907" lon="5.11969">
        <ele>796.59</ele>
        <time>2011-03-31T08:42:35Z</time>
      </trkpt>
      <trkpt lat="44.39068" lon="5.11968">
        <ele>799.95</ele>
        <time>2011-03-31T08:42:54Z</time>
      </trkpt>
      <trkpt lat="44.39068" lon="5.11961">
        <ele>802.36</ele>
        <time>2011-03-31T08:43:16Z</time>
      </trkpt>
      <trkpt lat="44.39065" lon="5.11955">
        <ele>804.28</ele>
        <time>2011-03-31T08:43:24Z</time>
      </trkpt>
      <trkpt lat="44.39066" lon="5.11949">
        <ele>805.24</ele>
        <time>2011-03-31T08:43:32Z</time>
      </trkpt>
      <trkpt lat="44.39065" lon="5.11949">
        <ele>806.68</ele>
        <time>2011-03-31T08:43:39Z</time>
      </trkpt>
      <trkpt lat="44.39063" lon="5.1194">
        <ele>808.13</ele>
        <time>2011-03-31T08:43:51Z</time>
      </trkpt>
      <trkpt lat="44.39064" lon="5.11939">
        <ele>810.05</ele>
        <time>2011-03-31T08:44:00Z</time>
      </trkpt>
      <trkpt lat="44.39064" lon="5.11934">
        <ele>810.05</ele>
        <time>2011-03-31T08:44:08Z</time>
      </trkpt>
      <trkpt lat="44.39064" lon="5.11933">
        <ele>811.97</ele>
        <time>2011-03-31T08:44:30Z</time>
      </trkpt>
      <trkpt lat="44.39063" lon="5.11928">
        <ele>812.45</ele>
        <time>2011-03-31T08:44:36Z</time>
      </trkpt>
      <trkpt lat="44.39061" lon="5.11922">
        <ele>814.37</ele>
        <time>2011-03-31T08:44:47Z</time>
      </trkpt>
      <trkpt lat="44.3906" lon="5.11917">
        <ele>814.85</ele>
        <time>2011-03-31T08:44:53Z</time>
      </trkpt>
      <trkpt lat="44.39057" lon="5.11914">
        <ele>816.3</ele>
        <time>2011-03-31T08:45:06Z</time>
      </trkpt>
      <trkpt lat="44.39056" lon="5.1191">
        <ele>818.22</ele>
        <time>2011-03-31T08:45:15Z</time>
      </trkpt>
      <trkpt lat="44.39054" lon="5.11903">
        <ele>819.18</ele>
        <time>2011-03-31T08:45:23Z</time>
      </trkpt>
      <trkpt lat="44.39056" lon="5.11904">
        <ele>820.14</ele>
        <time>2011-03-31T08:45:29Z</time>
      </trkpt>
      <trkpt lat="44.39052" lon="5.11896">
        <ele>821.58</ele>
        <time>2011-03-31T08:45:36Z</time>
      </trkpt>
      <trkpt lat="44.39054" lon="5.11897">
        <ele>821.1</ele>
        <time>2011-03-31T08:45:40Z</time>
      </trkpt>
      <trkpt lat="44.39053" lon="5.11894">
        <ele>821.1</ele>
        <time>2011-03-31T08:45:42Z</time>
      </trkpt>
      <trkpt lat="44.39052" lon="5.11883">
        <ele>822.55</ele>
        <time>2011-03-31T08:45:51Z</time>
      </trkpt>
      <trkpt lat="44.3905" lon="5.11877">
        <ele>823.03</ele>
        <time>2011-03-31T08:45:57Z</time>
      </trkpt>
      <trkpt lat="44.39049" lon="5.11873">
        <ele>823.99</ele>
        <time>2011-03-31T08:46:03Z</time>
      </trkpt>
      <trkpt lat="44.39049" lon="5.11868">
        <ele>824.95</ele>
        <time>2011-03-31T08:46:09Z</time>
      </trkpt>
      <trkpt lat="44.39047" lon="5.11866">
        <ele>825.91</ele>
        <time>2011-03-31T08:46:16Z</time>
      </trkpt>
      <trkpt lat="44.39045" lon="5.11857">
        <ele>827.35</ele>
        <time>2011-03-31T08:46:33Z</time>
      </trkpt>
      <trkpt lat="44.39043" lon="5.11856">
        <ele>828.79</ele>
        <time>2011-03-31T08:46:40Z</time>
      </trkpt>
      <trkpt lat="44.39043" lon="5.11848">
        <ele>829.27</ele>
        <time>2011-03-31T08:46:45Z</time>
      </trkpt>
      <trkpt lat="44.39038" lon="5.11847">
        <ele>829.76</ele>
        <time>2011-03-31T08:46:50Z</time>
      </trkpt>
      <trkpt lat="44.39039" lon="5.11834">
        <ele>831.68</ele>
        <time>2011-03-31T08:47:01Z</time>
      </trkpt>
      <trkpt lat="44.39037" lon="5.11833">
        <ele>832.16</ele>
        <time>2011-03-31T08:47:10Z</time>
      </trkpt>
      <trkpt lat="44.39037" lon="5.1183">
        <ele>834.08</ele>
        <time>2011-03-31T08:47:17Z</time>
      </trkpt>
      <trkpt lat="44.39037" lon="5.11823">
        <ele>834.08</ele>
        <time>2011-03-31T08:47:23Z</time>
      </trkpt>
      <trkpt lat="44.39033" lon="5.11816">
        <ele>835.04</ele>
        <time>2011-03-31T08:47:31Z</time>
      </trkpt>
      <trkpt lat="44.39036" lon="5.1181">
        <ele>835.52</ele>
        <time>2011-03-31T08:47:38Z</time>
      </trkpt>
      <trkpt lat="44.39032" lon="5.11805">
        <ele>836.48</ele>
        <time>2011-03-31T08:47:44Z</time>
      </trkpt>
      <trkpt lat="44.39033" lon="5.11796">
        <ele>837.93</ele>
        <time>2011-03-31T08:47:51Z</time>
      </trkpt>
      <trkpt lat="44.39032" lon="5.11794">
        <ele>838.89</ele>
        <time>2011-03-31T08:47:58Z</time>
      </trkpt>
      <trkpt lat="44.3903" lon="5.11787">
        <ele>840.33</ele>
        <time>2011-03-31T08:48:08Z</time>
      </trkpt>
      <trkpt lat="44.39029" lon="5.1178">
        <ele>840.81</ele>
        <time>2011-03-31T08:48:15Z</time>
      </trkpt>
      <trkpt lat="44.39029" lon="5.11778">
        <ele>841.77</ele>
        <time>2011-03-31T08:48:20Z</time>
      </trkpt>
      <trkpt lat="44.39028" lon="5.11774">
        <ele>842.25</ele>
        <time>2011-03-31T08:48:30Z</time>
      </trkpt>
      <trkpt lat="44.39025" lon="5.11767">
        <ele>842.73</ele>
        <time>2011-03-31T08:48:36Z</time>
      </trkpt>
      <trkpt lat="44.39025" lon="5.11767">
        <ele>843.69</ele>
        <time>2011-03-31T08:48:41Z</time>
      </trkpt>
      <trkpt lat="44.39026" lon="5.11758">
        <ele>844.18</ele>
        <time>2011-03-31T08:48:47Z</time>
      </trkpt>
      <trkpt lat="44.39024" lon="5.11756">
        <ele>844.66</ele>
        <time>2011-03-31T08:48:53Z</time>
      </trkpt>
      <trkpt lat="44.39022" lon="5.11749">
        <ele>845.62</ele>
        <time>2011-03-31T08:49:00Z</time>
      </trkpt>
      <trkpt lat="44.39021" lon="5.11745">
        <ele>846.58</ele>
        <time>2011-03-31T08:49:06Z</time>
      </trkpt>
      <trkpt lat="44.39016" lon="5.11747">
        <ele>847.54</ele>
        <time>2011-03-31T08:49:13Z</time>
      </trkpt>
      <trkpt lat="44.39013" lon="5.11755">
        <ele>848.5</ele>
        <time>2011-03-31T08:49:20Z</time>
      </trkpt>
      <trkpt lat="44.39014" lon="5.11758">
        <ele>849.46</ele>
        <time>2011-03-31T08:49:25Z</time>
      </trkpt>
      <trkpt lat="44.3901" lon="5.1176">
        <ele>849.46</ele>
        <time>2011-03-31T08:49:31Z</time>
      </trkpt>
      <trkpt lat="44.3901" lon="5.11757">
        <ele>849.46</ele>
        <time>2011-03-31T08:49:56Z</time>
      </trkpt>
      <trkpt lat="44.3901" lon="5.11765">
        <ele>849.94</ele>
        <time>2011-03-31T08:52:10Z</time>
      </trkpt>
      <trkpt lat="44.39009" lon="5.1177">
        <ele>850.42</ele>
        <time>2011-03-31T08:52:16Z</time>
      </trkpt>
      <trkpt lat="44.39008" lon="5.11772">
        <ele>850.9</ele>
        <time>2011-03-31T08:52:20Z</time>
      </trkpt>
      <trkpt lat="44.39007" lon="5.1178">
        <ele>851.87</ele>
        <time>2011-03-31T08:52:27Z</time>
      </trkpt>
      <trkpt lat="44.39008" lon="5.11783">
        <ele>851.87</ele>
        <time>2011-03-31T08:52:29Z</time>
      </trkpt>
      <trkpt lat="44.39007" lon="5.11786">
        <ele>852.35</ele>
        <time>2011-03-31T08:52:31Z</time>
      </trkpt>
      <trkpt lat="44.38998" lon="5.11786">
        <ele>847.06</ele>
        <time>2011-03-31T08:52:38Z</time>
      </trkpt>
      <trkpt lat="44.38998" lon="5.11788">
        <ele>852.35</ele>
        <time>2011-03-31T08:52:39Z</time>
      </trkpt>
      <trkpt lat="44.38995" lon="5.11795">
        <ele>851.87</ele>
        <time>2011-03-31T08:52:47Z</time>
      </trkpt>
      <trkpt lat="44.38995" lon="5.11805">
        <ele>853.79</ele>
        <time>2011-03-31T08:52:53Z</time>
      </trkpt>
      <trkpt lat="44.38997" lon="5.11808">
        <ele>854.75</ele>
        <time>2011-03-31T08:53:01Z</time>
      </trkpt>
      <trkpt lat="44.38996" lon="5.11809">
        <ele>855.23</ele>
        <time>2011-03-31T08:53:06Z</time>
      </trkpt>
      <trkpt lat="44.38994" lon="5.11812">
        <ele>856.19</ele>
        <time>2011-03-31T08:53:13Z</time>
      </trkpt>
      <trkpt lat="44.38989" lon="5.11812">
        <ele>857.15</ele>
        <time>2011-03-31T08:53:19Z</time>
      </trkpt>
      <trkpt lat="44.38988" lon="5.11821">
        <ele>857.63</ele>
        <time>2011-03-31T08:53:25Z</time>
      </trkpt>
      <trkpt lat="44.38989" lon="5.11828">
        <ele>858.59</ele>
        <time>2011-03-31T08:53:32Z</time>
      </trkpt>
      <trkpt lat="44.38988" lon="5.11839">
        <ele>859.56</ele>
        <time>2011-03-31T08:53:40Z</time>
      </trkpt>
      <trkpt lat="44.38987" lon="5.11839">
        <ele>861</ele>
        <time>2011-03-31T08:53:48Z</time>
      </trkpt>
      <trkpt lat="44.38984" lon="5.11845">
        <ele>861.48</ele>
        <time>2011-03-31T08:53:53Z</time>
      </trkpt>
      <trkpt lat="44.38984" lon="5.11849">
        <ele>862.44</ele>
        <time>2011-03-31T08:53:58Z</time>
      </trkpt>
      <trkpt lat="44.38982" lon="5.11855">
        <ele>862.92</ele>
        <time>2011-03-31T08:54:05Z</time>
      </trkpt>
      <trkpt lat="44.38982" lon="5.11858">
        <ele>863.88</ele>
        <time>2011-03-31T08:54:11Z</time>
      </trkpt>
      <trkpt lat="44.38981" lon="5.11862">
        <ele>865.32</ele>
        <time>2011-03-31T08:54:18Z</time>
      </trkpt>
      <trkpt lat="44.38983" lon="5.11865">
        <ele>865.32</ele>
        <time>2011-03-31T08:54:22Z</time>
      </trkpt>
      <trkpt lat="44.38981" lon="5.11877">
        <ele>866.77</ele>
        <time>2011-03-31T08:54:30Z</time>
      </trkpt>
      <trkpt lat="44.38977" lon="5.11887">
        <ele>867.25</ele>
        <time>2011-03-31T08:54:36Z</time>
      </trkpt>
      <trkpt lat="44.38976" lon="5.11891">
        <ele>868.69</ele>
        <time>2011-03-31T08:54:43Z</time>
      </trkpt>
      <trkpt lat="44.38977" lon="5.11892">
        <ele>869.65</ele>
        <time>2011-03-31T08:54:49Z</time>
      </trkpt>
      <trkpt lat="44.38975" lon="5.11895">
        <ele>871.09</ele>
        <time>2011-03-31T08:54:55Z</time>
      </trkpt>
      <trkpt lat="44.38974" lon="5.11903">
        <ele>871.57</ele>
        <time>2011-03-31T08:54:59Z</time>
      </trkpt>
      <trkpt lat="44.38973" lon="5.11911">
        <ele>872.05</ele>
        <time>2011-03-31T08:55:06Z</time>
      </trkpt>
      <trkpt lat="44.38967" lon="5.11924">
        <ele>872.53</ele>
        <time>2011-03-31T08:55:12Z</time>
      </trkpt>
      <trkpt lat="44.38967" lon="5.11917">
        <ele>872.05</ele>
        <time>2011-03-31T08:55:15Z</time>
      </trkpt>
      <trkpt lat="44.38964" lon="5.11918">
        <ele>871.57</ele>
        <time>2011-03-31T08:55:24Z</time>
      </trkpt>
      <trkpt lat="44.38962" lon="5.11919">
        <ele>871.57</ele>
        <time>2011-03-31T08:55:25Z</time>
      </trkpt>
      <trkpt lat="44.38955" lon="5.11927">
        <ele>870.61</ele>
        <time>2011-03-31T08:55:35Z</time>
      </trkpt>
      <trkpt lat="44.38951" lon="5.11935">
        <ele>869.65</ele>
        <time>2011-03-31T08:55:43Z</time>
      </trkpt>
      <trkpt lat="44.38946" lon="5.11937">
        <ele>867.73</ele>
        <time>2011-03-31T08:55:51Z</time>
      </trkpt>
      <trkpt lat="44.38938" lon="5.1194">
        <ele>866.77</ele>
        <time>2011-03-31T08:56:01Z</time>
      </trkpt>
      <trkpt lat="44.38933" lon="5.11948">
        <ele>865.32</ele>
        <time>2011-03-31T08:56:07Z</time>
      </trkpt>
      <trkpt lat="44.3893" lon="5.11951">
        <ele>863.88</ele>
        <time>2011-03-31T08:56:15Z</time>
      </trkpt>
      <trkpt lat="44.38927" lon="5.11956">
        <ele>862.92</ele>
        <time>2011-03-31T08:56:19Z</time>
      </trkpt>
      <trkpt lat="44.38922" lon="5.11961">
        <ele>861</ele>
        <time>2011-03-31T08:56:27Z</time>
      </trkpt>
      <trkpt lat="44.38918" lon="5.11964">
        <ele>860.04</ele>
        <time>2011-03-31T08:56:33Z</time>
      </trkpt>
      <trkpt lat="44.38915" lon="5.11976">
        <ele>858.59</ele>
        <time>2011-03-31T08:56:39Z</time>
      </trkpt>
      <trkpt lat="44.38912" lon="5.1198">
        <ele>856.19</ele>
        <time>2011-03-31T08:56:48Z</time>
      </trkpt>
      <trkpt lat="44.38909" lon="5.11996">
        <ele>855.23</ele>
        <time>2011-03-31T08:56:53Z</time>
      </trkpt>
      <trkpt lat="44.38908" lon="5.11988">
        <ele>854.27</ele>
        <time>2011-03-31T08:56:56Z</time>
      </trkpt>
      <trkpt lat="44.38902" lon="5.12001">
        <ele>851.87</ele>
        <time>2011-03-31T08:57:06Z</time>
      </trkpt>
      <trkpt lat="44.38903" lon="5.12005">
        <ele>850.9</ele>
        <time>2011-03-31T08:57:10Z</time>
      </trkpt>
      <trkpt lat="44.38899" lon="5.12009">
        <ele>850.42</ele>
        <time>2011-03-31T08:57:13Z</time>
      </trkpt>
      <trkpt lat="44.38894" lon="5.12015">
        <ele>849.94</ele>
        <time>2011-03-31T08:57:18Z</time>
      </trkpt>
      <trkpt lat="44.38889" lon="5.12018">
        <ele>849.94</ele>
        <time>2011-03-31T08:57:23Z</time>
      </trkpt>
      <trkpt lat="44.38888" lon="5.12021">
        <ele>849.46</ele>
        <time>2011-03-31T08:57:27Z</time>
      </trkpt>
      <trkpt lat="44.38883" lon="5.12019">
        <ele>849.46</ele>
        <time>2011-03-31T08:57:29Z</time>
      </trkpt>
      <trkpt lat="44.38878" lon="5.12023">
        <ele>848.02</ele>
        <time>2011-03-31T08:57:37Z</time>
      </trkpt>
      <trkpt lat="44.38872" lon="5.1203">
        <ele>848.02</ele>
        <time>2011-03-31T08:57:44Z</time>
      </trkpt>
      <trkpt lat="44.3887" lon="5.12037">
        <ele>848.5</ele>
        <time>2011-03-31T08:57:48Z</time>
      </trkpt>
      <trkpt lat="44.3887" lon="5.12043">
        <ele>849.94</ele>
        <time>2011-03-31T08:57:57Z</time>
      </trkpt>
      <trkpt lat="44.38865" lon="5.12054">
        <ele>851.38</ele>
        <time>2011-03-31T08:58:04Z</time>
      </trkpt>
      <trkpt lat="44.38864" lon="5.12055">
        <ele>851.87</ele>
        <time>2011-03-31T08:58:10Z</time>
      </trkpt>
      <trkpt lat="44.3886" lon="5.12058">
        <ele>852.35</ele>
        <time>2011-03-31T08:58:16Z</time>
      </trkpt>
      <trkpt lat="44.38857" lon="5.12058">
        <ele>852.35</ele>
        <time>2011-03-31T08:58:19Z</time>
      </trkpt>
      <trkpt lat="44.38853" lon="5.12061">
        <ele>852.83</ele>
        <time>2011-03-31T08:58:22Z</time>
      </trkpt>
      <trkpt lat="44.38854" lon="5.12065">
        <ele>852.83</ele>
        <time>2011-03-31T08:58:24Z</time>
      </trkpt>
      <trkpt lat="44.38853" lon="5.12063">
        <ele>853.31</ele>
        <time>2011-03-31T08:58:27Z</time>
      </trkpt>
      <trkpt lat="44.38847" lon="5.1207">
        <ele>854.75</ele>
        <time>2011-03-31T08:58:35Z</time>
      </trkpt>
      <trkpt lat="44.38847" lon="5.12074">
        <ele>856.19</ele>
        <time>2011-03-31T08:58:41Z</time>
      </trkpt>
      <trkpt lat="44.38846" lon="5.1208">
        <ele>857.15</ele>
        <time>2011-03-31T08:58:49Z</time>
      </trkpt>
      <trkpt lat="44.38841" lon="5.1209">
        <ele>857.63</ele>
        <time>2011-03-31T08:58:55Z</time>
      </trkpt>
      <trkpt lat="44.38843" lon="5.12093">
        <ele>859.56</ele>
        <time>2011-03-31T08:59:01Z</time>
      </trkpt>
      <trkpt lat="44.38839" lon="5.12096">
        <ele>859.56</ele>
        <time>2011-03-31T08:59:06Z</time>
      </trkpt>
      <trkpt lat="44.38842" lon="5.12104">
        <ele>861</ele>
        <time>2011-03-31T08:59:14Z</time>
      </trkpt>
      <trkpt lat="44.38839" lon="5.1211">
        <ele>861.48</ele>
        <time>2011-03-31T08:59:18Z</time>
      </trkpt>
      <trkpt lat="44.38838" lon="5.12112">
        <ele>861.96</ele>
        <time>2011-03-31T08:59:21Z</time>
      </trkpt>
      <trkpt lat="44.38833" lon="5.12117">
        <ele>861.48</ele>
        <time>2011-03-31T08:59:28Z</time>
      </trkpt>
      <trkpt lat="44.3883" lon="5.12126">
        <ele>861</ele>
        <time>2011-03-31T08:59:36Z</time>
      </trkpt>
      <trkpt lat="44.38829" lon="5.12132">
        <ele>861.48</ele>
        <time>2011-03-31T08:59:38Z</time>
      </trkpt>
      <trkpt lat="44.38827" lon="5.12134">
        <ele>860.04</ele>
        <time>2011-03-31T08:59:44Z</time>
      </trkpt>
      <trkpt lat="44.38827" lon="5.1214">
        <ele>860.04</ele>
        <time>2011-03-31T08:59:47Z</time>
      </trkpt>
      <trkpt lat="44.38824" lon="5.12146">
        <ele>859.08</ele>
        <time>2011-03-31T08:59:50Z</time>
      </trkpt>
      <trkpt lat="44.38823" lon="5.12145">
        <ele>859.08</ele>
        <time>2011-03-31T08:59:52Z</time>
      </trkpt>
      <trkpt lat="44.3882" lon="5.12149">
        <ele>858.59</ele>
        <time>2011-03-31T09:00:01Z</time>
      </trkpt>
      <trkpt lat="44.38816" lon="5.12157">
        <ele>858.59</ele>
        <time>2011-03-31T09:00:23Z</time>
      </trkpt>
      <trkpt lat="44.38813" lon="5.12157">
        <ele>858.59</ele>
        <time>2011-03-31T09:00:25Z</time>
      </trkpt>
      <trkpt lat="44.38809" lon="5.12159">
        <ele>858.11</ele>
        <time>2011-03-31T09:00:30Z</time>
      </trkpt>
      <trkpt lat="44.38806" lon="5.12162">
        <ele>858.59</ele>
        <time>2011-03-31T09:00:35Z</time>
      </trkpt>
      <trkpt lat="44.38798" lon="5.12166">
        <ele>859.08</ele>
        <time>2011-03-31T09:00:42Z</time>
      </trkpt>
      <trkpt lat="44.38797" lon="5.12175">
        <ele>859.08</ele>
        <time>2011-03-31T09:00:49Z</time>
      </trkpt>
      <trkpt lat="44.38793" lon="5.12183">
        <ele>859.56</ele>
        <time>2011-03-31T09:00:56Z</time>
      </trkpt>
      <trkpt lat="44.38793" lon="5.12186">
        <ele>859.08</ele>
        <time>2011-03-31T09:00:58Z</time>
      </trkpt>
      <trkpt lat="44.38786" lon="5.12185">
        <ele>860.04</ele>
        <time>2011-03-31T09:01:05Z</time>
      </trkpt>
      <trkpt lat="44.38778" lon="5.12188">
        <ele>861</ele>
        <time>2011-03-31T09:01:13Z</time>
      </trkpt>
      <trkpt lat="44.38776" lon="5.12191">
        <ele>861.96</ele>
        <time>2011-03-31T09:01:19Z</time>
      </trkpt>
      <trkpt lat="44.38771" lon="5.12196">
        <ele>862.44</ele>
        <time>2011-03-31T09:01:25Z</time>
      </trkpt>
      <trkpt lat="44.38771" lon="5.12202">
        <ele>863.4</ele>
        <time>2011-03-31T09:01:32Z</time>
      </trkpt>
      <trkpt lat="44.38769" lon="5.12198">
        <ele>863.4</ele>
        <time>2011-03-31T09:01:37Z</time>
      </trkpt>
      <trkpt lat="44.38762" lon="5.12209">
        <ele>864.36</ele>
        <time>2011-03-31T09:01:43Z</time>
      </trkpt>
      <trkpt lat="44.38761" lon="5.1221">
        <ele>864.84</ele>
        <time>2011-03-31T09:01:50Z</time>
      </trkpt>
      <trkpt lat="44.38756" lon="5.12212">
        <ele>865.32</ele>
        <time>2011-03-31T09:01:55Z</time>
      </trkpt>
      <trkpt lat="44.38752" lon="5.12219">
        <ele>866.29</ele>
        <time>2011-03-31T09:02:03Z</time>
      </trkpt>
      <trkpt lat="44.38748" lon="5.12222">
        <ele>866.77</ele>
        <time>2011-03-31T09:02:10Z</time>
      </trkpt>
      <trkpt lat="44.38742" lon="5.12219">
        <ele>865.32</ele>
        <time>2011-03-31T09:02:17Z</time>
      </trkpt>
      <trkpt lat="44.38739" lon="5.12222">
        <ele>864.36</ele>
        <time>2011-03-31T09:02:24Z</time>
      </trkpt>
      <trkpt lat="44.3873" lon="5.12222">
        <ele>864.36</ele>
        <time>2011-03-31T09:02:33Z</time>
      </trkpt>
      <trkpt lat="44.38728" lon="5.12231">
        <ele>862.92</ele>
        <time>2011-03-31T09:02:42Z</time>
      </trkpt>
      <trkpt lat="44.38722" lon="5.12234">
        <ele>862.44</ele>
        <time>2011-03-31T09:02:46Z</time>
      </trkpt>
      <trkpt lat="44.38721" lon="5.1224">
        <ele>861.96</ele>
        <time>2011-03-31T09:02:53Z</time>
      </trkpt>
      <trkpt lat="44.38717" lon="5.12244">
        <ele>861</ele>
        <time>2011-03-31T09:03:03Z</time>
      </trkpt>
      <trkpt lat="44.38709" lon="5.1224">
        <ele>859.56</ele>
        <time>2011-03-31T09:03:09Z</time>
      </trkpt>
      <trkpt lat="44.38705" lon="5.12245">
        <ele>858.59</ele>
        <time>2011-03-31T09:03:14Z</time>
      </trkpt>
      <trkpt lat="44.387" lon="5.12247">
        <ele>857.63</ele>
        <time>2011-03-31T09:03:18Z</time>
      </trkpt>
      <trkpt lat="44.38702" lon="5.12251">
        <ele>857.63</ele>
        <time>2011-03-31T09:03:20Z</time>
      </trkpt>
      <trkpt lat="44.387" lon="5.12256">
        <ele>857.15</ele>
        <time>2011-03-31T09:03:23Z</time>
      </trkpt>
      <trkpt lat="44.38696" lon="5.12261">
        <ele>857.63</ele>
        <time>2011-03-31T09:03:25Z</time>
      </trkpt>
      <trkpt lat="44.38691" lon="5.12265">
        <ele>857.15</ele>
        <time>2011-03-31T09:03:32Z</time>
      </trkpt>
      <trkpt lat="44.38688" lon="5.1227">
        <ele>856.67</ele>
        <time>2011-03-31T09:03:37Z</time>
      </trkpt>
      <trkpt lat="44.38688" lon="5.12272">
        <ele>856.19</ele>
        <time>2011-03-31T09:03:39Z</time>
      </trkpt>
      <trkpt lat="44.38684" lon="5.1228">
        <ele>856.67</ele>
        <time>2011-03-31T09:03:47Z</time>
      </trkpt>
      <trkpt lat="44.38681" lon="5.12295">
        <ele>855.71</ele>
        <time>2011-03-31T09:03:54Z</time>
      </trkpt>
      <trkpt lat="44.38682" lon="5.12292">
        <ele>852.35</ele>
        <time>2011-03-31T09:05:28Z</time>
      </trkpt>
      <trkpt lat="44.38682" lon="5.12292">
        <ele>853.31</ele>
        <time>2011-03-31T09:05:29Z</time>
      </trkpt>
      <trkpt lat="44.38682" lon="5.12292">
        <ele>855.23</ele>
        <time>2011-03-31T09:05:31Z</time>
      </trkpt>
      <trkpt lat="44.38679" lon="5.12288">
        <ele>855.71</ele>
        <time>2011-03-31T09:05:45Z</time>
      </trkpt>
      <trkpt lat="44.38678" lon="5.12297">
        <ele>855.23</ele>
        <time>2011-03-31T09:05:53Z</time>
      </trkpt>
      <trkpt lat="44.38672" lon="5.12293">
        <ele>854.27</ele>
        <time>2011-03-31T09:06:06Z</time>
      </trkpt>
      <trkpt lat="44.38662" lon="5.12297">
        <ele>853.31</ele>
        <time>2011-03-31T09:06:11Z</time>
      </trkpt>
      <trkpt lat="44.38658" lon="5.12298">
        <ele>852.83</ele>
        <time>2011-03-31T09:06:14Z</time>
      </trkpt>
      <trkpt lat="44.38655" lon="5.12312">
        <ele>852.35</ele>
        <time>2011-03-31T09:06:18Z</time>
      </trkpt>
      <trkpt lat="44.38653" lon="5.12306">
        <ele>851.87</ele>
        <time>2011-03-31T09:06:21Z</time>
      </trkpt>
      <trkpt lat="44.38649" lon="5.12299">
        <ele>850.9</ele>
        <time>2011-03-31T09:06:24Z</time>
      </trkpt>
      <trkpt lat="44.38647" lon="5.12302">
        <ele>850.42</ele>
        <time>2011-03-31T09:06:28Z</time>
      </trkpt>
      <trkpt lat="44.38642" lon="5.12308">
        <ele>849.46</ele>
        <time>2011-03-31T09:06:35Z</time>
      </trkpt>
      <trkpt lat="44.38634" lon="5.12314">
        <ele>849.46</ele>
        <time>2011-03-31T09:06:41Z</time>
      </trkpt>
      <trkpt lat="44.38631" lon="5.12314">
        <ele>848.5</ele>
        <time>2011-03-31T09:06:46Z</time>
      </trkpt>
      <trkpt lat="44.38632" lon="5.12327">
        <ele>849.94</ele>
        <time>2011-03-31T09:06:53Z</time>
      </trkpt>
      <trkpt lat="44.38627" lon="5.12333">
        <ele>851.87</ele>
        <time>2011-03-31T09:07:02Z</time>
      </trkpt>
      <trkpt lat="44.38626" lon="5.12337">
        <ele>851.87</ele>
        <time>2011-03-31T09:07:06Z</time>
      </trkpt>
      <trkpt lat="44.3862" lon="5.12343">
        <ele>851.87</ele>
        <time>2011-03-31T09:07:12Z</time>
      </trkpt>
      <trkpt lat="44.38621" lon="5.12351">
        <ele>853.31</ele>
        <time>2011-03-31T09:07:18Z</time>
      </trkpt>
      <trkpt lat="44.38623" lon="5.12359">
        <ele>851.87</ele>
        <time>2011-03-31T09:07:24Z</time>
      </trkpt>
      <trkpt lat="44.38624" lon="5.12361">
        <ele>851.87</ele>
        <time>2011-03-31T09:07:25Z</time>
      </trkpt>
      <trkpt lat="44.38615" lon="5.12364">
        <ele>851.87</ele>
        <time>2011-03-31T09:07:31Z</time>
      </trkpt>
      <trkpt lat="44.38614" lon="5.12365">
        <ele>851.87</ele>
        <time>2011-03-31T09:07:32Z</time>
      </trkpt>
      <trkpt lat="44.38608" lon="5.12371">
        <ele>851.38</ele>
        <time>2011-03-31T09:07:40Z</time>
      </trkpt>
      <trkpt lat="44.38602" lon="5.1238">
        <ele>850.42</ele>
        <time>2011-03-31T09:07:46Z</time>
      </trkpt>
      <trkpt lat="44.386" lon="5.12381">
        <ele>849.46</ele>
        <time>2011-03-31T09:07:50Z</time>
      </trkpt>
      <trkpt lat="44.38595" lon="5.12393">
        <ele>848.5</ele>
        <time>2011-03-31T09:07:58Z</time>
      </trkpt>
      <trkpt lat="44.38594" lon="5.124">
        <ele>847.54</ele>
        <time>2011-03-31T09:08:05Z</time>
      </trkpt>
      <trkpt lat="44.38588" lon="5.12398">
        <ele>846.1</ele>
        <time>2011-03-31T09:08:10Z</time>
      </trkpt>
      <trkpt lat="44.38585" lon="5.12404">
        <ele>845.62</ele>
        <time>2011-03-31T09:08:13Z</time>
      </trkpt>
      <trkpt lat="44.38583" lon="5.12414">
        <ele>845.62</ele>
        <time>2011-03-31T09:08:19Z</time>
      </trkpt>
      <trkpt lat="44.38576" lon="5.12418">
        <ele>845.14</ele>
        <time>2011-03-31T09:08:26Z</time>
      </trkpt>
      <trkpt lat="44.38575" lon="5.12422">
        <ele>844.18</ele>
        <time>2011-03-31T09:08:31Z</time>
      </trkpt>
      <trkpt lat="44.38565" lon="5.12425">
        <ele>843.21</ele>
        <time>2011-03-31T09:08:38Z</time>
      </trkpt>
      <trkpt lat="44.38562" lon="5.12425">
        <ele>842.73</ele>
        <time>2011-03-31T09:08:40Z</time>
      </trkpt>
      <trkpt lat="44.38559" lon="5.12434">
        <ele>841.77</ele>
        <time>2011-03-31T09:08:46Z</time>
      </trkpt>
      <trkpt lat="44.38558" lon="5.12445">
        <ele>841.29</ele>
        <time>2011-03-31T09:08:53Z</time>
      </trkpt>
      <trkpt lat="44.38555" lon="5.12444">
        <ele>841.29</ele>
        <time>2011-03-31T09:08:54Z</time>
      </trkpt>
      <trkpt lat="44.3855" lon="5.12449">
        <ele>840.81</ele>
        <time>2011-03-31T09:09:00Z</time>
      </trkpt>
      <trkpt lat="44.38549" lon="5.1246">
        <ele>841.77</ele>
        <time>2011-03-31T09:09:07Z</time>
      </trkpt>
      <trkpt lat="44.38548" lon="5.12466">
        <ele>842.73</ele>
        <time>2011-03-31T09:09:11Z</time>
      </trkpt>
      <trkpt lat="44.38545" lon="5.12473">
        <ele>843.21</ele>
        <time>2011-03-31T09:09:17Z</time>
      </trkpt>
      <trkpt lat="44.38543" lon="5.12474">
        <ele>843.21</ele>
        <time>2011-03-31T09:09:18Z</time>
      </trkpt>
      <trkpt lat="44.38542" lon="5.12481">
        <ele>844.66</ele>
        <time>2011-03-31T09:09:26Z</time>
      </trkpt>
      <trkpt lat="44.38538" lon="5.12488">
        <ele>846.1</ele>
        <time>2011-03-31T09:09:33Z</time>
      </trkpt>
      <trkpt lat="44.38539" lon="5.12489">
        <ele>846.58</ele>
        <time>2011-03-31T09:09:38Z</time>
      </trkpt>
      <trkpt lat="44.38535" lon="5.12499">
        <ele>846.58</ele>
        <time>2011-03-31T09:09:45Z</time>
      </trkpt>
      <trkpt lat="44.3853" lon="5.12503">
        <ele>846.1</ele>
        <time>2011-03-31T09:09:50Z</time>
      </trkpt>
      <trkpt lat="44.38528" lon="5.12505">
        <ele>845.14</ele>
        <time>2011-03-31T09:09:55Z</time>
      </trkpt>
      <trkpt lat="44.38526" lon="5.12509">
        <ele>845.14</ele>
        <time>2011-03-31T09:09:58Z</time>
      </trkpt>
      <trkpt lat="44.38519" lon="5.12522">
        <ele>844.66</ele>
        <time>2011-03-31T09:10:06Z</time>
      </trkpt>
      <trkpt lat="44.38519" lon="5.12529">
        <ele>845.14</ele>
        <time>2011-03-31T09:10:13Z</time>
      </trkpt>
      <trkpt lat="44.38512" lon="5.12537">
        <ele>844.66</ele>
        <time>2011-03-31T09:10:21Z</time>
      </trkpt>
      <trkpt lat="44.38507" lon="5.12539">
        <ele>844.66</ele>
        <time>2011-03-31T09:10:28Z</time>
      </trkpt>
      <trkpt lat="44.38506" lon="5.12546">
        <ele>843.69</ele>
        <time>2011-03-31T09:10:32Z</time>
      </trkpt>
      <trkpt lat="44.38495" lon="5.12546">
        <ele>842.25</ele>
        <time>2011-03-31T09:10:39Z</time>
      </trkpt>
      <trkpt lat="44.38494" lon="5.12551">
        <ele>842.73</ele>
        <time>2011-03-31T09:10:43Z</time>
      </trkpt>
      <trkpt lat="44.38491" lon="5.12555">
        <ele>842.25</ele>
        <time>2011-03-31T09:10:49Z</time>
      </trkpt>
      <trkpt lat="44.38484" lon="5.12561">
        <ele>841.77</ele>
        <time>2011-03-31T09:10:55Z</time>
      </trkpt>
      <trkpt lat="44.38479" lon="5.12566">
        <ele>840.81</ele>
        <time>2011-03-31T09:11:02Z</time>
      </trkpt>
      <trkpt lat="44.38471" lon="5.12573">
        <ele>840.33</ele>
        <time>2011-03-31T09:11:10Z</time>
      </trkpt>
      <trkpt lat="44.38469" lon="5.12577">
        <ele>840.33</ele>
        <time>2011-03-31T09:11:14Z</time>
      </trkpt>
      <trkpt lat="44.38464" lon="5.12585">
        <ele>840.33</ele>
        <time>2011-03-31T09:11:22Z</time>
      </trkpt>
      <trkpt lat="44.38459" lon="5.12589">
        <ele>839.37</ele>
        <time>2011-03-31T09:11:26Z</time>
      </trkpt>
      <trkpt lat="44.38455" lon="5.12596">
        <ele>837.93</ele>
        <time>2011-03-31T09:11:34Z</time>
      </trkpt>
      <trkpt lat="44.38454" lon="5.126">
        <ele>837.93</ele>
        <time>2011-03-31T09:11:36Z</time>
      </trkpt>
      <trkpt lat="44.38449" lon="5.12607">
        <ele>837.45</ele>
        <time>2011-03-31T09:11:41Z</time>
      </trkpt>
      <trkpt lat="44.38441" lon="5.12611">
        <ele>835.52</ele>
        <time>2011-03-31T09:11:49Z</time>
      </trkpt>
      <trkpt lat="44.38439" lon="5.12613">
        <ele>835.52</ele>
        <time>2011-03-31T09:11:51Z</time>
      </trkpt>
      <trkpt lat="44.38435" lon="5.12624">
        <ele>835.04</ele>
        <time>2011-03-31T09:11:58Z</time>
      </trkpt>
      <trkpt lat="44.38436" lon="5.12622">
        <ele>835.04</ele>
        <time>2011-03-31T09:12:00Z</time>
      </trkpt>
      <trkpt lat="44.38432" lon="5.12626">
        <ele>833.6</ele>
        <time>2011-03-31T09:12:08Z</time>
      </trkpt>
      <trkpt lat="44.38431" lon="5.12625">
        <ele>833.6</ele>
        <time>2011-03-31T09:12:17Z</time>
      </trkpt>
      <trkpt lat="44.38424" lon="5.12633">
        <ele>832.64</ele>
        <time>2011-03-31T09:12:26Z</time>
      </trkpt>
      <trkpt lat="44.38418" lon="5.12639">
        <ele>830.72</ele>
        <time>2011-03-31T09:12:34Z</time>
      </trkpt>
      <trkpt lat="44.38414" lon="5.12642">
        <ele>829.76</ele>
        <time>2011-03-31T09:12:38Z</time>
      </trkpt>
      <trkpt lat="44.38408" lon="5.12654">
        <ele>828.79</ele>
        <time>2011-03-31T09:12:46Z</time>
      </trkpt>
      <trkpt lat="44.38406" lon="5.12661">
        <ele>829.27</ele>
        <time>2011-03-31T09:12:53Z</time>
      </trkpt>
      <trkpt lat="44.38402" lon="5.1267">
        <ele>828.79</ele>
        <time>2011-03-31T09:12:59Z</time>
      </trkpt>
      <trkpt lat="44.38396" lon="5.12678">
        <ele>826.87</ele>
        <time>2011-03-31T09:13:07Z</time>
      </trkpt>
      <trkpt lat="44.38394" lon="5.12685">
        <ele>826.39</ele>
        <time>2011-03-31T09:13:14Z</time>
      </trkpt>
      <trkpt lat="44.38386" lon="5.12697">
        <ele>825.43</ele>
        <time>2011-03-31T09:13:22Z</time>
      </trkpt>
      <trkpt lat="44.38383" lon="5.12706">
        <ele>825.91</ele>
        <time>2011-03-31T09:13:30Z</time>
      </trkpt>
      <trkpt lat="44.38376" lon="5.12709">
        <ele>825.91</ele>
        <time>2011-03-31T09:13:38Z</time>
      </trkpt>
      <trkpt lat="44.38374" lon="5.12714">
        <ele>824.95</ele>
        <time>2011-03-31T09:13:48Z</time>
      </trkpt>
      <trkpt lat="44.38372" lon="5.12721">
        <ele>823.99</ele>
        <time>2011-03-31T09:13:56Z</time>
      </trkpt>
      <trkpt lat="44.38364" lon="5.12726">
        <ele>823.03</ele>
        <time>2011-03-31T09:14:04Z</time>
      </trkpt>
      <trkpt lat="44.3836" lon="5.12728">
        <ele>822.06</ele>
        <time>2011-03-31T09:14:07Z</time>
      </trkpt>
      <trkpt lat="44.38358" lon="5.12735">
        <ele>820.62</ele>
        <time>2011-03-31T09:14:13Z</time>
      </trkpt>
      <trkpt lat="44.38354" lon="5.1274">
        <ele>819.18</ele>
        <time>2011-03-31T09:14:20Z</time>
      </trkpt>
      <trkpt lat="44.38346" lon="5.12741">
        <ele>817.26</ele>
        <time>2011-03-31T09:14:28Z</time>
      </trkpt>
      <trkpt lat="44.38339" lon="5.12749">
        <ele>815.82</ele>
        <time>2011-03-31T09:14:37Z</time>
      </trkpt>
      <trkpt lat="44.38337" lon="5.12753">
        <ele>814.37</ele>
        <time>2011-03-31T09:14:42Z</time>
      </trkpt>
      <trkpt lat="44.3833" lon="5.12756">
        <ele>812.93</ele>
        <time>2011-03-31T09:14:49Z</time>
      </trkpt>
      <trkpt lat="44.38327" lon="5.12763">
        <ele>811.49</ele>
        <time>2011-03-31T09:14:56Z</time>
      </trkpt>
      <trkpt lat="44.3832" lon="5.12766">
        <ele>810.05</ele>
        <time>2011-03-31T09:15:02Z</time>
      </trkpt>
      <trkpt lat="44.38319" lon="5.1277">
        <ele>809.09</ele>
        <time>2011-03-31T09:15:04Z</time>
      </trkpt>
      <trkpt lat="44.38312" lon="5.12776">
        <ele>808.13</ele>
        <time>2011-03-31T09:15:13Z</time>
      </trkpt>
      <trkpt lat="44.3831" lon="5.12782">
        <ele>807.64</ele>
        <time>2011-03-31T09:15:19Z</time>
      </trkpt>
      <trkpt lat="44.38307" lon="5.12787">
        <ele>807.64</ele>
        <time>2011-03-31T09:15:22Z</time>
      </trkpt>
      <trkpt lat="44.38302" lon="5.12793">
        <ele>806.68</ele>
        <time>2011-03-31T09:15:29Z</time>
      </trkpt>
      <trkpt lat="44.38299" lon="5.12795">
        <ele>804.76</ele>
        <time>2011-03-31T09:15:35Z</time>
      </trkpt>
      <trkpt lat="44.38295" lon="5.12796">
        <ele>803.8</ele>
        <time>2011-03-31T09:15:39Z</time>
      </trkpt>
      <trkpt lat="44.38288" lon="5.128">
        <ele>802.36</ele>
        <time>2011-03-31T09:15:46Z</time>
      </trkpt>
      <trkpt lat="44.38289" lon="5.128">
        <ele>802.36</ele>
        <time>2011-03-31T09:15:47Z</time>
      </trkpt>
      <trkpt lat="44.38284" lon="5.12806">
        <ele>802.36</ele>
        <time>2011-03-31T09:15:52Z</time>
      </trkpt>
      <trkpt lat="44.38283" lon="5.12809">
        <ele>801.88</ele>
        <time>2011-03-31T09:15:55Z</time>
      </trkpt>
      <trkpt lat="44.38273" lon="5.12813">
        <ele>800.44</ele>
        <time>2011-03-31T09:16:03Z</time>
      </trkpt>
      <trkpt lat="44.38272" lon="5.12817">
        <ele>798.99</ele>
        <time>2011-03-31T09:16:10Z</time>
      </trkpt>
      <trkpt lat="44.38268" lon="5.12822">
        <ele>798.03</ele>
        <time>2011-03-31T09:16:15Z</time>
      </trkpt>
      <trkpt lat="44.38268" lon="5.12822">
        <ele>797.55</ele>
        <time>2011-03-31T09:16:17Z</time>
      </trkpt>
      <trkpt lat="44.38265" lon="5.12827">
        <ele>796.59</ele>
        <time>2011-03-31T09:16:23Z</time>
      </trkpt>
      <trkpt lat="44.3826" lon="5.12829">
        <ele>795.63</ele>
        <time>2011-03-31T09:16:28Z</time>
      </trkpt>
      <trkpt lat="44.38257" lon="5.1283">
        <ele>795.15</ele>
        <time>2011-03-31T09:16:31Z</time>
      </trkpt>
      <trkpt lat="44.38251" lon="5.12845">
        <ele>794.19</ele>
        <time>2011-03-31T09:16:41Z</time>
      </trkpt>
      <trkpt lat="44.38246" lon="5.12852">
        <ele>793.22</ele>
        <time>2011-03-31T09:16:49Z</time>
      </trkpt>
      <trkpt lat="44.3824" lon="5.12861">
        <ele>791.3</ele>
        <time>2011-03-31T09:16:57Z</time>
      </trkpt>
      <trkpt lat="44.38237" lon="5.12864">
        <ele>791.78</ele>
        <time>2011-03-31T09:16:58Z</time>
      </trkpt>
      <trkpt lat="44.38236" lon="5.12871">
        <ele>790.34</ele>
        <time>2011-03-31T09:17:06Z</time>
      </trkpt>
      <trkpt lat="44.38231" lon="5.12875">
        <ele>788.9</ele>
        <time>2011-03-31T09:17:13Z</time>
      </trkpt>
      <trkpt lat="44.38232" lon="5.12881">
        <ele>788.9</ele>
        <time>2011-03-31T09:17:16Z</time>
      </trkpt>
      <trkpt lat="44.38228" lon="5.12887">
        <ele>787.94</ele>
        <time>2011-03-31T09:17:24Z</time>
      </trkpt>
      <trkpt lat="44.38225" lon="5.1289">
        <ele>787.46</ele>
        <time>2011-03-31T09:17:26Z</time>
      </trkpt>
      <trkpt lat="44.38225" lon="5.129">
        <ele>788.42</ele>
        <time>2011-03-31T09:17:34Z</time>
      </trkpt>
      <trkpt lat="44.38224" lon="5.12905">
        <ele>788.42</ele>
        <time>2011-03-31T09:17:40Z</time>
      </trkpt>
      <trkpt lat="44.38223" lon="5.12907">
        <ele>787.94</ele>
        <time>2011-03-31T09:17:42Z</time>
      </trkpt>
      <trkpt lat="44.38221" lon="5.1291">
        <ele>788.42</ele>
        <time>2011-03-31T09:17:47Z</time>
      </trkpt>
      <trkpt lat="44.38221" lon="5.12912">
        <ele>786.98</ele>
        <time>2011-03-31T09:17:49Z</time>
      </trkpt>
      <trkpt lat="44.38216" lon="5.12919">
        <ele>785.05</ele>
        <time>2011-03-31T09:17:59Z</time>
      </trkpt>
      <trkpt lat="44.38212" lon="5.12926">
        <ele>783.13</ele>
        <time>2011-03-31T09:18:07Z</time>
      </trkpt>
      <trkpt lat="44.38207" lon="5.1293">
        <ele>781.69</ele>
        <time>2011-03-31T09:18:14Z</time>
      </trkpt>
      <trkpt lat="44.38206" lon="5.12938">
        <ele>779.77</ele>
        <time>2011-03-31T09:18:22Z</time>
      </trkpt>
      <trkpt lat="44.382" lon="5.12943">
        <ele>778.32</ele>
        <time>2011-03-31T09:18:28Z</time>
      </trkpt>
      <trkpt lat="44.382" lon="5.12945">
        <ele>777.84</ele>
        <time>2011-03-31T09:18:33Z</time>
      </trkpt>
      <trkpt lat="44.38194" lon="5.12952">
        <ele>775.44</ele>
        <time>2011-03-31T09:18:41Z</time>
      </trkpt>
      <trkpt lat="44.38189" lon="5.12957">
        <ele>774.48</ele>
        <time>2011-03-31T09:18:48Z</time>
      </trkpt>
      <trkpt lat="44.38185" lon="5.12961">
        <ele>772.56</ele>
        <time>2011-03-31T09:18:56Z</time>
      </trkpt>
      <trkpt lat="44.38185" lon="5.12965">
        <ele>772.56</ele>
        <time>2011-03-31T09:18:58Z</time>
      </trkpt>
      <trkpt lat="44.3818" lon="5.12968">
        <ele>771.6</ele>
        <time>2011-03-31T09:19:01Z</time>
      </trkpt>
      <trkpt lat="44.38179" lon="5.12972">
        <ele>771.11</ele>
        <time>2011-03-31T09:19:07Z</time>
      </trkpt>
      <trkpt lat="44.38175" lon="5.12979">
        <ele>770.15</ele>
        <time>2011-03-31T09:19:14Z</time>
      </trkpt>
      <trkpt lat="44.38169" lon="5.12984">
        <ele>768.23</ele>
        <time>2011-03-31T09:19:21Z</time>
      </trkpt>
      <trkpt lat="44.38168" lon="5.12985">
        <ele>766.79</ele>
        <time>2011-03-31T09:19:27Z</time>
      </trkpt>
      <trkpt lat="44.38163" lon="5.12992">
        <ele>765.83</ele>
        <time>2011-03-31T09:19:33Z</time>
      </trkpt>
      <trkpt lat="44.38158" lon="5.12993">
        <ele>762.46</ele>
        <time>2011-03-31T09:19:42Z</time>
      </trkpt>
      <trkpt lat="44.38152" lon="5.12992">
        <ele>761.02</ele>
        <time>2011-03-31T09:19:49Z</time>
      </trkpt>
      <trkpt lat="44.38151" lon="5.12996">
        <ele>760.06</ele>
        <time>2011-03-31T09:19:55Z</time>
      </trkpt>
      <trkpt lat="44.38142" lon="5.13001">
        <ele>757.66</ele>
        <time>2011-03-31T09:20:04Z</time>
      </trkpt>
      <trkpt lat="44.38143" lon="5.13004">
        <ele>756.69</ele>
        <time>2011-03-31T09:20:10Z</time>
      </trkpt>
      <trkpt lat="44.38136" lon="5.13005">
        <ele>755.73</ele>
        <time>2011-03-31T09:20:16Z</time>
      </trkpt>
      <trkpt lat="44.38132" lon="5.13006">
        <ele>753.81</ele>
        <time>2011-03-31T09:20:23Z</time>
      </trkpt>
      <trkpt lat="44.38128" lon="5.13001">
        <ele>752.37</ele>
        <time>2011-03-31T09:20:29Z</time>
      </trkpt>
      <trkpt lat="44.38128" lon="5.12993">
        <ele>750.93</ele>
        <time>2011-03-31T09:20:36Z</time>
      </trkpt>
      <trkpt lat="44.38123" lon="5.12996">
        <ele>749.49</ele>
        <time>2011-03-31T09:20:44Z</time>
      </trkpt>
      <trkpt lat="44.38118" lon="5.12997">
        <ele>748.04</ele>
        <time>2011-03-31T09:20:50Z</time>
      </trkpt>
      <trkpt lat="44.38118" lon="5.13">
        <ele>746.6</ele>
        <time>2011-03-31T09:20:56Z</time>
      </trkpt>
      <trkpt lat="44.3811" lon="5.13003">
        <ele>745.16</ele>
        <time>2011-03-31T09:21:02Z</time>
      </trkpt>
      <trkpt lat="44.38106" lon="5.13005">
        <ele>743.24</ele>
        <time>2011-03-31T09:21:10Z</time>
      </trkpt>
      <trkpt lat="44.38102" lon="5.13005">
        <ele>742.28</ele>
        <time>2011-03-31T09:21:16Z</time>
      </trkpt>
      <trkpt lat="44.38103" lon="5.12999">
        <ele>740.83</ele>
        <time>2011-03-31T09:21:22Z</time>
      </trkpt>
      <trkpt lat="44.38103" lon="5.12997">
        <ele>739.39</ele>
        <time>2011-03-31T09:21:28Z</time>
      </trkpt>
      <trkpt lat="44.38096" lon="5.12999">
        <ele>738.43</ele>
        <time>2011-03-31T09:21:34Z</time>
      </trkpt>
      <trkpt lat="44.38093" lon="5.12995">
        <ele>736.99</ele>
        <time>2011-03-31T09:21:42Z</time>
      </trkpt>
      <trkpt lat="44.38095" lon="5.12991">
        <ele>736.03</ele>
        <time>2011-03-31T09:21:47Z</time>
      </trkpt>
      <trkpt lat="44.38097" lon="5.12984">
        <ele>732.66</ele>
        <time>2011-03-31T09:21:54Z</time>
      </trkpt>
      <trkpt lat="44.38101" lon="5.12978">
        <ele>733.14</ele>
        <time>2011-03-31T09:22:03Z</time>
      </trkpt>
      <trkpt lat="44.38103" lon="5.12967">
        <ele>731.7</ele>
        <time>2011-03-31T09:22:10Z</time>
      </trkpt>
      <trkpt lat="44.38099" lon="5.12968">
        <ele>730.74</ele>
        <time>2011-03-31T09:22:14Z</time>
      </trkpt>
      <trkpt lat="44.38098" lon="5.12973">
        <ele>729.3</ele>
        <time>2011-03-31T09:22:20Z</time>
      </trkpt>
      <trkpt lat="44.38092" lon="5.12972">
        <ele>728.34</ele>
        <time>2011-03-31T09:22:27Z</time>
      </trkpt>
      <trkpt lat="44.38089" lon="5.12975">
        <ele>727.37</ele>
        <time>2011-03-31T09:22:33Z</time>
      </trkpt>
      <trkpt lat="44.38083" lon="5.12982">
        <ele>726.41</ele>
        <time>2011-03-31T09:22:42Z</time>
      </trkpt>
      <trkpt lat="44.38075" lon="5.12989">
        <ele>724.97</ele>
        <time>2011-03-31T09:22:50Z</time>
      </trkpt>
      <trkpt lat="44.38074" lon="5.12989">
        <ele>724.01</ele>
        <time>2011-03-31T09:22:53Z</time>
      </trkpt>
      <trkpt lat="44.38067" lon="5.12995">
        <ele>723.53</ele>
        <time>2011-03-31T09:23:02Z</time>
      </trkpt>
      <trkpt lat="44.38061" lon="5.13003">
        <ele>724.01</ele>
        <time>2011-03-31T09:23:09Z</time>
      </trkpt>
      <trkpt lat="44.38058" lon="5.13011">
        <ele>725.45</ele>
        <time>2011-03-31T09:23:16Z</time>
      </trkpt>
      <trkpt lat="44.38056" lon="5.13016">
        <ele>725.93</ele>
        <time>2011-03-31T09:23:21Z</time>
      </trkpt>
      <trkpt lat="44.38055" lon="5.13017">
        <ele>725.93</ele>
        <time>2011-03-31T09:23:25Z</time>
      </trkpt>
      <trkpt lat="44.38051" lon="5.13021">
        <ele>725.93</ele>
        <time>2011-03-31T09:23:29Z</time>
      </trkpt>
      <trkpt lat="44.3805" lon="5.13027">
        <ele>726.89</ele>
        <time>2011-03-31T09:23:34Z</time>
      </trkpt>
      <trkpt lat="44.38043" lon="5.13035">
        <ele>727.37</ele>
        <time>2011-03-31T09:23:42Z</time>
      </trkpt>
      <trkpt lat="44.38041" lon="5.1304">
        <ele>727.37</ele>
        <time>2011-03-31T09:23:48Z</time>
      </trkpt>
      <trkpt lat="44.38035" lon="5.13047">
        <ele>726.89</ele>
        <time>2011-03-31T09:23:55Z</time>
      </trkpt>
      <trkpt lat="44.38035" lon="5.13051">
        <ele>727.86</ele>
        <time>2011-03-31T09:23:58Z</time>
      </trkpt>
      <trkpt lat="44.38034" lon="5.13053">
        <ele>728.34</ele>
        <time>2011-03-31T09:24:01Z</time>
      </trkpt>
      <trkpt lat="44.38029" lon="5.13056">
        <ele>728.34</ele>
        <time>2011-03-31T09:24:05Z</time>
      </trkpt>
      <trkpt lat="44.3802" lon="5.13068">
        <ele>727.86</ele>
        <time>2011-03-31T09:24:14Z</time>
      </trkpt>
      <trkpt lat="44.3802" lon="5.13069">
        <ele>727.86</ele>
        <time>2011-03-31T09:24:15Z</time>
      </trkpt>
      <trkpt lat="44.38018" lon="5.13076">
        <ele>727.86</ele>
        <time>2011-03-31T09:24:18Z</time>
      </trkpt>
      <trkpt lat="44.38015" lon="5.13081">
        <ele>727.86</ele>
        <time>2011-03-31T09:24:26Z</time>
      </trkpt>
      <trkpt lat="44.38013" lon="5.13089">
        <ele>727.86</ele>
        <time>2011-03-31T09:24:31Z</time>
      </trkpt>
      <trkpt lat="44.38007" lon="5.13099">
        <ele>727.86</ele>
        <time>2011-03-31T09:24:39Z</time>
      </trkpt>
      <trkpt lat="44.38003" lon="5.13104">
        <ele>727.86</ele>
        <time>2011-03-31T09:24:46Z</time>
      </trkpt>
      <trkpt lat="44.38" lon="5.13109">
        <ele>727.37</ele>
        <time>2011-03-31T09:24:51Z</time>
      </trkpt>
      <trkpt lat="44.37998" lon="5.13112">
        <ele>727.37</ele>
        <time>2011-03-31T09:24:53Z</time>
      </trkpt>
      <trkpt lat="44.37993" lon="5.13117">
        <ele>727.37</ele>
        <time>2011-03-31T09:24:59Z</time>
      </trkpt>
      <trkpt lat="44.37993" lon="5.13121">
        <ele>727.37</ele>
        <time>2011-03-31T09:25:01Z</time>
      </trkpt>
      <trkpt lat="44.3799" lon="5.13125">
        <ele>727.37</ele>
        <time>2011-03-31T09:25:04Z</time>
      </trkpt>
      <trkpt lat="44.37989" lon="5.13126">
        <ele>726.89</ele>
        <time>2011-03-31T09:25:06Z</time>
      </trkpt>
      <trkpt lat="44.37983" lon="5.13138">
        <ele>726.89</ele>
        <time>2011-03-31T09:25:15Z</time>
      </trkpt>
      <trkpt lat="44.3798" lon="5.13142">
        <ele>726.41</ele>
        <time>2011-03-31T09:25:18Z</time>
      </trkpt>
      <trkpt lat="44.37978" lon="5.13147">
        <ele>726.89</ele>
        <time>2011-03-31T09:25:21Z</time>
      </trkpt>
      <trkpt lat="44.37975" lon="5.13146">
        <ele>726.41</ele>
        <time>2011-03-31T09:25:24Z</time>
      </trkpt>
      <trkpt lat="44.37977" lon="5.13151">
        <ele>726.41</ele>
        <time>2011-03-31T09:25:27Z</time>
      </trkpt>
      <trkpt lat="44.37969" lon="5.13159">
        <ele>725.93</ele>
        <time>2011-03-31T09:25:33Z</time>
      </trkpt>
      <trkpt lat="44.37965" lon="5.13162">
        <ele>725.45</ele>
        <time>2011-03-31T09:25:38Z</time>
      </trkpt>
      <trkpt lat="44.3796" lon="5.13172">
        <ele>724.97</ele>
        <time>2011-03-31T09:25:47Z</time>
      </trkpt>
      <trkpt lat="44.37955" lon="5.13186">
        <ele>724.49</ele>
        <time>2011-03-31T09:25:56Z</time>
      </trkpt>
      <trkpt lat="44.37948" lon="5.13195">
        <ele>723.53</ele>
        <time>2011-03-31T09:26:04Z</time>
      </trkpt>
      <trkpt lat="44.37948" lon="5.13195">
        <ele>724.01</ele>
        <time>2011-03-31T09:26:05Z</time>
      </trkpt>
      <trkpt lat="44.37942" lon="5.13207">
        <ele>723.53</ele>
        <time>2011-03-31T09:26:15Z</time>
      </trkpt>
      <trkpt lat="44.37936" lon="5.13215">
        <ele>723.05</ele>
        <time>2011-03-31T09:26:23Z</time>
      </trkpt>
      <trkpt lat="44.37933" lon="5.13223">
        <ele>722.57</ele>
        <time>2011-03-31T09:26:31Z</time>
      </trkpt>
      <trkpt lat="44.37928" lon="5.13232">
        <ele>723.53</ele>
        <time>2011-03-31T09:26:38Z</time>
      </trkpt>
      <trkpt lat="44.37928" lon="5.13233">
        <ele>718.24</ele>
        <time>2011-03-31T09:26:39Z</time>
      </trkpt>
      <trkpt lat="44.37927" lon="5.13233">
        <ele>722.57</ele>
        <time>2011-03-31T09:26:40Z</time>
      </trkpt>
      <trkpt lat="44.37922" lon="5.13235">
        <ele>721.61</ele>
        <time>2011-03-31T09:26:45Z</time>
      </trkpt>
      <trkpt lat="44.37919" lon="5.13241">
        <ele>721.13</ele>
        <time>2011-03-31T09:26:52Z</time>
      </trkpt>
      <trkpt lat="44.3792" lon="5.13241">
        <ele>722.09</ele>
        <time>2011-03-31T09:26:53Z</time>
      </trkpt>
      <trkpt lat="44.37914" lon="5.13254">
        <ele>722.09</ele>
        <time>2011-03-31T09:27:01Z</time>
      </trkpt>
      <trkpt lat="44.37912" lon="5.13258">
        <ele>721.61</ele>
        <time>2011-03-31T09:27:04Z</time>
      </trkpt>
      <trkpt lat="44.37912" lon="5.13259">
        <ele>721.61</ele>
        <time>2011-03-31T09:27:06Z</time>
      </trkpt>
      <trkpt lat="44.37904" lon="5.13263">
        <ele>722.09</ele>
        <time>2011-03-31T09:27:11Z</time>
      </trkpt>
      <trkpt lat="44.37899" lon="5.13273">
        <ele>721.13</ele>
        <time>2011-03-31T09:27:19Z</time>
      </trkpt>
      <trkpt lat="44.37898" lon="5.13281">
        <ele>719.68</ele>
        <time>2011-03-31T09:27:27Z</time>
      </trkpt>
      <trkpt lat="44.37893" lon="5.13288">
        <ele>719.68</ele>
        <time>2011-03-31T09:27:34Z</time>
      </trkpt>
      <trkpt lat="44.37894" lon="5.13289">
        <ele>719.2</ele>
        <time>2011-03-31T09:27:35Z</time>
      </trkpt>
      <trkpt lat="44.3789" lon="5.13294">
        <ele>718.24</ele>
        <time>2011-03-31T09:27:40Z</time>
      </trkpt>
      <trkpt lat="44.37884" lon="5.13303">
        <ele>717.28</ele>
        <time>2011-03-31T09:27:48Z</time>
      </trkpt>
      <trkpt lat="44.37881" lon="5.13308">
        <ele>716.32</ele>
        <time>2011-03-31T09:27:53Z</time>
      </trkpt>
      <trkpt lat="44.37879" lon="5.13318">
        <ele>714.88</ele>
        <time>2011-03-31T09:28:02Z</time>
      </trkpt>
      <trkpt lat="44.37875" lon="5.1332">
        <ele>713.92</ele>
        <time>2011-03-31T09:28:07Z</time>
      </trkpt>
      <trkpt lat="44.37872" lon="5.13326">
        <ele>712.47</ele>
        <time>2011-03-31T09:28:12Z</time>
      </trkpt>
      <trkpt lat="44.37868" lon="5.13334">
        <ele>711.51</ele>
        <time>2011-03-31T09:28:18Z</time>
      </trkpt>
      <trkpt lat="44.37866" lon="5.13344">
        <ele>710.07</ele>
        <time>2011-03-31T09:28:27Z</time>
      </trkpt>
      <trkpt lat="44.37864" lon="5.13349">
        <ele>708.63</ele>
        <time>2011-03-31T09:28:34Z</time>
      </trkpt>
      <trkpt lat="44.37859" lon="5.13357">
        <ele>707.67</ele>
        <time>2011-03-31T09:28:39Z</time>
      </trkpt>
      <trkpt lat="44.37852" lon="5.13368">
        <ele>706.71</ele>
        <time>2011-03-31T09:28:49Z</time>
      </trkpt>
      <trkpt lat="44.3785" lon="5.13369">
        <ele>705.75</ele>
        <time>2011-03-31T09:28:53Z</time>
      </trkpt>
      <trkpt lat="44.37847" lon="5.13381">
        <ele>704.78</ele>
        <time>2011-03-31T09:29:01Z</time>
      </trkpt>
      <trkpt lat="44.3784" lon="5.13384">
        <ele>703.34</ele>
        <time>2011-03-31T09:29:08Z</time>
      </trkpt>
      <trkpt lat="44.37841" lon="5.13393">
        <ele>702.38</ele>
        <time>2011-03-31T09:29:15Z</time>
      </trkpt>
      <trkpt lat="44.37836" lon="5.13401">
        <ele>701.9</ele>
        <time>2011-03-31T09:29:24Z</time>
      </trkpt>
      <trkpt lat="44.37834" lon="5.13402">
        <ele>701.42</ele>
        <time>2011-03-31T09:29:26Z</time>
      </trkpt>
      <trkpt lat="44.37829" lon="5.13412">
        <ele>700.46</ele>
        <time>2011-03-31T09:29:33Z</time>
      </trkpt>
      <trkpt lat="44.37826" lon="5.13413">
        <ele>699.98</ele>
        <time>2011-03-31T09:29:38Z</time>
      </trkpt>
      <trkpt lat="44.37824" lon="5.13415">
        <ele>699.5</ele>
        <time>2011-03-31T09:29:39Z</time>
      </trkpt>
      <trkpt lat="44.37821" lon="5.13418">
        <ele>699.02</ele>
        <time>2011-03-31T09:29:42Z</time>
      </trkpt>
      <trkpt lat="44.37822" lon="5.13424">
        <ele>699.5</ele>
        <time>2011-03-31T09:29:48Z</time>
      </trkpt>
      <trkpt lat="44.37813" lon="5.13434">
        <ele>699.02</ele>
        <time>2011-03-31T09:29:56Z</time>
      </trkpt>
      <trkpt lat="44.37809" lon="5.13444">
        <ele>697.57</ele>
        <time>2011-03-31T09:30:05Z</time>
      </trkpt>
      <trkpt lat="44.37805" lon="5.13452">
        <ele>697.09</ele>
        <time>2011-03-31T09:30:13Z</time>
      </trkpt>
      <trkpt lat="44.37802" lon="5.13454">
        <ele>697.09</ele>
        <time>2011-03-31T09:30:16Z</time>
      </trkpt>
      <trkpt lat="44.37798" lon="5.13457">
        <ele>697.09</ele>
        <time>2011-03-31T09:30:21Z</time>
      </trkpt>
      <trkpt lat="44.37795" lon="5.13464">
        <ele>697.09</ele>
        <time>2011-03-31T09:30:25Z</time>
      </trkpt>
      <trkpt lat="44.37792" lon="5.13468">
        <ele>696.13</ele>
        <time>2011-03-31T09:30:31Z</time>
      </trkpt>
      <trkpt lat="44.37788" lon="5.13472">
        <ele>696.13</ele>
        <time>2011-03-31T09:30:37Z</time>
      </trkpt>
      <trkpt lat="44.3778" lon="5.1348">
        <ele>695.17</ele>
        <time>2011-03-31T09:30:45Z</time>
      </trkpt>
      <trkpt lat="44.37774" lon="5.13487">
        <ele>694.21</ele>
        <time>2011-03-31T09:30:52Z</time>
      </trkpt>
      <trkpt lat="44.37774" lon="5.13487">
        <ele>694.69</ele>
        <time>2011-03-31T09:30:53Z</time>
      </trkpt>
      <trkpt lat="44.3777" lon="5.13491">
        <ele>694.21</ele>
        <time>2011-03-31T09:30:56Z</time>
      </trkpt>
      <trkpt lat="44.37767" lon="5.13501">
        <ele>693.25</ele>
        <time>2011-03-31T09:31:05Z</time>
      </trkpt>
      <trkpt lat="44.37763" lon="5.13505">
        <ele>692.29</ele>
        <time>2011-03-31T09:31:12Z</time>
      </trkpt>
      <trkpt lat="44.37757" lon="5.13513">
        <ele>691.81</ele>
        <time>2011-03-31T09:31:19Z</time>
      </trkpt>
      <trkpt lat="44.37747" lon="5.13524">
        <ele>691.33</ele>
        <time>2011-03-31T09:31:28Z</time>
      </trkpt>
      <trkpt lat="44.37745" lon="5.13524">
        <ele>691.33</ele>
        <time>2011-03-31T09:31:29Z</time>
      </trkpt>
      <trkpt lat="44.37744" lon="5.13531">
        <ele>690.36</ele>
        <time>2011-03-31T09:31:38Z</time>
      </trkpt>
      <trkpt lat="44.37737" lon="5.1354">
        <ele>688.92</ele>
        <time>2011-03-31T09:31:47Z</time>
      </trkpt>
      <trkpt lat="44.37729" lon="5.13546">
        <ele>687.96</ele>
        <time>2011-03-31T09:31:55Z</time>
      </trkpt>
      <trkpt lat="44.37724" lon="5.13552">
        <ele>686.52</ele>
        <time>2011-03-31T09:32:02Z</time>
      </trkpt>
      <trkpt lat="44.37713" lon="5.13558">
        <ele>685.56</ele>
        <time>2011-03-31T09:32:10Z</time>
      </trkpt>
      <trkpt lat="44.37715" lon="5.13563">
        <ele>684.12</ele>
        <time>2011-03-31T09:32:18Z</time>
      </trkpt>
      <trkpt lat="44.37713" lon="5.13571">
        <ele>683.63</ele>
        <time>2011-03-31T09:32:24Z</time>
      </trkpt>
      <trkpt lat="44.37708" lon="5.13574">
        <ele>682.67</ele>
        <time>2011-03-31T09:32:30Z</time>
      </trkpt>
      <trkpt lat="44.377" lon="5.13579">
        <ele>681.71</ele>
        <time>2011-03-31T09:32:36Z</time>
      </trkpt>
      <trkpt lat="44.37698" lon="5.13582">
        <ele>680.75</ele>
        <time>2011-03-31T09:32:40Z</time>
      </trkpt>
      <trkpt lat="44.37697" lon="5.13584">
        <ele>681.23</ele>
        <time>2011-03-31T09:32:43Z</time>
      </trkpt>
      <trkpt lat="44.37695" lon="5.13588">
        <ele>680.27</ele>
        <time>2011-03-31T09:32:46Z</time>
      </trkpt>
      <trkpt lat="44.37688" lon="5.13592">
        <ele>679.79</ele>
        <time>2011-03-31T09:32:54Z</time>
      </trkpt>
      <trkpt lat="44.37686" lon="5.136">
        <ele>679.79</ele>
        <time>2011-03-31T09:33:01Z</time>
      </trkpt>
      <trkpt lat="44.37678" lon="5.13605">
        <ele>678.35</ele>
        <time>2011-03-31T09:33:09Z</time>
      </trkpt>
      <trkpt lat="44.37677" lon="5.13612">
        <ele>677.39</ele>
        <time>2011-03-31T09:33:14Z</time>
      </trkpt>
      <trkpt lat="44.37675" lon="5.13618">
        <ele>676.91</ele>
        <time>2011-03-31T09:33:24Z</time>
      </trkpt>
      <trkpt lat="44.37665" lon="5.13622">
        <ele>675.94</ele>
        <time>2011-03-31T09:33:31Z</time>
      </trkpt>
      <trkpt lat="44.37657" lon="5.13633">
        <ele>674.98</ele>
        <time>2011-03-31T09:33:40Z</time>
      </trkpt>
      <trkpt lat="44.37657" lon="5.13634">
        <ele>674.5</ele>
        <time>2011-03-31T09:33:42Z</time>
      </trkpt>
      <trkpt lat="44.37656" lon="5.13635">
        <ele>674.5</ele>
        <time>2011-03-31T09:33:46Z</time>
      </trkpt>
      <trkpt lat="44.3765" lon="5.13644">
        <ele>673.54</ele>
        <time>2011-03-31T09:33:55Z</time>
      </trkpt>
      <trkpt lat="44.37644" lon="5.13652">
        <ele>672.1</ele>
        <time>2011-03-31T09:34:03Z</time>
      </trkpt>
      <trkpt lat="44.37641" lon="5.13658">
        <ele>671.62</ele>
        <time>2011-03-31T09:34:09Z</time>
      </trkpt>
      <trkpt lat="44.37635" lon="5.13661">
        <ele>670.66</ele>
        <time>2011-03-31T09:34:16Z</time>
      </trkpt>
      <trkpt lat="44.37637" lon="5.13664">
        <ele>670.18</ele>
        <time>2011-03-31T09:34:19Z</time>
      </trkpt>
      <trkpt lat="44.37625" lon="5.13669">
        <ele>669.22</ele>
        <time>2011-03-31T09:34:29Z</time>
      </trkpt>
      <trkpt lat="44.3762" lon="5.13679">
        <ele>668.25</ele>
        <time>2011-03-31T09:34:36Z</time>
      </trkpt>
      <trkpt lat="44.37613" lon="5.13684">
        <ele>667.29</ele>
        <time>2011-03-31T09:34:43Z</time>
      </trkpt>
      <trkpt lat="44.37609" lon="5.13686">
        <ele>666.33</ele>
        <time>2011-03-31T09:34:50Z</time>
      </trkpt>
      <trkpt lat="44.37607" lon="5.13687">
        <ele>664.89</ele>
        <time>2011-03-31T09:34:58Z</time>
      </trkpt>
      <trkpt lat="44.37598" lon="5.13696">
        <ele>663.93</ele>
        <time>2011-03-31T09:35:06Z</time>
      </trkpt>
      <trkpt lat="44.37599" lon="5.13698">
        <ele>663.93</ele>
        <time>2011-03-31T09:35:17Z</time>
      </trkpt>
      <trkpt lat="44.37597" lon="5.13703">
        <ele>665.37</ele>
        <time>2011-03-31T09:35:42Z</time>
      </trkpt>
      <trkpt lat="44.37599" lon="5.13709">
        <ele>665.85</ele>
        <time>2011-03-31T09:35:49Z</time>
      </trkpt>
      <trkpt lat="44.37596" lon="5.13713">
        <ele>666.81</ele>
        <time>2011-03-31T09:35:56Z</time>
      </trkpt>
      <trkpt lat="44.37593" lon="5.13713">
        <ele>667.29</ele>
        <time>2011-03-31T09:36:02Z</time>
      </trkpt>
      <trkpt lat="44.37591" lon="5.13717">
        <ele>667.29</ele>
        <time>2011-03-31T09:36:13Z</time>
      </trkpt>
      <trkpt lat="44.37588" lon="5.13727">
        <ele>667.77</ele>
        <time>2011-03-31T09:36:20Z</time>
      </trkpt>
      <trkpt lat="44.37588" lon="5.13729">
        <ele>668.73</ele>
        <time>2011-03-31T09:36:26Z</time>
      </trkpt>
      <trkpt lat="44.37584" lon="5.13736">
        <ele>668.73</ele>
        <time>2011-03-31T09:36:31Z</time>
      </trkpt>
      <trkpt lat="44.37581" lon="5.13742">
        <ele>670.66</ele>
        <time>2011-03-31T09:36:42Z</time>
      </trkpt>
      <trkpt lat="44.37575" lon="5.13749">
        <ele>670.66</ele>
        <time>2011-03-31T09:36:49Z</time>
      </trkpt>
      <trkpt lat="44.37573" lon="5.13758">
        <ele>671.62</ele>
        <time>2011-03-31T09:36:58Z</time>
      </trkpt>
      <trkpt lat="44.37569" lon="5.13765">
        <ele>672.58</ele>
        <time>2011-03-31T09:37:05Z</time>
      </trkpt>
      <trkpt lat="44.37564" lon="5.13776">
        <ele>673.06</ele>
        <time>2011-03-31T09:37:14Z</time>
      </trkpt>
      <trkpt lat="44.3756" lon="5.13782">
        <ele>673.54</ele>
        <time>2011-03-31T09:37:21Z</time>
      </trkpt>
      <trkpt lat="44.37556" lon="5.13789">
        <ele>674.02</ele>
        <time>2011-03-31T09:37:29Z</time>
      </trkpt>
      <trkpt lat="44.37553" lon="5.13797">
        <ele>674.5</ele>
        <time>2011-03-31T09:37:35Z</time>
      </trkpt>
      <trkpt lat="44.37552" lon="5.13804">
        <ele>674.98</ele>
        <time>2011-03-31T09:37:42Z</time>
      </trkpt>
      <trkpt lat="44.37546" lon="5.13809">
        <ele>674.98</ele>
        <time>2011-03-31T09:37:48Z</time>
      </trkpt>
      <trkpt lat="44.37547" lon="5.13811">
        <ele>675.46</ele>
        <time>2011-03-31T09:37:49Z</time>
      </trkpt>
      <trkpt lat="44.37547" lon="5.13811">
        <ele>675.46</ele>
        <time>2011-03-31T09:37:51Z</time>
      </trkpt>
      <trkpt lat="44.37545" lon="5.13817">
        <ele>675.46</ele>
        <time>2011-03-31T09:37:55Z</time>
      </trkpt>
      <trkpt lat="44.37538" lon="5.13822">
        <ele>675.94</ele>
        <time>2011-03-31T09:38:03Z</time>
      </trkpt>
      <trkpt lat="44.37537" lon="5.13828">
        <ele>677.87</ele>
        <time>2011-03-31T09:38:12Z</time>
      </trkpt>
      <trkpt lat="44.3754" lon="5.13833">
        <ele>678.35</ele>
        <time>2011-03-31T09:38:18Z</time>
      </trkpt>
      <trkpt lat="44.37535" lon="5.13837">
        <ele>678.35</ele>
        <time>2011-03-31T09:38:22Z</time>
      </trkpt>
      <trkpt lat="44.37533" lon="5.13843">
        <ele>679.31</ele>
        <time>2011-03-31T09:38:28Z</time>
      </trkpt>
      <trkpt lat="44.3753" lon="5.13847">
        <ele>679.79</ele>
        <time>2011-03-31T09:38:35Z</time>
      </trkpt>
      <trkpt lat="44.37528" lon="5.13855">
        <ele>680.27</ele>
        <time>2011-03-31T09:38:42Z</time>
      </trkpt>
      <trkpt lat="44.37525" lon="5.13861">
        <ele>681.23</ele>
        <time>2011-03-31T09:38:49Z</time>
      </trkpt>
      <trkpt lat="44.37523" lon="5.13868">
        <ele>682.19</ele>
        <time>2011-03-31T09:38:54Z</time>
      </trkpt>
      <trkpt lat="44.37519" lon="5.13869">
        <ele>682.67</ele>
        <time>2011-03-31T09:39:01Z</time>
      </trkpt>
      <trkpt lat="44.37518" lon="5.13872">
        <ele>683.63</ele>
        <time>2011-03-31T09:39:06Z</time>
      </trkpt>
      <trkpt lat="44.37522" lon="5.13874">
        <ele>684.6</ele>
        <time>2011-03-31T09:39:12Z</time>
      </trkpt>
      <trkpt lat="44.37523" lon="5.13877">
        <ele>685.56</ele>
        <time>2011-03-31T09:39:17Z</time>
      </trkpt>
      <trkpt lat="44.37528" lon="5.13873">
        <ele>686.52</ele>
        <time>2011-03-31T09:39:23Z</time>
      </trkpt>
      <trkpt lat="44.37536" lon="5.13869">
        <ele>687.96</ele>
        <time>2011-03-31T09:39:33Z</time>
      </trkpt>
      <trkpt lat="44.37536" lon="5.13867">
        <ele>688.44</ele>
        <time>2011-03-31T09:39:38Z</time>
      </trkpt>
      <trkpt lat="44.37543" lon="5.13863">
        <ele>689.4</ele>
        <time>2011-03-31T09:39:45Z</time>
      </trkpt>
      <trkpt lat="44.37545" lon="5.13861">
        <ele>690.36</ele>
        <time>2011-03-31T09:39:51Z</time>
      </trkpt>
      <trkpt lat="44.37549" lon="5.13858">
        <ele>691.33</ele>
        <time>2011-03-31T09:39:58Z</time>
      </trkpt>
      <trkpt lat="44.37555" lon="5.13852">
        <ele>691.81</ele>
        <time>2011-03-31T09:40:04Z</time>
      </trkpt>
      <trkpt lat="44.37557" lon="5.13851">
        <ele>692.29</ele>
        <time>2011-03-31T09:40:09Z</time>
      </trkpt>
      <trkpt lat="44.3756" lon="5.13845">
        <ele>693.25</ele>
        <time>2011-03-31T09:40:17Z</time>
      </trkpt>
      <trkpt lat="44.37562" lon="5.13842">
        <ele>694.21</ele>
        <time>2011-03-31T09:40:24Z</time>
      </trkpt>
      <trkpt lat="44.37568" lon="5.13839">
        <ele>694.69</ele>
        <time>2011-03-31T09:40:29Z</time>
      </trkpt>
      <trkpt lat="44.37573" lon="5.13835">
        <ele>695.17</ele>
        <time>2011-03-31T09:40:37Z</time>
      </trkpt>
      <trkpt lat="44.37577" lon="5.13832">
        <ele>696.61</ele>
        <time>2011-03-31T09:40:44Z</time>
      </trkpt>
      <trkpt lat="44.37579" lon="5.13828">
        <ele>697.09</ele>
        <time>2011-03-31T09:40:50Z</time>
      </trkpt>
      <trkpt lat="44.37583" lon="5.13826">
        <ele>698.05</ele>
        <time>2011-03-31T09:40:56Z</time>
      </trkpt>
      <trkpt lat="44.37586" lon="5.13822">
        <ele>699.02</ele>
        <time>2011-03-31T09:41:03Z</time>
      </trkpt>
      <trkpt lat="44.37591" lon="5.13818">
        <ele>699.98</ele>
        <time>2011-03-31T09:41:11Z</time>
      </trkpt>
      <trkpt lat="44.37593" lon="5.13821">
        <ele>701.42</ele>
        <time>2011-03-31T09:41:20Z</time>
      </trkpt>
      <trkpt lat="44.37591" lon="5.1383">
        <ele>702.38</ele>
        <time>2011-03-31T09:41:27Z</time>
      </trkpt>
      <trkpt lat="44.37586" lon="5.13837">
        <ele>702.86</ele>
        <time>2011-03-31T09:41:34Z</time>
      </trkpt>
      <trkpt lat="44.37589" lon="5.13841">
        <ele>703.82</ele>
        <time>2011-03-31T09:41:40Z</time>
      </trkpt>
      <trkpt lat="44.37584" lon="5.13849">
        <ele>704.3</ele>
        <time>2011-03-31T09:41:47Z</time>
      </trkpt>
      <trkpt lat="44.37582" lon="5.13855">
        <ele>704.78</ele>
        <time>2011-03-31T09:41:54Z</time>
      </trkpt>
      <trkpt lat="44.37581" lon="5.13857">
        <ele>705.26</ele>
        <time>2011-03-31T09:41:55Z</time>
      </trkpt>
      <trkpt lat="44.3758" lon="5.13863">
        <ele>705.75</ele>
        <time>2011-03-31T09:42:02Z</time>
      </trkpt>
      <trkpt lat="44.37576" lon="5.13871">
        <ele>706.71</ele>
        <time>2011-03-31T09:42:10Z</time>
      </trkpt>
      <trkpt lat="44.37575" lon="5.13878">
        <ele>707.19</ele>
        <time>2011-03-31T09:42:14Z</time>
      </trkpt>
      <trkpt lat="44.37574" lon="5.13882">
        <ele>708.15</ele>
        <time>2011-03-31T09:42:21Z</time>
      </trkpt>
      <trkpt lat="44.37575" lon="5.1389">
        <ele>708.63</ele>
        <time>2011-03-31T09:42:26Z</time>
      </trkpt>
      <trkpt lat="44.3757" lon="5.13895">
        <ele>709.11</ele>
        <time>2011-03-31T09:42:33Z</time>
      </trkpt>
      <trkpt lat="44.37571" lon="5.13902">
        <ele>709.59</ele>
        <time>2011-03-31T09:42:38Z</time>
      </trkpt>
      <trkpt lat="44.37564" lon="5.13906">
        <ele>711.03</ele>
        <time>2011-03-31T09:42:46Z</time>
      </trkpt>
      <trkpt lat="44.37561" lon="5.13913">
        <ele>711.51</ele>
        <time>2011-03-31T09:42:52Z</time>
      </trkpt>
      <trkpt lat="44.3756" lon="5.13918">
        <ele>712.47</ele>
        <time>2011-03-31T09:42:58Z</time>
      </trkpt>
      <trkpt lat="44.37559" lon="5.13921">
        <ele>713.44</ele>
        <time>2011-03-31T09:43:05Z</time>
      </trkpt>
      <trkpt lat="44.3756" lon="5.13923">
        <ele>714.4</ele>
        <time>2011-03-31T09:43:10Z</time>
      </trkpt>
      <trkpt lat="44.37566" lon="5.13921">
        <ele>715.36</ele>
        <time>2011-03-31T09:43:17Z</time>
      </trkpt>
      <trkpt lat="44.37569" lon="5.13919">
        <ele>716.32</ele>
        <time>2011-03-31T09:43:23Z</time>
      </trkpt>
      <trkpt lat="44.37571" lon="5.13919">
        <ele>717.76</ele>
        <time>2011-03-31T09:43:30Z</time>
      </trkpt>
      <trkpt lat="44.37579" lon="5.13916">
        <ele>719.68</ele>
        <time>2011-03-31T09:43:41Z</time>
      </trkpt>
      <trkpt lat="44.37584" lon="5.13915">
        <ele>720.65</ele>
        <time>2011-03-31T09:43:50Z</time>
      </trkpt>
      <trkpt lat="44.37588" lon="5.13912">
        <ele>723.05</ele>
        <time>2011-03-31T09:44:04Z</time>
      </trkpt>
      <trkpt lat="44.37589" lon="5.13911">
        <ele>724.01</ele>
        <time>2011-03-31T09:44:10Z</time>
      </trkpt>
      <trkpt lat="44.37596" lon="5.13909">
        <ele>724.97</ele>
        <time>2011-03-31T09:44:17Z</time>
      </trkpt>
      <trkpt lat="44.376" lon="5.13911">
        <ele>725.93</ele>
        <time>2011-03-31T09:44:23Z</time>
      </trkpt>
      <trkpt lat="44.37603" lon="5.13908">
        <ele>726.89</ele>
        <time>2011-03-31T09:44:31Z</time>
      </trkpt>
      <trkpt lat="44.37605" lon="5.13904">
        <ele>728.34</ele>
        <time>2011-03-31T09:44:38Z</time>
      </trkpt>
      <trkpt lat="44.37607" lon="5.13905">
        <ele>729.3</ele>
        <time>2011-03-31T09:44:43Z</time>
      </trkpt>
      <trkpt lat="44.37611" lon="5.13905">
        <ele>729.78</ele>
        <time>2011-03-31T09:44:50Z</time>
      </trkpt>
      <trkpt lat="44.37615" lon="5.13904">
        <ele>731.22</ele>
        <time>2011-03-31T09:44:57Z</time>
      </trkpt>
      <trkpt lat="44.3762" lon="5.13902">
        <ele>731.7</ele>
        <time>2011-03-31T09:45:04Z</time>
      </trkpt>
      <trkpt lat="44.3762" lon="5.13901">
        <ele>733.14</ele>
        <time>2011-03-31T09:45:10Z</time>
      </trkpt>
      <trkpt lat="44.37621" lon="5.13902">
        <ele>733.14</ele>
        <time>2011-03-31T09:45:16Z</time>
      </trkpt>
      <trkpt lat="44.37626" lon="5.13899">
        <ele>734.58</ele>
        <time>2011-03-31T09:45:23Z</time>
      </trkpt>
      <trkpt lat="44.37629" lon="5.13897">
        <ele>735.55</ele>
        <time>2011-03-31T09:45:31Z</time>
      </trkpt>
      <trkpt lat="44.37633" lon="5.13897">
        <ele>736.99</ele>
        <time>2011-03-31T09:45:37Z</time>
      </trkpt>
      <trkpt lat="44.37636" lon="5.13896">
        <ele>738.43</ele>
        <time>2011-03-31T09:45:46Z</time>
      </trkpt>
      <trkpt lat="44.37642" lon="5.13897">
        <ele>738.91</ele>
        <time>2011-03-31T09:45:55Z</time>
      </trkpt>
      <trkpt lat="44.37642" lon="5.13897">
        <ele>739.39</ele>
        <time>2011-03-31T09:46:12Z</time>
      </trkpt>
      <trkpt lat="44.37641" lon="5.13891">
        <ele>738.91</ele>
        <time>2011-03-31T09:46:19Z</time>
      </trkpt>
      <trkpt lat="44.37643" lon="5.13888">
        <ele>739.39</ele>
        <time>2011-03-31T09:46:26Z</time>
      </trkpt>
      <trkpt lat="44.37641" lon="5.13894">
        <ele>738.91</ele>
        <time>2011-03-31T09:47:28Z</time>
      </trkpt>
      <trkpt lat="44.37641" lon="5.13897">
        <ele>738.91</ele>
        <time>2011-03-31T09:47:35Z</time>
      </trkpt>
      <trkpt lat="44.37642" lon="5.13896">
        <ele>738.91</ele>
        <time>2011-03-31T09:47:45Z</time>
      </trkpt>
      <trkpt lat="44.37639" lon="5.13899">
        <ele>738.91</ele>
        <time>2011-03-31T09:48:12Z</time>
      </trkpt>
      <trkpt lat="44.3764" lon="5.13902">
        <ele>738.91</ele>
        <time>2011-03-31T09:48:19Z</time>
      </trkpt>
      <trkpt lat="44.37642" lon="5.13904">
        <ele>737.95</ele>
        <time>2011-03-31T09:48:27Z</time>
      </trkpt>
      <trkpt lat="44.37642" lon="5.13904">
        <ele>738.43</ele>
        <time>2011-03-31T09:48:49Z</time>
      </trkpt>
      <trkpt lat="44.37642" lon="5.13901">
        <ele>738.91</ele>
        <time>2011-03-31T09:48:56Z</time>
      </trkpt>
      <trkpt lat="44.37642" lon="5.139">
        <ele>738.91</ele>
        <time>2011-03-31T09:49:01Z</time>
      </trkpt>
      <trkpt lat="44.37643" lon="5.13904">
        <ele>738.91</ele>
        <time>2011-03-31T09:49:31Z</time>
      </trkpt>
      <trkpt lat="44.37642" lon="5.13907">
        <ele>737.95</ele>
        <time>2011-03-31T09:49:39Z</time>
      </trkpt>
      <trkpt lat="44.37642" lon="5.13907">
        <ele>738.43</ele>
        <time>2011-03-31T09:50:50Z</time>
      </trkpt>
      <trkpt lat="44.37642" lon="5.139">
        <ele>738.91</ele>
        <time>2011-03-31T09:51:45Z</time>
      </trkpt>
      <trkpt lat="44.37642" lon="5.13898">
        <ele>739.39</ele>
        <time>2011-03-31T09:51:52Z</time>
      </trkpt>
      <trkpt lat="44.37644" lon="5.13894">
        <ele>738.91</ele>
        <time>2011-03-31T09:51:55Z</time>
      </trkpt>
      <trkpt lat="44.37647" lon="5.13888">
        <ele>739.87</ele>
        <time>2011-03-31T09:52:03Z</time>
      </trkpt>
      <trkpt lat="44.37654" lon="5.13883">
        <ele>739.87</ele>
        <time>2011-03-31T09:52:11Z</time>
      </trkpt>
      <trkpt lat="44.37661" lon="5.13878">
        <ele>739.87</ele>
        <time>2011-03-31T09:52:18Z</time>
      </trkpt>
      <trkpt lat="44.37666" lon="5.13872">
        <ele>740.83</ele>
        <time>2011-03-31T09:52:26Z</time>
      </trkpt>
      <trkpt lat="44.37674" lon="5.13865">
        <ele>741.31</ele>
        <time>2011-03-31T09:52:33Z</time>
      </trkpt>
      <trkpt lat="44.37678" lon="5.13861">
        <ele>742.28</ele>
        <time>2011-03-31T09:52:42Z</time>
      </trkpt>
      <trkpt lat="44.37683" lon="5.13858">
        <ele>742.76</ele>
        <time>2011-03-31T09:52:49Z</time>
      </trkpt>
      <trkpt lat="44.3769" lon="5.13854">
        <ele>743.72</ele>
        <time>2011-03-31T09:52:55Z</time>
      </trkpt>
      <trkpt lat="44.37694" lon="5.1385">
        <ele>744.68</ele>
        <time>2011-03-31T09:53:04Z</time>
      </trkpt>
      <trkpt lat="44.37696" lon="5.13843">
        <ele>746.6</ele>
        <time>2011-03-31T09:53:12Z</time>
      </trkpt>
      <trkpt lat="44.37698" lon="5.13837">
        <ele>748.52</ele>
        <time>2011-03-31T09:53:23Z</time>
      </trkpt>
      <trkpt lat="44.37703" lon="5.13835">
        <ele>749</ele>
        <time>2011-03-31T09:53:31Z</time>
      </trkpt>
      <trkpt lat="44.37707" lon="5.1383">
        <ele>749.97</ele>
        <time>2011-03-31T09:53:38Z</time>
      </trkpt>
      <trkpt lat="44.3771" lon="5.1383">
        <ele>751.41</ele>
        <time>2011-03-31T09:53:45Z</time>
      </trkpt>
      <trkpt lat="44.37713" lon="5.13825">
        <ele>753.33</ele>
        <time>2011-03-31T09:53:52Z</time>
      </trkpt>
      <trkpt lat="44.37716" lon="5.13824">
        <ele>753.81</ele>
        <time>2011-03-31T09:53:58Z</time>
      </trkpt>
      <trkpt lat="44.37722" lon="5.13824">
        <ele>754.77</ele>
        <time>2011-03-31T09:54:05Z</time>
      </trkpt>
      <trkpt lat="44.37725" lon="5.13823">
        <ele>755.25</ele>
        <time>2011-03-31T09:54:10Z</time>
      </trkpt>
      <trkpt lat="44.37729" lon="5.13822">
        <ele>756.69</ele>
        <time>2011-03-31T09:54:16Z</time>
      </trkpt>
      <trkpt lat="44.37726" lon="5.13818">
        <ele>757.18</ele>
        <time>2011-03-31T09:54:21Z</time>
      </trkpt>
      <trkpt lat="44.37732" lon="5.13816">
        <ele>758.14</ele>
        <time>2011-03-31T09:54:28Z</time>
      </trkpt>
      <trkpt lat="44.37736" lon="5.13809">
        <ele>759.58</ele>
        <time>2011-03-31T09:54:38Z</time>
      </trkpt>
      <trkpt lat="44.37733" lon="5.13801">
        <ele>761.02</ele>
        <time>2011-03-31T09:54:44Z</time>
      </trkpt>
      <trkpt lat="44.37735" lon="5.13794">
        <ele>761.98</ele>
        <time>2011-03-31T09:54:53Z</time>
      </trkpt>
      <trkpt lat="44.3774" lon="5.13793">
        <ele>763.42</ele>
        <time>2011-03-31T09:54:59Z</time>
      </trkpt>
      <trkpt lat="44.37741" lon="5.13791">
        <ele>764.39</ele>
        <time>2011-03-31T09:55:05Z</time>
      </trkpt>
      <trkpt lat="44.37747" lon="5.1379">
        <ele>765.83</ele>
        <time>2011-03-31T09:55:12Z</time>
      </trkpt>
      <trkpt lat="44.37749" lon="5.13791">
        <ele>766.31</ele>
        <time>2011-03-31T09:55:20Z</time>
      </trkpt>
      <trkpt lat="44.37754" lon="5.13787">
        <ele>767.27</ele>
        <time>2011-03-31T09:55:26Z</time>
      </trkpt>
      <trkpt lat="44.37757" lon="5.13789">
        <ele>768.23</ele>
        <time>2011-03-31T09:55:34Z</time>
      </trkpt>
      <trkpt lat="44.37761" lon="5.13792">
        <ele>769.67</ele>
        <time>2011-03-31T09:55:40Z</time>
      </trkpt>
      <trkpt lat="44.37766" lon="5.13789">
        <ele>770.63</ele>
        <time>2011-03-31T09:55:47Z</time>
      </trkpt>
      <trkpt lat="44.37768" lon="5.13792">
        <ele>771.11</ele>
        <time>2011-03-31T09:55:53Z</time>
      </trkpt>
      <trkpt lat="44.37772" lon="5.1379">
        <ele>772.56</ele>
        <time>2011-03-31T09:56:00Z</time>
      </trkpt>
      <trkpt lat="44.37775" lon="5.13787">
        <ele>774.48</ele>
        <time>2011-03-31T09:56:07Z</time>
      </trkpt>
      <trkpt lat="44.37777" lon="5.1378">
        <ele>774.96</ele>
        <time>2011-03-31T09:56:13Z</time>
      </trkpt>
      <trkpt lat="44.37779" lon="5.13775">
        <ele>775.44</ele>
        <time>2011-03-31T09:56:20Z</time>
      </trkpt>
      <trkpt lat="44.37783" lon="5.1377">
        <ele>776.4</ele>
        <time>2011-03-31T09:56:27Z</time>
      </trkpt>
      <trkpt lat="44.37786" lon="5.13769">
        <ele>777.36</ele>
        <time>2011-03-31T09:56:34Z</time>
      </trkpt>
      <trkpt lat="44.3779" lon="5.13769">
        <ele>778.32</ele>
        <time>2011-03-31T09:56:42Z</time>
      </trkpt>
      <trkpt lat="44.37794" lon="5.13764">
        <ele>779.29</ele>
        <time>2011-03-31T09:56:48Z</time>
      </trkpt>
      <trkpt lat="44.37795" lon="5.13763">
        <ele>780.25</ele>
        <time>2011-03-31T09:56:54Z</time>
      </trkpt>
      <trkpt lat="44.37796" lon="5.13754">
        <ele>781.21</ele>
        <time>2011-03-31T09:57:01Z</time>
      </trkpt>
      <trkpt lat="44.37798" lon="5.13756">
        <ele>782.65</ele>
        <time>2011-03-31T09:57:06Z</time>
      </trkpt>
      <trkpt lat="44.37803" lon="5.13756">
        <ele>784.57</ele>
        <time>2011-03-31T09:57:13Z</time>
      </trkpt>
      <trkpt lat="44.37804" lon="5.1375">
        <ele>785.05</ele>
        <time>2011-03-31T09:57:21Z</time>
      </trkpt>
      <trkpt lat="44.37806" lon="5.13747">
        <ele>786.5</ele>
        <time>2011-03-31T09:57:29Z</time>
      </trkpt>
      <trkpt lat="44.37811" lon="5.13747">
        <ele>788.42</ele>
        <time>2011-03-31T09:57:36Z</time>
      </trkpt>
      <trkpt lat="44.37811" lon="5.13743">
        <ele>789.38</ele>
        <time>2011-03-31T09:57:42Z</time>
      </trkpt>
      <trkpt lat="44.37819" lon="5.1374">
        <ele>789.86</ele>
        <time>2011-03-31T09:57:48Z</time>
      </trkpt>
      <trkpt lat="44.37819" lon="5.13735">
        <ele>790.82</ele>
        <time>2011-03-31T09:57:55Z</time>
      </trkpt>
      <trkpt lat="44.37821" lon="5.13731">
        <ele>791.3</ele>
        <time>2011-03-31T09:58:01Z</time>
      </trkpt>
      <trkpt lat="44.37821" lon="5.13728">
        <ele>792.26</ele>
        <time>2011-03-31T09:58:09Z</time>
      </trkpt>
      <trkpt lat="44.37827" lon="5.13722">
        <ele>794.19</ele>
        <time>2011-03-31T09:58:22Z</time>
      </trkpt>
      <trkpt lat="44.37827" lon="5.1372">
        <ele>795.15</ele>
        <time>2011-03-31T09:58:28Z</time>
      </trkpt>
      <trkpt lat="44.37831" lon="5.13718">
        <ele>796.11</ele>
        <time>2011-03-31T09:58:34Z</time>
      </trkpt>
      <trkpt lat="44.37834" lon="5.13715">
        <ele>797.07</ele>
        <time>2011-03-31T09:58:41Z</time>
      </trkpt>
      <trkpt lat="44.37838" lon="5.1371">
        <ele>798.51</ele>
        <time>2011-03-31T09:58:51Z</time>
      </trkpt>
      <trkpt lat="44.37841" lon="5.13707">
        <ele>799.95</ele>
        <time>2011-03-31T09:58:58Z</time>
      </trkpt>
      <trkpt lat="44.37844" lon="5.13702">
        <ele>801.4</ele>
        <time>2011-03-31T09:59:10Z</time>
      </trkpt>
      <trkpt lat="44.37847" lon="5.13696">
        <ele>801.88</ele>
        <time>2011-03-31T09:59:18Z</time>
      </trkpt>
      <trkpt lat="44.3785" lon="5.13692">
        <ele>802.36</ele>
        <time>2011-03-31T09:59:23Z</time>
      </trkpt>
      <trkpt lat="44.37855" lon="5.13686">
        <ele>802.84</ele>
        <time>2011-03-31T09:59:31Z</time>
      </trkpt>
      <trkpt lat="44.37859" lon="5.13683">
        <ele>803.8</ele>
        <time>2011-03-31T09:59:38Z</time>
      </trkpt>
      <trkpt lat="44.37859" lon="5.13677">
        <ele>804.28</ele>
        <time>2011-03-31T09:59:43Z</time>
      </trkpt>
      <trkpt lat="44.37861" lon="5.13675">
        <ele>805.24</ele>
        <time>2011-03-31T09:59:50Z</time>
      </trkpt>
      <trkpt lat="44.37867" lon="5.13672">
        <ele>805.72</ele>
        <time>2011-03-31T09:59:56Z</time>
      </trkpt>
      <trkpt lat="44.37871" lon="5.13665">
        <ele>806.68</ele>
        <time>2011-03-31T10:00:04Z</time>
      </trkpt>
      <trkpt lat="44.37876" lon="5.13665">
        <ele>807.16</ele>
        <time>2011-03-31T10:00:10Z</time>
      </trkpt>
      <trkpt lat="44.37879" lon="5.13664">
        <ele>808.13</ele>
        <time>2011-03-31T10:00:18Z</time>
      </trkpt>
      <trkpt lat="44.37884" lon="5.1366">
        <ele>808.13</ele>
        <time>2011-03-31T10:00:27Z</time>
      </trkpt>
      <trkpt lat="44.37894" lon="5.13656">
        <ele>808.61</ele>
        <time>2011-03-31T10:00:37Z</time>
      </trkpt>
      <trkpt lat="44.37898" lon="5.13657">
        <ele>809.09</ele>
        <time>2011-03-31T10:00:42Z</time>
      </trkpt>
      <trkpt lat="44.37899" lon="5.13659">
        <ele>810.05</ele>
        <time>2011-03-31T10:00:49Z</time>
      </trkpt>
      <trkpt lat="44.37901" lon="5.13656">
        <ele>809.57</ele>
        <time>2011-03-31T10:01:04Z</time>
      </trkpt>
      <trkpt lat="44.379" lon="5.13651">
        <ele>809.09</ele>
        <time>2011-03-31T10:01:17Z</time>
      </trkpt>
      <trkpt lat="44.37899" lon="5.13649">
        <ele>808.13</ele>
        <time>2011-03-31T10:01:23Z</time>
      </trkpt>
      <trkpt lat="44.37901" lon="5.13643">
        <ele>807.16</ele>
        <time>2011-03-31T10:01:31Z</time>
      </trkpt>
      <trkpt lat="44.37901" lon="5.13643">
        <ele>804.28</ele>
        <time>2011-03-31T10:02:00Z</time>
      </trkpt>
      <trkpt lat="44.37901" lon="5.13643">
        <ele>808.13</ele>
        <time>2011-03-31T10:02:01Z</time>
      </trkpt>
      <trkpt lat="44.37901" lon="5.13643">
        <ele>804.28</ele>
        <time>2011-03-31T10:02:08Z</time>
      </trkpt>
      <trkpt lat="44.37901" lon="5.13643">
        <ele>807.64</ele>
        <time>2011-03-31T10:02:09Z</time>
      </trkpt>
      <trkpt lat="44.37907" lon="5.13633">
        <ele>806.68</ele>
        <time>2011-03-31T10:02:19Z</time>
      </trkpt>
      <trkpt lat="44.37911" lon="5.13627">
        <ele>806.68</ele>
        <time>2011-03-31T10:02:25Z</time>
      </trkpt>
      <trkpt lat="44.37912" lon="5.13629">
        <ele>807.16</ele>
        <time>2011-03-31T10:02:34Z</time>
      </trkpt>
      <trkpt lat="44.37918" lon="5.13618">
        <ele>807.64</ele>
        <time>2011-03-31T10:02:42Z</time>
      </trkpt>
      <trkpt lat="44.37924" lon="5.13615">
        <ele>807.64</ele>
        <time>2011-03-31T10:02:47Z</time>
      </trkpt>
      <trkpt lat="44.37926" lon="5.13607">
        <ele>806.68</ele>
        <time>2011-03-31T10:02:53Z</time>
      </trkpt>
      <trkpt lat="44.37929" lon="5.13604">
        <ele>807.16</ele>
        <time>2011-03-31T10:02:59Z</time>
      </trkpt>
      <trkpt lat="44.37935" lon="5.13599">
        <ele>807.16</ele>
        <time>2011-03-31T10:03:05Z</time>
      </trkpt>
      <trkpt lat="44.37934" lon="5.136">
        <ele>808.13</ele>
        <time>2011-03-31T10:03:06Z</time>
      </trkpt>
      <trkpt lat="44.37933" lon="5.13595">
        <ele>807.64</ele>
        <time>2011-03-31T10:03:13Z</time>
      </trkpt>
      <trkpt lat="44.37935" lon="5.13592">
        <ele>807.64</ele>
        <time>2011-03-31T10:03:26Z</time>
      </trkpt>
      <trkpt lat="44.3794" lon="5.13579">
        <ele>807.64</ele>
        <time>2011-03-31T10:03:33Z</time>
      </trkpt>
      <trkpt lat="44.3794" lon="5.13579">
        <ele>806.68</ele>
        <time>2011-03-31T10:03:34Z</time>
      </trkpt>
      <trkpt lat="44.37942" lon="5.13573">
        <ele>807.16</ele>
        <time>2011-03-31T10:03:42Z</time>
      </trkpt>
      <trkpt lat="44.3795" lon="5.13561">
        <ele>807.64</ele>
        <time>2011-03-31T10:03:52Z</time>
      </trkpt>
      <trkpt lat="44.37949" lon="5.1356">
        <ele>808.61</ele>
        <time>2011-03-31T10:03:58Z</time>
      </trkpt>
      <trkpt lat="44.37949" lon="5.13558">
        <ele>808.61</ele>
        <time>2011-03-31T10:04:05Z</time>
      </trkpt>
      <trkpt lat="44.37954" lon="5.13556">
        <ele>810.05</ele>
        <time>2011-03-31T10:04:12Z</time>
      </trkpt>
      <trkpt lat="44.3796" lon="5.13547">
        <ele>810.53</ele>
        <time>2011-03-31T10:04:20Z</time>
      </trkpt>
      <trkpt lat="44.37961" lon="5.1354">
        <ele>811.01</ele>
        <time>2011-03-31T10:04:28Z</time>
      </trkpt>
      <trkpt lat="44.37964" lon="5.13537">
        <ele>811.01</ele>
        <time>2011-03-31T10:04:34Z</time>
      </trkpt>
      <trkpt lat="44.37967" lon="5.13529">
        <ele>811.49</ele>
        <time>2011-03-31T10:04:42Z</time>
      </trkpt>
      <trkpt lat="44.3797" lon="5.1352">
        <ele>811.49</ele>
        <time>2011-03-31T10:04:48Z</time>
      </trkpt>
      <trkpt lat="44.37975" lon="5.1351">
        <ele>811.49</ele>
        <time>2011-03-31T10:04:55Z</time>
      </trkpt>
      <trkpt lat="44.37976" lon="5.13509">
        <ele>811.97</ele>
        <time>2011-03-31T10:05:00Z</time>
      </trkpt>
      <trkpt lat="44.37981" lon="5.13506">
        <ele>812.45</ele>
        <time>2011-03-31T10:05:07Z</time>
      </trkpt>
      <trkpt lat="44.37986" lon="5.13498">
        <ele>812.93</ele>
        <time>2011-03-31T10:05:14Z</time>
      </trkpt>
      <trkpt lat="44.37991" lon="5.13489">
        <ele>814.37</ele>
        <time>2011-03-31T10:05:20Z</time>
      </trkpt>
      <trkpt lat="44.37991" lon="5.13486">
        <ele>814.85</ele>
        <time>2011-03-31T10:05:26Z</time>
      </trkpt>
      <trkpt lat="44.37993" lon="5.13483">
        <ele>816.3</ele>
        <time>2011-03-31T10:05:32Z</time>
      </trkpt>
      <trkpt lat="44.37994" lon="5.1348">
        <ele>816.78</ele>
        <time>2011-03-31T10:05:39Z</time>
      </trkpt>
      <trkpt lat="44.38" lon="5.13473">
        <ele>817.74</ele>
        <time>2011-03-31T10:05:45Z</time>
      </trkpt>
      <trkpt lat="44.38002" lon="5.13467">
        <ele>818.22</ele>
        <time>2011-03-31T10:05:51Z</time>
      </trkpt>
      <trkpt lat="44.38002" lon="5.13466">
        <ele>819.18</ele>
        <time>2011-03-31T10:05:57Z</time>
      </trkpt>
      <trkpt lat="44.38006" lon="5.13465">
        <ele>820.14</ele>
        <time>2011-03-31T10:06:04Z</time>
      </trkpt>
      <trkpt lat="44.38007" lon="5.13464">
        <ele>819.66</ele>
        <time>2011-03-31T10:06:06Z</time>
      </trkpt>
      <trkpt lat="44.38011" lon="5.13455">
        <ele>818.7</ele>
        <time>2011-03-31T10:06:12Z</time>
      </trkpt>
      <trkpt lat="44.38014" lon="5.13447">
        <ele>819.18</ele>
        <time>2011-03-31T10:06:18Z</time>
      </trkpt>
      <trkpt lat="44.38018" lon="5.1344">
        <ele>819.18</ele>
        <time>2011-03-31T10:06:25Z</time>
      </trkpt>
      <trkpt lat="44.38019" lon="5.13432">
        <ele>819.66</ele>
        <time>2011-03-31T10:06:32Z</time>
      </trkpt>
      <trkpt lat="44.38021" lon="5.13424">
        <ele>820.62</ele>
        <time>2011-03-31T10:06:40Z</time>
      </trkpt>
      <trkpt lat="44.38028" lon="5.13418">
        <ele>820.62</ele>
        <time>2011-03-31T10:06:48Z</time>
      </trkpt>
      <trkpt lat="44.38027" lon="5.1341">
        <ele>821.1</ele>
        <time>2011-03-31T10:06:55Z</time>
      </trkpt>
      <trkpt lat="44.38032" lon="5.13407">
        <ele>820.62</ele>
        <time>2011-03-31T10:07:00Z</time>
      </trkpt>
      <trkpt lat="44.38036" lon="5.13398">
        <ele>821.1</ele>
        <time>2011-03-31T10:07:06Z</time>
      </trkpt>
      <trkpt lat="44.38039" lon="5.13396">
        <ele>820.62</ele>
        <time>2011-03-31T10:07:10Z</time>
      </trkpt>
      <trkpt lat="44.38041" lon="5.13385">
        <ele>821.58</ele>
        <time>2011-03-31T10:07:19Z</time>
      </trkpt>
      <trkpt lat="44.38044" lon="5.1338">
        <ele>822.06</ele>
        <time>2011-03-31T10:07:26Z</time>
      </trkpt>
      <trkpt lat="44.38051" lon="5.13376">
        <ele>822.55</ele>
        <time>2011-03-31T10:07:32Z</time>
      </trkpt>
      <trkpt lat="44.38051" lon="5.13368">
        <ele>823.99</ele>
        <time>2011-03-31T10:07:40Z</time>
      </trkpt>
      <trkpt lat="44.38053" lon="5.13362">
        <ele>824.95</ele>
        <time>2011-03-31T10:07:47Z</time>
      </trkpt>
      <trkpt lat="44.38056" lon="5.13362">
        <ele>825.43</ele>
        <time>2011-03-31T10:07:53Z</time>
      </trkpt>
      <trkpt lat="44.3806" lon="5.13354">
        <ele>826.39</ele>
        <time>2011-03-31T10:07:59Z</time>
      </trkpt>
      <trkpt lat="44.38061" lon="5.13345">
        <ele>826.87</ele>
        <time>2011-03-31T10:08:06Z</time>
      </trkpt>
      <trkpt lat="44.38066" lon="5.13339">
        <ele>828.31</ele>
        <time>2011-03-31T10:08:16Z</time>
      </trkpt>
      <trkpt lat="44.38069" lon="5.13333">
        <ele>828.79</ele>
        <time>2011-03-31T10:08:23Z</time>
      </trkpt>
      <trkpt lat="44.38072" lon="5.13328">
        <ele>829.27</ele>
        <time>2011-03-31T10:08:28Z</time>
      </trkpt>
      <trkpt lat="44.38078" lon="5.13321">
        <ele>828.79</ele>
        <time>2011-03-31T10:08:36Z</time>
      </trkpt>
      <trkpt lat="44.38082" lon="5.13317">
        <ele>829.27</ele>
        <time>2011-03-31T10:08:44Z</time>
      </trkpt>
      <trkpt lat="44.38086" lon="5.13309">
        <ele>830.24</ele>
        <time>2011-03-31T10:08:50Z</time>
      </trkpt>
      <trkpt lat="44.38089" lon="5.13305">
        <ele>829.27</ele>
        <time>2011-03-31T10:08:58Z</time>
      </trkpt>
      <trkpt lat="44.38092" lon="5.13295">
        <ele>829.27</ele>
        <time>2011-03-31T10:09:04Z</time>
      </trkpt>
      <trkpt lat="44.38093" lon="5.13288">
        <ele>829.27</ele>
        <time>2011-03-31T10:09:11Z</time>
      </trkpt>
      <trkpt lat="44.38099" lon="5.13282">
        <ele>829.27</ele>
        <time>2011-03-31T10:09:17Z</time>
      </trkpt>
      <trkpt lat="44.38102" lon="5.1327">
        <ele>829.76</ele>
        <time>2011-03-31T10:09:26Z</time>
      </trkpt>
      <trkpt lat="44.38104" lon="5.13266">
        <ele>830.24</ele>
        <time>2011-03-31T10:09:33Z</time>
      </trkpt>
      <trkpt lat="44.38106" lon="5.13258">
        <ele>829.76</ele>
        <time>2011-03-31T10:09:38Z</time>
      </trkpt>
      <trkpt lat="44.38111" lon="5.13255">
        <ele>830.72</ele>
        <time>2011-03-31T10:09:45Z</time>
      </trkpt>
      <trkpt lat="44.38113" lon="5.13253">
        <ele>831.68</ele>
        <time>2011-03-31T10:09:50Z</time>
      </trkpt>
      <trkpt lat="44.38119" lon="5.1325">
        <ele>833.12</ele>
        <time>2011-03-31T10:09:57Z</time>
      </trkpt>
      <trkpt lat="44.38124" lon="5.13245">
        <ele>833.12</ele>
        <time>2011-03-31T10:10:04Z</time>
      </trkpt>
      <trkpt lat="44.38126" lon="5.13241">
        <ele>833.6</ele>
        <time>2011-03-31T10:10:11Z</time>
      </trkpt>
      <trkpt lat="44.38128" lon="5.13236">
        <ele>833.12</ele>
        <time>2011-03-31T10:10:20Z</time>
      </trkpt>
      <trkpt lat="44.38127" lon="5.13239">
        <ele>833.12</ele>
        <time>2011-03-31T10:10:53Z</time>
      </trkpt>
      <trkpt lat="44.38123" lon="5.13241">
        <ele>833.12</ele>
        <time>2011-03-31T10:10:59Z</time>
      </trkpt>
      <trkpt lat="44.38124" lon="5.13244">
        <ele>833.12</ele>
        <time>2011-03-31T10:11:05Z</time>
      </trkpt>
      <trkpt lat="44.38128" lon="5.13237">
        <ele>833.12</ele>
        <time>2011-03-31T10:11:27Z</time>
      </trkpt>
      <trkpt lat="44.38125" lon="5.13238">
        <ele>833.12</ele>
        <time>2011-03-31T10:11:33Z</time>
      </trkpt>
      <trkpt lat="44.38123" lon="5.13242">
        <ele>833.12</ele>
        <time>2011-03-31T10:11:54Z</time>
      </trkpt>
      <trkpt lat="44.38123" lon="5.13246">
        <ele>832.64</ele>
        <time>2011-03-31T10:12:01Z</time>
      </trkpt>
      <trkpt lat="44.38122" lon="5.13246">
        <ele>832.64</ele>
        <time>2011-03-31T10:12:11Z</time>
      </trkpt>
      <trkpt lat="44.38123" lon="5.13246">
        <ele>831.68</ele>
        <time>2011-03-31T10:12:52Z</time>
      </trkpt>
      <trkpt lat="44.38124" lon="5.13249">
        <ele>831.2</ele>
        <time>2011-03-31T10:13:20Z</time>
      </trkpt>
      <trkpt lat="44.38128" lon="5.1325">
        <ele>833.6</ele>
        <time>2011-03-31T10:31:01Z</time>
      </trkpt>
      <trkpt lat="44.38126" lon="5.13251">
        <ele>833.12</ele>
        <time>2011-03-31T10:33:15Z</time>
      </trkpt>
      <trkpt lat="44.38132" lon="5.13247">
        <ele>833.6</ele>
        <time>2011-03-31T10:33:25Z</time>
      </trkpt>
      <trkpt lat="44.38122" lon="5.13254">
        <ele>834.08</ele>
        <time>2011-03-31T10:36:25Z</time>
      </trkpt>
      <trkpt lat="44.38126" lon="5.13253">
        <ele>832.64</ele>
        <time>2011-03-31T11:13:31Z</time>
      </trkpt>
      <trkpt lat="44.38127" lon="5.13253">
        <ele>833.12</ele>
        <time>2011-03-31T11:13:42Z</time>
      </trkpt>
      <trkpt lat="44.38126" lon="5.13246">
        <ele>834.08</ele>
        <time>2011-03-31T11:16:46Z</time>
      </trkpt>
      <trkpt lat="44.38125" lon="5.13246">
        <ele>834.08</ele>
        <time>2011-03-31T11:17:02Z</time>
      </trkpt>
      <trkpt lat="44.38127" lon="5.1324">
        <ele>834.56</ele>
        <time>2011-03-31T11:17:09Z</time>
      </trkpt>
      <trkpt lat="44.3813" lon="5.13234">
        <ele>834.08</ele>
        <time>2011-03-31T11:17:16Z</time>
      </trkpt>
      <trkpt lat="44.38131" lon="5.1323">
        <ele>833.12</ele>
        <time>2011-03-31T11:17:23Z</time>
      </trkpt>
      <trkpt lat="44.38134" lon="5.13223">
        <ele>831.68</ele>
        <time>2011-03-31T11:17:30Z</time>
      </trkpt>
      <trkpt lat="44.38137" lon="5.1322">
        <ele>830.24</ele>
        <time>2011-03-31T11:17:37Z</time>
      </trkpt>
      <trkpt lat="44.3814" lon="5.13208">
        <ele>828.31</ele>
        <time>2011-03-31T11:17:46Z</time>
      </trkpt>
      <trkpt lat="44.38145" lon="5.13208">
        <ele>827.83</ele>
        <time>2011-03-31T11:17:53Z</time>
      </trkpt>
      <trkpt lat="44.38149" lon="5.132">
        <ele>826.87</ele>
        <time>2011-03-31T11:18:00Z</time>
      </trkpt>
      <trkpt lat="44.38156" lon="5.13197">
        <ele>825.91</ele>
        <time>2011-03-31T11:18:05Z</time>
      </trkpt>
      <trkpt lat="44.38158" lon="5.13189">
        <ele>824.95</ele>
        <time>2011-03-31T11:18:12Z</time>
      </trkpt>
      <trkpt lat="44.38168" lon="5.13182">
        <ele>823.99</ele>
        <time>2011-03-31T11:18:20Z</time>
      </trkpt>
      <trkpt lat="44.38172" lon="5.1318">
        <ele>823.99</ele>
        <time>2011-03-31T11:18:26Z</time>
      </trkpt>
      <trkpt lat="44.38175" lon="5.13176">
        <ele>823.99</ele>
        <time>2011-03-31T11:18:29Z</time>
      </trkpt>
      <trkpt lat="44.38181" lon="5.13171">
        <ele>823.03</ele>
        <time>2011-03-31T11:18:38Z</time>
      </trkpt>
      <trkpt lat="44.3818" lon="5.13162">
        <ele>822.55</ele>
        <time>2011-03-31T11:18:45Z</time>
      </trkpt>
      <trkpt lat="44.38185" lon="5.13154">
        <ele>821.58</ele>
        <time>2011-03-31T11:18:52Z</time>
      </trkpt>
      <trkpt lat="44.38187" lon="5.13154">
        <ele>821.58</ele>
        <time>2011-03-31T11:18:54Z</time>
      </trkpt>
      <trkpt lat="44.38192" lon="5.13144">
        <ele>820.62</ele>
        <time>2011-03-31T11:19:02Z</time>
      </trkpt>
      <trkpt lat="44.38198" lon="5.13139">
        <ele>820.62</ele>
        <time>2011-03-31T11:19:09Z</time>
      </trkpt>
      <trkpt lat="44.382" lon="5.13137">
        <ele>820.14</ele>
        <time>2011-03-31T11:19:15Z</time>
      </trkpt>
      <trkpt lat="44.38204" lon="5.13129">
        <ele>819.18</ele>
        <time>2011-03-31T11:19:22Z</time>
      </trkpt>
      <trkpt lat="44.38203" lon="5.13128">
        <ele>819.66</ele>
        <time>2011-03-31T11:19:24Z</time>
      </trkpt>
      <trkpt lat="44.38211" lon="5.13125">
        <ele>818.7</ele>
        <time>2011-03-31T11:19:30Z</time>
      </trkpt>
      <trkpt lat="44.38211" lon="5.13121">
        <ele>818.22</ele>
        <time>2011-03-31T11:19:33Z</time>
      </trkpt>
      <trkpt lat="44.3822" lon="5.13113">
        <ele>818.22</ele>
        <time>2011-03-31T11:19:41Z</time>
      </trkpt>
      <trkpt lat="44.38222" lon="5.13114">
        <ele>817.26</ele>
        <time>2011-03-31T11:19:46Z</time>
      </trkpt>
      <trkpt lat="44.38229" lon="5.13109">
        <ele>816.78</ele>
        <time>2011-03-31T11:19:53Z</time>
      </trkpt>
      <trkpt lat="44.38231" lon="5.13101">
        <ele>817.74</ele>
        <time>2011-03-31T11:19:59Z</time>
      </trkpt>
      <trkpt lat="44.38235" lon="5.13095">
        <ele>817.74</ele>
        <time>2011-03-31T11:20:03Z</time>
      </trkpt>
      <trkpt lat="44.38239" lon="5.13094">
        <ele>817.74</ele>
        <time>2011-03-31T11:20:06Z</time>
      </trkpt>
      <trkpt lat="44.3824" lon="5.13089">
        <ele>817.74</ele>
        <time>2011-03-31T11:20:11Z</time>
      </trkpt>
      <trkpt lat="44.38247" lon="5.13084">
        <ele>817.74</ele>
        <time>2011-03-31T11:20:16Z</time>
      </trkpt>
      <trkpt lat="44.3825" lon="5.13083">
        <ele>817.74</ele>
        <time>2011-03-31T11:20:19Z</time>
      </trkpt>
      <trkpt lat="44.38253" lon="5.13069">
        <ele>817.74</ele>
        <time>2011-03-31T11:20:28Z</time>
      </trkpt>
      <trkpt lat="44.38262" lon="5.13067">
        <ele>818.22</ele>
        <time>2011-03-31T11:20:35Z</time>
      </trkpt>
      <trkpt lat="44.38264" lon="5.13064">
        <ele>818.7</ele>
        <time>2011-03-31T11:20:38Z</time>
      </trkpt>
      <trkpt lat="44.38267" lon="5.13054">
        <ele>819.18</ele>
        <time>2011-03-31T11:20:46Z</time>
      </trkpt>
      <trkpt lat="44.38271" lon="5.13045">
        <ele>819.66</ele>
        <time>2011-03-31T11:20:53Z</time>
      </trkpt>
      <trkpt lat="44.38271" lon="5.13041">
        <ele>820.14</ele>
        <time>2011-03-31T11:20:57Z</time>
      </trkpt>
      <trkpt lat="44.3828" lon="5.13035">
        <ele>821.1</ele>
        <time>2011-03-31T11:21:05Z</time>
      </trkpt>
      <trkpt lat="44.38284" lon="5.1303">
        <ele>821.58</ele>
        <time>2011-03-31T11:21:11Z</time>
      </trkpt>
      <trkpt lat="44.3829" lon="5.13028">
        <ele>821.58</ele>
        <time>2011-03-31T11:21:15Z</time>
      </trkpt>
      <trkpt lat="44.38293" lon="5.13019">
        <ele>822.06</ele>
        <time>2011-03-31T11:21:23Z</time>
      </trkpt>
      <trkpt lat="44.38295" lon="5.13013">
        <ele>823.03</ele>
        <time>2011-03-31T11:21:29Z</time>
      </trkpt>
      <trkpt lat="44.38296" lon="5.13005">
        <ele>823.99</ele>
        <time>2011-03-31T11:21:35Z</time>
      </trkpt>
      <trkpt lat="44.38296" lon="5.13">
        <ele>825.91</ele>
        <time>2011-03-31T11:21:44Z</time>
      </trkpt>
      <trkpt lat="44.38296" lon="5.12992">
        <ele>826.39</ele>
        <time>2011-03-31T11:21:49Z</time>
      </trkpt>
      <trkpt lat="44.38296" lon="5.12988">
        <ele>827.35</ele>
        <time>2011-03-31T11:21:55Z</time>
      </trkpt>
      <trkpt lat="44.383" lon="5.12983">
        <ele>828.31</ele>
        <time>2011-03-31T11:22:02Z</time>
      </trkpt>
      <trkpt lat="44.38302" lon="5.12978">
        <ele>830.24</ele>
        <time>2011-03-31T11:22:07Z</time>
      </trkpt>
      <trkpt lat="44.38306" lon="5.12975">
        <ele>830.72</ele>
        <time>2011-03-31T11:22:12Z</time>
      </trkpt>
      <trkpt lat="44.38304" lon="5.12973">
        <ele>831.2</ele>
        <time>2011-03-31T11:22:18Z</time>
      </trkpt>
      <trkpt lat="44.38305" lon="5.1297">
        <ele>832.16</ele>
        <time>2011-03-31T11:22:20Z</time>
      </trkpt>
      <trkpt lat="44.38306" lon="5.12962">
        <ele>832.64</ele>
        <time>2011-03-31T11:22:26Z</time>
      </trkpt>
      <trkpt lat="44.38308" lon="5.12959">
        <ele>833.6</ele>
        <time>2011-03-31T11:22:31Z</time>
      </trkpt>
      <trkpt lat="44.38312" lon="5.12956">
        <ele>835.04</ele>
        <time>2011-03-31T11:22:37Z</time>
      </trkpt>
      <trkpt lat="44.38312" lon="5.12953">
        <ele>835.52</ele>
        <time>2011-03-31T11:22:42Z</time>
      </trkpt>
      <trkpt lat="44.38316" lon="5.12948">
        <ele>836.48</ele>
        <time>2011-03-31T11:22:49Z</time>
      </trkpt>
      <trkpt lat="44.38316" lon="5.12942">
        <ele>837.45</ele>
        <time>2011-03-31T11:22:56Z</time>
      </trkpt>
      <trkpt lat="44.38322" lon="5.12937">
        <ele>838.89</ele>
        <time>2011-03-31T11:23:03Z</time>
      </trkpt>
      <trkpt lat="44.38324" lon="5.12929">
        <ele>839.37</ele>
        <time>2011-03-31T11:23:11Z</time>
      </trkpt>
      <trkpt lat="44.38325" lon="5.12924">
        <ele>840.33</ele>
        <time>2011-03-31T11:23:18Z</time>
      </trkpt>
      <trkpt lat="44.3833" lon="5.12918">
        <ele>841.29</ele>
        <time>2011-03-31T11:23:26Z</time>
      </trkpt>
      <trkpt lat="44.38329" lon="5.12917">
        <ele>841.77</ele>
        <time>2011-03-31T11:23:27Z</time>
      </trkpt>
      <trkpt lat="44.38332" lon="5.12913">
        <ele>841.77</ele>
        <time>2011-03-31T11:23:34Z</time>
      </trkpt>
      <trkpt lat="44.38337" lon="5.12904">
        <ele>841.77</ele>
        <time>2011-03-31T11:23:41Z</time>
      </trkpt>
      <trkpt lat="44.38346" lon="5.12895">
        <ele>842.73</ele>
        <time>2011-03-31T11:23:51Z</time>
      </trkpt>
      <trkpt lat="44.38346" lon="5.12892">
        <ele>842.73</ele>
        <time>2011-03-31T11:23:53Z</time>
      </trkpt>
      <trkpt lat="44.3835" lon="5.12885">
        <ele>843.69</ele>
        <time>2011-03-31T11:24:01Z</time>
      </trkpt>
      <trkpt lat="44.38351" lon="5.12882">
        <ele>844.18</ele>
        <time>2011-03-31T11:24:07Z</time>
      </trkpt>
      <trkpt lat="44.38355" lon="5.12879">
        <ele>843.69</ele>
        <time>2011-03-31T11:24:10Z</time>
      </trkpt>
      <trkpt lat="44.38361" lon="5.12874">
        <ele>844.66</ele>
        <time>2011-03-31T11:24:16Z</time>
      </trkpt>
      <trkpt lat="44.38361" lon="5.12869">
        <ele>845.14</ele>
        <time>2011-03-31T11:24:23Z</time>
      </trkpt>
      <trkpt lat="44.38364" lon="5.1287">
        <ele>845.14</ele>
        <time>2011-03-31T11:24:27Z</time>
      </trkpt>
      <trkpt lat="44.38368" lon="5.12862">
        <ele>846.1</ele>
        <time>2011-03-31T11:24:34Z</time>
      </trkpt>
      <trkpt lat="44.38368" lon="5.12859">
        <ele>846.58</ele>
        <time>2011-03-31T11:24:39Z</time>
      </trkpt>
      <trkpt lat="44.38372" lon="5.12854">
        <ele>847.54</ele>
        <time>2011-03-31T11:24:44Z</time>
      </trkpt>
      <trkpt lat="44.38372" lon="5.12854">
        <ele>847.54</ele>
        <time>2011-03-31T11:24:45Z</time>
      </trkpt>
      <trkpt lat="44.38372" lon="5.12849">
        <ele>848.98</ele>
        <time>2011-03-31T11:24:52Z</time>
      </trkpt>
      <trkpt lat="44.38377" lon="5.12848">
        <ele>848.98</ele>
        <time>2011-03-31T11:24:55Z</time>
      </trkpt>
      <trkpt lat="44.38376" lon="5.12843">
        <ele>848.5</ele>
        <time>2011-03-31T11:24:59Z</time>
      </trkpt>
      <trkpt lat="44.38382" lon="5.12835">
        <ele>848.5</ele>
        <time>2011-03-31T11:25:07Z</time>
      </trkpt>
      <trkpt lat="44.38385" lon="5.1283">
        <ele>848.5</ele>
        <time>2011-03-31T11:25:13Z</time>
      </trkpt>
      <trkpt lat="44.38391" lon="5.12827">
        <ele>848.5</ele>
        <time>2011-03-31T11:25:19Z</time>
      </trkpt>
      <trkpt lat="44.38394" lon="5.1282">
        <ele>848.98</ele>
        <time>2011-03-31T11:25:26Z</time>
      </trkpt>
      <trkpt lat="44.38395" lon="5.12814">
        <ele>849.94</ele>
        <time>2011-03-31T11:25:32Z</time>
      </trkpt>
      <trkpt lat="44.38399" lon="5.1281">
        <ele>850.42</ele>
        <time>2011-03-31T11:25:39Z</time>
      </trkpt>
      <trkpt lat="44.38402" lon="5.12807">
        <ele>850.9</ele>
        <time>2011-03-31T11:25:43Z</time>
      </trkpt>
      <trkpt lat="44.38407" lon="5.12803">
        <ele>851.87</ele>
        <time>2011-03-31T11:25:50Z</time>
      </trkpt>
      <trkpt lat="44.38408" lon="5.12802">
        <ele>851.87</ele>
        <time>2011-03-31T11:25:51Z</time>
      </trkpt>
      <trkpt lat="44.38407" lon="5.12797">
        <ele>851.87</ele>
        <time>2011-03-31T11:25:54Z</time>
      </trkpt>
      <trkpt lat="44.38411" lon="5.12792">
        <ele>853.31</ele>
        <time>2011-03-31T11:26:02Z</time>
      </trkpt>
      <trkpt lat="44.38414" lon="5.12789">
        <ele>853.79</ele>
        <time>2011-03-31T11:26:08Z</time>
      </trkpt>
      <trkpt lat="44.38417" lon="5.12788">
        <ele>853.79</ele>
        <time>2011-03-31T11:26:13Z</time>
      </trkpt>
      <trkpt lat="44.38417" lon="5.12781">
        <ele>854.27</ele>
        <time>2011-03-31T11:26:19Z</time>
      </trkpt>
      <trkpt lat="44.3842" lon="5.12779">
        <ele>854.27</ele>
        <time>2011-03-31T11:26:23Z</time>
      </trkpt>
      <trkpt lat="44.38424" lon="5.1277">
        <ele>854.75</ele>
        <time>2011-03-31T11:26:31Z</time>
      </trkpt>
      <trkpt lat="44.38422" lon="5.12762">
        <ele>854.27</ele>
        <time>2011-03-31T11:26:38Z</time>
      </trkpt>
      <trkpt lat="44.38426" lon="5.12758">
        <ele>855.71</ele>
        <time>2011-03-31T11:26:44Z</time>
      </trkpt>
      <trkpt lat="44.38424" lon="5.12752">
        <ele>855.23</ele>
        <time>2011-03-31T11:26:49Z</time>
      </trkpt>
      <trkpt lat="44.38425" lon="5.12749">
        <ele>855.23</ele>
        <time>2011-03-31T11:26:52Z</time>
      </trkpt>
      <trkpt lat="44.38429" lon="5.12747">
        <ele>854.75</ele>
        <time>2011-03-31T11:26:54Z</time>
      </trkpt>
      <trkpt lat="44.38428" lon="5.12737">
        <ele>853.79</ele>
        <time>2011-03-31T11:27:02Z</time>
      </trkpt>
      <trkpt lat="44.38434" lon="5.12727">
        <ele>853.79</ele>
        <time>2011-03-31T11:27:10Z</time>
      </trkpt>
      <trkpt lat="44.3844" lon="5.12719">
        <ele>855.23</ele>
        <time>2011-03-31T11:27:19Z</time>
      </trkpt>
      <trkpt lat="44.38441" lon="5.12713">
        <ele>855.71</ele>
        <time>2011-03-31T11:27:25Z</time>
      </trkpt>
      <trkpt lat="44.38447" lon="5.12707">
        <ele>856.67</ele>
        <time>2011-03-31T11:27:31Z</time>
      </trkpt>
      <trkpt lat="44.3845" lon="5.12706">
        <ele>857.15</ele>
        <time>2011-03-31T11:27:38Z</time>
      </trkpt>
      <trkpt lat="44.38454" lon="5.12698">
        <ele>858.59</ele>
        <time>2011-03-31T11:27:45Z</time>
      </trkpt>
      <trkpt lat="44.38455" lon="5.12697">
        <ele>860.04</ele>
        <time>2011-03-31T11:27:50Z</time>
      </trkpt>
      <trkpt lat="44.38459" lon="5.12694">
        <ele>860.52</ele>
        <time>2011-03-31T11:27:56Z</time>
      </trkpt>
      <trkpt lat="44.38461" lon="5.12692">
        <ele>861.48</ele>
        <time>2011-03-31T11:28:01Z</time>
      </trkpt>
      <trkpt lat="44.38462" lon="5.12689">
        <ele>862.44</ele>
        <time>2011-03-31T11:28:04Z</time>
      </trkpt>
      <trkpt lat="44.38465" lon="5.12683">
        <ele>862.92</ele>
        <time>2011-03-31T11:28:12Z</time>
      </trkpt>
      <trkpt lat="44.38468" lon="5.12675">
        <ele>862.92</ele>
        <time>2011-03-31T11:28:20Z</time>
      </trkpt>
      <trkpt lat="44.3847" lon="5.12666">
        <ele>861.96</ele>
        <time>2011-03-31T11:28:26Z</time>
      </trkpt>
      <trkpt lat="44.38475" lon="5.12663">
        <ele>862.92</ele>
        <time>2011-03-31T11:28:33Z</time>
      </trkpt>
      <trkpt lat="44.38479" lon="5.12656">
        <ele>863.4</ele>
        <time>2011-03-31T11:28:41Z</time>
      </trkpt>
      <trkpt lat="44.38482" lon="5.12651">
        <ele>864.36</ele>
        <time>2011-03-31T11:28:47Z</time>
      </trkpt>
      <trkpt lat="44.38485" lon="5.12643">
        <ele>864.36</ele>
        <time>2011-03-31T11:28:54Z</time>
      </trkpt>
      <trkpt lat="44.38487" lon="5.12645">
        <ele>864.36</ele>
        <time>2011-03-31T11:28:58Z</time>
      </trkpt>
      <trkpt lat="44.3849" lon="5.12639">
        <ele>864.84</ele>
        <time>2011-03-31T11:29:03Z</time>
      </trkpt>
      <trkpt lat="44.38493" lon="5.12631">
        <ele>863.88</ele>
        <time>2011-03-31T11:29:12Z</time>
      </trkpt>
      <trkpt lat="44.38501" lon="5.12625">
        <ele>863.88</ele>
        <time>2011-03-31T11:29:20Z</time>
      </trkpt>
      <trkpt lat="44.38503" lon="5.12615">
        <ele>863.88</ele>
        <time>2011-03-31T11:29:27Z</time>
      </trkpt>
      <trkpt lat="44.38506" lon="5.12613">
        <ele>864.36</ele>
        <time>2011-03-31T11:29:32Z</time>
      </trkpt>
      <trkpt lat="44.38512" lon="5.12606">
        <ele>864.36</ele>
        <time>2011-03-31T11:29:39Z</time>
      </trkpt>
      <trkpt lat="44.38514" lon="5.12604">
        <ele>863.4</ele>
        <time>2011-03-31T11:29:47Z</time>
      </trkpt>
      <trkpt lat="44.38515" lon="5.12601">
        <ele>862.92</ele>
        <time>2011-03-31T11:29:50Z</time>
      </trkpt>
      <trkpt lat="44.38518" lon="5.12595">
        <ele>861.96</ele>
        <time>2011-03-31T11:29:57Z</time>
      </trkpt>
      <trkpt lat="44.38523" lon="5.1259">
        <ele>861</ele>
        <time>2011-03-31T11:30:04Z</time>
      </trkpt>
      <trkpt lat="44.38527" lon="5.12584">
        <ele>860.52</ele>
        <time>2011-03-31T11:30:12Z</time>
      </trkpt>
      <trkpt lat="44.38531" lon="5.12581">
        <ele>860.52</ele>
        <time>2011-03-31T11:30:17Z</time>
      </trkpt>
      <trkpt lat="44.38534" lon="5.12579">
        <ele>860.04</ele>
        <time>2011-03-31T11:30:24Z</time>
      </trkpt>
      <trkpt lat="44.38534" lon="5.12575">
        <ele>858.59</ele>
        <time>2011-03-31T11:30:31Z</time>
      </trkpt>
      <trkpt lat="44.38539" lon="5.1257">
        <ele>857.63</ele>
        <time>2011-03-31T11:30:37Z</time>
      </trkpt>
      <trkpt lat="44.38541" lon="5.12568">
        <ele>857.15</ele>
        <time>2011-03-31T11:30:39Z</time>
      </trkpt>
      <trkpt lat="44.38541" lon="5.12569">
        <ele>856.19</ele>
        <time>2011-03-31T11:30:42Z</time>
      </trkpt>
      <trkpt lat="44.38546" lon="5.12562">
        <ele>856.67</ele>
        <time>2011-03-31T11:30:49Z</time>
      </trkpt>
      <trkpt lat="44.38547" lon="5.12558">
        <ele>857.15</ele>
        <time>2011-03-31T11:30:54Z</time>
      </trkpt>
      <trkpt lat="44.38551" lon="5.12553">
        <ele>857.63</ele>
        <time>2011-03-31T11:31:01Z</time>
      </trkpt>
      <trkpt lat="44.38555" lon="5.1255">
        <ele>856.67</ele>
        <time>2011-03-31T11:31:08Z</time>
      </trkpt>
      <trkpt lat="44.38555" lon="5.12543">
        <ele>857.15</ele>
        <time>2011-03-31T11:31:15Z</time>
      </trkpt>
      <trkpt lat="44.38561" lon="5.12539">
        <ele>857.15</ele>
        <time>2011-03-31T11:31:21Z</time>
      </trkpt>
      <trkpt lat="44.38564" lon="5.12535">
        <ele>856.19</ele>
        <time>2011-03-31T11:31:28Z</time>
      </trkpt>
      <trkpt lat="44.38563" lon="5.12529">
        <ele>856.19</ele>
        <time>2011-03-31T11:31:33Z</time>
      </trkpt>
      <trkpt lat="44.38566" lon="5.12526">
        <ele>856.19</ele>
        <time>2011-03-31T11:31:36Z</time>
      </trkpt>
      <trkpt lat="44.38568" lon="5.12519">
        <ele>857.63</ele>
        <time>2011-03-31T11:31:44Z</time>
      </trkpt>
      <trkpt lat="44.38569" lon="5.12516">
        <ele>859.08</ele>
        <time>2011-03-31T11:31:50Z</time>
      </trkpt>
      <trkpt lat="44.38573" lon="5.1251">
        <ele>859.08</ele>
        <time>2011-03-31T11:31:56Z</time>
      </trkpt>
      <trkpt lat="44.38574" lon="5.12508">
        <ele>859.08</ele>
        <time>2011-03-31T11:31:58Z</time>
      </trkpt>
      <trkpt lat="44.38577" lon="5.12499">
        <ele>858.59</ele>
        <time>2011-03-31T11:32:06Z</time>
      </trkpt>
      <trkpt lat="44.38578" lon="5.12498">
        <ele>859.08</ele>
        <time>2011-03-31T11:32:08Z</time>
      </trkpt>
      <trkpt lat="44.38581" lon="5.12491">
        <ele>858.59</ele>
        <time>2011-03-31T11:32:14Z</time>
      </trkpt>
      <trkpt lat="44.38584" lon="5.12485">
        <ele>859.08</ele>
        <time>2011-03-31T11:32:21Z</time>
      </trkpt>
      <trkpt lat="44.38589" lon="5.12481">
        <ele>858.11</ele>
        <time>2011-03-31T11:32:29Z</time>
      </trkpt>
      <trkpt lat="44.38593" lon="5.12477">
        <ele>858.11</ele>
        <time>2011-03-31T11:32:36Z</time>
      </trkpt>
      <trkpt lat="44.38597" lon="5.12472">
        <ele>857.15</ele>
        <time>2011-03-31T11:32:44Z</time>
      </trkpt>
      <trkpt lat="44.38598" lon="5.12469">
        <ele>856.67</ele>
        <time>2011-03-31T11:32:53Z</time>
      </trkpt>
      <trkpt lat="44.38599" lon="5.12467">
        <ele>855.71</ele>
        <time>2011-03-31T11:33:23Z</time>
      </trkpt>
      <trkpt lat="44.38601" lon="5.12464">
        <ele>854.75</ele>
        <time>2011-03-31T11:33:30Z</time>
      </trkpt>
      <trkpt lat="44.38605" lon="5.12462">
        <ele>853.79</ele>
        <time>2011-03-31T11:33:36Z</time>
      </trkpt>
      <trkpt lat="44.38607" lon="5.12458">
        <ele>852.83</ele>
        <time>2011-03-31T11:33:42Z</time>
      </trkpt>
      <trkpt lat="44.38609" lon="5.12452">
        <ele>852.35</ele>
        <time>2011-03-31T11:33:45Z</time>
      </trkpt>
      <trkpt lat="44.38613" lon="5.1244">
        <ele>851.38</ele>
        <time>2011-03-31T11:33:53Z</time>
      </trkpt>
      <trkpt lat="44.38614" lon="5.12436">
        <ele>852.35</ele>
        <time>2011-03-31T11:33:58Z</time>
      </trkpt>
      <trkpt lat="44.38616" lon="5.12433">
        <ele>853.31</ele>
        <time>2011-03-31T11:34:03Z</time>
      </trkpt>
      <trkpt lat="44.38624" lon="5.12428">
        <ele>854.75</ele>
        <time>2011-03-31T11:34:14Z</time>
      </trkpt>
      <trkpt lat="44.38629" lon="5.12421">
        <ele>855.71</ele>
        <time>2011-03-31T11:34:21Z</time>
      </trkpt>
      <trkpt lat="44.38629" lon="5.12413">
        <ele>857.15</ele>
        <time>2011-03-31T11:34:28Z</time>
      </trkpt>
      <trkpt lat="44.3863" lon="5.1241">
        <ele>857.63</ele>
        <time>2011-03-31T11:34:33Z</time>
      </trkpt>
      <trkpt lat="44.38632" lon="5.12408">
        <ele>858.59</ele>
        <time>2011-03-31T11:34:38Z</time>
      </trkpt>
      <trkpt lat="44.38632" lon="5.12403">
        <ele>859.56</ele>
        <time>2011-03-31T11:34:44Z</time>
      </trkpt>
      <trkpt lat="44.38637" lon="5.12399">
        <ele>861</ele>
        <time>2011-03-31T11:34:52Z</time>
      </trkpt>
      <trkpt lat="44.38639" lon="5.12397">
        <ele>861.96</ele>
        <time>2011-03-31T11:34:59Z</time>
      </trkpt>
      <trkpt lat="44.3864" lon="5.12392">
        <ele>862.92</ele>
        <time>2011-03-31T11:35:05Z</time>
      </trkpt>
      <trkpt lat="44.38643" lon="5.12389">
        <ele>862.92</ele>
        <time>2011-03-31T11:35:10Z</time>
      </trkpt>
      <trkpt lat="44.38645" lon="5.12383">
        <ele>864.36</ele>
        <time>2011-03-31T11:35:17Z</time>
      </trkpt>
      <trkpt lat="44.38647" lon="5.1238">
        <ele>865.32</ele>
        <time>2011-03-31T11:35:22Z</time>
      </trkpt>
      <trkpt lat="44.38649" lon="5.12375">
        <ele>865.32</ele>
        <time>2011-03-31T11:35:28Z</time>
      </trkpt>
      <trkpt lat="44.38651" lon="5.12372">
        <ele>865.8</ele>
        <time>2011-03-31T11:35:33Z</time>
      </trkpt>
      <trkpt lat="44.38653" lon="5.12369">
        <ele>865.32</ele>
        <time>2011-03-31T11:35:38Z</time>
      </trkpt>
      <trkpt lat="44.38654" lon="5.12366">
        <ele>865.32</ele>
        <time>2011-03-31T11:35:41Z</time>
      </trkpt>
      <trkpt lat="44.38655" lon="5.12359">
        <ele>865.8</ele>
        <time>2011-03-31T11:35:47Z</time>
      </trkpt>
      <trkpt lat="44.3866" lon="5.1235">
        <ele>866.29</ele>
        <time>2011-03-31T11:35:56Z</time>
      </trkpt>
      <trkpt lat="44.38664" lon="5.12345">
        <ele>866.77</ele>
        <time>2011-03-31T11:36:04Z</time>
      </trkpt>
      <trkpt lat="44.38669" lon="5.1234">
        <ele>865.8</ele>
        <time>2011-03-31T11:36:11Z</time>
      </trkpt>
      <trkpt lat="44.38674" lon="5.12333">
        <ele>865.32</ele>
        <time>2011-03-31T11:36:20Z</time>
      </trkpt>
      <trkpt lat="44.38676" lon="5.1233">
        <ele>864.84</ele>
        <time>2011-03-31T11:36:24Z</time>
      </trkpt>
      <trkpt lat="44.3868" lon="5.12322">
        <ele>863.88</ele>
        <time>2011-03-31T11:36:32Z</time>
      </trkpt>
      <trkpt lat="44.38686" lon="5.12321">
        <ele>863.4</ele>
        <time>2011-03-31T11:36:39Z</time>
      </trkpt>
      <trkpt lat="44.38688" lon="5.1232">
        <ele>862.44</ele>
        <time>2011-03-31T11:36:49Z</time>
      </trkpt>
      <trkpt lat="44.3869" lon="5.12318">
        <ele>861.48</ele>
        <time>2011-03-31T11:36:58Z</time>
      </trkpt>
      <trkpt lat="44.38693" lon="5.12313">
        <ele>861.48</ele>
        <time>2011-03-31T11:37:04Z</time>
      </trkpt>
      <trkpt lat="44.38695" lon="5.12308">
        <ele>860.04</ele>
        <time>2011-03-31T11:37:11Z</time>
      </trkpt>
      <trkpt lat="44.38695" lon="5.12302">
        <ele>858.59</ele>
        <time>2011-03-31T11:37:17Z</time>
      </trkpt>
      <trkpt lat="44.387" lon="5.12296">
        <ele>858.59</ele>
        <time>2011-03-31T11:37:25Z</time>
      </trkpt>
      <trkpt lat="44.387" lon="5.12293">
        <ele>858.11</ele>
        <time>2011-03-31T11:37:38Z</time>
      </trkpt>
      <trkpt lat="44.38697" lon="5.12293">
        <ele>857.15</ele>
        <time>2011-03-31T11:37:48Z</time>
      </trkpt>
      <trkpt lat="44.3869" lon="5.12293">
        <ele>857.15</ele>
        <time>2011-03-31T11:37:55Z</time>
      </trkpt>
      <trkpt lat="44.38688" lon="5.12291">
        <ele>857.15</ele>
        <time>2011-03-31T11:37:57Z</time>
      </trkpt>
      <trkpt lat="44.38683" lon="5.12288">
        <ele>855.71</ele>
        <time>2011-03-31T11:38:04Z</time>
      </trkpt>
      <trkpt lat="44.38683" lon="5.12285">
        <ele>855.71</ele>
        <time>2011-03-31T11:38:17Z</time>
      </trkpt>
      <trkpt lat="44.38684" lon="5.12281">
        <ele>855.71</ele>
        <time>2011-03-31T11:38:22Z</time>
      </trkpt>
      <trkpt lat="44.38687" lon="5.12272">
        <ele>856.19</ele>
        <time>2011-03-31T11:38:30Z</time>
      </trkpt>
      <trkpt lat="44.3869" lon="5.12265">
        <ele>856.67</ele>
        <time>2011-03-31T11:38:38Z</time>
      </trkpt>
      <trkpt lat="44.38691" lon="5.12263">
        <ele>857.15</ele>
        <time>2011-03-31T11:38:41Z</time>
      </trkpt>
      <trkpt lat="44.38694" lon="5.12256">
        <ele>857.15</ele>
        <time>2011-03-31T11:38:47Z</time>
      </trkpt>
      <trkpt lat="44.38696" lon="5.12252">
        <ele>857.63</ele>
        <time>2011-03-31T11:38:52Z</time>
      </trkpt>
      <trkpt lat="44.38702" lon="5.12247">
        <ele>859.08</ele>
        <time>2011-03-31T11:39:03Z</time>
      </trkpt>
      <trkpt lat="44.38707" lon="5.12244">
        <ele>860.52</ele>
        <time>2011-03-31T11:39:11Z</time>
      </trkpt>
      <trkpt lat="44.38713" lon="5.12241">
        <ele>861.48</ele>
        <time>2011-03-31T11:39:18Z</time>
      </trkpt>
      <trkpt lat="44.38715" lon="5.12237">
        <ele>862.44</ele>
        <time>2011-03-31T11:39:27Z</time>
      </trkpt>
      <trkpt lat="44.38733" lon="5.12228">
        <ele>862.92</ele>
        <time>2011-03-31T11:39:33Z</time>
      </trkpt>
      <trkpt lat="44.38737" lon="5.12224">
        <ele>863.88</ele>
        <time>2011-03-31T11:39:40Z</time>
      </trkpt>
      <trkpt lat="44.3874" lon="5.12224">
        <ele>863.88</ele>
        <time>2011-03-31T11:39:45Z</time>
      </trkpt>
      <trkpt lat="44.38745" lon="5.12224">
        <ele>865.32</ele>
        <time>2011-03-31T11:39:52Z</time>
      </trkpt>
      <trkpt lat="44.3875" lon="5.12223">
        <ele>865.8</ele>
        <time>2011-03-31T11:39:59Z</time>
      </trkpt>
      <trkpt lat="44.38752" lon="5.1222">
        <ele>865.8</ele>
        <time>2011-03-31T11:40:05Z</time>
      </trkpt>
      <trkpt lat="44.38752" lon="5.1222">
        <ele>865.32</ele>
        <time>2011-03-31T11:40:11Z</time>
      </trkpt>
      <trkpt lat="44.38763" lon="5.1221">
        <ele>863.88</ele>
        <time>2011-03-31T11:40:30Z</time>
      </trkpt>
      <trkpt lat="44.38763" lon="5.12207">
        <ele>863.4</ele>
        <time>2011-03-31T11:40:34Z</time>
      </trkpt>
      <trkpt lat="44.38764" lon="5.12202">
        <ele>863.4</ele>
        <time>2011-03-31T11:40:41Z</time>
      </trkpt>
      <trkpt lat="44.38765" lon="5.12203">
        <ele>862.92</ele>
        <time>2011-03-31T11:40:42Z</time>
      </trkpt>
      <trkpt lat="44.38769" lon="5.12199">
        <ele>861.96</ele>
        <time>2011-03-31T11:40:48Z</time>
      </trkpt>
      <trkpt lat="44.38774" lon="5.12191">
        <ele>861</ele>
        <time>2011-03-31T11:40:56Z</time>
      </trkpt>
      <trkpt lat="44.38778" lon="5.12188">
        <ele>860.52</ele>
        <time>2011-03-31T11:41:01Z</time>
      </trkpt>
      <trkpt lat="44.3878" lon="5.12188">
        <ele>859.56</ele>
        <time>2011-03-31T11:41:03Z</time>
      </trkpt>
      <trkpt lat="44.38783" lon="5.12188">
        <ele>859.08</ele>
        <time>2011-03-31T11:41:05Z</time>
      </trkpt>
      <trkpt lat="44.38791" lon="5.1218">
        <ele>858.59</ele>
        <time>2011-03-31T11:41:13Z</time>
      </trkpt>
      <trkpt lat="44.38796" lon="5.12175">
        <ele>858.59</ele>
        <time>2011-03-31T11:41:20Z</time>
      </trkpt>
      <trkpt lat="44.38797" lon="5.12166">
        <ele>858.59</ele>
        <time>2011-03-31T11:41:27Z</time>
      </trkpt>
      <trkpt lat="44.38807" lon="5.12161">
        <ele>857.63</ele>
        <time>2011-03-31T11:41:36Z</time>
      </trkpt>
      <trkpt lat="44.38809" lon="5.1216">
        <ele>858.11</ele>
        <time>2011-03-31T11:41:38Z</time>
      </trkpt>
      <trkpt lat="44.38813" lon="5.12157">
        <ele>857.63</ele>
        <time>2011-03-31T11:41:41Z</time>
      </trkpt>
      <trkpt lat="44.38822" lon="5.12147">
        <ele>858.11</ele>
        <time>2011-03-31T11:41:50Z</time>
      </trkpt>
      <trkpt lat="44.38825" lon="5.12146">
        <ele>858.11</ele>
        <time>2011-03-31T11:41:51Z</time>
      </trkpt>
      <trkpt lat="44.38824" lon="5.12136">
        <ele>859.08</ele>
        <time>2011-03-31T11:41:59Z</time>
      </trkpt>
      <trkpt lat="44.38832" lon="5.12131">
        <ele>860.52</ele>
        <time>2011-03-31T11:42:05Z</time>
      </trkpt>
      <trkpt lat="44.38832" lon="5.12126">
        <ele>860.52</ele>
        <time>2011-03-31T11:42:09Z</time>
      </trkpt>
      <trkpt lat="44.38832" lon="5.12122">
        <ele>860.52</ele>
        <time>2011-03-31T11:42:12Z</time>
      </trkpt>
      <trkpt lat="44.38838" lon="5.12116">
        <ele>861.48</ele>
        <time>2011-03-31T11:42:21Z</time>
      </trkpt>
      <trkpt lat="44.38839" lon="5.12104">
        <ele>861</ele>
        <time>2011-03-31T11:42:28Z</time>
      </trkpt>
      <trkpt lat="44.38839" lon="5.121">
        <ele>860.04</ele>
        <time>2011-03-31T11:42:33Z</time>
      </trkpt>
      <trkpt lat="44.38845" lon="5.12093">
        <ele>859.08</ele>
        <time>2011-03-31T11:42:40Z</time>
      </trkpt>
      <trkpt lat="44.38847" lon="5.12088">
        <ele>857.63</ele>
        <time>2011-03-31T11:42:45Z</time>
      </trkpt>
      <trkpt lat="44.38848" lon="5.12077">
        <ele>855.23</ele>
        <time>2011-03-31T11:42:55Z</time>
      </trkpt>
      <trkpt lat="44.38853" lon="5.12065">
        <ele>853.31</ele>
        <time>2011-03-31T11:43:02Z</time>
      </trkpt>
      <trkpt lat="44.38858" lon="5.12059">
        <ele>852.35</ele>
        <time>2011-03-31T11:43:09Z</time>
      </trkpt>
      <trkpt lat="44.38862" lon="5.1206">
        <ele>852.83</ele>
        <time>2011-03-31T11:43:13Z</time>
      </trkpt>
      <trkpt lat="44.3887" lon="5.12051">
        <ele>851.38</ele>
        <time>2011-03-31T11:43:21Z</time>
      </trkpt>
      <trkpt lat="44.38873" lon="5.12041">
        <ele>849.46</ele>
        <time>2011-03-31T11:43:27Z</time>
      </trkpt>
      <trkpt lat="44.38872" lon="5.12041">
        <ele>848.98</ele>
        <time>2011-03-31T11:43:28Z</time>
      </trkpt>
      <trkpt lat="44.3887" lon="5.1203">
        <ele>847.54</ele>
        <time>2011-03-31T11:43:34Z</time>
      </trkpt>
      <trkpt lat="44.38876" lon="5.12023">
        <ele>847.54</ele>
        <time>2011-03-31T11:43:39Z</time>
      </trkpt>
      <trkpt lat="44.38884" lon="5.12026">
        <ele>848.02</ele>
        <time>2011-03-31T11:43:48Z</time>
      </trkpt>
      <trkpt lat="44.38889" lon="5.12027">
        <ele>848.98</ele>
        <time>2011-03-31T11:43:53Z</time>
      </trkpt>
      <trkpt lat="44.38895" lon="5.12016">
        <ele>849.46</ele>
        <time>2011-03-31T11:44:01Z</time>
      </trkpt>
      <trkpt lat="44.38896" lon="5.12013">
        <ele>849.46</ele>
        <time>2011-03-31T11:44:03Z</time>
      </trkpt>
      <trkpt lat="44.38898" lon="5.12004">
        <ele>849.94</ele>
        <time>2011-03-31T11:44:09Z</time>
      </trkpt>
      <trkpt lat="44.38902" lon="5.12">
        <ele>850.42</ele>
        <time>2011-03-31T11:44:15Z</time>
      </trkpt>
      <trkpt lat="44.38907" lon="5.11996">
        <ele>851.87</ele>
        <time>2011-03-31T11:44:21Z</time>
      </trkpt>
      <trkpt lat="44.38911" lon="5.1199">
        <ele>853.31</ele>
        <time>2011-03-31T11:44:28Z</time>
      </trkpt>
      <trkpt lat="44.38913" lon="5.1198">
        <ele>855.71</ele>
        <time>2011-03-31T11:44:39Z</time>
      </trkpt>
      <trkpt lat="44.38912" lon="5.11975">
        <ele>856.19</ele>
        <time>2011-03-31T11:44:44Z</time>
      </trkpt>
      <trkpt lat="44.38919" lon="5.11974">
        <ele>857.63</ele>
        <time>2011-03-31T11:44:49Z</time>
      </trkpt>
      <trkpt lat="44.38923" lon="5.11967">
        <ele>859.08</ele>
        <time>2011-03-31T11:44:57Z</time>
      </trkpt>
      <trkpt lat="44.38923" lon="5.11964">
        <ele>860.52</ele>
        <time>2011-03-31T11:45:03Z</time>
      </trkpt>
      <trkpt lat="44.38928" lon="5.11956">
        <ele>862.92</ele>
        <time>2011-03-31T11:45:15Z</time>
      </trkpt>
      <trkpt lat="44.38939" lon="5.11949">
        <ele>865.32</ele>
        <time>2011-03-31T11:45:29Z</time>
      </trkpt>
      <trkpt lat="44.38947" lon="5.1194">
        <ele>868.21</ele>
        <time>2011-03-31T11:45:44Z</time>
      </trkpt>
      <trkpt lat="44.38947" lon="5.11937">
        <ele>869.17</ele>
        <time>2011-03-31T11:45:48Z</time>
      </trkpt>
      <trkpt lat="44.38955" lon="5.11931">
        <ele>869.65</ele>
        <time>2011-03-31T11:45:53Z</time>
      </trkpt>
      <trkpt lat="44.38955" lon="5.11927">
        <ele>870.61</ele>
        <time>2011-03-31T11:46:00Z</time>
      </trkpt>
      <trkpt lat="44.38959" lon="5.11926">
        <ele>871.09</ele>
        <time>2011-03-31T11:46:03Z</time>
      </trkpt>
      <trkpt lat="44.38962" lon="5.11921">
        <ele>872.05</ele>
        <time>2011-03-31T11:46:10Z</time>
      </trkpt>
      <trkpt lat="44.38964" lon="5.1192">
        <ele>872.53</ele>
        <time>2011-03-31T11:46:12Z</time>
      </trkpt>
      <trkpt lat="44.38971" lon="5.11913">
        <ele>872.53</ele>
        <time>2011-03-31T11:46:19Z</time>
      </trkpt>
      <trkpt lat="44.38977" lon="5.1191">
        <ele>873.01</ele>
        <time>2011-03-31T11:46:26Z</time>
      </trkpt>
      <trkpt lat="44.38976" lon="5.11904">
        <ele>872.53</ele>
        <time>2011-03-31T11:46:35Z</time>
      </trkpt>
      <trkpt lat="44.38974" lon="5.11899">
        <ele>872.05</ele>
        <time>2011-03-31T11:46:43Z</time>
      </trkpt>
      <trkpt lat="44.38976" lon="5.11897">
        <ele>871.57</ele>
        <time>2011-03-31T11:46:55Z</time>
      </trkpt>
      <trkpt lat="44.38976" lon="5.11892">
        <ele>871.09</ele>
        <time>2011-03-31T11:47:03Z</time>
      </trkpt>
      <trkpt lat="44.38976" lon="5.11892">
        <ele>871.09</ele>
        <time>2011-03-31T11:47:54Z</time>
      </trkpt>
      <trkpt lat="44.38976" lon="5.11892">
        <ele>871.09</ele>
        <time>2011-03-31T11:48:06Z</time>
      </trkpt>
      <trkpt lat="44.38976" lon="5.11892">
        <ele>871.57</ele>
        <time>2011-03-31T11:48:47Z</time>
      </trkpt>
      <trkpt lat="44.38979" lon="5.11886">
        <ele>870.13</ele>
        <time>2011-03-31T11:49:23Z</time>
      </trkpt>
      <trkpt lat="44.3898" lon="5.11881">
        <ele>869.17</ele>
        <time>2011-03-31T11:49:25Z</time>
      </trkpt>
      <trkpt lat="44.3898" lon="5.11876">
        <ele>868.69</ele>
        <time>2011-03-31T11:49:32Z</time>
      </trkpt>
      <trkpt lat="44.38979" lon="5.11865">
        <ele>867.25</ele>
        <time>2011-03-31T11:49:40Z</time>
      </trkpt>
      <trkpt lat="44.38981" lon="5.11861">
        <ele>866.77</ele>
        <time>2011-03-31T11:49:45Z</time>
      </trkpt>
      <trkpt lat="44.38989" lon="5.11851">
        <ele>864.36</ele>
        <time>2011-03-31T11:49:53Z</time>
      </trkpt>
      <trkpt lat="44.38989" lon="5.11849">
        <ele>864.36</ele>
        <time>2011-03-31T11:49:54Z</time>
      </trkpt>
      <trkpt lat="44.38987" lon="5.11841">
        <ele>862.92</ele>
        <time>2011-03-31T11:50:02Z</time>
      </trkpt>
      <trkpt lat="44.38983" lon="5.11834">
        <ele>861.48</ele>
        <time>2011-03-31T11:50:09Z</time>
      </trkpt>
      <trkpt lat="44.38992" lon="5.11826">
        <ele>860.52</ele>
        <time>2011-03-31T11:50:17Z</time>
      </trkpt>
      <trkpt lat="44.38991" lon="5.11816">
        <ele>858.59</ele>
        <time>2011-03-31T11:50:24Z</time>
      </trkpt>
      <trkpt lat="44.38996" lon="5.1181">
        <ele>858.11</ele>
        <time>2011-03-31T11:50:30Z</time>
      </trkpt>
      <trkpt lat="44.38998" lon="5.1181">
        <ele>857.15</ele>
        <time>2011-03-31T11:50:32Z</time>
      </trkpt>
      <trkpt lat="44.38997" lon="5.11801">
        <ele>856.19</ele>
        <time>2011-03-31T11:50:40Z</time>
      </trkpt>
      <trkpt lat="44.39001" lon="5.11795">
        <ele>854.27</ele>
        <time>2011-03-31T11:50:46Z</time>
      </trkpt>
      <trkpt lat="44.39" lon="5.11791">
        <ele>853.79</ele>
        <time>2011-03-31T11:50:49Z</time>
      </trkpt>
      <trkpt lat="44.39008" lon="5.11781">
        <ele>853.79</ele>
        <time>2011-03-31T11:50:56Z</time>
      </trkpt>
      <trkpt lat="44.39008" lon="5.11779">
        <ele>853.31</ele>
        <time>2011-03-31T11:50:58Z</time>
      </trkpt>
      <trkpt lat="44.39011" lon="5.11767">
        <ele>852.35</ele>
        <time>2011-03-31T11:51:07Z</time>
      </trkpt>
      <trkpt lat="44.39012" lon="5.11764">
        <ele>851.87</ele>
        <time>2011-03-31T11:51:10Z</time>
      </trkpt>
      <trkpt lat="44.39019" lon="5.11754">
        <ele>850.42</ele>
        <time>2011-03-31T11:51:19Z</time>
      </trkpt>
      <trkpt lat="44.39018" lon="5.11749">
        <ele>849.94</ele>
        <time>2011-03-31T11:51:25Z</time>
      </trkpt>
      <trkpt lat="44.39019" lon="5.11755">
        <ele>848.02</ele>
        <time>2011-03-31T11:51:34Z</time>
      </trkpt>
      <trkpt lat="44.3902" lon="5.11755">
        <ele>848.02</ele>
        <time>2011-03-31T11:51:35Z</time>
      </trkpt>
      <trkpt lat="44.39024" lon="5.11764">
        <ele>846.1</ele>
        <time>2011-03-31T11:51:42Z</time>
      </trkpt>
      <trkpt lat="44.39026" lon="5.11779">
        <ele>844.18</ele>
        <time>2011-03-31T11:51:52Z</time>
      </trkpt>
      <trkpt lat="44.39028" lon="5.11781">
        <ele>843.69</ele>
        <time>2011-03-31T11:51:54Z</time>
      </trkpt>
      <trkpt lat="44.39028" lon="5.11789">
        <ele>842.73</ele>
        <time>2011-03-31T11:51:59Z</time>
      </trkpt>
      <trkpt lat="44.39031" lon="5.11798">
        <ele>840.81</ele>
        <time>2011-03-31T11:52:08Z</time>
      </trkpt>
      <trkpt lat="44.39033" lon="5.11805">
        <ele>839.37</ele>
        <time>2011-03-31T11:52:14Z</time>
      </trkpt>
      <trkpt lat="44.39034" lon="5.11807">
        <ele>838.89</ele>
        <time>2011-03-31T11:52:17Z</time>
      </trkpt>
      <trkpt lat="44.39034" lon="5.11808">
        <ele>837.93</ele>
        <time>2011-03-31T11:52:19Z</time>
      </trkpt>
      <trkpt lat="44.39033" lon="5.11819">
        <ele>836.96</ele>
        <time>2011-03-31T11:52:26Z</time>
      </trkpt>
      <trkpt lat="44.39036" lon="5.11829">
        <ele>836.48</ele>
        <time>2011-03-31T11:52:34Z</time>
      </trkpt>
      <trkpt lat="44.39037" lon="5.11837">
        <ele>835.52</ele>
        <time>2011-03-31T11:52:41Z</time>
      </trkpt>
      <trkpt lat="44.39039" lon="5.11845">
        <ele>832.64</ele>
        <time>2011-03-31T11:52:52Z</time>
      </trkpt>
      <trkpt lat="44.39042" lon="5.11851">
        <ele>831.68</ele>
        <time>2011-03-31T11:52:59Z</time>
      </trkpt>
      <trkpt lat="44.39041" lon="5.11858">
        <ele>830.72</ele>
        <time>2011-03-31T11:53:03Z</time>
      </trkpt>
      <trkpt lat="44.39043" lon="5.11862">
        <ele>829.27</ele>
        <time>2011-03-31T11:53:10Z</time>
      </trkpt>
      <trkpt lat="44.39044" lon="5.11869">
        <ele>827.83</ele>
        <time>2011-03-31T11:53:17Z</time>
      </trkpt>
      <trkpt lat="44.39047" lon="5.11883">
        <ele>825.91</ele>
        <time>2011-03-31T11:53:26Z</time>
      </trkpt>
      <trkpt lat="44.3905" lon="5.11886">
        <ele>823.99</ele>
        <time>2011-03-31T11:53:34Z</time>
      </trkpt>
      <trkpt lat="44.3905" lon="5.11888">
        <ele>823.99</ele>
        <time>2011-03-31T11:53:35Z</time>
      </trkpt>
      <trkpt lat="44.39051" lon="5.11902">
        <ele>822.55</ele>
        <time>2011-03-31T11:53:44Z</time>
      </trkpt>
      <trkpt lat="44.39053" lon="5.1191">
        <ele>821.1</ele>
        <time>2011-03-31T11:53:51Z</time>
      </trkpt>
      <trkpt lat="44.39055" lon="5.11916">
        <ele>819.18</ele>
        <time>2011-03-31T11:54:00Z</time>
      </trkpt>
      <trkpt lat="44.39058" lon="5.11916">
        <ele>818.7</ele>
        <time>2011-03-31T11:54:05Z</time>
      </trkpt>
      <trkpt lat="44.39055" lon="5.11922">
        <ele>816.78</ele>
        <time>2011-03-31T11:54:15Z</time>
      </trkpt>
      <trkpt lat="44.39058" lon="5.11928">
        <ele>815.34</ele>
        <time>2011-03-31T11:54:21Z</time>
      </trkpt>
      <trkpt lat="44.3906" lon="5.11931">
        <ele>814.85</ele>
        <time>2011-03-31T11:54:27Z</time>
      </trkpt>
      <trkpt lat="44.39064" lon="5.11938">
        <ele>811.97</ele>
        <time>2011-03-31T11:54:41Z</time>
      </trkpt>
      <trkpt lat="44.39062" lon="5.11945">
        <ele>809.09</ele>
        <time>2011-03-31T11:54:52Z</time>
      </trkpt>
      <trkpt lat="44.39063" lon="5.11953">
        <ele>806.68</ele>
        <time>2011-03-31T11:55:08Z</time>
      </trkpt>
      <trkpt lat="44.39065" lon="5.1196">
        <ele>805.24</ele>
        <time>2011-03-31T11:55:16Z</time>
      </trkpt>
      <trkpt lat="44.39065" lon="5.11963">
        <ele>804.28</ele>
        <time>2011-03-31T11:55:23Z</time>
      </trkpt>
      <trkpt lat="44.39064" lon="5.11966">
        <ele>802.84</ele>
        <time>2011-03-31T11:55:33Z</time>
      </trkpt>
      <trkpt lat="44.39066" lon="5.11972">
        <ele>800.92</ele>
        <time>2011-03-31T11:55:42Z</time>
      </trkpt>
      <trkpt lat="44.39067" lon="5.1197">
        <ele>800.44</ele>
        <time>2011-03-31T11:55:50Z</time>
      </trkpt>
      <trkpt lat="44.39068" lon="5.11978">
        <ele>797.07</ele>
        <time>2011-03-31T11:56:11Z</time>
      </trkpt>
      <trkpt lat="44.39069" lon="5.11979">
        <ele>796.11</ele>
        <time>2011-03-31T11:56:18Z</time>
      </trkpt>
      <trkpt lat="44.39069" lon="5.11989">
        <ele>794.19</ele>
        <time>2011-03-31T11:56:25Z</time>
      </trkpt>
      <trkpt lat="44.3907" lon="5.1199">
        <ele>794.19</ele>
        <time>2011-03-31T11:56:26Z</time>
      </trkpt>
      <trkpt lat="44.39071" lon="5.11992">
        <ele>793.22</ele>
        <time>2011-03-31T11:56:32Z</time>
      </trkpt>
      <trkpt lat="44.39073" lon="5.11998">
        <ele>790.34</ele>
        <time>2011-03-31T11:56:41Z</time>
      </trkpt>
      <trkpt lat="44.39072" lon="5.12006">
        <ele>788.42</ele>
        <time>2011-03-31T11:56:49Z</time>
      </trkpt>
      <trkpt lat="44.39071" lon="5.12007">
        <ele>788.42</ele>
        <time>2011-03-31T11:56:51Z</time>
      </trkpt>
      <trkpt lat="44.3907" lon="5.12021">
        <ele>786.5</ele>
        <time>2011-03-31T11:56:59Z</time>
      </trkpt>
      <trkpt lat="44.39067" lon="5.12026">
        <ele>785.53</ele>
        <time>2011-03-31T11:57:05Z</time>
      </trkpt>
      <trkpt lat="44.39063" lon="5.12034">
        <ele>784.57</ele>
        <time>2011-03-31T11:57:12Z</time>
      </trkpt>
      <trkpt lat="44.39058" lon="5.12041">
        <ele>784.09</ele>
        <time>2011-03-31T11:57:18Z</time>
      </trkpt>
      <trkpt lat="44.39056" lon="5.12053">
        <ele>783.61</ele>
        <time>2011-03-31T11:57:25Z</time>
      </trkpt>
      <trkpt lat="44.39056" lon="5.12058">
        <ele>781.69</ele>
        <time>2011-03-31T11:57:31Z</time>
      </trkpt>
      <trkpt lat="44.39053" lon="5.12065">
        <ele>779.29</ele>
        <time>2011-03-31T11:57:40Z</time>
      </trkpt>
      <trkpt lat="44.39052" lon="5.12072">
        <ele>777.84</ele>
        <time>2011-03-31T11:57:49Z</time>
      </trkpt>
      <trkpt lat="44.39056" lon="5.12073">
        <ele>774.96</ele>
        <time>2011-03-31T11:57:58Z</time>
      </trkpt>
      <trkpt lat="44.39065" lon="5.12077">
        <ele>772.56</ele>
        <time>2011-03-31T11:58:07Z</time>
      </trkpt>
      <trkpt lat="44.39068" lon="5.12075">
        <ele>770.63</ele>
        <time>2011-03-31T11:58:14Z</time>
      </trkpt>
      <trkpt lat="44.39071" lon="5.12072">
        <ele>768.71</ele>
        <time>2011-03-31T11:58:22Z</time>
      </trkpt>
      <trkpt lat="44.39075" lon="5.12067">
        <ele>766.79</ele>
        <time>2011-03-31T11:58:30Z</time>
      </trkpt>
      <trkpt lat="44.39078" lon="5.12065">
        <ele>764.87</ele>
        <time>2011-03-31T11:58:37Z</time>
      </trkpt>
      <trkpt lat="44.3909" lon="5.1206">
        <ele>761.5</ele>
        <time>2011-03-31T11:58:48Z</time>
      </trkpt>
      <trkpt lat="44.39094" lon="5.12057">
        <ele>759.58</ele>
        <time>2011-03-31T11:58:56Z</time>
      </trkpt>
      <trkpt lat="44.39098" lon="5.12056">
        <ele>756.69</ele>
        <time>2011-03-31T11:59:04Z</time>
      </trkpt>
      <trkpt lat="44.391" lon="5.12056">
        <ele>755.73</ele>
        <time>2011-03-31T11:59:06Z</time>
      </trkpt>
      <trkpt lat="44.39106" lon="5.12058">
        <ele>753.81</ele>
        <time>2011-03-31T11:59:14Z</time>
      </trkpt>
      <trkpt lat="44.39107" lon="5.12063">
        <ele>751.41</ele>
        <time>2011-03-31T11:59:21Z</time>
      </trkpt>
      <trkpt lat="44.3911" lon="5.12063">
        <ele>749.97</ele>
        <time>2011-03-31T11:59:27Z</time>
      </trkpt>
      <trkpt lat="44.39119" lon="5.12067">
        <ele>748.04</ele>
        <time>2011-03-31T11:59:34Z</time>
      </trkpt>
      <trkpt lat="44.39118" lon="5.12066">
        <ele>746.6</ele>
        <time>2011-03-31T11:59:39Z</time>
      </trkpt>
      <trkpt lat="44.39121" lon="5.12068">
        <ele>744.68</ele>
        <time>2011-03-31T11:59:45Z</time>
      </trkpt>
      <trkpt lat="44.39125" lon="5.12066">
        <ele>743.72</ele>
        <time>2011-03-31T11:59:49Z</time>
      </trkpt>
      <trkpt lat="44.39133" lon="5.12068">
        <ele>741.79</ele>
        <time>2011-03-31T11:59:57Z</time>
      </trkpt>
      <trkpt lat="44.39139" lon="5.12074">
        <ele>739.39</ele>
        <time>2011-03-31T12:00:06Z</time>
      </trkpt>
      <trkpt lat="44.39142" lon="5.12072">
        <ele>737.47</ele>
        <time>2011-03-31T12:00:10Z</time>
      </trkpt>
      <trkpt lat="44.39147" lon="5.12072">
        <ele>735.55</ele>
        <time>2011-03-31T12:00:17Z</time>
      </trkpt>
      <trkpt lat="44.39149" lon="5.12077">
        <ele>733.62</ele>
        <time>2011-03-31T12:00:23Z</time>
      </trkpt>
      <trkpt lat="44.39153" lon="5.12078">
        <ele>733.14</ele>
        <time>2011-03-31T12:00:25Z</time>
      </trkpt>
      <trkpt lat="44.39157" lon="5.12086">
        <ele>730.26</ele>
        <time>2011-03-31T12:00:32Z</time>
      </trkpt>
      <trkpt lat="44.3916" lon="5.1209">
        <ele>728.82</ele>
        <time>2011-03-31T12:00:35Z</time>
      </trkpt>
      <trkpt lat="44.3916" lon="5.1209">
        <ele>728.82</ele>
        <time>2011-03-31T12:00:36Z</time>
      </trkpt>
      <trkpt lat="44.39164" lon="5.12093">
        <ele>727.37</ele>
        <time>2011-03-31T12:00:41Z</time>
      </trkpt>
      <trkpt lat="44.39168" lon="5.12093">
        <ele>725.45</ele>
        <time>2011-03-31T12:00:46Z</time>
      </trkpt>
      <trkpt lat="44.39171" lon="5.12095">
        <ele>724.49</ele>
        <time>2011-03-31T12:00:51Z</time>
      </trkpt>
      <trkpt lat="44.39175" lon="5.12104">
        <ele>722.57</ele>
        <time>2011-03-31T12:00:56Z</time>
      </trkpt>
      <trkpt lat="44.39179" lon="5.12105">
        <ele>721.61</ele>
        <time>2011-03-31T12:01:02Z</time>
      </trkpt>
      <trkpt lat="44.39184" lon="5.12109">
        <ele>720.65</ele>
        <time>2011-03-31T12:01:06Z</time>
      </trkpt>
      <trkpt lat="44.39186" lon="5.12109">
        <ele>720.16</ele>
        <time>2011-03-31T12:01:08Z</time>
      </trkpt>
      <trkpt lat="44.39189" lon="5.12111">
        <ele>718.72</ele>
        <time>2011-03-31T12:01:13Z</time>
      </trkpt>
      <trkpt lat="44.39192" lon="5.12116">
        <ele>717.28</ele>
        <time>2011-03-31T12:01:17Z</time>
      </trkpt>
      <trkpt lat="44.39193" lon="5.12121">
        <ele>716.32</ele>
        <time>2011-03-31T12:01:23Z</time>
      </trkpt>
      <trkpt lat="44.39198" lon="5.12122">
        <ele>715.36</ele>
        <time>2011-03-31T12:01:26Z</time>
      </trkpt>
      <trkpt lat="44.39199" lon="5.12125">
        <ele>714.88</ele>
        <time>2011-03-31T12:01:28Z</time>
      </trkpt>
      <trkpt lat="44.39207" lon="5.12132">
        <ele>713.44</ele>
        <time>2011-03-31T12:01:37Z</time>
      </trkpt>
      <trkpt lat="44.39216" lon="5.12141">
        <ele>711.99</ele>
        <time>2011-03-31T12:01:46Z</time>
      </trkpt>
      <trkpt lat="44.3922" lon="5.12143">
        <ele>711.99</ele>
        <time>2011-03-31T12:01:54Z</time>
      </trkpt>
      <trkpt lat="44.3922" lon="5.12143">
        <ele>712.47</ele>
        <time>2011-03-31T12:03:57Z</time>
      </trkpt>
      <trkpt lat="44.3922" lon="5.12144">
        <ele>712.47</ele>
        <time>2011-03-31T12:04:20Z</time>
      </trkpt>
      <trkpt lat="44.39221" lon="5.12143">
        <ele>712.47</ele>
        <time>2011-03-31T12:06:36Z</time>
      </trkpt>
      <trkpt lat="44.39222" lon="5.12144">
        <ele>712.95</ele>
        <time>2011-03-31T12:09:12Z</time>
      </trkpt>
      <trkpt lat="44.39223" lon="5.12143">
        <ele>713.44</ele>
        <time>2011-03-31T12:12:50Z</time>
      </trkpt>
      <trkpt lat="44.39223" lon="5.12142">
        <ele>713.44</ele>
        <time>2011-03-31T12:19:25Z</time>
      </trkpt>
      <trkpt lat="44.39224" lon="5.12144">
        <ele>713.92</ele>
        <time>2011-03-31T12:20:32Z</time>
      </trkpt>
      <trkpt lat="44.39226" lon="5.12147">
        <ele>713.92</ele>
        <time>2011-03-31T12:21:35Z</time>
      </trkpt>
      <trkpt lat="44.39236" lon="5.12146">
        <ele>714.88</ele>
        <time>2011-03-31T12:21:43Z</time>
      </trkpt>
      <trkpt lat="44.39239" lon="5.12144">
        <ele>713.92</ele>
        <time>2011-03-31T12:21:47Z</time>
      </trkpt>
      <trkpt lat="44.39248" lon="5.12142">
        <ele>714.4</ele>
        <time>2011-03-31T12:21:57Z</time>
      </trkpt>
      <trkpt lat="44.39257" lon="5.12142">
        <ele>714.88</ele>
        <time>2011-03-31T12:22:06Z</time>
      </trkpt>
      <trkpt lat="44.39261" lon="5.12145">
        <ele>715.36</ele>
        <time>2011-03-31T12:22:13Z</time>
      </trkpt>
      <trkpt lat="44.39267" lon="5.12141">
        <ele>715.36</ele>
        <time>2011-03-31T12:22:20Z</time>
      </trkpt>
      <trkpt lat="44.39276" lon="5.1214">
        <ele>714.88</ele>
        <time>2011-03-31T12:22:28Z</time>
      </trkpt>
      <trkpt lat="44.39278" lon="5.12144">
        <ele>713.92</ele>
        <time>2011-03-31T12:22:34Z</time>
      </trkpt>
      <trkpt lat="44.39284" lon="5.12152">
        <ele>711.99</ele>
        <time>2011-03-31T12:22:42Z</time>
      </trkpt>
      <trkpt lat="44.39294" lon="5.1215">
        <ele>711.03</ele>
        <time>2011-03-31T12:22:50Z</time>
      </trkpt>
      <trkpt lat="44.39296" lon="5.1215">
        <ele>711.03</ele>
        <time>2011-03-31T12:22:52Z</time>
      </trkpt>
      <trkpt lat="44.393" lon="5.12148">
        <ele>710.55</ele>
        <time>2011-03-31T12:22:55Z</time>
      </trkpt>
      <trkpt lat="44.39304" lon="5.12151">
        <ele>710.55</ele>
        <time>2011-03-31T12:22:59Z</time>
      </trkpt>
      <trkpt lat="44.39308" lon="5.12157">
        <ele>709.59</ele>
        <time>2011-03-31T12:23:06Z</time>
      </trkpt>
      <trkpt lat="44.3931" lon="5.12162">
        <ele>709.11</ele>
        <time>2011-03-31T12:23:08Z</time>
      </trkpt>
      <trkpt lat="44.39313" lon="5.12168">
        <ele>707.67</ele>
        <time>2011-03-31T12:23:16Z</time>
      </trkpt>
      <trkpt lat="44.39318" lon="5.12167">
        <ele>704.78</ele>
        <time>2011-03-31T12:23:25Z</time>
      </trkpt>
      <trkpt lat="44.3932" lon="5.12175">
        <ele>703.34</ele>
        <time>2011-03-31T12:23:32Z</time>
      </trkpt>
      <trkpt lat="44.39325" lon="5.1218">
        <ele>701.42</ele>
        <time>2011-03-31T12:23:38Z</time>
      </trkpt>
      <trkpt lat="44.39326" lon="5.12182">
        <ele>700.46</ele>
        <time>2011-03-31T12:23:41Z</time>
      </trkpt>
      <trkpt lat="44.39334" lon="5.12183">
        <ele>697.57</ele>
        <time>2011-03-31T12:23:50Z</time>
      </trkpt>
      <trkpt lat="44.39336" lon="5.12184">
        <ele>697.09</ele>
        <time>2011-03-31T12:23:52Z</time>
      </trkpt>
      <trkpt lat="44.39343" lon="5.12185">
        <ele>695.17</ele>
        <time>2011-03-31T12:24:00Z</time>
      </trkpt>
      <trkpt lat="44.39351" lon="5.12189">
        <ele>693.25</ele>
        <time>2011-03-31T12:24:06Z</time>
      </trkpt>
      <trkpt lat="44.39358" lon="5.12198">
        <ele>693.25</ele>
        <time>2011-03-31T12:24:15Z</time>
      </trkpt>
      <trkpt lat="44.39366" lon="5.12202">
        <ele>692.77</ele>
        <time>2011-03-31T12:24:21Z</time>
      </trkpt>
      <trkpt lat="44.3937" lon="5.12203">
        <ele>692.77</ele>
        <time>2011-03-31T12:24:27Z</time>
      </trkpt>
      <trkpt lat="44.39382" lon="5.12205">
        <ele>693.25</ele>
        <time>2011-03-31T12:24:36Z</time>
      </trkpt>
      <trkpt lat="44.39392" lon="5.12207">
        <ele>692.29</ele>
        <time>2011-03-31T12:24:44Z</time>
      </trkpt>
      <trkpt lat="44.39399" lon="5.12202">
        <ele>691.81</ele>
        <time>2011-03-31T12:24:53Z</time>
      </trkpt>
      <trkpt lat="44.39409" lon="5.12205">
        <ele>690.84</ele>
        <time>2011-03-31T12:25:01Z</time>
      </trkpt>
      <trkpt lat="44.39419" lon="5.12202">
        <ele>690.84</ele>
        <time>2011-03-31T12:25:07Z</time>
      </trkpt>
      <trkpt lat="44.39425" lon="5.12197">
        <ele>689.88</ele>
        <time>2011-03-31T12:25:15Z</time>
      </trkpt>
      <trkpt lat="44.39433" lon="5.12195">
        <ele>688.92</ele>
        <time>2011-03-31T12:25:22Z</time>
      </trkpt>
      <trkpt lat="44.39442" lon="5.12196">
        <ele>688.44</ele>
        <time>2011-03-31T12:25:30Z</time>
      </trkpt>
      <trkpt lat="44.39443" lon="5.12198">
        <ele>688.44</ele>
        <time>2011-03-31T12:25:32Z</time>
      </trkpt>
      <trkpt lat="44.39449" lon="5.12211">
        <ele>688.44</ele>
        <time>2011-03-31T12:25:40Z</time>
      </trkpt>
      <trkpt lat="44.3945" lon="5.12211">
        <ele>689.4</ele>
        <time>2011-03-31T12:25:41Z</time>
      </trkpt>
      <trkpt lat="44.39452" lon="5.12215">
        <ele>689.4</ele>
        <time>2011-03-31T12:25:45Z</time>
      </trkpt>
      <trkpt lat="44.39457" lon="5.12216">
        <ele>689.4</ele>
        <time>2011-03-31T12:25:47Z</time>
      </trkpt>
      <trkpt lat="44.39461" lon="5.12213">
        <ele>690.36</ele>
        <time>2011-03-31T12:25:52Z</time>
      </trkpt>
      <trkpt lat="44.3947" lon="5.12213">
        <ele>691.81</ele>
        <time>2011-03-31T12:26:00Z</time>
      </trkpt>
      <trkpt lat="44.39479" lon="5.12214">
        <ele>691.33</ele>
        <time>2011-03-31T12:26:08Z</time>
      </trkpt>
      <trkpt lat="44.39483" lon="5.12215">
        <ele>690.84</ele>
        <time>2011-03-31T12:26:14Z</time>
      </trkpt>
      <trkpt lat="44.39495" lon="5.12212">
        <ele>689.88</ele>
        <time>2011-03-31T12:26:24Z</time>
      </trkpt>
      <trkpt lat="44.39502" lon="5.12213">
        <ele>688.92</ele>
        <time>2011-03-31T12:26:33Z</time>
      </trkpt>
      <trkpt lat="44.39506" lon="5.12216">
        <ele>688.92</ele>
        <time>2011-03-31T12:26:35Z</time>
      </trkpt>
      <trkpt lat="44.39513" lon="5.12223">
        <ele>687.48</ele>
        <time>2011-03-31T12:26:44Z</time>
      </trkpt>
      <trkpt lat="44.39526" lon="5.12225">
        <ele>686.04</ele>
        <time>2011-03-31T12:26:54Z</time>
      </trkpt>
      <trkpt lat="44.39538" lon="5.12232">
        <ele>685.56</ele>
        <time>2011-03-31T12:27:03Z</time>
      </trkpt>
      <trkpt lat="44.3954" lon="5.12236">
        <ele>686.04</ele>
        <time>2011-03-31T12:27:08Z</time>
      </trkpt>
      <trkpt lat="44.39544" lon="5.12246">
        <ele>686.52</ele>
        <time>2011-03-31T12:27:13Z</time>
      </trkpt>
      <trkpt lat="44.3955" lon="5.12252">
        <ele>687</ele>
        <time>2011-03-31T12:27:21Z</time>
      </trkpt>
      <trkpt lat="44.39556" lon="5.12253">
        <ele>687.48</ele>
        <time>2011-03-31T12:27:25Z</time>
      </trkpt>
      <trkpt lat="44.39564" lon="5.12246">
        <ele>688.44</ele>
        <time>2011-03-31T12:27:31Z</time>
      </trkpt>
      <trkpt lat="44.39567" lon="5.12239">
        <ele>688.44</ele>
        <time>2011-03-31T12:27:38Z</time>
      </trkpt>
      <trkpt lat="44.39573" lon="5.12238">
        <ele>689.4</ele>
        <time>2011-03-31T12:27:43Z</time>
      </trkpt>
      <trkpt lat="44.39579" lon="5.12237">
        <ele>689.88</ele>
        <time>2011-03-31T12:27:50Z</time>
      </trkpt>
      <trkpt lat="44.39585" lon="5.12235">
        <ele>690.36</ele>
        <time>2011-03-31T12:27:57Z</time>
      </trkpt>
      <trkpt lat="44.39596" lon="5.12231">
        <ele>690.36</ele>
        <time>2011-03-31T12:28:03Z</time>
      </trkpt>
      <trkpt lat="44.39602" lon="5.12222">
        <ele>690.36</ele>
        <time>2011-03-31T12:28:13Z</time>
      </trkpt>
      <trkpt lat="44.39609" lon="5.12221">
        <ele>689.88</ele>
        <time>2011-03-31T12:28:16Z</time>
      </trkpt>
      <trkpt lat="44.39618" lon="5.12218">
        <ele>689.88</ele>
        <time>2011-03-31T12:28:25Z</time>
      </trkpt>
      <trkpt lat="44.39621" lon="5.12213">
        <ele>688.92</ele>
        <time>2011-03-31T12:28:30Z</time>
      </trkpt>
      <trkpt lat="44.39625" lon="5.1221">
        <ele>688.92</ele>
        <time>2011-03-31T12:28:34Z</time>
      </trkpt>
      <trkpt lat="44.39635" lon="5.12202">
        <ele>688.44</ele>
        <time>2011-03-31T12:28:41Z</time>
      </trkpt>
      <trkpt lat="44.39642" lon="5.12199">
        <ele>688.44</ele>
        <time>2011-03-31T12:28:47Z</time>
      </trkpt>
      <trkpt lat="44.39644" lon="5.12198">
        <ele>687.96</ele>
        <time>2011-03-31T12:28:49Z</time>
      </trkpt>
      <trkpt lat="44.39651" lon="5.12189">
        <ele>688.92</ele>
        <time>2011-03-31T12:28:57Z</time>
      </trkpt>
      <trkpt lat="44.39654" lon="5.12183">
        <ele>689.4</ele>
        <time>2011-03-31T12:29:06Z</time>
      </trkpt>
      <trkpt lat="44.39663" lon="5.12181">
        <ele>691.33</ele>
        <time>2011-03-31T12:29:12Z</time>
      </trkpt>
      <trkpt lat="44.39668" lon="5.12179">
        <ele>691.81</ele>
        <time>2011-03-31T12:29:18Z</time>
      </trkpt>
      <trkpt lat="44.39675" lon="5.12176">
        <ele>692.77</ele>
        <time>2011-03-31T12:29:25Z</time>
      </trkpt>
      <trkpt lat="44.39679" lon="5.12171">
        <ele>693.73</ele>
        <time>2011-03-31T12:29:32Z</time>
      </trkpt>
      <trkpt lat="44.39683" lon="5.12165">
        <ele>694.69</ele>
        <time>2011-03-31T12:29:38Z</time>
      </trkpt>
      <trkpt lat="44.3969" lon="5.12158">
        <ele>695.17</ele>
        <time>2011-03-31T12:29:46Z</time>
      </trkpt>
      <trkpt lat="44.39695" lon="5.12154">
        <ele>695.65</ele>
        <time>2011-03-31T12:29:53Z</time>
      </trkpt>
      <trkpt lat="44.39703" lon="5.12147">
        <ele>696.61</ele>
        <time>2011-03-31T12:30:00Z</time>
      </trkpt>
      <trkpt lat="44.39708" lon="5.12142">
        <ele>697.57</ele>
        <time>2011-03-31T12:30:07Z</time>
      </trkpt>
      <trkpt lat="44.39709" lon="5.12141">
        <ele>697.57</ele>
        <time>2011-03-31T12:30:08Z</time>
      </trkpt>
      <trkpt lat="44.39714" lon="5.12133">
        <ele>698.05</ele>
        <time>2011-03-31T12:30:16Z</time>
      </trkpt>
      <trkpt lat="44.3972" lon="5.12129">
        <ele>698.53</ele>
        <time>2011-03-31T12:30:24Z</time>
      </trkpt>
      <trkpt lat="44.39728" lon="5.12122">
        <ele>699.5</ele>
        <time>2011-03-31T12:30:31Z</time>
      </trkpt>
      <trkpt lat="44.39731" lon="5.12117">
        <ele>700.46</ele>
        <time>2011-03-31T12:30:37Z</time>
      </trkpt>
      <trkpt lat="44.39737" lon="5.12112">
        <ele>700.94</ele>
        <time>2011-03-31T12:30:45Z</time>
      </trkpt>
      <trkpt lat="44.39743" lon="5.12109">
        <ele>702.86</ele>
        <time>2011-03-31T12:30:51Z</time>
      </trkpt>
      <trkpt lat="44.3975" lon="5.12102">
        <ele>703.34</ele>
        <time>2011-03-31T12:30:59Z</time>
      </trkpt>
      <trkpt lat="44.39758" lon="5.12102">
        <ele>705.26</ele>
        <time>2011-03-31T12:31:06Z</time>
      </trkpt>
      <trkpt lat="44.3976" lon="5.12094">
        <ele>706.23</ele>
        <time>2011-03-31T12:31:12Z</time>
      </trkpt>
      <trkpt lat="44.39766" lon="5.12093">
        <ele>707.67</ele>
        <time>2011-03-31T12:31:19Z</time>
      </trkpt>
      <trkpt lat="44.39773" lon="5.12091">
        <ele>709.11</ele>
        <time>2011-03-31T12:31:27Z</time>
      </trkpt>
      <trkpt lat="44.39775" lon="5.12089">
        <ele>710.55</ele>
        <time>2011-03-31T12:31:33Z</time>
      </trkpt>
      <trkpt lat="44.39782" lon="5.12088">
        <ele>711.51</ele>
        <time>2011-03-31T12:31:38Z</time>
      </trkpt>
      <trkpt lat="44.39782" lon="5.12084">
        <ele>711.99</ele>
        <time>2011-03-31T12:31:44Z</time>
      </trkpt>
      <trkpt lat="44.39789" lon="5.12083">
        <ele>712.95</ele>
        <time>2011-03-31T12:31:50Z</time>
      </trkpt>
      <trkpt lat="44.39788" lon="5.12084">
        <ele>713.44</ele>
        <time>2011-03-31T12:31:52Z</time>
      </trkpt>
      <trkpt lat="44.39799" lon="5.12086">
        <ele>712.47</ele>
        <time>2011-03-31T12:32:00Z</time>
      </trkpt>
      <trkpt lat="44.39798" lon="5.12083">
        <ele>712.47</ele>
        <time>2011-03-31T12:33:42Z</time>
      </trkpt>
      <trkpt lat="44.39801" lon="5.12087">
        <ele>712.47</ele>
        <time>2011-03-31T12:34:00Z</time>
      </trkpt>
      <trkpt lat="44.39801" lon="5.12087">
        <ele>711.99</ele>
        <time>2011-03-31T12:34:04Z</time>
      </trkpt>
      <trkpt lat="44.39813" lon="5.1208">
        <ele>711.03</ele>
        <time>2011-03-31T12:34:14Z</time>
      </trkpt>
      <trkpt lat="44.39818" lon="5.12078">
        <ele>710.07</ele>
        <time>2011-03-31T12:34:20Z</time>
      </trkpt>
      <trkpt lat="44.39825" lon="5.12077">
        <ele>708.15</ele>
        <time>2011-03-31T12:34:27Z</time>
      </trkpt>
      <trkpt lat="44.39832" lon="5.12075">
        <ele>706.71</ele>
        <time>2011-03-31T12:34:35Z</time>
      </trkpt>
      <trkpt lat="44.3983" lon="5.12077">
        <ele>706.71</ele>
        <time>2011-03-31T12:34:36Z</time>
      </trkpt>
      <trkpt lat="44.39838" lon="5.12076">
        <ele>704.78</ele>
        <time>2011-03-31T12:34:44Z</time>
      </trkpt>
      <trkpt lat="44.39839" lon="5.12079">
        <ele>703.82</ele>
        <time>2011-03-31T12:34:47Z</time>
      </trkpt>
      <trkpt lat="44.39844" lon="5.12072">
        <ele>702.38</ele>
        <time>2011-03-31T12:34:55Z</time>
      </trkpt>
      <trkpt lat="44.39854" lon="5.12068">
        <ele>701.42</ele>
        <time>2011-03-31T12:35:03Z</time>
      </trkpt>
      <trkpt lat="44.39853" lon="5.12069">
        <ele>700.46</ele>
        <time>2011-03-31T12:35:08Z</time>
      </trkpt>
      <trkpt lat="44.39862" lon="5.12063">
        <ele>698.53</ele>
        <time>2011-03-31T12:35:16Z</time>
      </trkpt>
      <trkpt lat="44.3987" lon="5.12064">
        <ele>697.57</ele>
        <time>2011-03-31T12:35:23Z</time>
      </trkpt>
      <trkpt lat="44.39877" lon="5.12054">
        <ele>696.13</ele>
        <time>2011-03-31T12:35:31Z</time>
      </trkpt>
      <trkpt lat="44.39885" lon="5.12049">
        <ele>694.21</ele>
        <time>2011-03-31T12:35:40Z</time>
      </trkpt>
      <trkpt lat="44.39892" lon="5.12045">
        <ele>694.21</ele>
        <time>2011-03-31T12:35:45Z</time>
      </trkpt>
      <trkpt lat="44.39897" lon="5.12039">
        <ele>693.73</ele>
        <time>2011-03-31T12:35:53Z</time>
      </trkpt>
      <trkpt lat="44.39905" lon="5.12028">
        <ele>693.73</ele>
        <time>2011-03-31T12:36:02Z</time>
      </trkpt>
      <trkpt lat="44.39913" lon="5.12019">
        <ele>693.25</ele>
        <time>2011-03-31T12:36:09Z</time>
      </trkpt>
      <trkpt lat="44.39917" lon="5.12018">
        <ele>693.25</ele>
        <time>2011-03-31T12:36:14Z</time>
      </trkpt>
      <trkpt lat="44.39928" lon="5.12009">
        <ele>692.77</ele>
        <time>2011-03-31T12:36:22Z</time>
      </trkpt>
      <trkpt lat="44.39931" lon="5.12005">
        <ele>692.29</ele>
        <time>2011-03-31T12:36:30Z</time>
      </trkpt>
      <trkpt lat="44.39941" lon="5.11999">
        <ele>691.81</ele>
        <time>2011-03-31T12:36:38Z</time>
      </trkpt>
      <trkpt lat="44.39947" lon="5.11989">
        <ele>691.81</ele>
        <time>2011-03-31T12:36:44Z</time>
      </trkpt>
      <trkpt lat="44.39949" lon="5.11989">
        <ele>691.81</ele>
        <time>2011-03-31T12:36:49Z</time>
      </trkpt>
      <trkpt lat="44.39961" lon="5.11981">
        <ele>690.84</ele>
        <time>2011-03-31T12:36:56Z</time>
      </trkpt>
      <trkpt lat="44.39961" lon="5.11975">
        <ele>690.36</ele>
        <time>2011-03-31T12:37:02Z</time>
      </trkpt>
      <trkpt lat="44.39973" lon="5.11966">
        <ele>689.4</ele>
        <time>2011-03-31T12:37:10Z</time>
      </trkpt>
      <trkpt lat="44.39978" lon="5.11961">
        <ele>689.88</ele>
        <time>2011-03-31T12:37:16Z</time>
      </trkpt>
      <trkpt lat="44.39986" lon="5.11953">
        <ele>689.88</ele>
        <time>2011-03-31T12:37:25Z</time>
      </trkpt>
      <trkpt lat="44.39996" lon="5.11948">
        <ele>690.36</ele>
        <time>2011-03-31T12:37:31Z</time>
      </trkpt>
      <trkpt lat="44.40005" lon="5.11939">
        <ele>689.88</ele>
        <time>2011-03-31T12:37:40Z</time>
      </trkpt>
      <trkpt lat="44.40012" lon="5.11934">
        <ele>689.4</ele>
        <time>2011-03-31T12:37:49Z</time>
      </trkpt>
      <trkpt lat="44.40023" lon="5.11927">
        <ele>687.96</ele>
        <time>2011-03-31T12:37:58Z</time>
      </trkpt>
      <trkpt lat="44.40029" lon="5.11923">
        <ele>688.44</ele>
        <time>2011-03-31T12:38:02Z</time>
      </trkpt>
      <trkpt lat="44.40029" lon="5.11919">
        <ele>687.96</ele>
        <time>2011-03-31T12:38:10Z</time>
      </trkpt>
      <trkpt lat="44.40039" lon="5.11913">
        <ele>687.48</ele>
        <time>2011-03-31T12:38:17Z</time>
      </trkpt>
      <trkpt lat="44.40052" lon="5.11902">
        <ele>687.48</ele>
        <time>2011-03-31T12:38:25Z</time>
      </trkpt>
      <trkpt lat="44.4006" lon="5.119">
        <ele>686.52</ele>
        <time>2011-03-31T12:38:33Z</time>
      </trkpt>
      <trkpt lat="44.40063" lon="5.11892">
        <ele>686.52</ele>
        <time>2011-03-31T12:38:39Z</time>
      </trkpt>
      <trkpt lat="44.40066" lon="5.11891">
        <ele>686.04</ele>
        <time>2011-03-31T12:38:41Z</time>
      </trkpt>
      <trkpt lat="44.40072" lon="5.11885">
        <ele>685.56</ele>
        <time>2011-03-31T12:38:47Z</time>
      </trkpt>
      <trkpt lat="44.40073" lon="5.11884">
        <ele>685.56</ele>
        <time>2011-03-31T12:38:48Z</time>
      </trkpt>
      <trkpt lat="44.40085" lon="5.11878">
        <ele>684.6</ele>
        <time>2011-03-31T12:38:58Z</time>
      </trkpt>
      <trkpt lat="44.40098" lon="5.1187">
        <ele>684.6</ele>
        <time>2011-03-31T12:39:07Z</time>
      </trkpt>
      <trkpt lat="44.40098" lon="5.11868">
        <ele>684.6</ele>
        <time>2011-03-31T12:39:08Z</time>
      </trkpt>
      <trkpt lat="44.40106" lon="5.11864">
        <ele>685.08</ele>
        <time>2011-03-31T12:39:17Z</time>
      </trkpt>
      <trkpt lat="44.40117" lon="5.11857">
        <ele>684.6</ele>
        <time>2011-03-31T12:39:25Z</time>
      </trkpt>
      <trkpt lat="44.40121" lon="5.11852">
        <ele>684.6</ele>
        <time>2011-03-31T12:39:32Z</time>
      </trkpt>
      <trkpt lat="44.40132" lon="5.11846">
        <ele>683.63</ele>
        <time>2011-03-31T12:39:40Z</time>
      </trkpt>
      <trkpt lat="44.40129" lon="5.11845">
        <ele>683.63</ele>
        <time>2011-03-31T12:39:42Z</time>
      </trkpt>
      <trkpt lat="44.4014" lon="5.11836">
        <ele>682.67</ele>
        <time>2011-03-31T12:39:53Z</time>
      </trkpt>
      <trkpt lat="44.40153" lon="5.11832">
        <ele>681.71</ele>
        <time>2011-03-31T12:40:01Z</time>
      </trkpt>
      <trkpt lat="44.40154" lon="5.1183">
        <ele>680.75</ele>
        <time>2011-03-31T12:40:04Z</time>
      </trkpt>
      <trkpt lat="44.4016" lon="5.11827">
        <ele>680.27</ele>
        <time>2011-03-31T12:40:08Z</time>
      </trkpt>
      <trkpt lat="44.40161" lon="5.11824">
        <ele>678.83</ele>
        <time>2011-03-31T12:40:12Z</time>
      </trkpt>
      <trkpt lat="44.40174" lon="5.11822">
        <ele>677.87</ele>
        <time>2011-03-31T12:40:21Z</time>
      </trkpt>
      <trkpt lat="44.40189" lon="5.11823">
        <ele>675.46</ele>
        <time>2011-03-31T12:40:33Z</time>
      </trkpt>
      <trkpt lat="44.40199" lon="5.11825">
        <ele>673.54</ele>
        <time>2011-03-31T12:40:41Z</time>
      </trkpt>
      <trkpt lat="44.402" lon="5.11827">
        <ele>672.58</ele>
        <time>2011-03-31T12:40:43Z</time>
      </trkpt>
      <trkpt lat="44.40206" lon="5.1183">
        <ele>669.7</ele>
        <time>2011-03-31T12:40:54Z</time>
      </trkpt>
      <trkpt lat="44.40209" lon="5.11833">
        <ele>669.22</ele>
        <time>2011-03-31T12:40:57Z</time>
      </trkpt>
      <trkpt lat="44.4022" lon="5.11835">
        <ele>666.33</ele>
        <time>2011-03-31T12:41:07Z</time>
      </trkpt>
      <trkpt lat="44.4023" lon="5.11839">
        <ele>664.89</ele>
        <time>2011-03-31T12:41:14Z</time>
      </trkpt>
      <trkpt lat="44.40238" lon="5.11845">
        <ele>663.93</ele>
        <time>2011-03-31T12:41:22Z</time>
      </trkpt>
      <trkpt lat="44.40242" lon="5.11848">
        <ele>662.49</ele>
        <time>2011-03-31T12:41:26Z</time>
      </trkpt>
      <trkpt lat="44.40253" lon="5.1185">
        <ele>659.6</ele>
        <time>2011-03-31T12:41:36Z</time>
      </trkpt>
      <trkpt lat="44.40265" lon="5.11853">
        <ele>658.64</ele>
        <time>2011-03-31T12:41:45Z</time>
      </trkpt>
      <trkpt lat="44.40272" lon="5.11863">
        <ele>658.16</ele>
        <time>2011-03-31T12:41:54Z</time>
      </trkpt>
      <trkpt lat="44.40273" lon="5.11864">
        <ele>657.68</ele>
        <time>2011-03-31T12:41:57Z</time>
      </trkpt>
      <trkpt lat="44.40286" lon="5.11858">
        <ele>656.72</ele>
        <time>2011-03-31T12:42:06Z</time>
      </trkpt>
      <trkpt lat="44.40292" lon="5.11859">
        <ele>656.72</ele>
        <time>2011-03-31T12:42:12Z</time>
      </trkpt>
      <trkpt lat="44.40297" lon="5.11869">
        <ele>656.72</ele>
        <time>2011-03-31T12:42:21Z</time>
      </trkpt>
      <trkpt lat="44.40298" lon="5.11871">
        <ele>656.72</ele>
        <time>2011-03-31T12:42:23Z</time>
      </trkpt>
      <trkpt lat="44.40301" lon="5.11877">
        <ele>655.76</ele>
        <time>2011-03-31T12:42:28Z</time>
      </trkpt>
      <trkpt lat="44.40305" lon="5.11878">
        <ele>655.28</ele>
        <time>2011-03-31T12:42:36Z</time>
      </trkpt>
      <trkpt lat="44.40305" lon="5.11877">
        <ele>655.76</ele>
        <time>2011-03-31T12:43:17Z</time>
      </trkpt>
      <trkpt lat="44.40306" lon="5.11876">
        <ele>655.28</ele>
        <time>2011-03-31T12:43:22Z</time>
      </trkpt>
      <trkpt lat="44.40307" lon="5.11873">
        <ele>655.76</ele>
        <time>2011-03-31T12:43:28Z</time>
      </trkpt>
      <trkpt lat="44.40309" lon="5.11868">
        <ele>655.76</ele>
        <time>2011-03-31T12:43:36Z</time>
      </trkpt>
      <trkpt lat="44.40311" lon="5.11865">
        <ele>656.24</ele>
        <time>2011-03-31T12:43:39Z</time>
      </trkpt>
      <trkpt lat="44.40319" lon="5.11856">
        <ele>656.24</ele>
        <time>2011-03-31T12:43:47Z</time>
      </trkpt>
      <trkpt lat="44.40327" lon="5.11846">
        <ele>656.24</ele>
        <time>2011-03-31T12:43:55Z</time>
      </trkpt>
      <trkpt lat="44.40331" lon="5.11839">
        <ele>656.72</ele>
        <time>2011-03-31T12:44:01Z</time>
      </trkpt>
      <trkpt lat="44.40339" lon="5.11837">
        <ele>656.24</ele>
        <time>2011-03-31T12:44:10Z</time>
      </trkpt>
      <trkpt lat="44.40345" lon="5.11829">
        <ele>656.72</ele>
        <time>2011-03-31T12:44:18Z</time>
      </trkpt>
      <trkpt lat="44.40352" lon="5.11823">
        <ele>656.24</ele>
        <time>2011-03-31T12:44:26Z</time>
      </trkpt>
      <trkpt lat="44.40358" lon="5.11813">
        <ele>654.8</ele>
        <time>2011-03-31T12:44:33Z</time>
      </trkpt>
      <trkpt lat="44.4036" lon="5.11811">
        <ele>653.35</ele>
        <time>2011-03-31T12:44:39Z</time>
      </trkpt>
      <trkpt lat="44.40361" lon="5.11812">
        <ele>653.35</ele>
        <time>2011-03-31T12:44:40Z</time>
      </trkpt>
      <trkpt lat="44.40366" lon="5.1181">
        <ele>652.87</ele>
        <time>2011-03-31T12:44:43Z</time>
      </trkpt>
      <trkpt lat="44.40376" lon="5.11798">
        <ele>651.91</ele>
        <time>2011-03-31T12:44:53Z</time>
      </trkpt>
      <trkpt lat="44.40382" lon="5.11793">
        <ele>652.39</ele>
        <time>2011-03-31T12:45:00Z</time>
      </trkpt>
      <trkpt lat="44.40385" lon="5.11791">
        <ele>651.91</ele>
        <time>2011-03-31T12:45:03Z</time>
      </trkpt>
      <trkpt lat="44.4039" lon="5.11781">
        <ele>651.43</ele>
        <time>2011-03-31T12:45:13Z</time>
      </trkpt>
      <trkpt lat="44.40393" lon="5.1178">
        <ele>650.47</ele>
        <time>2011-03-31T12:45:19Z</time>
      </trkpt>
      <trkpt lat="44.40398" lon="5.11776">
        <ele>649.99</ele>
        <time>2011-03-31T12:45:23Z</time>
      </trkpt>
      <trkpt lat="44.40406" lon="5.11767">
        <ele>648.55</ele>
        <time>2011-03-31T12:45:33Z</time>
      </trkpt>
      <trkpt lat="44.40405" lon="5.11764">
        <ele>648.55</ele>
        <time>2011-03-31T12:45:35Z</time>
      </trkpt>
      <trkpt lat="44.4041" lon="5.11757">
        <ele>646.14</ele>
        <time>2011-03-31T12:45:44Z</time>
      </trkpt>
      <trkpt lat="44.40412" lon="5.1175">
        <ele>645.66</ele>
        <time>2011-03-31T12:45:49Z</time>
      </trkpt>
      <trkpt lat="44.40423" lon="5.1174">
        <ele>645.18</ele>
        <time>2011-03-31T12:45:58Z</time>
      </trkpt>
      <trkpt lat="44.40426" lon="5.11733">
        <ele>644.7</ele>
        <time>2011-03-31T12:46:05Z</time>
      </trkpt>
      <trkpt lat="44.40424" lon="5.11728">
        <ele>644.22</ele>
        <time>2011-03-31T12:46:08Z</time>
      </trkpt>
      <trkpt lat="44.40422" lon="5.11731">
        <ele>643.26</ele>
        <time>2011-03-31T12:46:11Z</time>
      </trkpt>
      <trkpt lat="44.4042" lon="5.1173">
        <ele>642.78</ele>
        <time>2011-03-31T12:46:14Z</time>
      </trkpt>
      <trkpt lat="44.40417" lon="5.11726">
        <ele>641.82</ele>
        <time>2011-03-31T12:46:20Z</time>
      </trkpt>
      <trkpt lat="44.40414" lon="5.1172">
        <ele>640.38</ele>
        <time>2011-03-31T12:46:26Z</time>
      </trkpt>
      <trkpt lat="44.40414" lon="5.11714">
        <ele>638.45</ele>
        <time>2011-03-31T12:46:36Z</time>
      </trkpt>
      <trkpt lat="44.40415" lon="5.11709">
        <ele>637.01</ele>
        <time>2011-03-31T12:46:42Z</time>
      </trkpt>
      <trkpt lat="44.40417" lon="5.11706">
        <ele>637.01</ele>
        <time>2011-03-31T12:46:49Z</time>
      </trkpt>
      <trkpt lat="44.40425" lon="5.117">
        <ele>636.05</ele>
        <time>2011-03-31T12:46:58Z</time>
      </trkpt>
      <trkpt lat="44.40429" lon="5.11696">
        <ele>635.57</ele>
        <time>2011-03-31T12:47:04Z</time>
      </trkpt>
      <trkpt lat="44.40433" lon="5.11686">
        <ele>634.61</ele>
        <time>2011-03-31T12:47:10Z</time>
      </trkpt>
      <trkpt lat="44.40436" lon="5.11679">
        <ele>634.13</ele>
        <time>2011-03-31T12:47:16Z</time>
      </trkpt>
      <trkpt lat="44.4044" lon="5.11675">
        <ele>633.17</ele>
        <time>2011-03-31T12:47:21Z</time>
      </trkpt>
      <trkpt lat="44.40443" lon="5.11674">
        <ele>631.72</ele>
        <time>2011-03-31T12:47:27Z</time>
      </trkpt>
      <trkpt lat="44.40447" lon="5.11669">
        <ele>630.76</ele>
        <time>2011-03-31T12:47:33Z</time>
      </trkpt>
      <trkpt lat="44.40454" lon="5.11658">
        <ele>629.8</ele>
        <time>2011-03-31T12:47:41Z</time>
      </trkpt>
      <trkpt lat="44.40457" lon="5.11652">
        <ele>628.84</ele>
        <time>2011-03-31T12:47:46Z</time>
      </trkpt>
      <trkpt lat="44.40459" lon="5.11646">
        <ele>628.36</ele>
        <time>2011-03-31T12:47:49Z</time>
      </trkpt>
      <trkpt lat="44.40463" lon="5.11641">
        <ele>626.92</ele>
        <time>2011-03-31T12:47:57Z</time>
      </trkpt>
      <trkpt lat="44.40467" lon="5.11643">
        <ele>626.44</ele>
        <time>2011-03-31T12:48:03Z</time>
      </trkpt>
      <trkpt lat="44.40469" lon="5.11631">
        <ele>624.51</ele>
        <time>2011-03-31T12:48:09Z</time>
      </trkpt>
      <trkpt lat="44.40473" lon="5.11626">
        <ele>623.55</ele>
        <time>2011-03-31T12:48:15Z</time>
      </trkpt>
      <trkpt lat="44.40475" lon="5.11617">
        <ele>622.11</ele>
        <time>2011-03-31T12:48:21Z</time>
      </trkpt>
      <trkpt lat="44.40477" lon="5.11615">
        <ele>621.15</ele>
        <time>2011-03-31T12:48:27Z</time>
      </trkpt>
      <trkpt lat="44.4048" lon="5.11613">
        <ele>620.19</ele>
        <time>2011-03-31T12:48:34Z</time>
      </trkpt>
      <trkpt lat="44.4048" lon="5.11604">
        <ele>618.26</ele>
        <time>2011-03-31T12:48:44Z</time>
      </trkpt>
      <trkpt lat="44.40481" lon="5.11603">
        <ele>616.82</ele>
        <time>2011-03-31T12:48:49Z</time>
      </trkpt>
      <trkpt lat="44.40485" lon="5.116">
        <ele>615.86</ele>
        <time>2011-03-31T12:48:55Z</time>
      </trkpt>
      <trkpt lat="44.40491" lon="5.11593">
        <ele>615.38</ele>
        <time>2011-03-31T12:49:00Z</time>
      </trkpt>
      <trkpt lat="44.40492" lon="5.11588">
        <ele>614.42</ele>
        <time>2011-03-31T12:49:05Z</time>
      </trkpt>
      <trkpt lat="44.40496" lon="5.11584">
        <ele>612.98</ele>
        <time>2011-03-31T12:49:10Z</time>
      </trkpt>
      <trkpt lat="44.40498" lon="5.1158">
        <ele>612.02</ele>
        <time>2011-03-31T12:49:17Z</time>
      </trkpt>
      <trkpt lat="44.40504" lon="5.11571">
        <ele>611.06</ele>
        <time>2011-03-31T12:49:23Z</time>
      </trkpt>
      <trkpt lat="44.40504" lon="5.11565">
        <ele>609.61</ele>
        <time>2011-03-31T12:49:30Z</time>
      </trkpt>
      <trkpt lat="44.40509" lon="5.11563">
        <ele>608.17</ele>
        <time>2011-03-31T12:49:37Z</time>
      </trkpt>
      <trkpt lat="44.40514" lon="5.11558">
        <ele>607.69</ele>
        <time>2011-03-31T12:49:42Z</time>
      </trkpt>
      <trkpt lat="44.40514" lon="5.11551">
        <ele>606.25</ele>
        <time>2011-03-31T12:49:49Z</time>
      </trkpt>
      <trkpt lat="44.40519" lon="5.11545">
        <ele>605.77</ele>
        <time>2011-03-31T12:49:53Z</time>
      </trkpt>
      <trkpt lat="44.40522" lon="5.11539">
        <ele>604.81</ele>
        <time>2011-03-31T12:49:59Z</time>
      </trkpt>
      <trkpt lat="44.40526" lon="5.11534">
        <ele>602.88</ele>
        <time>2011-03-31T12:50:08Z</time>
      </trkpt>
      <trkpt lat="44.40533" lon="5.11519">
        <ele>600.96</ele>
        <time>2011-03-31T12:50:18Z</time>
      </trkpt>
      <trkpt lat="44.40535" lon="5.1152">
        <ele>600</ele>
        <time>2011-03-31T12:50:24Z</time>
      </trkpt>
      <trkpt lat="44.40537" lon="5.11513">
        <ele>598.56</ele>
        <time>2011-03-31T12:50:30Z</time>
      </trkpt>
      <trkpt lat="44.40541" lon="5.11509">
        <ele>596.64</ele>
        <time>2011-03-31T12:50:38Z</time>
      </trkpt>
      <trkpt lat="44.40546" lon="5.11503">
        <ele>595.67</ele>
        <time>2011-03-31T12:50:45Z</time>
      </trkpt>
      <trkpt lat="44.40547" lon="5.11501">
        <ele>594.71</ele>
        <time>2011-03-31T12:50:49Z</time>
      </trkpt>
      <trkpt lat="44.40548" lon="5.11499">
        <ele>594.23</ele>
        <time>2011-03-31T12:50:56Z</time>
      </trkpt>
      <trkpt lat="44.40547" lon="5.11495">
        <ele>592.79</ele>
        <time>2011-03-31T12:51:09Z</time>
      </trkpt>
      <trkpt lat="44.40557" lon="5.11491">
        <ele>592.31</ele>
        <time>2011-03-31T12:51:19Z</time>
      </trkpt>
      <trkpt lat="44.4056" lon="5.1148">
        <ele>591.35</ele>
        <time>2011-03-31T12:51:27Z</time>
      </trkpt>
      <trkpt lat="44.40562" lon="5.11477">
        <ele>590.39</ele>
        <time>2011-03-31T12:51:33Z</time>
      </trkpt>
      <trkpt lat="44.40563" lon="5.11473">
        <ele>589.43</ele>
        <time>2011-03-31T12:51:39Z</time>
      </trkpt>
      <trkpt lat="44.40562" lon="5.11462">
        <ele>587.5</ele>
        <time>2011-03-31T12:51:46Z</time>
      </trkpt>
      <trkpt lat="44.40568" lon="5.11464">
        <ele>586.54</ele>
        <time>2011-03-31T12:51:52Z</time>
      </trkpt>
      <trkpt lat="44.40571" lon="5.11458">
        <ele>585.58</ele>
        <time>2011-03-31T12:51:58Z</time>
      </trkpt>
      <trkpt lat="44.40573" lon="5.11454">
        <ele>583.66</ele>
        <time>2011-03-31T12:52:06Z</time>
      </trkpt>
      <trkpt lat="44.40576" lon="5.11448">
        <ele>582.7</ele>
        <time>2011-03-31T12:52:13Z</time>
      </trkpt>
      <trkpt lat="44.4058" lon="5.11442">
        <ele>581.25</ele>
        <time>2011-03-31T12:52:21Z</time>
      </trkpt>
      <trkpt lat="44.40582" lon="5.11439">
        <ele>578.85</ele>
        <time>2011-03-31T12:52:30Z</time>
      </trkpt>
      <trkpt lat="44.40582" lon="5.11432">
        <ele>577.89</ele>
        <time>2011-03-31T12:52:36Z</time>
      </trkpt>
      <trkpt lat="44.40586" lon="5.1142">
        <ele>575.01</ele>
        <time>2011-03-31T12:52:49Z</time>
      </trkpt>
      <trkpt lat="44.40589" lon="5.11417">
        <ele>574.04</ele>
        <time>2011-03-31T12:52:59Z</time>
      </trkpt>
      <trkpt lat="44.4059" lon="5.11411">
        <ele>572.12</ele>
        <time>2011-03-31T12:53:09Z</time>
      </trkpt>
      <trkpt lat="44.4059" lon="5.11409">
        <ele>570.68</ele>
        <time>2011-03-31T12:53:14Z</time>
      </trkpt>
      <trkpt lat="44.40595" lon="5.11406">
        <ele>569.72</ele>
        <time>2011-03-31T12:53:19Z</time>
      </trkpt>
      <trkpt lat="44.40599" lon="5.11396">
        <ele>569.24</ele>
        <time>2011-03-31T12:53:26Z</time>
      </trkpt>
      <trkpt lat="44.40606" lon="5.11395">
        <ele>567.8</ele>
        <time>2011-03-31T12:53:32Z</time>
      </trkpt>
      <trkpt lat="44.4061" lon="5.11394">
        <ele>567.32</ele>
        <time>2011-03-31T12:53:38Z</time>
      </trkpt>
      <trkpt lat="44.40616" lon="5.11393">
        <ele>566.35</ele>
        <time>2011-03-31T12:53:43Z</time>
      </trkpt>
      <trkpt lat="44.40619" lon="5.11392">
        <ele>565.87</ele>
        <time>2011-03-31T12:53:48Z</time>
      </trkpt>
      <trkpt lat="44.40622" lon="5.11384">
        <ele>564.43</ele>
        <time>2011-03-31T12:53:55Z</time>
      </trkpt>
      <trkpt lat="44.40618" lon="5.11382">
        <ele>562.99</ele>
        <time>2011-03-31T12:54:02Z</time>
      </trkpt>
      <trkpt lat="44.40605" lon="5.11378">
        <ele>562.51</ele>
        <time>2011-03-31T12:54:10Z</time>
      </trkpt>
      <trkpt lat="44.406" lon="5.11375">
        <ele>561.07</ele>
        <time>2011-03-31T12:54:16Z</time>
      </trkpt>
      <trkpt lat="44.40596" lon="5.11373">
        <ele>560.59</ele>
        <time>2011-03-31T12:54:21Z</time>
      </trkpt>
      <trkpt lat="44.40594" lon="5.11368">
        <ele>560.59</ele>
        <time>2011-03-31T12:54:28Z</time>
      </trkpt>
      <trkpt lat="44.40595" lon="5.11363">
        <ele>559.14</ele>
        <time>2011-03-31T12:54:35Z</time>
      </trkpt>
      <trkpt lat="44.40604" lon="5.11357">
        <ele>562.03</ele>
        <time>2011-03-31T12:54:44Z</time>
      </trkpt>
      <trkpt lat="44.40604" lon="5.11353">
        <ele>562.51</ele>
        <time>2011-03-31T12:54:47Z</time>
      </trkpt>
      <trkpt lat="44.40606" lon="5.11345">
        <ele>563.47</ele>
        <time>2011-03-31T12:54:53Z</time>
      </trkpt>
      <trkpt lat="44.40609" lon="5.11338">
        <ele>562.51</ele>
        <time>2011-03-31T12:54:57Z</time>
      </trkpt>
      <trkpt lat="44.40608" lon="5.11331">
        <ele>563.47</ele>
        <time>2011-03-31T12:55:04Z</time>
      </trkpt>
      <trkpt lat="44.40613" lon="5.11328">
        <ele>563.95</ele>
        <time>2011-03-31T12:55:11Z</time>
      </trkpt>
      <trkpt lat="44.40617" lon="5.11318">
        <ele>564.91</ele>
        <time>2011-03-31T12:55:20Z</time>
      </trkpt>
      <trkpt lat="44.40621" lon="5.1131">
        <ele>565.87</ele>
        <time>2011-03-31T12:55:26Z</time>
      </trkpt>
      <trkpt lat="44.40622" lon="5.11298">
        <ele>566.83</ele>
        <time>2011-03-31T12:55:33Z</time>
      </trkpt>
      <trkpt lat="44.40623" lon="5.11291">
        <ele>567.8</ele>
        <time>2011-03-31T12:55:39Z</time>
      </trkpt>
      <trkpt lat="44.40622" lon="5.11286">
        <ele>569.24</ele>
        <time>2011-03-31T12:55:46Z</time>
      </trkpt>
      <trkpt lat="44.4062" lon="5.11284">
        <ele>568.76</ele>
        <time>2011-03-31T12:55:48Z</time>
      </trkpt>
      <trkpt lat="44.40629" lon="5.11286">
        <ele>568.28</ele>
        <time>2011-03-31T12:55:56Z</time>
      </trkpt>
      <trkpt lat="44.40644" lon="5.11283">
        <ele>567.32</ele>
        <time>2011-03-31T12:56:06Z</time>
      </trkpt>
      <trkpt lat="44.40645" lon="5.11279">
        <ele>567.32</ele>
        <time>2011-03-31T12:56:16Z</time>
      </trkpt>
      <trkpt lat="44.40649" lon="5.11283">
        <ele>566.83</ele>
        <time>2011-03-31T12:56:22Z</time>
      </trkpt>
      <trkpt lat="44.40656" lon="5.11281">
        <ele>565.87</ele>
        <time>2011-03-31T12:56:30Z</time>
      </trkpt>
      <trkpt lat="44.40658" lon="5.11281">
        <ele>567.32</ele>
        <time>2011-03-31T12:56:39Z</time>
      </trkpt>
      <trkpt lat="44.40658" lon="5.11281">
        <ele>563.47</ele>
        <time>2011-03-31T12:56:44Z</time>
      </trkpt>
      <trkpt lat="44.40658" lon="5.11281">
        <ele>563.95</ele>
        <time>2011-03-31T12:56:45Z</time>
      </trkpt>
      <trkpt lat="44.40658" lon="5.11281">
        <ele>567.32</ele>
        <time>2011-03-31T12:56:46Z</time>
      </trkpt>
      <trkpt lat="44.40658" lon="5.11281">
        <ele>564.91</ele>
        <time>2011-03-31T12:56:47Z</time>
      </trkpt>
      <trkpt lat="44.40657" lon="5.1127">
        <ele>564.91</ele>
        <time>2011-03-31T12:57:39Z</time>
      </trkpt>
      <trkpt lat="44.40659" lon="5.11265">
        <ele>563.47</ele>
        <time>2011-03-31T12:57:46Z</time>
      </trkpt>
      <trkpt lat="44.40663" lon="5.11262">
        <ele>562.51</ele>
        <time>2011-03-31T12:57:49Z</time>
      </trkpt>
      <trkpt lat="44.40664" lon="5.11252">
        <ele>560.59</ele>
        <time>2011-03-31T12:57:58Z</time>
      </trkpt>
      <trkpt lat="44.40665" lon="5.1125">
        <ele>560.59</ele>
        <time>2011-03-31T12:57:59Z</time>
      </trkpt>
      <trkpt lat="44.40664" lon="5.11249">
        <ele>560.11</ele>
        <time>2011-03-31T12:58:03Z</time>
      </trkpt>
      <trkpt lat="44.40667" lon="5.11235">
        <ele>558.18</ele>
        <time>2011-03-31T12:58:11Z</time>
      </trkpt>
      <trkpt lat="44.40671" lon="5.11232">
        <ele>557.22</ele>
        <time>2011-03-31T12:58:18Z</time>
      </trkpt>
      <trkpt lat="44.40675" lon="5.11222">
        <ele>556.74</ele>
        <time>2011-03-31T12:58:22Z</time>
      </trkpt>
      <trkpt lat="44.40674" lon="5.11213">
        <ele>554.82</ele>
        <time>2011-03-31T12:58:30Z</time>
      </trkpt>
      <trkpt lat="44.40675" lon="5.11211">
        <ele>554.82</ele>
        <time>2011-03-31T12:58:32Z</time>
      </trkpt>
      <trkpt lat="44.40678" lon="5.11201">
        <ele>552.9</ele>
        <time>2011-03-31T12:58:41Z</time>
      </trkpt>
      <trkpt lat="44.40682" lon="5.11189">
        <ele>551.93</ele>
        <time>2011-03-31T12:58:49Z</time>
      </trkpt>
      <trkpt lat="44.40687" lon="5.11178">
        <ele>550.97</ele>
        <time>2011-03-31T12:58:57Z</time>
      </trkpt>
      <trkpt lat="44.40689" lon="5.11176">
        <ele>550.97</ele>
        <time>2011-03-31T12:58:59Z</time>
      </trkpt>
      <trkpt lat="44.40687" lon="5.11167">
        <ele>550.49</ele>
        <time>2011-03-31T12:59:04Z</time>
      </trkpt>
      <trkpt lat="44.40693" lon="5.11157">
        <ele>550.49</ele>
        <time>2011-03-31T12:59:12Z</time>
      </trkpt>
      <trkpt lat="44.40691" lon="5.11151">
        <ele>549.53</ele>
        <time>2011-03-31T12:59:15Z</time>
      </trkpt>
      <trkpt lat="44.40687" lon="5.11146">
        <ele>550.01</ele>
        <time>2011-03-31T12:59:19Z</time>
      </trkpt>
      <trkpt lat="44.40692" lon="5.1114">
        <ele>549.53</ele>
        <time>2011-03-31T12:59:23Z</time>
      </trkpt>
      <trkpt lat="44.40692" lon="5.1114">
        <ele>548.09</ele>
        <time>2011-03-31T12:59:30Z</time>
      </trkpt>
      <trkpt lat="44.4071" lon="5.11134">
        <ele>546.65</ele>
        <time>2011-03-31T12:59:38Z</time>
      </trkpt>
      <trkpt lat="44.40714" lon="5.11128">
        <ele>545.69</ele>
        <time>2011-03-31T12:59:43Z</time>
      </trkpt>
      <trkpt lat="44.40714" lon="5.11117">
        <ele>543.76</ele>
        <time>2011-03-31T12:59:51Z</time>
      </trkpt>
      <trkpt lat="44.40719" lon="5.11106">
        <ele>542.32</ele>
        <time>2011-03-31T13:00:00Z</time>
      </trkpt>
      <trkpt lat="44.40717" lon="5.11102">
        <ele>541.84</ele>
        <time>2011-03-31T13:00:08Z</time>
      </trkpt>
      <trkpt lat="44.40719" lon="5.11093">
        <ele>540.88</ele>
        <time>2011-03-31T13:00:23Z</time>
      </trkpt>
      <trkpt lat="44.40721" lon="5.11087">
        <ele>540.4</ele>
        <time>2011-03-31T13:00:27Z</time>
      </trkpt>
      <trkpt lat="44.40724" lon="5.11078">
        <ele>539.44</ele>
        <time>2011-03-31T13:00:34Z</time>
      </trkpt>
      <trkpt lat="44.40721" lon="5.11062">
        <ele>537.99</ele>
        <time>2011-03-31T13:00:43Z</time>
      </trkpt>
      <trkpt lat="44.4072" lon="5.11058">
        <ele>536.55</ele>
        <time>2011-03-31T13:00:50Z</time>
      </trkpt>
      <trkpt lat="44.40726" lon="5.1105">
        <ele>535.59</ele>
        <time>2011-03-31T13:00:58Z</time>
      </trkpt>
      <trkpt lat="44.40726" lon="5.11042">
        <ele>534.15</ele>
        <time>2011-03-31T13:01:04Z</time>
      </trkpt>
      <trkpt lat="44.40732" lon="5.11028">
        <ele>532.23</ele>
        <time>2011-03-31T13:01:13Z</time>
      </trkpt>
      <trkpt lat="44.40735" lon="5.11027">
        <ele>531.75</ele>
        <time>2011-03-31T13:01:15Z</time>
      </trkpt>
      <trkpt lat="44.40736" lon="5.11024">
        <ele>531.75</ele>
        <time>2011-03-31T13:01:17Z</time>
      </trkpt>
      <trkpt lat="44.40731" lon="5.11014">
        <ele>530.79</ele>
        <time>2011-03-31T13:01:24Z</time>
      </trkpt>
      <trkpt lat="44.40734" lon="5.1101">
        <ele>530.3</ele>
        <time>2011-03-31T13:01:32Z</time>
      </trkpt>
      <trkpt lat="44.40738" lon="5.11">
        <ele>528.86</ele>
        <time>2011-03-31T13:01:40Z</time>
      </trkpt>
      <trkpt lat="44.40744" lon="5.10989">
        <ele>527.9</ele>
        <time>2011-03-31T13:01:48Z</time>
      </trkpt>
      <trkpt lat="44.40751" lon="5.10977">
        <ele>526.46</ele>
        <time>2011-03-31T13:01:56Z</time>
      </trkpt>
      <trkpt lat="44.40752" lon="5.10963">
        <ele>525.5</ele>
        <time>2011-03-31T13:02:04Z</time>
      </trkpt>
      <trkpt lat="44.40753" lon="5.10955">
        <ele>525.5</ele>
        <time>2011-03-31T13:02:11Z</time>
      </trkpt>
      <trkpt lat="44.40752" lon="5.10946">
        <ele>525.02</ele>
        <time>2011-03-31T13:02:17Z</time>
      </trkpt>
      <trkpt lat="44.40752" lon="5.10936">
        <ele>523.09</ele>
        <time>2011-03-31T13:02:25Z</time>
      </trkpt>
      <trkpt lat="44.40755" lon="5.10933">
        <ele>522.61</ele>
        <time>2011-03-31T13:02:27Z</time>
      </trkpt>
      <trkpt lat="44.40761" lon="5.10927">
        <ele>522.61</ele>
        <time>2011-03-31T13:02:30Z</time>
      </trkpt>
      <trkpt lat="44.40758" lon="5.10926">
        <ele>521.65</ele>
        <time>2011-03-31T13:02:33Z</time>
      </trkpt>
      <trkpt lat="44.40762" lon="5.10913">
        <ele>519.25</ele>
        <time>2011-03-31T13:02:42Z</time>
      </trkpt>
      <trkpt lat="44.40761" lon="5.1091">
        <ele>519.25</ele>
        <time>2011-03-31T13:02:50Z</time>
      </trkpt>
      <trkpt lat="44.40761" lon="5.10903">
        <ele>519.73</ele>
        <time>2011-03-31T13:02:59Z</time>
      </trkpt>
      <trkpt lat="44.40761" lon="5.10898">
        <ele>518.77</ele>
        <time>2011-03-31T13:03:03Z</time>
      </trkpt>
      <trkpt lat="44.40761" lon="5.10894">
        <ele>518.77</ele>
        <time>2011-03-31T13:03:05Z</time>
      </trkpt>
      <trkpt lat="44.40762" lon="5.10883">
        <ele>517.81</ele>
        <time>2011-03-31T13:03:12Z</time>
      </trkpt>
      <trkpt lat="44.40768" lon="5.10878">
        <ele>516.37</ele>
        <time>2011-03-31T13:03:16Z</time>
      </trkpt>
      <trkpt lat="44.40768" lon="5.10867">
        <ele>515.88</ele>
        <time>2011-03-31T13:03:25Z</time>
      </trkpt>
      <trkpt lat="44.40773" lon="5.10855">
        <ele>514.44</ele>
        <time>2011-03-31T13:03:32Z</time>
      </trkpt>
      <trkpt lat="44.40772" lon="5.1085">
        <ele>513.96</ele>
        <time>2011-03-31T13:03:35Z</time>
      </trkpt>
      <trkpt lat="44.40774" lon="5.10849">
        <ele>513</ele>
        <time>2011-03-31T13:03:43Z</time>
      </trkpt>
      <trkpt lat="44.40774" lon="5.10853">
        <ele>512.52</ele>
        <time>2011-03-31T13:03:44Z</time>
      </trkpt>
      <trkpt lat="44.40782" lon="5.10856">
        <ele>511.08</ele>
        <time>2011-03-31T13:03:51Z</time>
      </trkpt>
      <trkpt lat="44.40788" lon="5.10864">
        <ele>508.67</ele>
        <time>2011-03-31T13:04:00Z</time>
      </trkpt>
      <trkpt lat="44.40794" lon="5.10873">
        <ele>507.23</ele>
        <time>2011-03-31T13:04:09Z</time>
      </trkpt>
      <trkpt lat="44.40795" lon="5.10884">
        <ele>505.31</ele>
        <time>2011-03-31T13:04:18Z</time>
      </trkpt>
      <trkpt lat="44.408" lon="5.10894">
        <ele>503.39</ele>
        <time>2011-03-31T13:04:26Z</time>
      </trkpt>
      <trkpt lat="44.40802" lon="5.10899">
        <ele>502.43</ele>
        <time>2011-03-31T13:04:33Z</time>
      </trkpt>
      <trkpt lat="44.40805" lon="5.10907">
        <ele>500.98</ele>
        <time>2011-03-31T13:04:38Z</time>
      </trkpt>
      <trkpt lat="44.40805" lon="5.10906">
        <ele>500.02</ele>
        <time>2011-03-31T13:04:40Z</time>
      </trkpt>
      <trkpt lat="44.40808" lon="5.10915">
        <ele>499.06</ele>
        <time>2011-03-31T13:04:44Z</time>
      </trkpt>
      <trkpt lat="44.40813" lon="5.10919">
        <ele>497.62</ele>
        <time>2011-03-31T13:04:50Z</time>
      </trkpt>
      <trkpt lat="44.40819" lon="5.10924">
        <ele>497.14</ele>
        <time>2011-03-31T13:04:58Z</time>
      </trkpt>
      <trkpt lat="44.40823" lon="5.10926">
        <ele>495.7</ele>
        <time>2011-03-31T13:05:03Z</time>
      </trkpt>
      <trkpt lat="44.4083" lon="5.10939">
        <ele>495.22</ele>
        <time>2011-03-31T13:05:10Z</time>
      </trkpt>
      <trkpt lat="44.40836" lon="5.1095">
        <ele>494.74</ele>
        <time>2011-03-31T13:05:19Z</time>
      </trkpt>
      <trkpt lat="44.40842" lon="5.10951">
        <ele>493.77</ele>
        <time>2011-03-31T13:05:26Z</time>
      </trkpt>
      <trkpt lat="44.40846" lon="5.10956">
        <ele>491.85</ele>
        <time>2011-03-31T13:05:34Z</time>
      </trkpt>
      <trkpt lat="44.40853" lon="5.10965">
        <ele>489.93</ele>
        <time>2011-03-31T13:05:43Z</time>
      </trkpt>
      <trkpt lat="44.4086" lon="5.10966">
        <ele>489.93</ele>
        <time>2011-03-31T13:05:51Z</time>
      </trkpt>
      <trkpt lat="44.4086" lon="5.10972">
        <ele>489.93</ele>
        <time>2011-03-31T13:05:56Z</time>
      </trkpt>
      <trkpt lat="44.40863" lon="5.10973">
        <ele>490.41</ele>
        <time>2011-03-31T13:06:03Z</time>
      </trkpt>
      <trkpt lat="44.40863" lon="5.10973">
        <ele>490.41</ele>
        <time>2011-03-31T13:06:09Z</time>
      </trkpt>
      <trkpt lat="44.40866" lon="5.10981">
        <ele>490.89</ele>
        <time>2011-03-31T13:06:17Z</time>
      </trkpt>
      <trkpt lat="44.40863" lon="5.1099">
        <ele>491.85</ele>
        <time>2011-03-31T13:06:25Z</time>
      </trkpt>
      <trkpt lat="44.40865" lon="5.10997">
        <ele>492.81</ele>
        <time>2011-03-31T13:06:32Z</time>
      </trkpt>
      <trkpt lat="44.40867" lon="5.11005">
        <ele>492.81</ele>
        <time>2011-03-31T13:06:38Z</time>
      </trkpt>
      <trkpt lat="44.40871" lon="5.11004">
        <ele>493.29</ele>
        <time>2011-03-31T13:06:43Z</time>
      </trkpt>
      <trkpt lat="44.40872" lon="5.11005">
        <ele>493.29</ele>
        <time>2011-03-31T13:06:46Z</time>
      </trkpt>
      <trkpt lat="44.40874" lon="5.11015">
        <ele>494.26</ele>
        <time>2011-03-31T13:06:52Z</time>
      </trkpt>
      <trkpt lat="44.40875" lon="5.11019">
        <ele>494.74</ele>
        <time>2011-03-31T13:06:55Z</time>
      </trkpt>
      <trkpt lat="44.40878" lon="5.11029">
        <ele>494.74</ele>
        <time>2011-03-31T13:07:03Z</time>
      </trkpt>
      <trkpt lat="44.40881" lon="5.1104">
        <ele>494.74</ele>
        <time>2011-03-31T13:07:11Z</time>
      </trkpt>
      <trkpt lat="44.40884" lon="5.11053">
        <ele>495.22</ele>
        <time>2011-03-31T13:07:19Z</time>
      </trkpt>
      <trkpt lat="44.40891" lon="5.11057">
        <ele>495.22</ele>
        <time>2011-03-31T13:07:25Z</time>
      </trkpt>
      <trkpt lat="44.40893" lon="5.11058">
        <ele>495.7</ele>
        <time>2011-03-31T13:07:26Z</time>
      </trkpt>
      <trkpt lat="44.40896" lon="5.11063">
        <ele>496.18</ele>
        <time>2011-03-31T13:07:32Z</time>
      </trkpt>
      <trkpt lat="44.40901" lon="5.11066">
        <ele>496.66</ele>
        <time>2011-03-31T13:07:38Z</time>
      </trkpt>
      <trkpt lat="44.40905" lon="5.11071">
        <ele>498.1</ele>
        <time>2011-03-31T13:07:44Z</time>
      </trkpt>
      <trkpt lat="44.40903" lon="5.11078">
        <ele>499.06</ele>
        <time>2011-03-31T13:07:49Z</time>
      </trkpt>
      <trkpt lat="44.40906" lon="5.11084">
        <ele>500.02</ele>
        <time>2011-03-31T13:07:53Z</time>
      </trkpt>
      <trkpt lat="44.40911" lon="5.11088">
        <ele>500.5</ele>
        <time>2011-03-31T13:08:00Z</time>
      </trkpt>
      <trkpt lat="44.40918" lon="5.11094">
        <ele>502.43</ele>
        <time>2011-03-31T13:08:09Z</time>
      </trkpt>
      <trkpt lat="44.40917" lon="5.11098">
        <ele>502.43</ele>
        <time>2011-03-31T13:08:11Z</time>
      </trkpt>
      <trkpt lat="44.40924" lon="5.11108">
        <ele>502.91</ele>
        <time>2011-03-31T13:08:19Z</time>
      </trkpt>
      <trkpt lat="44.40933" lon="5.11107">
        <ele>503.87</ele>
        <time>2011-03-31T13:08:27Z</time>
      </trkpt>
      <trkpt lat="44.40931" lon="5.1112">
        <ele>504.83</ele>
        <time>2011-03-31T13:08:32Z</time>
      </trkpt>
      <trkpt lat="44.40932" lon="5.11122">
        <ele>504.83</ele>
        <time>2011-03-31T13:08:34Z</time>
      </trkpt>
      <trkpt lat="44.40937" lon="5.11123">
        <ele>506.75</ele>
        <time>2011-03-31T13:08:41Z</time>
      </trkpt>
      <trkpt lat="44.40946" lon="5.11122">
        <ele>507.23</ele>
        <time>2011-03-31T13:08:47Z</time>
      </trkpt>
      <trkpt lat="44.40949" lon="5.11127">
        <ele>508.19</ele>
        <time>2011-03-31T13:08:54Z</time>
      </trkpt>
      <trkpt lat="44.40954" lon="5.11126">
        <ele>508.67</ele>
        <time>2011-03-31T13:09:01Z</time>
      </trkpt>
      <trkpt lat="44.40954" lon="5.11121">
        <ele>509.16</ele>
        <time>2011-03-31T13:09:08Z</time>
      </trkpt>
      <trkpt lat="44.40956" lon="5.11119">
        <ele>509.16</ele>
        <time>2011-03-31T13:09:17Z</time>
      </trkpt>
      <trkpt lat="44.40954" lon="5.11117">
        <ele>509.64</ele>
        <time>2011-03-31T13:09:26Z</time>
      </trkpt>
      <trkpt lat="44.40953" lon="5.11113">
        <ele>509.64</ele>
        <time>2011-03-31T13:10:26Z</time>
      </trkpt>
      <trkpt lat="44.40954" lon="5.1111">
        <ele>509.64</ele>
        <time>2011-03-31T13:10:37Z</time>
      </trkpt>
      <trkpt lat="44.40955" lon="5.11106">
        <ele>510.12</ele>
        <time>2011-03-31T13:10:44Z</time>
      </trkpt>
      <trkpt lat="44.40957" lon="5.11108">
        <ele>515.88</ele>
        <time>2011-03-31T13:11:26Z</time>
      </trkpt>
      <trkpt lat="44.40957" lon="5.11108">
        <ele>510.12</ele>
        <time>2011-03-31T13:11:27Z</time>
      </trkpt>
      <trkpt lat="44.40957" lon="5.11108">
        <ele>516.37</ele>
        <time>2011-03-31T13:11:30Z</time>
      </trkpt>
      <trkpt lat="44.40957" lon="5.11108">
        <ele>510.12</ele>
        <time>2011-03-31T13:11:31Z</time>
      </trkpt>
      <trkpt lat="44.40957" lon="5.11108">
        <ele>514.44</ele>
        <time>2011-03-31T13:11:33Z</time>
      </trkpt>
      <trkpt lat="44.40957" lon="5.11108">
        <ele>510.6</ele>
        <time>2011-03-31T13:11:34Z</time>
      </trkpt>
      <trkpt lat="44.40957" lon="5.11108">
        <ele>506.75</ele>
        <time>2011-03-31T13:11:39Z</time>
      </trkpt>
      <trkpt lat="44.40957" lon="5.11108">
        <ele>511.08</ele>
        <time>2011-03-31T13:11:40Z</time>
      </trkpt>
      <trkpt lat="44.40952" lon="5.11101">
        <ele>511.08</ele>
        <time>2011-03-31T13:11:53Z</time>
      </trkpt>
      <trkpt lat="44.40949" lon="5.11093">
        <ele>512.04</ele>
        <time>2011-03-31T13:12:01Z</time>
      </trkpt>
      <trkpt lat="44.40954" lon="5.111">
        <ele>511.08</ele>
        <time>2011-03-31T13:12:44Z</time>
      </trkpt>
      <trkpt lat="44.40953" lon="5.1111">
        <ele>511.08</ele>
        <time>2011-03-31T13:12:52Z</time>
      </trkpt>
      <trkpt lat="44.40953" lon="5.111">
        <ele>511.08</ele>
        <time>2011-03-31T13:13:20Z</time>
      </trkpt>
      <trkpt lat="44.40953" lon="5.111">
        <ele>512.04</ele>
        <time>2011-03-31T13:13:28Z</time>
      </trkpt>
      <trkpt lat="44.40953" lon="5.111">
        <ele>508.19</ele>
        <time>2011-03-31T13:15:02Z</time>
      </trkpt>
      <trkpt lat="44.40953" lon="5.111">
        <ele>512.04</ele>
        <time>2011-03-31T13:15:03Z</time>
      </trkpt>
      <trkpt lat="44.40953" lon="5.111">
        <ele>507.71</ele>
        <time>2011-03-31T13:15:31Z</time>
      </trkpt>
      <trkpt lat="44.40953" lon="5.111">
        <ele>512.52</ele>
        <time>2011-03-31T13:15:32Z</time>
      </trkpt>
      <trkpt lat="44.40953" lon="5.111">
        <ele>507.23</ele>
        <time>2011-03-31T13:15:34Z</time>
      </trkpt>
      <trkpt lat="44.40955" lon="5.111">
        <ele>510.12</ele>
        <time>2011-03-31T13:15:35Z</time>
      </trkpt>
      <trkpt lat="44.40952" lon="5.11105">
        <ele>509.64</ele>
        <time>2011-03-31T13:17:14Z</time>
      </trkpt>
      <trkpt lat="44.40958" lon="5.11112">
        <ele>509.16</ele>
        <time>2011-03-31T13:17:23Z</time>
      </trkpt>
      <trkpt lat="44.40956" lon="5.11123">
        <ele>508.67</ele>
        <time>2011-03-31T13:17:28Z</time>
      </trkpt>
      <trkpt lat="44.40967" lon="5.11123">
        <ele>507.71</ele>
        <time>2011-03-31T13:17:34Z</time>
      </trkpt>
      <trkpt lat="44.40966" lon="5.11117">
        <ele>507.71</ele>
        <time>2011-03-31T13:17:42Z</time>
      </trkpt>
      <trkpt lat="44.40975" lon="5.11114">
        <ele>507.71</ele>
        <time>2011-03-31T13:17:49Z</time>
      </trkpt>
      <trkpt lat="44.40971" lon="5.11114">
        <ele>507.71</ele>
        <time>2011-03-31T13:22:19Z</time>
      </trkpt>
      <trkpt lat="44.40966" lon="5.11115">
        <ele>507.71</ele>
        <time>2011-03-31T13:22:22Z</time>
      </trkpt>
      <trkpt lat="44.4096" lon="5.11121">
        <ele>507.71</ele>
        <time>2011-03-31T13:22:32Z</time>
      </trkpt>
      <trkpt lat="44.40956" lon="5.11119">
        <ele>508.19</ele>
        <time>2011-03-31T13:22:38Z</time>
      </trkpt>
      <trkpt lat="44.40954" lon="5.11109">
        <ele>508.67</ele>
        <time>2011-03-31T13:22:45Z</time>
      </trkpt>
      <trkpt lat="44.40955" lon="5.11111">
        <ele>509.16</ele>
        <time>2011-03-31T13:22:50Z</time>
      </trkpt>
      <trkpt lat="44.40953" lon="5.11107">
        <ele>509.16</ele>
        <time>2011-03-31T13:22:52Z</time>
      </trkpt>
      <trkpt lat="44.40953" lon="5.11096">
        <ele>510.12</ele>
        <time>2011-03-31T13:23:01Z</time>
      </trkpt>
      <trkpt lat="44.40951" lon="5.11081">
        <ele>510.6</ele>
        <time>2011-03-31T13:23:12Z</time>
      </trkpt>
      <trkpt lat="44.40949" lon="5.11072">
        <ele>511.08</ele>
        <time>2011-03-31T13:23:19Z</time>
      </trkpt>
      <trkpt lat="44.40947" lon="5.11057">
        <ele>511.08</ele>
        <time>2011-03-31T13:23:27Z</time>
      </trkpt>
      <trkpt lat="44.40946" lon="5.11043">
        <ele>511.56</ele>
        <time>2011-03-31T13:23:34Z</time>
      </trkpt>
      <trkpt lat="44.40947" lon="5.11032">
        <ele>511.56</ele>
        <time>2011-03-31T13:23:43Z</time>
      </trkpt>
      <trkpt lat="44.40943" lon="5.11013">
        <ele>510.6</ele>
        <time>2011-03-31T13:23:54Z</time>
      </trkpt>
      <trkpt lat="44.40942" lon="5.11006">
        <ele>510.6</ele>
        <time>2011-03-31T13:24:02Z</time>
      </trkpt>
      <trkpt lat="44.40942" lon="5.11006">
        <ele>510.6</ele>
        <time>2011-03-31T13:24:05Z</time>
      </trkpt>
      <trkpt lat="44.40942" lon="5.10989">
        <ele>509.64</ele>
        <time>2011-03-31T13:24:14Z</time>
      </trkpt>
      <trkpt lat="44.40943" lon="5.10974">
        <ele>508.19</ele>
        <time>2011-03-31T13:24:25Z</time>
      </trkpt>
      <trkpt lat="44.40947" lon="5.10957">
        <ele>506.75</ele>
        <time>2011-03-31T13:24:34Z</time>
      </trkpt>
      <trkpt lat="44.40952" lon="5.10946">
        <ele>505.79</ele>
        <time>2011-03-31T13:24:44Z</time>
      </trkpt>
      <trkpt lat="44.40955" lon="5.10933">
        <ele>504.83</ele>
        <time>2011-03-31T13:24:51Z</time>
      </trkpt>
      <trkpt lat="44.40955" lon="5.10916">
        <ele>503.39</ele>
        <time>2011-03-31T13:25:00Z</time>
      </trkpt>
      <trkpt lat="44.40954" lon="5.10902">
        <ele>502.91</ele>
        <time>2011-03-31T13:25:09Z</time>
      </trkpt>
      <trkpt lat="44.40952" lon="5.1089">
        <ele>501.95</ele>
        <time>2011-03-31T13:25:18Z</time>
      </trkpt>
      <trkpt lat="44.40947" lon="5.10875">
        <ele>500.98</ele>
        <time>2011-03-31T13:25:28Z</time>
      </trkpt>
      <trkpt lat="44.40942" lon="5.1086">
        <ele>500.5</ele>
        <time>2011-03-31T13:25:38Z</time>
      </trkpt>
      <trkpt lat="44.40939" lon="5.10843">
        <ele>499.54</ele>
        <time>2011-03-31T13:25:48Z</time>
      </trkpt>
      <trkpt lat="44.40938" lon="5.10826">
        <ele>499.54</ele>
        <time>2011-03-31T13:25:56Z</time>
      </trkpt>
      <trkpt lat="44.40939" lon="5.10809">
        <ele>498.1</ele>
        <time>2011-03-31T13:26:06Z</time>
      </trkpt>
      <trkpt lat="44.40936" lon="5.10794">
        <ele>498.1</ele>
        <time>2011-03-31T13:26:15Z</time>
      </trkpt>
      <trkpt lat="44.40932" lon="5.10781">
        <ele>496.66</ele>
        <time>2011-03-31T13:26:24Z</time>
      </trkpt>
      <trkpt lat="44.40931" lon="5.10764">
        <ele>495.22</ele>
        <time>2011-03-31T13:26:33Z</time>
      </trkpt>
      <trkpt lat="44.40926" lon="5.10749">
        <ele>494.26</ele>
        <time>2011-03-31T13:26:42Z</time>
      </trkpt>
      <trkpt lat="44.40922" lon="5.10736">
        <ele>493.77</ele>
        <time>2011-03-31T13:26:50Z</time>
      </trkpt>
      <trkpt lat="44.40912" lon="5.10728">
        <ele>493.29</ele>
        <time>2011-03-31T13:26:59Z</time>
      </trkpt>
      <trkpt lat="44.40903" lon="5.10718">
        <ele>492.33</ele>
        <time>2011-03-31T13:27:08Z</time>
      </trkpt>
      <trkpt lat="44.40897" lon="5.10711">
        <ele>491.85</ele>
        <time>2011-03-31T13:27:16Z</time>
      </trkpt>
      <trkpt lat="44.40888" lon="5.10707">
        <ele>490.89</ele>
        <time>2011-03-31T13:27:25Z</time>
      </trkpt>
      <trkpt lat="44.40878" lon="5.10694">
        <ele>489.45</ele>
        <time>2011-03-31T13:27:34Z</time>
      </trkpt>
      <trkpt lat="44.40871" lon="5.10687">
        <ele>488.49</ele>
        <time>2011-03-31T13:27:42Z</time>
      </trkpt>
      <trkpt lat="44.40862" lon="5.10678">
        <ele>488.01</ele>
        <time>2011-03-31T13:27:51Z</time>
      </trkpt>
      <trkpt lat="44.40854" lon="5.10674">
        <ele>487.53</ele>
        <time>2011-03-31T13:27:58Z</time>
      </trkpt>
      <trkpt lat="44.40846" lon="5.10665">
        <ele>486.56</ele>
        <time>2011-03-31T13:28:07Z</time>
      </trkpt>
      <trkpt lat="44.40844" lon="5.1066">
        <ele>486.08</ele>
        <time>2011-03-31T13:28:10Z</time>
      </trkpt>
      <trkpt lat="44.40836" lon="5.10647">
        <ele>485.12</ele>
        <time>2011-03-31T13:28:19Z</time>
      </trkpt>
      <trkpt lat="44.40831" lon="5.10638">
        <ele>484.64</ele>
        <time>2011-03-31T13:28:28Z</time>
      </trkpt>
      <trkpt lat="44.40827" lon="5.10628">
        <ele>484.64</ele>
        <time>2011-03-31T13:28:35Z</time>
      </trkpt>
      <trkpt lat="44.40821" lon="5.10615">
        <ele>484.16</ele>
        <time>2011-03-31T13:28:43Z</time>
      </trkpt>
      <trkpt lat="44.4082" lon="5.10615">
        <ele>484.16</ele>
        <time>2011-03-31T13:28:49Z</time>
      </trkpt>
      <trkpt lat="44.40819" lon="5.10592">
        <ele>482.72</ele>
        <time>2011-03-31T13:29:01Z</time>
      </trkpt>
      <trkpt lat="44.40812" lon="5.10579">
        <ele>482.24</ele>
        <time>2011-03-31T13:29:11Z</time>
      </trkpt>
      <trkpt lat="44.40808" lon="5.10558">
        <ele>480.32</ele>
        <time>2011-03-31T13:29:23Z</time>
      </trkpt>
      <trkpt lat="44.40804" lon="5.10549">
        <ele>480.32</ele>
        <time>2011-03-31T13:29:31Z</time>
      </trkpt>
      <trkpt lat="44.40795" lon="5.1053">
        <ele>479.35</ele>
        <time>2011-03-31T13:29:41Z</time>
      </trkpt>
      <trkpt lat="44.40795" lon="5.10518">
        <ele>479.35</ele>
        <time>2011-03-31T13:29:48Z</time>
      </trkpt>
      <trkpt lat="44.40788" lon="5.10506">
        <ele>478.39</ele>
        <time>2011-03-31T13:29:56Z</time>
      </trkpt>
      <trkpt lat="44.40787" lon="5.10503">
        <ele>478.39</ele>
        <time>2011-03-31T13:29:58Z</time>
      </trkpt>
      <trkpt lat="44.40786" lon="5.10497">
        <ele>477.91</ele>
        <time>2011-03-31T13:30:03Z</time>
      </trkpt>
      <trkpt lat="44.40784" lon="5.1049">
        <ele>477.43</ele>
        <time>2011-03-31T13:30:09Z</time>
      </trkpt>
      <trkpt lat="44.40782" lon="5.10472">
        <ele>475.99</ele>
        <time>2011-03-31T13:30:20Z</time>
      </trkpt>
      <trkpt lat="44.40785" lon="5.10453">
        <ele>475.51</ele>
        <time>2011-03-31T13:30:30Z</time>
      </trkpt>
      <trkpt lat="44.40786" lon="5.10439">
        <ele>475.51</ele>
        <time>2011-03-31T13:30:39Z</time>
      </trkpt>
      <trkpt lat="44.40788" lon="5.10426">
        <ele>475.03</ele>
        <time>2011-03-31T13:30:47Z</time>
      </trkpt>
      <trkpt lat="44.40787" lon="5.1041">
        <ele>474.55</ele>
        <time>2011-03-31T13:30:58Z</time>
      </trkpt>
      <trkpt lat="44.40782" lon="5.10403">
        <ele>474.07</ele>
        <time>2011-03-31T13:31:02Z</time>
      </trkpt>
      <trkpt lat="44.40783" lon="5.10385">
        <ele>473.59</ele>
        <time>2011-03-31T13:31:13Z</time>
      </trkpt>
      <trkpt lat="44.4078" lon="5.10367">
        <ele>472.63</ele>
        <time>2011-03-31T13:31:24Z</time>
      </trkpt>
      <trkpt lat="44.40776" lon="5.10352">
        <ele>471.18</ele>
        <time>2011-03-31T13:31:34Z</time>
      </trkpt>
      <trkpt lat="44.40776" lon="5.10336">
        <ele>471.18</ele>
        <time>2011-03-31T13:31:44Z</time>
      </trkpt>
      <trkpt lat="44.40775" lon="5.10319">
        <ele>470.22</ele>
        <time>2011-03-31T13:31:53Z</time>
      </trkpt>
      <trkpt lat="44.40768" lon="5.10311">
        <ele>469.74</ele>
        <time>2011-03-31T13:32:00Z</time>
      </trkpt>
      <trkpt lat="44.4077" lon="5.10297">
        <ele>469.74</ele>
        <time>2011-03-31T13:32:08Z</time>
      </trkpt>
      <trkpt lat="44.40769" lon="5.10287">
        <ele>469.26</ele>
        <time>2011-03-31T13:32:15Z</time>
      </trkpt>
      <trkpt lat="44.40765" lon="5.10276">
        <ele>469.26</ele>
        <time>2011-03-31T13:32:23Z</time>
      </trkpt>
      <trkpt lat="44.40759" lon="5.10261">
        <ele>468.78</ele>
        <time>2011-03-31T13:32:32Z</time>
      </trkpt>
      <trkpt lat="44.40751" lon="5.10246">
        <ele>468.3</ele>
        <time>2011-03-31T13:32:43Z</time>
      </trkpt>
      <trkpt lat="44.40748" lon="5.10234">
        <ele>468.78</ele>
        <time>2011-03-31T13:32:51Z</time>
      </trkpt>
      <trkpt lat="44.40741" lon="5.10221">
        <ele>468.3</ele>
        <time>2011-03-31T13:33:01Z</time>
      </trkpt>
      <trkpt lat="44.40731" lon="5.10215">
        <ele>467.82</ele>
        <time>2011-03-31T13:33:07Z</time>
      </trkpt>
      <trkpt lat="44.40732" lon="5.10208">
        <ele>467.82</ele>
        <time>2011-03-31T13:33:10Z</time>
      </trkpt>
      <trkpt lat="44.40735" lon="5.10203">
        <ele>467.82</ele>
        <time>2011-03-31T13:33:14Z</time>
      </trkpt>
      <trkpt lat="44.40732" lon="5.10202">
        <ele>467.34</ele>
        <time>2011-03-31T13:33:16Z</time>
      </trkpt>
      <trkpt lat="44.40725" lon="5.10186">
        <ele>466.38</ele>
        <time>2011-03-31T13:33:25Z</time>
      </trkpt>
      <trkpt lat="44.40721" lon="5.10176">
        <ele>466.38</ele>
        <time>2011-03-31T13:33:32Z</time>
      </trkpt>
      <trkpt lat="44.40712" lon="5.10168">
        <ele>465.42</ele>
        <time>2011-03-31T13:33:40Z</time>
      </trkpt>
      <trkpt lat="44.40709" lon="5.10162">
        <ele>464.93</ele>
        <time>2011-03-31T13:33:42Z</time>
      </trkpt>
      <trkpt lat="44.40702" lon="5.10153">
        <ele>463.97</ele>
        <time>2011-03-31T13:33:52Z</time>
      </trkpt>
      <trkpt lat="44.40702" lon="5.10152">
        <ele>463.49</ele>
        <time>2011-03-31T13:33:53Z</time>
      </trkpt>
      <trkpt lat="44.40697" lon="5.10137">
        <ele>463.01</ele>
        <time>2011-03-31T13:34:03Z</time>
      </trkpt>
      <trkpt lat="44.40688" lon="5.10125">
        <ele>462.53</ele>
        <time>2011-03-31T13:34:11Z</time>
      </trkpt>
      <trkpt lat="44.40677" lon="5.10119">
        <ele>461.57</ele>
        <time>2011-03-31T13:34:21Z</time>
      </trkpt>
      <trkpt lat="44.40678" lon="5.10109">
        <ele>461.57</ele>
        <time>2011-03-31T13:34:28Z</time>
      </trkpt>
      <trkpt lat="44.40675" lon="5.10096">
        <ele>461.09</ele>
        <time>2011-03-31T13:34:35Z</time>
      </trkpt>
      <trkpt lat="44.40678" lon="5.1009">
        <ele>460.61</ele>
        <time>2011-03-31T13:34:41Z</time>
      </trkpt>
      <trkpt lat="44.40679" lon="5.10087">
        <ele>460.61</ele>
        <time>2011-03-31T13:34:43Z</time>
      </trkpt>
      <trkpt lat="44.40684" lon="5.10078">
        <ele>460.13</ele>
        <time>2011-03-31T13:34:48Z</time>
      </trkpt>
      <trkpt lat="44.4068" lon="5.10061">
        <ele>460.13</ele>
        <time>2011-03-31T13:34:58Z</time>
      </trkpt>
      <trkpt lat="44.40681" lon="5.10057">
        <ele>459.65</ele>
        <time>2011-03-31T13:35:01Z</time>
      </trkpt>
      <trkpt lat="44.40681" lon="5.10043">
        <ele>459.65</ele>
        <time>2011-03-31T13:35:08Z</time>
      </trkpt>
      <trkpt lat="44.40682" lon="5.10037">
        <ele>459.17</ele>
        <time>2011-03-31T13:35:12Z</time>
      </trkpt>
      <trkpt lat="44.40683" lon="5.10019">
        <ele>459.17</ele>
        <time>2011-03-31T13:35:23Z</time>
      </trkpt>
      <trkpt lat="44.40683" lon="5.10011">
        <ele>459.17</ele>
        <time>2011-03-31T13:35:28Z</time>
      </trkpt>
      <trkpt lat="44.40681" lon="5.09991">
        <ele>458.21</ele>
        <time>2011-03-31T13:35:39Z</time>
      </trkpt>
      <trkpt lat="44.40684" lon="5.09982">
        <ele>458.21</ele>
        <time>2011-03-31T13:35:47Z</time>
      </trkpt>
      <trkpt lat="44.40683" lon="5.0998">
        <ele>458.21</ele>
        <time>2011-03-31T13:35:48Z</time>
      </trkpt>
      <trkpt lat="44.40687" lon="5.09973">
        <ele>457.72</ele>
        <time>2011-03-31T13:35:55Z</time>
      </trkpt>
      <trkpt lat="44.40681" lon="5.09972">
        <ele>457.24</ele>
        <time>2011-03-31T13:36:01Z</time>
      </trkpt>
      <trkpt lat="44.40684" lon="5.0997">
        <ele>457.24</ele>
        <time>2011-03-31T13:36:48Z</time>
      </trkpt>
      <trkpt lat="44.40684" lon="5.0997">
        <ele>457.72</ele>
        <time>2011-03-31T13:37:53Z</time>
      </trkpt>
      <trkpt lat="44.40685" lon="5.09955">
        <ele>456.76</ele>
        <time>2011-03-31T13:38:02Z</time>
      </trkpt>
      <trkpt lat="44.40685" lon="5.09948">
        <ele>456.28</ele>
        <time>2011-03-31T13:38:06Z</time>
      </trkpt>
      <trkpt lat="44.40685" lon="5.09945">
        <ele>456.28</ele>
        <time>2011-03-31T13:38:08Z</time>
      </trkpt>
      <trkpt lat="44.40682" lon="5.09938">
        <ele>455.8</ele>
        <time>2011-03-31T13:38:13Z</time>
      </trkpt>
      <trkpt lat="44.40674" lon="5.09921">
        <ele>455.32</ele>
        <time>2011-03-31T13:38:23Z</time>
      </trkpt>
      <trkpt lat="44.40664" lon="5.0991">
        <ele>454.36</ele>
        <time>2011-03-31T13:38:32Z</time>
      </trkpt>
      <trkpt lat="44.4066" lon="5.09904">
        <ele>454.36</ele>
        <time>2011-03-31T13:38:40Z</time>
      </trkpt>
      <trkpt lat="44.40651" lon="5.09896">
        <ele>453.88</ele>
        <time>2011-03-31T13:38:48Z</time>
      </trkpt>
      <trkpt lat="44.40644" lon="5.09888">
        <ele>453.4</ele>
        <time>2011-03-31T13:38:57Z</time>
      </trkpt>
      <trkpt lat="44.40635" lon="5.09874">
        <ele>452.44</ele>
        <time>2011-03-31T13:39:07Z</time>
      </trkpt>
      <trkpt lat="44.4063" lon="5.09859">
        <ele>451.96</ele>
        <time>2011-03-31T13:39:16Z</time>
      </trkpt>
      <trkpt lat="44.40625" lon="5.09842">
        <ele>451.48</ele>
        <time>2011-03-31T13:39:26Z</time>
      </trkpt>
      <trkpt lat="44.40621" lon="5.09839">
        <ele>451</ele>
        <time>2011-03-31T13:39:28Z</time>
      </trkpt>
      <trkpt lat="44.4062" lon="5.09833">
        <ele>451</ele>
        <time>2011-03-31T13:39:37Z</time>
      </trkpt>
      <trkpt lat="44.40614" lon="5.0982">
        <ele>451</ele>
        <time>2011-03-31T13:39:44Z</time>
      </trkpt>
      <trkpt lat="44.4061" lon="5.09814">
        <ele>450.52</ele>
        <time>2011-03-31T13:39:52Z</time>
      </trkpt>
      <trkpt lat="44.40601" lon="5.09799">
        <ele>450.03</ele>
        <time>2011-03-31T13:40:01Z</time>
      </trkpt>
      <trkpt lat="44.40595" lon="5.09797">
        <ele>449.07</ele>
        <time>2011-03-31T13:40:07Z</time>
      </trkpt>
      <trkpt lat="44.4059" lon="5.09782">
        <ele>449.07</ele>
        <time>2011-03-31T13:40:14Z</time>
      </trkpt>
      <trkpt lat="44.40586" lon="5.09783">
        <ele>449.55</ele>
        <time>2011-03-31T13:40:18Z</time>
      </trkpt>
      <trkpt lat="44.40579" lon="5.09771">
        <ele>448.11</ele>
        <time>2011-03-31T13:40:28Z</time>
      </trkpt>
      <trkpt lat="44.40578" lon="5.09755">
        <ele>448.11</ele>
        <time>2011-03-31T13:40:35Z</time>
      </trkpt>
      <trkpt lat="44.40571" lon="5.09747">
        <ele>448.11</ele>
        <time>2011-03-31T13:40:43Z</time>
      </trkpt>
      <trkpt lat="44.40566" lon="5.09738">
        <ele>448.11</ele>
        <time>2011-03-31T13:40:50Z</time>
      </trkpt>
      <trkpt lat="44.40565" lon="5.09728">
        <ele>447.15</ele>
        <time>2011-03-31T13:40:54Z</time>
      </trkpt>
      <trkpt lat="44.40559" lon="5.09726">
        <ele>447.15</ele>
        <time>2011-03-31T13:41:00Z</time>
      </trkpt>
      <trkpt lat="44.40552" lon="5.0971">
        <ele>446.19</ele>
        <time>2011-03-31T13:41:11Z</time>
      </trkpt>
      <trkpt lat="44.40545" lon="5.09698">
        <ele>445.23</ele>
        <time>2011-03-31T13:41:20Z</time>
      </trkpt>
      <trkpt lat="44.40536" lon="5.09686">
        <ele>445.23</ele>
        <time>2011-03-31T13:41:28Z</time>
      </trkpt>
      <trkpt lat="44.40531" lon="5.09674">
        <ele>444.75</ele>
        <time>2011-03-31T13:41:38Z</time>
      </trkpt>
      <trkpt lat="44.40528" lon="5.09672">
        <ele>444.27</ele>
        <time>2011-03-31T13:41:42Z</time>
      </trkpt>
      <trkpt lat="44.40521" lon="5.0966">
        <ele>443.79</ele>
        <time>2011-03-31T13:41:51Z</time>
      </trkpt>
      <trkpt lat="44.40512" lon="5.09643">
        <ele>443.31</ele>
        <time>2011-03-31T13:42:01Z</time>
      </trkpt>
      <trkpt lat="44.40506" lon="5.09631">
        <ele>443.31</ele>
        <time>2011-03-31T13:42:10Z</time>
      </trkpt>
      <trkpt lat="44.40501" lon="5.09625">
        <ele>442.82</ele>
        <time>2011-03-31T13:42:18Z</time>
      </trkpt>
      <trkpt lat="44.40489" lon="5.09621">
        <ele>442.34</ele>
        <time>2011-03-31T13:42:26Z</time>
      </trkpt>
      <trkpt lat="44.40479" lon="5.09614">
        <ele>441.86</ele>
        <time>2011-03-31T13:42:34Z</time>
      </trkpt>
      <trkpt lat="44.40472" lon="5.09606">
        <ele>441.38</ele>
        <time>2011-03-31T13:42:42Z</time>
      </trkpt>
      <trkpt lat="44.40465" lon="5.09599">
        <ele>441.38</ele>
        <time>2011-03-31T13:42:50Z</time>
      </trkpt>
      <trkpt lat="44.40462" lon="5.09596">
        <ele>441.38</ele>
        <time>2011-03-31T13:42:54Z</time>
      </trkpt>
      <trkpt lat="44.40454" lon="5.09582">
        <ele>440.9</ele>
        <time>2011-03-31T13:43:03Z</time>
      </trkpt>
      <trkpt lat="44.40445" lon="5.09566">
        <ele>439.94</ele>
        <time>2011-03-31T13:43:13Z</time>
      </trkpt>
      <trkpt lat="44.4044" lon="5.09561">
        <ele>439.94</ele>
        <time>2011-03-31T13:43:21Z</time>
      </trkpt>
      <trkpt lat="44.40435" lon="5.0955">
        <ele>438.98</ele>
        <time>2011-03-31T13:43:30Z</time>
      </trkpt>
      <trkpt lat="44.4043" lon="5.09544">
        <ele>438.98</ele>
        <time>2011-03-31T13:43:34Z</time>
      </trkpt>
      <trkpt lat="44.40426" lon="5.09528">
        <ele>438.02</ele>
        <time>2011-03-31T13:43:43Z</time>
      </trkpt>
      <trkpt lat="44.4042" lon="5.09519">
        <ele>438.5</ele>
        <time>2011-03-31T13:43:51Z</time>
      </trkpt>
      <trkpt lat="44.40417" lon="5.09505">
        <ele>438.02</ele>
        <time>2011-03-31T13:43:59Z</time>
      </trkpt>
      <trkpt lat="44.40413" lon="5.09492">
        <ele>437.54</ele>
        <time>2011-03-31T13:44:09Z</time>
      </trkpt>
      <trkpt lat="44.4041" lon="5.09479">
        <ele>437.54</ele>
        <time>2011-03-31T13:44:17Z</time>
      </trkpt>
      <trkpt lat="44.40403" lon="5.09465">
        <ele>437.54</ele>
        <time>2011-03-31T13:44:26Z</time>
      </trkpt>
      <trkpt lat="44.40398" lon="5.0945">
        <ele>437.54</ele>
        <time>2011-03-31T13:44:36Z</time>
      </trkpt>
      <trkpt lat="44.40396" lon="5.09445">
        <ele>437.06</ele>
        <time>2011-03-31T13:44:43Z</time>
      </trkpt>
      <trkpt lat="44.40392" lon="5.09437">
        <ele>436.1</ele>
        <time>2011-03-31T13:44:49Z</time>
      </trkpt>
      <trkpt lat="44.40388" lon="5.09427">
        <ele>436.1</ele>
        <time>2011-03-31T13:44:57Z</time>
      </trkpt>
      <trkpt lat="44.40388" lon="5.09419">
        <ele>435.61</ele>
        <time>2011-03-31T13:45:01Z</time>
      </trkpt>
      <trkpt lat="44.4038" lon="5.0941">
        <ele>435.61</ele>
        <time>2011-03-31T13:45:08Z</time>
      </trkpt>
      <trkpt lat="44.40378" lon="5.09403">
        <ele>435.13</ele>
        <time>2011-03-31T13:45:10Z</time>
      </trkpt>
      <trkpt lat="44.40373" lon="5.09403">
        <ele>434.65</ele>
        <time>2011-03-31T13:45:14Z</time>
      </trkpt>
      <trkpt lat="44.40373" lon="5.09402">
        <ele>434.65</ele>
        <time>2011-03-31T13:45:16Z</time>
      </trkpt>
      <trkpt lat="44.40366" lon="5.09399">
        <ele>434.17</ele>
        <time>2011-03-31T13:45:24Z</time>
      </trkpt>
      <trkpt lat="44.40359" lon="5.09394">
        <ele>433.69</ele>
        <time>2011-03-31T13:45:32Z</time>
      </trkpt>
      <trkpt lat="44.40362" lon="5.09394">
        <ele>433.69</ele>
        <time>2011-03-31T13:45:40Z</time>
      </trkpt>
      <trkpt lat="44.40354" lon="5.0939">
        <ele>433.21</ele>
        <time>2011-03-31T13:45:47Z</time>
      </trkpt>
      <trkpt lat="44.40354" lon="5.09385">
        <ele>433.21</ele>
        <time>2011-03-31T13:45:48Z</time>
      </trkpt>
      <trkpt lat="44.40345" lon="5.09386">
        <ele>432.73</ele>
        <time>2011-03-31T13:45:56Z</time>
      </trkpt>
      <trkpt lat="44.40334" lon="5.09379">
        <ele>432.25</ele>
        <time>2011-03-31T13:46:04Z</time>
      </trkpt>
      <trkpt lat="44.40327" lon="5.09377">
        <ele>431.29</ele>
        <time>2011-03-31T13:46:12Z</time>
      </trkpt>
      <trkpt lat="44.40318" lon="5.09374">
        <ele>430.81</ele>
        <time>2011-03-31T13:46:20Z</time>
      </trkpt>
      <trkpt lat="44.4031" lon="5.09369">
        <ele>430.33</ele>
        <time>2011-03-31T13:46:28Z</time>
      </trkpt>
      <trkpt lat="44.40303" lon="5.09363">
        <ele>430.81</ele>
        <time>2011-03-31T13:46:34Z</time>
      </trkpt>
      <trkpt lat="44.403" lon="5.09362">
        <ele>429.85</ele>
        <time>2011-03-31T13:46:38Z</time>
      </trkpt>
      <trkpt lat="44.40294" lon="5.0936">
        <ele>429.37</ele>
        <time>2011-03-31T13:46:42Z</time>
      </trkpt>
      <trkpt lat="44.40283" lon="5.0935">
        <ele>429.37</ele>
        <time>2011-03-31T13:46:52Z</time>
      </trkpt>
      <trkpt lat="44.40273" lon="5.09337">
        <ele>428.89</ele>
        <time>2011-03-31T13:47:03Z</time>
      </trkpt>
      <trkpt lat="44.40267" lon="5.0933">
        <ele>428.89</ele>
        <time>2011-03-31T13:47:11Z</time>
      </trkpt>
      <trkpt lat="44.40263" lon="5.09319">
        <ele>428.89</ele>
        <time>2011-03-31T13:47:19Z</time>
      </trkpt>
      <trkpt lat="44.40261" lon="5.09318">
        <ele>428.4</ele>
        <time>2011-03-31T13:47:20Z</time>
      </trkpt>
      <trkpt lat="44.40257" lon="5.09307">
        <ele>428.4</ele>
        <time>2011-03-31T13:47:31Z</time>
      </trkpt>
      <trkpt lat="44.40251" lon="5.09298">
        <ele>428.4</ele>
        <time>2011-03-31T13:47:39Z</time>
      </trkpt>
      <trkpt lat="44.40244" lon="5.09288">
        <ele>428.4</ele>
        <time>2011-03-31T13:47:46Z</time>
      </trkpt>
      <trkpt lat="44.40238" lon="5.09274">
        <ele>428.4</ele>
        <time>2011-03-31T13:47:56Z</time>
      </trkpt>
      <trkpt lat="44.40233" lon="5.09265">
        <ele>427.44</ele>
        <time>2011-03-31T13:48:04Z</time>
      </trkpt>
      <trkpt lat="44.40223" lon="5.09258">
        <ele>426.96</ele>
        <time>2011-03-31T13:48:13Z</time>
      </trkpt>
      <trkpt lat="44.40214" lon="5.09249">
        <ele>426.48</ele>
        <time>2011-03-31T13:48:22Z</time>
      </trkpt>
      <trkpt lat="44.40204" lon="5.09238">
        <ele>426</ele>
        <time>2011-03-31T13:48:30Z</time>
      </trkpt>
      <trkpt lat="44.40198" lon="5.09233">
        <ele>426</ele>
        <time>2011-03-31T13:48:39Z</time>
      </trkpt>
      <trkpt lat="44.4019" lon="5.0923">
        <ele>425.52</ele>
        <time>2011-03-31T13:48:46Z</time>
      </trkpt>
      <trkpt lat="44.40188" lon="5.09227">
        <ele>425.52</ele>
        <time>2011-03-31T13:48:48Z</time>
      </trkpt>
      <trkpt lat="44.40182" lon="5.09223">
        <ele>425.52</ele>
        <time>2011-03-31T13:48:56Z</time>
      </trkpt>
      <trkpt lat="44.40179" lon="5.09219">
        <ele>422.16</ele>
        <time>2011-03-31T13:48:59Z</time>
      </trkpt>
      <trkpt lat="44.40178" lon="5.09217">
        <ele>425.52</ele>
        <time>2011-03-31T13:49:00Z</time>
      </trkpt>
      <trkpt lat="44.40173" lon="5.09208">
        <ele>425.04</ele>
        <time>2011-03-31T13:49:08Z</time>
      </trkpt>
      <trkpt lat="44.40172" lon="5.09207">
        <ele>425.04</ele>
        <time>2011-03-31T13:49:10Z</time>
      </trkpt>
      <trkpt lat="44.40162" lon="5.09205">
        <ele>424.56</ele>
        <time>2011-03-31T13:49:18Z</time>
      </trkpt>
      <trkpt lat="44.40157" lon="5.09199">
        <ele>424.56</ele>
        <time>2011-03-31T13:49:26Z</time>
      </trkpt>
      <trkpt lat="44.40152" lon="5.09194">
        <ele>423.6</ele>
        <time>2011-03-31T13:49:30Z</time>
      </trkpt>
      <trkpt lat="44.4015" lon="5.09193">
        <ele>423.6</ele>
        <time>2011-03-31T13:49:32Z</time>
      </trkpt>
      <trkpt lat="44.40147" lon="5.09194">
        <ele>424.08</ele>
        <time>2011-03-31T13:49:35Z</time>
      </trkpt>
      <trkpt lat="44.40141" lon="5.09185">
        <ele>423.12</ele>
        <time>2011-03-31T13:49:42Z</time>
      </trkpt>
      <trkpt lat="44.4013" lon="5.09176">
        <ele>422.64</ele>
        <time>2011-03-31T13:49:50Z</time>
      </trkpt>
      <trkpt lat="44.40123" lon="5.09173">
        <ele>422.16</ele>
        <time>2011-03-31T13:49:58Z</time>
      </trkpt>
      <trkpt lat="44.40123" lon="5.09171">
        <ele>422.16</ele>
        <time>2011-03-31T13:49:59Z</time>
      </trkpt>
      <trkpt lat="44.40111" lon="5.09167">
        <ele>422.16</ele>
        <time>2011-03-31T13:50:07Z</time>
      </trkpt>
      <trkpt lat="44.40103" lon="5.09157">
        <ele>422.16</ele>
        <time>2011-03-31T13:50:17Z</time>
      </trkpt>
      <trkpt lat="44.40091" lon="5.0915">
        <ele>421.68</ele>
        <time>2011-03-31T13:50:27Z</time>
      </trkpt>
      <trkpt lat="44.40089" lon="5.09151">
        <ele>421.68</ele>
        <time>2011-03-31T13:50:28Z</time>
      </trkpt>
      <trkpt lat="44.40081" lon="5.09147">
        <ele>421.68</ele>
        <time>2011-03-31T13:50:35Z</time>
      </trkpt>
      <trkpt lat="44.40078" lon="5.09144">
        <ele>421.19</ele>
        <time>2011-03-31T13:50:39Z</time>
      </trkpt>
      <trkpt lat="44.40075" lon="5.09144">
        <ele>421.68</ele>
        <time>2011-03-31T13:50:42Z</time>
      </trkpt>
      <trkpt lat="44.40066" lon="5.09147">
        <ele>420.71</ele>
        <time>2011-03-31T13:50:51Z</time>
      </trkpt>
      <trkpt lat="44.40058" lon="5.09145">
        <ele>420.71</ele>
        <time>2011-03-31T13:50:58Z</time>
      </trkpt>
      <trkpt lat="44.40047" lon="5.09138">
        <ele>419.75</ele>
        <time>2011-03-31T13:51:07Z</time>
      </trkpt>
      <trkpt lat="44.40032" lon="5.0913">
        <ele>419.27</ele>
        <time>2011-03-31T13:51:16Z</time>
      </trkpt>
      <trkpt lat="44.40021" lon="5.09131">
        <ele>418.79</ele>
        <time>2011-03-31T13:51:26Z</time>
      </trkpt>
      <trkpt lat="44.40013" lon="5.09127">
        <ele>418.31</ele>
        <time>2011-03-31T13:51:33Z</time>
      </trkpt>
      <trkpt lat="44.40001" lon="5.09122">
        <ele>418.31</ele>
        <time>2011-03-31T13:51:42Z</time>
      </trkpt>
      <trkpt lat="44.39992" lon="5.09117">
        <ele>417.35</ele>
        <time>2011-03-31T13:51:51Z</time>
      </trkpt>
      <trkpt lat="44.39981" lon="5.09111">
        <ele>416.87</ele>
        <time>2011-03-31T13:52:01Z</time>
      </trkpt>
      <trkpt lat="44.39975" lon="5.0911">
        <ele>417.35</ele>
        <time>2011-03-31T13:52:06Z</time>
      </trkpt>
      <trkpt lat="44.3997" lon="5.0911">
        <ele>420.71</ele>
        <time>2011-03-31T13:52:12Z</time>
      </trkpt>
      <trkpt lat="44.3997" lon="5.09112">
        <ele>417.35</ele>
        <time>2011-03-31T13:52:13Z</time>
      </trkpt>
      <trkpt lat="44.39967" lon="5.09111">
        <ele>417.35</ele>
        <time>2011-03-31T13:52:18Z</time>
      </trkpt>
      <trkpt lat="44.39959" lon="5.09107">
        <ele>416.39</ele>
        <time>2011-03-31T13:52:28Z</time>
      </trkpt>
      <trkpt lat="44.39949" lon="5.09098">
        <ele>416.87</ele>
        <time>2011-03-31T13:52:37Z</time>
      </trkpt>
      <trkpt lat="44.39943" lon="5.09098">
        <ele>416.39</ele>
        <time>2011-03-31T13:52:46Z</time>
      </trkpt>
      <trkpt lat="44.39933" lon="5.09086">
        <ele>415.43</ele>
        <time>2011-03-31T13:52:54Z</time>
      </trkpt>
      <trkpt lat="44.39924" lon="5.09079">
        <ele>415.43</ele>
        <time>2011-03-31T13:53:03Z</time>
      </trkpt>
      <trkpt lat="44.39918" lon="5.09079">
        <ele>415.43</ele>
        <time>2011-03-31T13:53:10Z</time>
      </trkpt>
      <trkpt lat="44.39906" lon="5.09074">
        <ele>414.47</ele>
        <time>2011-03-31T13:53:18Z</time>
      </trkpt>
      <trkpt lat="44.39897" lon="5.09072">
        <ele>413.98</ele>
        <time>2011-03-31T13:53:28Z</time>
      </trkpt>
      <trkpt lat="44.39883" lon="5.09067">
        <ele>413.5</ele>
        <time>2011-03-31T13:53:41Z</time>
      </trkpt>
      <trkpt lat="44.39871" lon="5.09063">
        <ele>413.98</ele>
        <time>2011-03-31T13:53:50Z</time>
      </trkpt>
      <trkpt lat="44.39866" lon="5.0906">
        <ele>413.5</ele>
        <time>2011-03-31T13:53:57Z</time>
      </trkpt>
      <trkpt lat="44.39854" lon="5.09056">
        <ele>413.5</ele>
        <time>2011-03-31T13:54:05Z</time>
      </trkpt>
      <trkpt lat="44.39842" lon="5.09045">
        <ele>413.5</ele>
        <time>2011-03-31T13:54:13Z</time>
      </trkpt>
      <trkpt lat="44.39833" lon="5.09045">
        <ele>413.02</ele>
        <time>2011-03-31T13:54:20Z</time>
      </trkpt>
      <trkpt lat="44.39827" lon="5.09047">
        <ele>412.54</ele>
        <time>2011-03-31T13:54:28Z</time>
      </trkpt>
      <trkpt lat="44.39816" lon="5.09045">
        <ele>412.06</ele>
        <time>2011-03-31T13:54:38Z</time>
      </trkpt>
      <trkpt lat="44.39808" lon="5.09044">
        <ele>412.06</ele>
        <time>2011-03-31T13:54:46Z</time>
      </trkpt>
      <trkpt lat="44.398" lon="5.09043">
        <ele>412.54</ele>
        <time>2011-03-31T13:54:53Z</time>
      </trkpt>
      <trkpt lat="44.39791" lon="5.09043">
        <ele>412.06</ele>
        <time>2011-03-31T13:55:01Z</time>
      </trkpt>
      <trkpt lat="44.39787" lon="5.09042">
        <ele>412.06</ele>
        <time>2011-03-31T13:55:04Z</time>
      </trkpt>
      <trkpt lat="44.39776" lon="5.09043">
        <ele>411.58</ele>
        <time>2011-03-31T13:55:13Z</time>
      </trkpt>
      <trkpt lat="44.39764" lon="5.09042">
        <ele>411.1</ele>
        <time>2011-03-31T13:55:22Z</time>
      </trkpt>
      <trkpt lat="44.39751" lon="5.09038">
        <ele>411.1</ele>
        <time>2011-03-31T13:55:30Z</time>
      </trkpt>
      <trkpt lat="44.3974" lon="5.09042">
        <ele>410.62</ele>
        <time>2011-03-31T13:55:41Z</time>
      </trkpt>
      <trkpt lat="44.3973" lon="5.09043">
        <ele>410.62</ele>
        <time>2011-03-31T13:55:49Z</time>
      </trkpt>
      <trkpt lat="44.3972" lon="5.09047">
        <ele>410.14</ele>
        <time>2011-03-31T13:55:59Z</time>
      </trkpt>
      <trkpt lat="44.39713" lon="5.09053">
        <ele>410.62</ele>
        <time>2011-03-31T13:56:07Z</time>
      </trkpt>
      <trkpt lat="44.39704" lon="5.09061">
        <ele>410.14</ele>
        <time>2011-03-31T13:56:16Z</time>
      </trkpt>
      <trkpt lat="44.39697" lon="5.09065">
        <ele>410.14</ele>
        <time>2011-03-31T13:56:23Z</time>
      </trkpt>
      <trkpt lat="44.39696" lon="5.09066">
        <ele>410.14</ele>
        <time>2011-03-31T13:56:24Z</time>
      </trkpt>
      <trkpt lat="44.39691" lon="5.09068">
        <ele>409.66</ele>
        <time>2011-03-31T13:56:29Z</time>
      </trkpt>
      <trkpt lat="44.39681" lon="5.0907">
        <ele>410.14</ele>
        <time>2011-03-31T13:56:37Z</time>
      </trkpt>
      <trkpt lat="44.39671" lon="5.09074">
        <ele>410.14</ele>
        <time>2011-03-31T13:56:45Z</time>
      </trkpt>
      <trkpt lat="44.3966" lon="5.09076">
        <ele>410.14</ele>
        <time>2011-03-31T13:56:53Z</time>
      </trkpt>
      <trkpt lat="44.39651" lon="5.09079">
        <ele>410.14</ele>
        <time>2011-03-31T13:57:01Z</time>
      </trkpt>
      <trkpt lat="44.39639" lon="5.09074">
        <ele>410.14</ele>
        <time>2011-03-31T13:57:12Z</time>
      </trkpt>
      <trkpt lat="44.39635" lon="5.09078">
        <ele>410.14</ele>
        <time>2011-03-31T13:57:19Z</time>
      </trkpt>
      <trkpt lat="44.3963" lon="5.09076">
        <ele>410.14</ele>
        <time>2011-03-31T13:57:22Z</time>
      </trkpt>
      <trkpt lat="44.39626" lon="5.09078">
        <ele>409.66</ele>
        <time>2011-03-31T13:57:24Z</time>
      </trkpt>
      <trkpt lat="44.39628" lon="5.09082">
        <ele>409.66</ele>
        <time>2011-03-31T13:57:28Z</time>
      </trkpt>
      <trkpt lat="44.39638" lon="5.09088">
        <ele>408.22</ele>
        <time>2011-03-31T13:57:37Z</time>
      </trkpt>
      <trkpt lat="44.39638" lon="5.09094">
        <ele>407.26</ele>
        <time>2011-03-31T13:57:42Z</time>
      </trkpt>
      <trkpt lat="44.39632" lon="5.09098">
        <ele>406.77</ele>
        <time>2011-03-31T13:57:50Z</time>
      </trkpt>
      <trkpt lat="44.3963" lon="5.09106">
        <ele>405.81</ele>
        <time>2011-03-31T13:57:58Z</time>
      </trkpt>
      <trkpt lat="44.39633" lon="5.09113">
        <ele>403.41</ele>
        <time>2011-03-31T13:58:11Z</time>
      </trkpt>
      <trkpt lat="44.39635" lon="5.09111">
        <ele>403.89</ele>
        <time>2011-03-31T13:58:32Z</time>
      </trkpt>
      <trkpt lat="44.39635" lon="5.09111">
        <ele>400.05</ele>
        <time>2011-03-31T13:58:36Z</time>
      </trkpt>
      <trkpt lat="44.39635" lon="5.09111">
        <ele>405.33</ele>
        <time>2011-03-31T13:58:37Z</time>
      </trkpt>
      <trkpt lat="44.39625" lon="5.09101">
        <ele>405.81</ele>
        <time>2011-03-31T13:58:57Z</time>
      </trkpt>
      <trkpt lat="44.39617" lon="5.09106">
        <ele>405.33</ele>
        <time>2011-03-31T13:59:06Z</time>
      </trkpt>
      <trkpt lat="44.39606" lon="5.09107">
        <ele>405.33</ele>
        <time>2011-03-31T13:59:14Z</time>
      </trkpt>
      <trkpt lat="44.39597" lon="5.0911">
        <ele>404.85</ele>
        <time>2011-03-31T13:59:22Z</time>
      </trkpt>
      <trkpt lat="44.39587" lon="5.09108">
        <ele>403.89</ele>
        <time>2011-03-31T13:59:31Z</time>
      </trkpt>
      <trkpt lat="44.39581" lon="5.09112">
        <ele>404.37</ele>
        <time>2011-03-31T13:59:36Z</time>
      </trkpt>
      <trkpt lat="44.39576" lon="5.09109">
        <ele>404.37</ele>
        <time>2011-03-31T13:59:40Z</time>
      </trkpt>
      <trkpt lat="44.39566" lon="5.09111">
        <ele>404.37</ele>
        <time>2011-03-31T13:59:50Z</time>
      </trkpt>
      <trkpt lat="44.39554" lon="5.09111">
        <ele>404.37</ele>
        <time>2011-03-31T14:00:00Z</time>
      </trkpt>
      <trkpt lat="44.39551" lon="5.09114">
        <ele>403.89</ele>
        <time>2011-03-31T14:00:09Z</time>
      </trkpt>
      <trkpt lat="44.39542" lon="5.09116">
        <ele>403.89</ele>
        <time>2011-03-31T14:00:18Z</time>
      </trkpt>
      <trkpt lat="44.3953" lon="5.09117">
        <ele>403.41</ele>
        <time>2011-03-31T14:00:27Z</time>
      </trkpt>
      <trkpt lat="44.39521" lon="5.09114">
        <ele>402.45</ele>
        <time>2011-03-31T14:00:34Z</time>
      </trkpt>
      <trkpt lat="44.39512" lon="5.09116">
        <ele>401.97</ele>
        <time>2011-03-31T14:00:41Z</time>
      </trkpt>
      <trkpt lat="44.395" lon="5.09119">
        <ele>402.45</ele>
        <time>2011-03-31T14:00:49Z</time>
      </trkpt>
      <trkpt lat="44.39489" lon="5.09121">
        <ele>401.97</ele>
        <time>2011-03-31T14:00:57Z</time>
      </trkpt>
      <trkpt lat="44.39484" lon="5.09123">
        <ele>401.01</ele>
        <time>2011-03-31T14:01:05Z</time>
      </trkpt>
      <trkpt lat="44.39477" lon="5.09131">
        <ele>400.53</ele>
        <time>2011-03-31T14:01:14Z</time>
      </trkpt>
      <trkpt lat="44.39466" lon="5.09135">
        <ele>400.05</ele>
        <time>2011-03-31T14:01:22Z</time>
      </trkpt>
      <trkpt lat="44.39462" lon="5.09135">
        <ele>400.05</ele>
        <time>2011-03-31T14:01:25Z</time>
      </trkpt>
      <trkpt lat="44.39452" lon="5.09135">
        <ele>399.57</ele>
        <time>2011-03-31T14:01:34Z</time>
      </trkpt>
      <trkpt lat="44.39444" lon="5.09141">
        <ele>399.57</ele>
        <time>2011-03-31T14:01:42Z</time>
      </trkpt>
      <trkpt lat="44.39435" lon="5.09144">
        <ele>398.6</ele>
        <time>2011-03-31T14:01:51Z</time>
      </trkpt>
      <trkpt lat="44.39426" lon="5.09148">
        <ele>399.57</ele>
        <time>2011-03-31T14:01:59Z</time>
      </trkpt>
      <trkpt lat="44.39424" lon="5.09149">
        <ele>399.08</ele>
        <time>2011-03-31T14:02:01Z</time>
      </trkpt>
      <trkpt lat="44.39419" lon="5.09156">
        <ele>399.57</ele>
        <time>2011-03-31T14:02:09Z</time>
      </trkpt>
      <trkpt lat="44.39418" lon="5.0916">
        <ele>401.01</ele>
        <time>2011-03-31T14:02:11Z</time>
      </trkpt>
      <trkpt lat="44.39412" lon="5.09172">
        <ele>401.01</ele>
        <time>2011-03-31T14:02:21Z</time>
      </trkpt>
      <trkpt lat="44.39412" lon="5.09182">
        <ele>401.49</ele>
        <time>2011-03-31T14:02:29Z</time>
      </trkpt>
      <trkpt lat="44.39414" lon="5.09192">
        <ele>401.01</ele>
        <time>2011-03-31T14:02:38Z</time>
      </trkpt>
      <trkpt lat="44.39412" lon="5.09195">
        <ele>401.01</ele>
        <time>2011-03-31T14:02:46Z</time>
      </trkpt>
      <trkpt lat="44.39414" lon="5.09198">
        <ele>401.01</ele>
        <time>2011-03-31T14:02:56Z</time>
      </trkpt>
      <trkpt lat="44.39414" lon="5.09198">
        <ele>401.49</ele>
        <time>2011-03-31T14:02:57Z</time>
      </trkpt>
      <trkpt lat="44.3942" lon="5.09216">
        <ele>401.01</ele>
        <time>2011-03-31T14:03:10Z</time>
      </trkpt>
      <trkpt lat="44.39422" lon="5.09227">
        <ele>401.01</ele>
        <time>2011-03-31T14:03:16Z</time>
      </trkpt>
      <trkpt lat="44.39422" lon="5.09242">
        <ele>400.53</ele>
        <time>2011-03-31T14:03:23Z</time>
      </trkpt>
      <trkpt lat="44.39431" lon="5.09253">
        <ele>401.01</ele>
        <time>2011-03-31T14:03:32Z</time>
      </trkpt>
      <trkpt lat="44.39433" lon="5.09258">
        <ele>401.97</ele>
        <time>2011-03-31T14:03:36Z</time>
      </trkpt>
      <trkpt lat="44.3944" lon="5.09277">
        <ele>401.01</ele>
        <time>2011-03-31T14:03:47Z</time>
      </trkpt>
      <trkpt lat="44.39439" lon="5.09284">
        <ele>400.53</ele>
        <time>2011-03-31T14:03:51Z</time>
      </trkpt>
      <trkpt lat="44.39438" lon="5.09295">
        <ele>401.01</ele>
        <time>2011-03-31T14:03:59Z</time>
      </trkpt>
      <trkpt lat="44.39441" lon="5.09305">
        <ele>400.53</ele>
        <time>2011-03-31T14:04:09Z</time>
      </trkpt>
      <trkpt lat="44.39439" lon="5.09315">
        <ele>401.01</ele>
        <time>2011-03-31T14:04:15Z</time>
      </trkpt>
      <trkpt lat="44.39433" lon="5.09319">
        <ele>401.01</ele>
        <time>2011-03-31T14:04:21Z</time>
      </trkpt>
      <trkpt lat="44.39434" lon="5.0933">
        <ele>401.01</ele>
        <time>2011-03-31T14:04:29Z</time>
      </trkpt>
      <trkpt lat="44.39432" lon="5.09331">
        <ele>401.01</ele>
        <time>2011-03-31T14:04:30Z</time>
      </trkpt>
      <trkpt lat="44.39425" lon="5.09341">
        <ele>401.01</ele>
        <time>2011-03-31T14:04:38Z</time>
      </trkpt>
      <trkpt lat="44.39419" lon="5.09349">
        <ele>401.01</ele>
        <time>2011-03-31T14:04:47Z</time>
      </trkpt>
      <trkpt lat="44.39408" lon="5.09358">
        <ele>401.49</ele>
        <time>2011-03-31T14:04:55Z</time>
      </trkpt>
      <trkpt lat="44.39402" lon="5.09364">
        <ele>401.49</ele>
        <time>2011-03-31T14:05:04Z</time>
      </trkpt>
      <trkpt lat="44.394" lon="5.09373">
        <ele>401.49</ele>
        <time>2011-03-31T14:05:10Z</time>
      </trkpt>
      <trkpt lat="44.39384" lon="5.09367">
        <ele>401.49</ele>
        <time>2011-03-31T14:05:20Z</time>
      </trkpt>
      <trkpt lat="44.39372" lon="5.09369">
        <ele>401.97</ele>
        <time>2011-03-31T14:05:30Z</time>
      </trkpt>
      <trkpt lat="44.39368" lon="5.09371">
        <ele>401.97</ele>
        <time>2011-03-31T14:05:33Z</time>
      </trkpt>
      <trkpt lat="44.39354" lon="5.09366">
        <ele>401.97</ele>
        <time>2011-03-31T14:05:42Z</time>
      </trkpt>
      <trkpt lat="44.39347" lon="5.09369">
        <ele>402.45</ele>
        <time>2011-03-31T14:05:49Z</time>
      </trkpt>
      <trkpt lat="44.39339" lon="5.09371">
        <ele>402.45</ele>
        <time>2011-03-31T14:05:57Z</time>
      </trkpt>
      <trkpt lat="44.39328" lon="5.09373">
        <ele>402.45</ele>
        <time>2011-03-31T14:06:06Z</time>
      </trkpt>
      <trkpt lat="44.39318" lon="5.09373">
        <ele>402.45</ele>
        <time>2011-03-31T14:06:15Z</time>
      </trkpt>
      <trkpt lat="44.39307" lon="5.09378">
        <ele>402.45</ele>
        <time>2011-03-31T14:06:24Z</time>
      </trkpt>
      <trkpt lat="44.393" lon="5.09386">
        <ele>403.41</ele>
        <time>2011-03-31T14:06:32Z</time>
      </trkpt>
      <trkpt lat="44.39292" lon="5.09394">
        <ele>404.37</ele>
        <time>2011-03-31T14:06:42Z</time>
      </trkpt>
      <trkpt lat="44.39285" lon="5.09403">
        <ele>405.33</ele>
        <time>2011-03-31T14:06:51Z</time>
      </trkpt>
      <trkpt lat="44.39277" lon="5.09414">
        <ele>405.81</ele>
        <time>2011-03-31T14:07:01Z</time>
      </trkpt>
      <trkpt lat="44.39268" lon="5.09428">
        <ele>406.29</ele>
        <time>2011-03-31T14:07:11Z</time>
      </trkpt>
      <trkpt lat="44.39267" lon="5.09433">
        <ele>406.77</ele>
        <time>2011-03-31T14:07:14Z</time>
      </trkpt>
      <trkpt lat="44.39262" lon="5.09445">
        <ele>406.77</ele>
        <time>2011-03-31T14:07:25Z</time>
      </trkpt>
      <trkpt lat="44.39256" lon="5.09457">
        <ele>407.26</ele>
        <time>2011-03-31T14:07:34Z</time>
      </trkpt>
      <trkpt lat="44.39252" lon="5.09469">
        <ele>406.77</ele>
        <time>2011-03-31T14:07:41Z</time>
      </trkpt>
      <trkpt lat="44.39245" lon="5.09482">
        <ele>406.77</ele>
        <time>2011-03-31T14:07:50Z</time>
      </trkpt>
      <trkpt lat="44.39241" lon="5.09496">
        <ele>407.26</ele>
        <time>2011-03-31T14:08:00Z</time>
      </trkpt>
      <trkpt lat="44.39234" lon="5.09509">
        <ele>406.77</ele>
        <time>2011-03-31T14:08:08Z</time>
      </trkpt>
      <trkpt lat="44.39231" lon="5.09521">
        <ele>406.77</ele>
        <time>2011-03-31T14:08:17Z</time>
      </trkpt>
      <trkpt lat="44.39226" lon="5.09538">
        <ele>406.29</ele>
        <time>2011-03-31T14:08:28Z</time>
      </trkpt>
      <trkpt lat="44.39217" lon="5.09551">
        <ele>406.29</ele>
        <time>2011-03-31T14:08:38Z</time>
      </trkpt>
      <trkpt lat="44.39216" lon="5.09553">
        <ele>405.81</ele>
        <time>2011-03-31T14:08:39Z</time>
      </trkpt>
      <trkpt lat="44.39212" lon="5.09559">
        <ele>405.81</ele>
        <time>2011-03-31T14:08:44Z</time>
      </trkpt>
      <trkpt lat="44.39205" lon="5.09572">
        <ele>406.29</ele>
        <time>2011-03-31T14:08:54Z</time>
      </trkpt>
      <trkpt lat="44.39204" lon="5.09584">
        <ele>405.81</ele>
        <time>2011-03-31T14:09:02Z</time>
      </trkpt>
      <trkpt lat="44.39198" lon="5.09591">
        <ele>405.81</ele>
        <time>2011-03-31T14:09:09Z</time>
      </trkpt>
      <trkpt lat="44.3919" lon="5.096">
        <ele>406.29</ele>
        <time>2011-03-31T14:09:18Z</time>
      </trkpt>
      <trkpt lat="44.39192" lon="5.09603">
        <ele>405.81</ele>
        <time>2011-03-31T14:09:20Z</time>
      </trkpt>
      <trkpt lat="44.39187" lon="5.09614">
        <ele>406.29</ele>
        <time>2011-03-31T14:09:29Z</time>
      </trkpt>
      <trkpt lat="44.39179" lon="5.0963">
        <ele>406.29</ele>
        <time>2011-03-31T14:09:37Z</time>
      </trkpt>
      <trkpt lat="44.39177" lon="5.09632">
        <ele>406.29</ele>
        <time>2011-03-31T14:09:41Z</time>
      </trkpt>
      <trkpt lat="44.39171" lon="5.09642">
        <ele>406.29</ele>
        <time>2011-03-31T14:09:51Z</time>
      </trkpt>
      <trkpt lat="44.39168" lon="5.09655">
        <ele>406.29</ele>
        <time>2011-03-31T14:09:58Z</time>
      </trkpt>
      <trkpt lat="44.39164" lon="5.09663">
        <ele>406.77</ele>
        <time>2011-03-31T14:10:05Z</time>
      </trkpt>
      <trkpt lat="44.39159" lon="5.09672">
        <ele>407.74</ele>
        <time>2011-03-31T14:10:13Z</time>
      </trkpt>
      <trkpt lat="44.39153" lon="5.09683">
        <ele>406.77</ele>
        <time>2011-03-31T14:10:21Z</time>
      </trkpt>
      <trkpt lat="44.39149" lon="5.09691">
        <ele>408.22</ele>
        <time>2011-03-31T14:10:29Z</time>
      </trkpt>
      <trkpt lat="44.39145" lon="5.097">
        <ele>408.22</ele>
        <time>2011-03-31T14:10:35Z</time>
      </trkpt>
      <trkpt lat="44.39141" lon="5.0971">
        <ele>408.22</ele>
        <time>2011-03-31T14:10:42Z</time>
      </trkpt>
      <trkpt lat="44.39135" lon="5.0972">
        <ele>408.7</ele>
        <time>2011-03-31T14:10:52Z</time>
      </trkpt>
      <trkpt lat="44.39133" lon="5.09729">
        <ele>409.18</ele>
        <time>2011-03-31T14:10:59Z</time>
      </trkpt>
      <trkpt lat="44.3913" lon="5.09735">
        <ele>409.66</ele>
        <time>2011-03-31T14:11:02Z</time>
      </trkpt>
      <trkpt lat="44.39125" lon="5.09743">
        <ele>410.14</ele>
        <time>2011-03-31T14:11:10Z</time>
      </trkpt>
      <trkpt lat="44.3912" lon="5.09751">
        <ele>410.14</ele>
        <time>2011-03-31T14:11:17Z</time>
      </trkpt>
      <trkpt lat="44.39117" lon="5.09759">
        <ele>410.62</ele>
        <time>2011-03-31T14:11:24Z</time>
      </trkpt>
      <trkpt lat="44.39111" lon="5.0977">
        <ele>411.1</ele>
        <time>2011-03-31T14:11:33Z</time>
      </trkpt>
      <trkpt lat="44.39107" lon="5.09778">
        <ele>412.06</ele>
        <time>2011-03-31T14:11:41Z</time>
      </trkpt>
      <trkpt lat="44.39105" lon="5.0978">
        <ele>412.06</ele>
        <time>2011-03-31T14:11:43Z</time>
      </trkpt>
      <trkpt lat="44.391" lon="5.09793">
        <ele>412.54</ele>
        <time>2011-03-31T14:11:54Z</time>
      </trkpt>
      <trkpt lat="44.39096" lon="5.09796">
        <ele>413.02</ele>
        <time>2011-03-31T14:12:02Z</time>
      </trkpt>
      <trkpt lat="44.39094" lon="5.09801">
        <ele>412.06</ele>
        <time>2011-03-31T14:12:10Z</time>
      </trkpt>
      <trkpt lat="44.39093" lon="5.098">
        <ele>413.5</ele>
        <time>2011-03-31T14:12:29Z</time>
      </trkpt>
      <trkpt lat="44.39093" lon="5.09801">
        <ele>413.02</ele>
        <time>2011-03-31T14:12:40Z</time>
      </trkpt>
      <trkpt lat="44.39094" lon="5.09801">
        <ele>412.06</ele>
        <time>2011-03-31T14:12:49Z</time>
      </trkpt>
      <trkpt lat="44.39094" lon="5.09801">
        <ele>407.26</ele>
        <time>2011-03-31T14:12:56Z</time>
      </trkpt>
      <trkpt lat="44.39094" lon="5.09801">
        <ele>413.02</ele>
        <time>2011-03-31T14:12:57Z</time>
      </trkpt>
      <trkpt lat="44.39094" lon="5.09801">
        <ele>411.58</ele>
        <time>2011-03-31T14:13:35Z</time>
      </trkpt>
      <trkpt lat="44.39094" lon="5.09801">
        <ele>414.47</ele>
        <time>2011-03-31T14:13:47Z</time>
      </trkpt>
      <trkpt lat="44.39094" lon="5.09801">
        <ele>410.14</ele>
        <time>2011-03-31T14:13:53Z</time>
      </trkpt>
    </trkseg>
  </trk>
</gpx>